<?xml version="1.0" encoding="UTF-8" standalone="no" ?>
<gpx xmlns="http://www.topografix.com/GPX/1/1" xmlns:xsi="http://www.w3.org/2001/XMLSchema-instance" xsi:schemaLocation="http://www.topografix.com/GPX/1/1 http://www.topografix.com/GPX/1/1/gpx.xsd" version="1.1" creator="VisuGPX - https://www.visugpx.com">
  <metadata>
    <name>VTT-Bigreen 2012</name>
    <desc><![CDATA[St Vallier-Mandelieu]]></desc>
  </metadata>
  <trk>
    <name><![CDATA[Bigreen 2012 St Vallier-Mandelieu]]></name>
    <trkseg>
      <trkpt lat="43.69923" lon="6.85116">
        <ele>717.59997558594</ele>
        <time>2012-03-11T07:59:45.000Z</time>
      </trkpt>
      <trkpt lat="43.69923" lon="6.85115">
        <ele>717.59997558594</ele>
        <time>2012-03-11T07:59:51.000Z</time>
      </trkpt>
      <trkpt lat="43.69924" lon="6.85114">
        <ele>717.59997558594</ele>
        <time>2012-03-11T08:00:21.000Z</time>
      </trkpt>
      <trkpt lat="43.69919" lon="6.85111">
        <ele>717.20001220703</ele>
        <time>2012-03-11T08:00:25.000Z</time>
      </trkpt>
      <trkpt lat="43.69913" lon="6.85098">
        <ele>716.59997558594</ele>
        <time>2012-03-11T08:00:31.000Z</time>
      </trkpt>
      <trkpt lat="43.699" lon="6.85088">
        <ele>716.20001220703</ele>
        <time>2012-03-11T08:00:36.000Z</time>
      </trkpt>
      <trkpt lat="43.6988" lon="6.85076">
        <ele>716</ele>
        <time>2012-03-11T08:00:43.000Z</time>
      </trkpt>
      <trkpt lat="43.69851" lon="6.85059">
        <ele>716.20001220703</ele>
        <time>2012-03-11T08:00:53.000Z</time>
      </trkpt>
      <trkpt lat="43.69838" lon="6.85051">
        <ele>716.40002441406</ele>
        <time>2012-03-11T08:00:58.000Z</time>
      </trkpt>
      <trkpt lat="43.69832" lon="6.85061">
        <ele>716.20001220703</ele>
        <time>2012-03-11T08:01:03.000Z</time>
      </trkpt>
      <trkpt lat="43.69832" lon="6.85076">
        <ele>716</ele>
        <time>2012-03-11T08:01:09.000Z</time>
      </trkpt>
      <trkpt lat="43.69832" lon="6.8508">
        <ele>716</ele>
        <time>2012-03-11T08:01:10.000Z</time>
      </trkpt>
      <trkpt lat="43.69825" lon="6.85103">
        <ele>716.40002441406</ele>
        <time>2012-03-11T08:01:17.000Z</time>
      </trkpt>
      <trkpt lat="43.69818" lon="6.8512">
        <ele>716.79998779297</ele>
        <time>2012-03-11T08:01:23.000Z</time>
      </trkpt>
      <trkpt lat="43.69805" lon="6.85156">
        <ele>717.40002441406</ele>
        <time>2012-03-11T08:01:33.000Z</time>
      </trkpt>
      <trkpt lat="43.69789" lon="6.85199">
        <ele>718.40002441406</ele>
        <time>2012-03-11T08:01:44.000Z</time>
      </trkpt>
      <trkpt lat="43.69774" lon="6.85236">
        <ele>719.20001220703</ele>
        <time>2012-03-11T08:01:54.000Z</time>
      </trkpt>
      <trkpt lat="43.6976" lon="6.85268">
        <ele>720.20001220703</ele>
        <time>2012-03-11T08:02:03.000Z</time>
      </trkpt>
      <trkpt lat="43.69747" lon="6.85286">
        <ele>720.59997558594</ele>
        <time>2012-03-11T08:02:10.000Z</time>
      </trkpt>
      <trkpt lat="43.69726" lon="6.85302">
        <ele>720.59997558594</ele>
        <time>2012-03-11T08:02:19.000Z</time>
      </trkpt>
      <trkpt lat="43.69704" lon="6.85329">
        <ele>721.20001220703</ele>
        <time>2012-03-11T08:02:29.000Z</time>
      </trkpt>
      <trkpt lat="43.69681" lon="6.85355">
        <ele>721.40002441406</ele>
        <time>2012-03-11T08:02:39.000Z</time>
      </trkpt>
      <trkpt lat="43.69676" lon="6.85358">
        <ele>721.40002441406</ele>
        <time>2012-03-11T08:02:41.000Z</time>
      </trkpt>
      <trkpt lat="43.69668" lon="6.85348">
        <ele>720.59997558594</ele>
        <time>2012-03-11T08:02:45.000Z</time>
      </trkpt>
      <trkpt lat="43.69664" lon="6.85322">
        <ele>719.40002441406</ele>
        <time>2012-03-11T08:02:49.000Z</time>
      </trkpt>
      <trkpt lat="43.69654" lon="6.85297">
        <ele>717.59997558594</ele>
        <time>2012-03-11T08:02:53.000Z</time>
      </trkpt>
      <trkpt lat="43.69638" lon="6.85283">
        <ele>716.40002441406</ele>
        <time>2012-03-11T08:02:58.000Z</time>
      </trkpt>
      <trkpt lat="43.69633" lon="6.85286">
        <ele>716.40002441406</ele>
        <time>2012-03-11T08:03:00.000Z</time>
      </trkpt>
      <trkpt lat="43.69621" lon="6.8531">
        <ele>716.79998779297</ele>
        <time>2012-03-11T08:03:07.000Z</time>
      </trkpt>
      <trkpt lat="43.69612" lon="6.85338">
        <ele>717.59997558594</ele>
        <time>2012-03-11T08:03:14.000Z</time>
      </trkpt>
      <trkpt lat="43.69598" lon="6.85383">
        <ele>718.59997558594</ele>
        <time>2012-03-11T08:03:24.000Z</time>
      </trkpt>
      <trkpt lat="43.69582" lon="6.8542">
        <ele>719</ele>
        <time>2012-03-11T08:03:33.000Z</time>
      </trkpt>
      <trkpt lat="43.69562" lon="6.85454">
        <ele>719.40002441406</ele>
        <time>2012-03-11T08:03:42.000Z</time>
      </trkpt>
      <trkpt lat="43.69547" lon="6.85479">
        <ele>719.79998779297</ele>
        <time>2012-03-11T08:03:49.000Z</time>
      </trkpt>
      <trkpt lat="43.69542" lon="6.85487">
        <ele>720</ele>
        <time>2012-03-11T08:03:52.000Z</time>
      </trkpt>
      <trkpt lat="43.69543" lon="6.85492">
        <ele>720.20001220703</ele>
        <time>2012-03-11T08:03:57.000Z</time>
      </trkpt>
      <trkpt lat="43.69545" lon="6.85494">
        <ele>720.40002441406</ele>
        <time>2012-03-11T08:04:04.000Z</time>
      </trkpt>
      <trkpt lat="43.69545" lon="6.85494">
        <ele>720.40002441406</ele>
        <time>2012-03-11T08:04:30.000Z</time>
      </trkpt>
      <trkpt lat="43.69545" lon="6.85492">
        <ele>720.20001220703</ele>
        <time>2012-03-11T08:04:42.000Z</time>
      </trkpt>
      <trkpt lat="43.69543" lon="6.85491">
        <ele>720.20001220703</ele>
        <time>2012-03-11T08:04:48.000Z</time>
      </trkpt>
      <trkpt lat="43.69537" lon="6.85493">
        <ele>720.20001220703</ele>
        <time>2012-03-11T08:04:52.000Z</time>
      </trkpt>
      <trkpt lat="43.69525" lon="6.85507">
        <ele>720.59997558594</ele>
        <time>2012-03-11T08:04:59.000Z</time>
      </trkpt>
      <trkpt lat="43.69508" lon="6.85526">
        <ele>720.79998779297</ele>
        <time>2012-03-11T08:05:07.000Z</time>
      </trkpt>
      <trkpt lat="43.69504" lon="6.85531">
        <ele>720.79998779297</ele>
        <time>2012-03-11T08:05:12.000Z</time>
      </trkpt>
      <trkpt lat="43.69505" lon="6.85531">
        <ele>720.79998779297</ele>
        <time>2012-03-11T08:05:19.000Z</time>
      </trkpt>
      <trkpt lat="43.69506" lon="6.85529">
        <ele>720.79998779297</ele>
        <time>2012-03-11T08:05:25.000Z</time>
      </trkpt>
      <trkpt lat="43.69506" lon="6.85528">
        <ele>720.79998779297</ele>
        <time>2012-03-11T08:05:38.000Z</time>
      </trkpt>
      <trkpt lat="43.69505" lon="6.85528">
        <ele>720.79998779297</ele>
        <time>2012-03-11T08:05:43.000Z</time>
      </trkpt>
      <trkpt lat="43.69504" lon="6.85522">
        <ele>720.59997558594</ele>
        <time>2012-03-11T08:06:01.000Z</time>
      </trkpt>
      <trkpt lat="43.69507" lon="6.85523">
        <ele>720.59997558594</ele>
        <time>2012-03-11T08:06:27.000Z</time>
      </trkpt>
      <trkpt lat="43.69504" lon="6.85521">
        <ele>720.59997558594</ele>
        <time>2012-03-11T08:06:59.000Z</time>
      </trkpt>
      <trkpt lat="43.69505" lon="6.85524">
        <ele>720.59997558594</ele>
        <time>2012-03-11T08:07:13.000Z</time>
      </trkpt>
      <trkpt lat="43.69504" lon="6.85526">
        <ele>720.79998779297</ele>
        <time>2012-03-11T08:07:21.000Z</time>
      </trkpt>
      <trkpt lat="43.69505" lon="6.85528">
        <ele>720.79998779297</ele>
        <time>2012-03-11T08:07:27.000Z</time>
      </trkpt>
      <trkpt lat="43.69506" lon="6.85531">
        <ele>720.79998779297</ele>
        <time>2012-03-11T08:07:40.000Z</time>
      </trkpt>
      <trkpt lat="43.69505" lon="6.85531">
        <ele>720.79998779297</ele>
        <time>2012-03-11T08:07:48.000Z</time>
      </trkpt>
      <trkpt lat="43.69504" lon="6.8553">
        <ele>720.79998779297</ele>
        <time>2012-03-11T08:07:55.000Z</time>
      </trkpt>
      <trkpt lat="43.69496" lon="6.85533">
        <ele>720.79998779297</ele>
        <time>2012-03-11T08:08:01.000Z</time>
      </trkpt>
      <trkpt lat="43.69485" lon="6.85542">
        <ele>721</ele>
        <time>2012-03-11T08:08:07.000Z</time>
      </trkpt>
      <trkpt lat="43.69468" lon="6.85553">
        <ele>721.20001220703</ele>
        <time>2012-03-11T08:08:14.000Z</time>
      </trkpt>
      <trkpt lat="43.69465" lon="6.85556">
        <ele>721.20001220703</ele>
        <time>2012-03-11T08:08:17.000Z</time>
      </trkpt>
      <trkpt lat="43.6945" lon="6.8556">
        <ele>721.20001220703</ele>
        <time>2012-03-11T08:08:23.000Z</time>
      </trkpt>
      <trkpt lat="43.69445" lon="6.85566">
        <ele>721.40002441406</ele>
        <time>2012-03-11T08:08:25.000Z</time>
      </trkpt>
      <trkpt lat="43.69426" lon="6.85593">
        <ele>722.20001220703</ele>
        <time>2012-03-11T08:08:33.000Z</time>
      </trkpt>
      <trkpt lat="43.69415" lon="6.85616">
        <ele>722.40002441406</ele>
        <time>2012-03-11T08:08:39.000Z</time>
      </trkpt>
      <trkpt lat="43.69398" lon="6.85655">
        <ele>723</ele>
        <time>2012-03-11T08:08:49.000Z</time>
      </trkpt>
      <trkpt lat="43.69391" lon="6.8568">
        <ele>724.20001220703</ele>
        <time>2012-03-11T08:08:55.000Z</time>
      </trkpt>
      <trkpt lat="43.69384" lon="6.85702">
        <ele>725.59997558594</ele>
        <time>2012-03-11T08:09:01.000Z</time>
      </trkpt>
      <trkpt lat="43.69379" lon="6.85723">
        <ele>726.79998779297</ele>
        <time>2012-03-11T08:09:06.000Z</time>
      </trkpt>
      <trkpt lat="43.69371" lon="6.85733">
        <ele>727.59997558594</ele>
        <time>2012-03-11T08:09:11.000Z</time>
      </trkpt>
      <trkpt lat="43.69364" lon="6.85751">
        <ele>728.59997558594</ele>
        <time>2012-03-11T08:09:17.000Z</time>
      </trkpt>
      <trkpt lat="43.69358" lon="6.85769">
        <ele>729.59997558594</ele>
        <time>2012-03-11T08:09:23.000Z</time>
      </trkpt>
      <trkpt lat="43.69363" lon="6.85776">
        <ele>729.79998779297</ele>
        <time>2012-03-11T08:09:33.000Z</time>
      </trkpt>
      <trkpt lat="43.69364" lon="6.85781">
        <ele>730</ele>
        <time>2012-03-11T08:09:45.000Z</time>
      </trkpt>
      <trkpt lat="43.69361" lon="6.85775">
        <ele>729.79998779297</ele>
        <time>2012-03-11T08:10:06.000Z</time>
      </trkpt>
      <trkpt lat="43.69361" lon="6.85775">
        <ele>729.79998779297</ele>
        <time>2012-03-11T08:10:14.000Z</time>
      </trkpt>
      <trkpt lat="43.69363" lon="6.85771">
        <ele>729.59997558594</ele>
        <time>2012-03-11T08:10:54.000Z</time>
      </trkpt>
      <trkpt lat="43.69363" lon="6.85771">
        <ele>729.59997558594</ele>
        <time>2012-03-11T08:11:06.000Z</time>
      </trkpt>
      <trkpt lat="43.69364" lon="6.85772">
        <ele>729.59997558594</ele>
        <time>2012-03-11T08:11:15.000Z</time>
      </trkpt>
      <trkpt lat="43.69364" lon="6.85773">
        <ele>729.59997558594</ele>
        <time>2012-03-11T08:11:31.000Z</time>
      </trkpt>
      <trkpt lat="43.69363" lon="6.85771">
        <ele>729.59997558594</ele>
        <time>2012-03-11T08:11:44.000Z</time>
      </trkpt>
      <trkpt lat="43.69363" lon="6.85771">
        <ele>729.59997558594</ele>
        <time>2012-03-11T08:12:10.000Z</time>
      </trkpt>
      <trkpt lat="43.69363" lon="6.85771">
        <ele>729.59997558594</ele>
        <time>2012-03-11T08:12:30.000Z</time>
      </trkpt>
      <trkpt lat="43.69358" lon="6.85768">
        <ele>729.40002441406</ele>
        <time>2012-03-11T08:12:41.000Z</time>
      </trkpt>
      <trkpt lat="43.69358" lon="6.85769">
        <ele>729.59997558594</ele>
        <time>2012-03-11T08:12:52.000Z</time>
      </trkpt>
      <trkpt lat="43.69353" lon="6.85777">
        <ele>729.79998779297</ele>
        <time>2012-03-11T08:12:58.000Z</time>
      </trkpt>
      <trkpt lat="43.69346" lon="6.85788">
        <ele>730.40002441406</ele>
        <time>2012-03-11T08:13:03.000Z</time>
      </trkpt>
      <trkpt lat="43.69328" lon="6.85792">
        <ele>730.40002441406</ele>
        <time>2012-03-11T08:13:10.000Z</time>
      </trkpt>
      <trkpt lat="43.69311" lon="6.85799">
        <ele>730</ele>
        <time>2012-03-11T08:13:15.000Z</time>
      </trkpt>
      <trkpt lat="43.69292" lon="6.85812">
        <ele>729.79998779297</ele>
        <time>2012-03-11T08:13:20.000Z</time>
      </trkpt>
      <trkpt lat="43.6928" lon="6.85827">
        <ele>729.79998779297</ele>
        <time>2012-03-11T08:13:24.000Z</time>
      </trkpt>
      <trkpt lat="43.69274" lon="6.85836">
        <ele>730</ele>
        <time>2012-03-11T08:13:26.000Z</time>
      </trkpt>
      <trkpt lat="43.69269" lon="6.85845">
        <ele>729.79998779297</ele>
        <time>2012-03-11T08:13:28.000Z</time>
      </trkpt>
      <trkpt lat="43.69264" lon="6.85853">
        <ele>729.79998779297</ele>
        <time>2012-03-11T08:13:30.000Z</time>
      </trkpt>
      <trkpt lat="43.69248" lon="6.85876">
        <ele>729.40002441406</ele>
        <time>2012-03-11T08:13:35.000Z</time>
      </trkpt>
      <trkpt lat="43.69227" lon="6.85905">
        <ele>729.59997558594</ele>
        <time>2012-03-11T08:13:41.000Z</time>
      </trkpt>
      <trkpt lat="43.69205" lon="6.8594">
        <ele>730.20001220703</ele>
        <time>2012-03-11T08:13:48.000Z</time>
      </trkpt>
      <trkpt lat="43.69191" lon="6.85962">
        <ele>731</ele>
        <time>2012-03-11T08:13:53.000Z</time>
      </trkpt>
      <trkpt lat="43.69178" lon="6.85974">
        <ele>731.20001220703</ele>
        <time>2012-03-11T08:13:57.000Z</time>
      </trkpt>
      <trkpt lat="43.69156" lon="6.85982">
        <ele>732.20001220703</ele>
        <time>2012-03-11T08:14:04.000Z</time>
      </trkpt>
      <trkpt lat="43.69139" lon="6.85985">
        <ele>733.40002441406</ele>
        <time>2012-03-11T08:14:09.000Z</time>
      </trkpt>
      <trkpt lat="43.69127" lon="6.85991">
        <ele>734.20001220703</ele>
        <time>2012-03-11T08:14:14.000Z</time>
      </trkpt>
      <trkpt lat="43.69114" lon="6.85997">
        <ele>735.20001220703</ele>
        <time>2012-03-11T08:14:19.000Z</time>
      </trkpt>
      <trkpt lat="43.69102" lon="6.86005">
        <ele>736</ele>
        <time>2012-03-11T08:14:24.000Z</time>
      </trkpt>
      <trkpt lat="43.69088" lon="6.86013">
        <ele>737</ele>
        <time>2012-03-11T08:14:30.000Z</time>
      </trkpt>
      <trkpt lat="43.69076" lon="6.8602">
        <ele>737.40002441406</ele>
        <time>2012-03-11T08:14:35.000Z</time>
      </trkpt>
      <trkpt lat="43.69066" lon="6.86026">
        <ele>737.79998779297</ele>
        <time>2012-03-11T08:14:39.000Z</time>
      </trkpt>
      <trkpt lat="43.69054" lon="6.86039">
        <ele>738.40002441406</ele>
        <time>2012-03-11T08:14:44.000Z</time>
      </trkpt>
      <trkpt lat="43.69043" lon="6.86051">
        <ele>738.79998779297</ele>
        <time>2012-03-11T08:14:49.000Z</time>
      </trkpt>
      <trkpt lat="43.69039" lon="6.86054">
        <ele>739</ele>
        <time>2012-03-11T08:14:51.000Z</time>
      </trkpt>
      <trkpt lat="43.69028" lon="6.86068">
        <ele>739.20001220703</ele>
        <time>2012-03-11T08:14:57.000Z</time>
      </trkpt>
      <trkpt lat="43.69024" lon="6.86074">
        <ele>739.40002441406</ele>
        <time>2012-03-11T08:14:59.000Z</time>
      </trkpt>
      <trkpt lat="43.69013" lon="6.86091">
        <ele>740</ele>
        <time>2012-03-11T08:15:04.000Z</time>
      </trkpt>
      <trkpt lat="43.68993" lon="6.86113">
        <ele>740.59997558594</ele>
        <time>2012-03-11T08:15:09.000Z</time>
      </trkpt>
      <trkpt lat="43.6896" lon="6.86138">
        <ele>739</ele>
        <time>2012-03-11T08:15:15.000Z</time>
      </trkpt>
      <trkpt lat="43.68929" lon="6.86162">
        <ele>737</ele>
        <time>2012-03-11T08:15:20.000Z</time>
      </trkpt>
      <trkpt lat="43.68916" lon="6.86172">
        <ele>736</ele>
        <time>2012-03-11T08:15:22.000Z</time>
      </trkpt>
      <trkpt lat="43.68904" lon="6.86182">
        <ele>734.59997558594</ele>
        <time>2012-03-11T08:15:24.000Z</time>
      </trkpt>
      <trkpt lat="43.68872" lon="6.86212">
        <ele>731</ele>
        <time>2012-03-11T08:15:29.000Z</time>
      </trkpt>
      <trkpt lat="43.68858" lon="6.86223">
        <ele>729.20001220703</ele>
        <time>2012-03-11T08:15:31.000Z</time>
      </trkpt>
      <trkpt lat="43.68809" lon="6.86238">
        <ele>724.20001220703</ele>
        <time>2012-03-11T08:15:38.000Z</time>
      </trkpt>
      <trkpt lat="43.68794" lon="6.86242">
        <ele>723.20001220703</ele>
        <time>2012-03-11T08:15:41.000Z</time>
      </trkpt>
      <trkpt lat="43.68781" lon="6.86244">
        <ele>722.20001220703</ele>
        <time>2012-03-11T08:15:45.000Z</time>
      </trkpt>
      <trkpt lat="43.68763" lon="6.8625">
        <ele>721</ele>
        <time>2012-03-11T08:15:50.000Z</time>
      </trkpt>
      <trkpt lat="43.68749" lon="6.86255">
        <ele>720.20001220703</ele>
        <time>2012-03-11T08:15:54.000Z</time>
      </trkpt>
      <trkpt lat="43.68722" lon="6.8626">
        <ele>719.59997558594</ele>
        <time>2012-03-11T08:16:00.000Z</time>
      </trkpt>
      <trkpt lat="43.68718" lon="6.86261">
        <ele>719.40002441406</ele>
        <time>2012-03-11T08:16:01.000Z</time>
      </trkpt>
      <trkpt lat="43.68701" lon="6.8627">
        <ele>719.20001220703</ele>
        <time>2012-03-11T08:16:05.000Z</time>
      </trkpt>
      <trkpt lat="43.68679" lon="6.86287">
        <ele>719.20001220703</ele>
        <time>2012-03-11T08:16:11.000Z</time>
      </trkpt>
      <trkpt lat="43.68658" lon="6.86297">
        <ele>718.79998779297</ele>
        <time>2012-03-11T08:16:16.000Z</time>
      </trkpt>
      <trkpt lat="43.68646" lon="6.86303">
        <ele>718.59997558594</ele>
        <time>2012-03-11T08:16:19.000Z</time>
      </trkpt>
      <trkpt lat="43.68606" lon="6.86332">
        <ele>718</ele>
        <time>2012-03-11T08:16:29.000Z</time>
      </trkpt>
      <trkpt lat="43.68583" lon="6.8635">
        <ele>717.79998779297</ele>
        <time>2012-03-11T08:16:35.000Z</time>
      </trkpt>
      <trkpt lat="43.68575" lon="6.86356">
        <ele>717.59997558594</ele>
        <time>2012-03-11T08:16:37.000Z</time>
      </trkpt>
      <trkpt lat="43.68554" lon="6.86361">
        <ele>716.59997558594</ele>
        <time>2012-03-11T08:16:42.000Z</time>
      </trkpt>
      <trkpt lat="43.6854" lon="6.86359">
        <ele>715.59997558594</ele>
        <time>2012-03-11T08:16:45.000Z</time>
      </trkpt>
      <trkpt lat="43.68515" lon="6.8636">
        <ele>714.20001220703</ele>
        <time>2012-03-11T08:16:50.000Z</time>
      </trkpt>
      <trkpt lat="43.685" lon="6.86364">
        <ele>713.40002441406</ele>
        <time>2012-03-11T08:16:53.000Z</time>
      </trkpt>
      <trkpt lat="43.68485" lon="6.86365">
        <ele>713.40002441406</ele>
        <time>2012-03-11T08:16:56.000Z</time>
      </trkpt>
      <trkpt lat="43.68463" lon="6.86369">
        <ele>713.59997558594</ele>
        <time>2012-03-11T08:17:00.000Z</time>
      </trkpt>
      <trkpt lat="43.68443" lon="6.86365">
        <ele>713.40002441406</ele>
        <time>2012-03-11T08:17:04.000Z</time>
      </trkpt>
      <trkpt lat="43.68432" lon="6.86354">
        <ele>712.59997558594</ele>
        <time>2012-03-11T08:17:07.000Z</time>
      </trkpt>
      <trkpt lat="43.68416" lon="6.8634">
        <ele>711.40002441406</ele>
        <time>2012-03-11T08:17:12.000Z</time>
      </trkpt>
      <trkpt lat="43.68401" lon="6.86333">
        <ele>711.59997558594</ele>
        <time>2012-03-11T08:17:16.000Z</time>
      </trkpt>
      <trkpt lat="43.68374" lon="6.86327">
        <ele>712.20001220703</ele>
        <time>2012-03-11T08:17:23.000Z</time>
      </trkpt>
      <trkpt lat="43.68347" lon="6.86317">
        <ele>712.20001220703</ele>
        <time>2012-03-11T08:17:30.000Z</time>
      </trkpt>
      <trkpt lat="43.68339" lon="6.86314">
        <ele>712.20001220703</ele>
        <time>2012-03-11T08:17:32.000Z</time>
      </trkpt>
      <trkpt lat="43.68322" lon="6.86319">
        <ele>712.59997558594</ele>
        <time>2012-03-11T08:17:36.000Z</time>
      </trkpt>
      <trkpt lat="43.68294" lon="6.86325">
        <ele>712.40002441406</ele>
        <time>2012-03-11T08:17:42.000Z</time>
      </trkpt>
      <trkpt lat="43.68284" lon="6.86325">
        <ele>712.20001220703</ele>
        <time>2012-03-11T08:17:44.000Z</time>
      </trkpt>
      <trkpt lat="43.68274" lon="6.86327">
        <ele>712</ele>
        <time>2012-03-11T08:17:46.000Z</time>
      </trkpt>
      <trkpt lat="43.6824" lon="6.86335">
        <ele>712.20001220703</ele>
        <time>2012-03-11T08:17:53.000Z</time>
      </trkpt>
      <trkpt lat="43.68225" lon="6.86336">
        <ele>712.20001220703</ele>
        <time>2012-03-11T08:17:57.000Z</time>
      </trkpt>
      <trkpt lat="43.68198" lon="6.86345">
        <ele>713.20001220703</ele>
        <time>2012-03-11T08:18:04.000Z</time>
      </trkpt>
      <trkpt lat="43.68185" lon="6.86346">
        <ele>713.20001220703</ele>
        <time>2012-03-11T08:18:07.000Z</time>
      </trkpt>
      <trkpt lat="43.68159" lon="6.86351">
        <ele>713.40002441406</ele>
        <time>2012-03-11T08:18:14.000Z</time>
      </trkpt>
      <trkpt lat="43.68134" lon="6.86363">
        <ele>714</ele>
        <time>2012-03-11T08:18:21.000Z</time>
      </trkpt>
      <trkpt lat="43.68114" lon="6.86367">
        <ele>714</ele>
        <time>2012-03-11T08:18:26.000Z</time>
      </trkpt>
      <trkpt lat="43.68092" lon="6.86368">
        <ele>713.59997558594</ele>
        <time>2012-03-11T08:18:31.000Z</time>
      </trkpt>
      <trkpt lat="43.68083" lon="6.8637">
        <ele>713.59997558594</ele>
        <time>2012-03-11T08:18:33.000Z</time>
      </trkpt>
      <trkpt lat="43.68063" lon="6.86377">
        <ele>714</ele>
        <time>2012-03-11T08:18:38.000Z</time>
      </trkpt>
      <trkpt lat="43.68037" lon="6.86393">
        <ele>715.20001220703</ele>
        <time>2012-03-11T08:18:46.000Z</time>
      </trkpt>
      <trkpt lat="43.68017" lon="6.86405">
        <ele>716</ele>
        <time>2012-03-11T08:18:52.000Z</time>
      </trkpt>
      <trkpt lat="43.67998" lon="6.86415">
        <ele>716.79998779297</ele>
        <time>2012-03-11T08:18:58.000Z</time>
      </trkpt>
      <trkpt lat="43.67977" lon="6.86421">
        <ele>715.59997558594</ele>
        <time>2012-03-11T08:19:04.000Z</time>
      </trkpt>
      <trkpt lat="43.67949" lon="6.8643">
        <ele>714.40002441406</ele>
        <time>2012-03-11T08:19:12.000Z</time>
      </trkpt>
      <trkpt lat="43.67936" lon="6.86438">
        <ele>714.20001220703</ele>
        <time>2012-03-11T08:19:17.000Z</time>
      </trkpt>
      <trkpt lat="43.67923" lon="6.86452">
        <ele>714.59997558594</ele>
        <time>2012-03-11T08:19:23.000Z</time>
      </trkpt>
      <trkpt lat="43.67912" lon="6.86467">
        <ele>716</ele>
        <time>2012-03-11T08:19:29.000Z</time>
      </trkpt>
      <trkpt lat="43.67895" lon="6.86493">
        <ele>718.79998779297</ele>
        <time>2012-03-11T08:19:38.000Z</time>
      </trkpt>
      <trkpt lat="43.67876" lon="6.86522">
        <ele>721.20001220703</ele>
        <time>2012-03-11T08:19:48.000Z</time>
      </trkpt>
      <trkpt lat="43.67862" lon="6.86549">
        <ele>723</ele>
        <time>2012-03-11T08:19:55.000Z</time>
      </trkpt>
      <trkpt lat="43.67848" lon="6.86561">
        <ele>723.59997558594</ele>
        <time>2012-03-11T08:20:00.000Z</time>
      </trkpt>
      <trkpt lat="43.6783" lon="6.86565">
        <ele>723.59997558594</ele>
        <time>2012-03-11T08:20:06.000Z</time>
      </trkpt>
      <trkpt lat="43.67811" lon="6.86576">
        <ele>723.59997558594</ele>
        <time>2012-03-11T08:20:13.000Z</time>
      </trkpt>
      <trkpt lat="43.67789" lon="6.86589">
        <ele>723.59997558594</ele>
        <time>2012-03-11T08:20:21.000Z</time>
      </trkpt>
      <trkpt lat="43.67771" lon="6.86599">
        <ele>723.20001220703</ele>
        <time>2012-03-11T08:20:28.000Z</time>
      </trkpt>
      <trkpt lat="43.67762" lon="6.86605">
        <ele>723.20001220703</ele>
        <time>2012-03-11T08:20:32.000Z</time>
      </trkpt>
      <trkpt lat="43.67742" lon="6.86614">
        <ele>722.59997558594</ele>
        <time>2012-03-11T08:20:39.000Z</time>
      </trkpt>
      <trkpt lat="43.67726" lon="6.86626">
        <ele>721.79998779297</ele>
        <time>2012-03-11T08:20:44.000Z</time>
      </trkpt>
      <trkpt lat="43.67706" lon="6.86654">
        <ele>721.40002441406</ele>
        <time>2012-03-11T08:20:50.000Z</time>
      </trkpt>
      <trkpt lat="43.67703" lon="6.8666">
        <ele>721.40002441406</ele>
        <time>2012-03-11T08:20:51.000Z</time>
      </trkpt>
      <trkpt lat="43.67692" lon="6.86674">
        <ele>721.20001220703</ele>
        <time>2012-03-11T08:20:54.000Z</time>
      </trkpt>
      <trkpt lat="43.67686" lon="6.86683">
        <ele>721.40002441406</ele>
        <time>2012-03-11T08:20:56.000Z</time>
      </trkpt>
      <trkpt lat="43.67669" lon="6.86699">
        <ele>721</ele>
        <time>2012-03-11T08:21:00.000Z</time>
      </trkpt>
      <trkpt lat="43.6765" lon="6.86703">
        <ele>719.79998779297</ele>
        <time>2012-03-11T08:21:04.000Z</time>
      </trkpt>
      <trkpt lat="43.67632" lon="6.86712">
        <ele>719.20001220703</ele>
        <time>2012-03-11T08:21:08.000Z</time>
      </trkpt>
      <trkpt lat="43.67602" lon="6.86735">
        <ele>719.40002441406</ele>
        <time>2012-03-11T08:21:15.000Z</time>
      </trkpt>
      <trkpt lat="43.67594" lon="6.86742">
        <ele>719.59997558594</ele>
        <time>2012-03-11T08:21:17.000Z</time>
      </trkpt>
      <trkpt lat="43.67568" lon="6.86771">
        <ele>721.59997558594</ele>
        <time>2012-03-11T08:21:24.000Z</time>
      </trkpt>
      <trkpt lat="43.67564" lon="6.86776">
        <ele>722</ele>
        <time>2012-03-11T08:21:25.000Z</time>
      </trkpt>
      <trkpt lat="43.67536" lon="6.86801">
        <ele>722.79998779297</ele>
        <time>2012-03-11T08:21:32.000Z</time>
      </trkpt>
      <trkpt lat="43.67517" lon="6.86821">
        <ele>723.20001220703</ele>
        <time>2012-03-11T08:21:38.000Z</time>
      </trkpt>
      <trkpt lat="43.67512" lon="6.86828">
        <ele>723.59997558594</ele>
        <time>2012-03-11T08:21:40.000Z</time>
      </trkpt>
      <trkpt lat="43.67493" lon="6.8685">
        <ele>724</ele>
        <time>2012-03-11T08:21:47.000Z</time>
      </trkpt>
      <trkpt lat="43.67484" lon="6.86862">
        <ele>724.40002441406</ele>
        <time>2012-03-11T08:21:51.000Z</time>
      </trkpt>
      <trkpt lat="43.67463" lon="6.86879">
        <ele>724.40002441406</ele>
        <time>2012-03-11T08:21:57.000Z</time>
      </trkpt>
      <trkpt lat="43.67435" lon="6.86897">
        <ele>723.79998779297</ele>
        <time>2012-03-11T08:22:04.000Z</time>
      </trkpt>
      <trkpt lat="43.67415" lon="6.8691">
        <ele>723.59997558594</ele>
        <time>2012-03-11T08:22:09.000Z</time>
      </trkpt>
      <trkpt lat="43.67396" lon="6.86924">
        <ele>724</ele>
        <time>2012-03-11T08:22:14.000Z</time>
      </trkpt>
      <trkpt lat="43.67379" lon="6.86938">
        <ele>724.20001220703</ele>
        <time>2012-03-11T08:22:20.000Z</time>
      </trkpt>
      <trkpt lat="43.67361" lon="6.86953">
        <ele>723.79998779297</ele>
        <time>2012-03-11T08:22:26.000Z</time>
      </trkpt>
      <trkpt lat="43.67343" lon="6.86972">
        <ele>723.40002441406</ele>
        <time>2012-03-11T08:22:32.000Z</time>
      </trkpt>
      <trkpt lat="43.67328" lon="6.86989">
        <ele>722.79998779297</ele>
        <time>2012-03-11T08:22:37.000Z</time>
      </trkpt>
      <trkpt lat="43.67305" lon="6.87011">
        <ele>721.79998779297</ele>
        <time>2012-03-11T08:22:44.000Z</time>
      </trkpt>
      <trkpt lat="43.67282" lon="6.87024">
        <ele>720.79998779297</ele>
        <time>2012-03-11T08:22:50.000Z</time>
      </trkpt>
      <trkpt lat="43.67251" lon="6.87047">
        <ele>718.79998779297</ele>
        <time>2012-03-11T08:22:57.000Z</time>
      </trkpt>
      <trkpt lat="43.67236" lon="6.87056">
        <ele>717.79998779297</ele>
        <time>2012-03-11T08:23:00.000Z</time>
      </trkpt>
      <trkpt lat="43.67214" lon="6.8706">
        <ele>716.59997558594</ele>
        <time>2012-03-11T08:23:05.000Z</time>
      </trkpt>
      <trkpt lat="43.67206" lon="6.87054">
        <ele>716.40002441406</ele>
        <time>2012-03-11T08:23:07.000Z</time>
      </trkpt>
      <trkpt lat="43.67173" lon="6.87017">
        <ele>717.20001220703</ele>
        <time>2012-03-11T08:23:17.000Z</time>
      </trkpt>
      <trkpt lat="43.67152" lon="6.86991">
        <ele>718.40002441406</ele>
        <time>2012-03-11T08:23:23.000Z</time>
      </trkpt>
      <trkpt lat="43.67134" lon="6.86975">
        <ele>719.20001220703</ele>
        <time>2012-03-11T08:23:30.000Z</time>
      </trkpt>
      <trkpt lat="43.67121" lon="6.86959">
        <ele>720.40002441406</ele>
        <time>2012-03-11T08:23:36.000Z</time>
      </trkpt>
      <trkpt lat="43.67106" lon="6.86942">
        <ele>721.59997558594</ele>
        <time>2012-03-11T08:23:43.000Z</time>
      </trkpt>
      <trkpt lat="43.67085" lon="6.86919">
        <ele>723.79998779297</ele>
        <time>2012-03-11T08:23:53.000Z</time>
      </trkpt>
      <trkpt lat="43.67071" lon="6.86901">
        <ele>725.20001220703</ele>
        <time>2012-03-11T08:24:01.000Z</time>
      </trkpt>
      <trkpt lat="43.67057" lon="6.86883">
        <ele>727</ele>
        <time>2012-03-11T08:24:09.000Z</time>
      </trkpt>
      <trkpt lat="43.67044" lon="6.8687">
        <ele>728.20001220703</ele>
        <time>2012-03-11T08:24:15.000Z</time>
      </trkpt>
      <trkpt lat="43.67033" lon="6.86858">
        <ele>729.59997558594</ele>
        <time>2012-03-11T08:24:21.000Z</time>
      </trkpt>
      <trkpt lat="43.67024" lon="6.86852">
        <ele>730.40002441406</ele>
        <time>2012-03-11T08:24:26.000Z</time>
      </trkpt>
      <trkpt lat="43.67016" lon="6.86842">
        <ele>731.59997558594</ele>
        <time>2012-03-11T08:24:31.000Z</time>
      </trkpt>
      <trkpt lat="43.67006" lon="6.86825">
        <ele>733.20001220703</ele>
        <time>2012-03-11T08:24:38.000Z</time>
      </trkpt>
      <trkpt lat="43.66993" lon="6.86812">
        <ele>734.59997558594</ele>
        <time>2012-03-11T08:24:44.000Z</time>
      </trkpt>
      <trkpt lat="43.66976" lon="6.86796">
        <ele>736</ele>
        <time>2012-03-11T08:24:52.000Z</time>
      </trkpt>
      <trkpt lat="43.66968" lon="6.86786">
        <ele>737</ele>
        <time>2012-03-11T08:24:58.000Z</time>
      </trkpt>
      <trkpt lat="43.66962" lon="6.8678">
        <ele>737.59997558594</ele>
        <time>2012-03-11T08:25:05.000Z</time>
      </trkpt>
      <trkpt lat="43.66954" lon="6.8677">
        <ele>738.40002441406</ele>
        <time>2012-03-11T08:25:12.000Z</time>
      </trkpt>
      <trkpt lat="43.6694" lon="6.86754">
        <ele>740</ele>
        <time>2012-03-11T08:25:20.000Z</time>
      </trkpt>
      <trkpt lat="43.66919" lon="6.86736">
        <ele>741</ele>
        <time>2012-03-11T08:25:29.000Z</time>
      </trkpt>
      <trkpt lat="43.66904" lon="6.86721">
        <ele>741.20001220703</ele>
        <time>2012-03-11T08:25:36.000Z</time>
      </trkpt>
      <trkpt lat="43.66885" lon="6.8671">
        <ele>741.59997558594</ele>
        <time>2012-03-11T08:25:42.000Z</time>
      </trkpt>
      <trkpt lat="43.66858" lon="6.8669">
        <ele>742.59997558594</ele>
        <time>2012-03-11T08:25:50.000Z</time>
      </trkpt>
      <trkpt lat="43.66844" lon="6.86677">
        <ele>743.20001220703</ele>
        <time>2012-03-11T08:25:56.000Z</time>
      </trkpt>
      <trkpt lat="43.66833" lon="6.86664">
        <ele>744.20001220703</ele>
        <time>2012-03-11T08:26:02.000Z</time>
      </trkpt>
      <trkpt lat="43.66818" lon="6.86647">
        <ele>745.59997558594</ele>
        <time>2012-03-11T08:26:09.000Z</time>
      </trkpt>
      <trkpt lat="43.66802" lon="6.86633">
        <ele>747.20001220703</ele>
        <time>2012-03-11T08:26:15.000Z</time>
      </trkpt>
      <trkpt lat="43.6679" lon="6.86623">
        <ele>748.20001220703</ele>
        <time>2012-03-11T08:26:20.000Z</time>
      </trkpt>
      <trkpt lat="43.6678" lon="6.86612">
        <ele>749.20001220703</ele>
        <time>2012-03-11T08:26:26.000Z</time>
      </trkpt>
      <trkpt lat="43.6677" lon="6.86599">
        <ele>750.20001220703</ele>
        <time>2012-03-11T08:26:32.000Z</time>
      </trkpt>
      <trkpt lat="43.66758" lon="6.86585">
        <ele>751.59997558594</ele>
        <time>2012-03-11T08:26:40.000Z</time>
      </trkpt>
      <trkpt lat="43.66747" lon="6.86575">
        <ele>752</ele>
        <time>2012-03-11T08:26:46.000Z</time>
      </trkpt>
      <trkpt lat="43.66727" lon="6.86558">
        <ele>752.59997558594</ele>
        <time>2012-03-11T08:26:55.000Z</time>
      </trkpt>
      <trkpt lat="43.66706" lon="6.86534">
        <ele>753.40002441406</ele>
        <time>2012-03-11T08:27:05.000Z</time>
      </trkpt>
      <trkpt lat="43.66687" lon="6.86517">
        <ele>754.20001220703</ele>
        <time>2012-03-11T08:27:13.000Z</time>
      </trkpt>
      <trkpt lat="43.66667" lon="6.86495">
        <ele>754.79998779297</ele>
        <time>2012-03-11T08:27:20.000Z</time>
      </trkpt>
      <trkpt lat="43.66643" lon="6.86472">
        <ele>753.59997558594</ele>
        <time>2012-03-11T08:27:27.000Z</time>
      </trkpt>
      <trkpt lat="43.66621" lon="6.86449">
        <ele>752.79998779297</ele>
        <time>2012-03-11T08:27:31.000Z</time>
      </trkpt>
      <trkpt lat="43.66601" lon="6.86431">
        <ele>752.20001220703</ele>
        <time>2012-03-11T08:27:35.000Z</time>
      </trkpt>
      <trkpt lat="43.66573" lon="6.86403">
        <ele>752</ele>
        <time>2012-03-11T08:27:41.000Z</time>
      </trkpt>
      <trkpt lat="43.66544" lon="6.86372">
        <ele>752.59997558594</ele>
        <time>2012-03-11T08:27:47.000Z</time>
      </trkpt>
      <trkpt lat="43.66527" lon="6.86356">
        <ele>753.20001220703</ele>
        <time>2012-03-11T08:27:52.000Z</time>
      </trkpt>
      <trkpt lat="43.66504" lon="6.86335">
        <ele>754.79998779297</ele>
        <time>2012-03-11T08:28:01.000Z</time>
      </trkpt>
      <trkpt lat="43.66488" lon="6.86317">
        <ele>755.79998779297</ele>
        <time>2012-03-11T08:28:10.000Z</time>
      </trkpt>
      <trkpt lat="43.66473" lon="6.86301">
        <ele>756.40002441406</ele>
        <time>2012-03-11T08:28:17.000Z</time>
      </trkpt>
      <trkpt lat="43.66451" lon="6.86277">
        <ele>757.59997558594</ele>
        <time>2012-03-11T08:28:26.000Z</time>
      </trkpt>
      <trkpt lat="43.66433" lon="6.86259">
        <ele>758.40002441406</ele>
        <time>2012-03-11T08:28:30.000Z</time>
      </trkpt>
      <trkpt lat="43.66414" lon="6.86239">
        <ele>759.40002441406</ele>
        <time>2012-03-11T08:28:35.000Z</time>
      </trkpt>
      <trkpt lat="43.66395" lon="6.86218">
        <ele>761.20001220703</ele>
        <time>2012-03-11T08:28:42.000Z</time>
      </trkpt>
      <trkpt lat="43.66387" lon="6.86208">
        <ele>762.40002441406</ele>
        <time>2012-03-11T08:28:48.000Z</time>
      </trkpt>
      <trkpt lat="43.66379" lon="6.862">
        <ele>763.40002441406</ele>
        <time>2012-03-11T08:28:55.000Z</time>
      </trkpt>
      <trkpt lat="43.66367" lon="6.86186">
        <ele>765.59997558594</ele>
        <time>2012-03-11T08:29:02.000Z</time>
      </trkpt>
      <trkpt lat="43.66358" lon="6.86176">
        <ele>767.20001220703</ele>
        <time>2012-03-11T08:29:08.000Z</time>
      </trkpt>
      <trkpt lat="43.66344" lon="6.86164">
        <ele>769.59997558594</ele>
        <time>2012-03-11T08:29:15.000Z</time>
      </trkpt>
      <trkpt lat="43.66334" lon="6.86154">
        <ele>771.40002441406</ele>
        <time>2012-03-11T08:29:21.000Z</time>
      </trkpt>
      <trkpt lat="43.66334" lon="6.86153">
        <ele>771.40002441406</ele>
        <time>2012-03-11T08:29:22.000Z</time>
      </trkpt>
      <trkpt lat="43.66327" lon="6.86144">
        <ele>772.40002441406</ele>
        <time>2012-03-11T08:29:28.000Z</time>
      </trkpt>
      <trkpt lat="43.66324" lon="6.86138">
        <ele>772.79998779297</ele>
        <time>2012-03-11T08:29:34.000Z</time>
      </trkpt>
      <trkpt lat="43.66322" lon="6.86135">
        <ele>773</ele>
        <time>2012-03-11T08:29:36.000Z</time>
      </trkpt>
      <trkpt lat="43.66309" lon="6.86124">
        <ele>774.40002441406</ele>
        <time>2012-03-11T08:29:45.000Z</time>
      </trkpt>
      <trkpt lat="43.66302" lon="6.86116">
        <ele>775.20001220703</ele>
        <time>2012-03-11T08:29:51.000Z</time>
      </trkpt>
      <trkpt lat="43.66292" lon="6.86106">
        <ele>776</ele>
        <time>2012-03-11T08:29:58.000Z</time>
      </trkpt>
      <trkpt lat="43.66287" lon="6.86099">
        <ele>776.59997558594</ele>
        <time>2012-03-11T08:30:03.000Z</time>
      </trkpt>
      <trkpt lat="43.66287" lon="6.86099">
        <ele>776.59997558594</ele>
        <time>2012-03-11T08:30:10.000Z</time>
      </trkpt>
      <trkpt lat="43.66285" lon="6.86099">
        <ele>776.59997558594</ele>
        <time>2012-03-11T08:30:20.000Z</time>
      </trkpt>
      <trkpt lat="43.66284" lon="6.861">
        <ele>776.59997558594</ele>
        <time>2012-03-11T08:30:28.000Z</time>
      </trkpt>
      <trkpt lat="43.66281" lon="6.86099">
        <ele>777</ele>
        <time>2012-03-11T08:30:34.000Z</time>
      </trkpt>
      <trkpt lat="43.6628" lon="6.86099">
        <ele>777</ele>
        <time>2012-03-11T08:30:40.000Z</time>
      </trkpt>
      <trkpt lat="43.6628" lon="6.86098">
        <ele>777</ele>
        <time>2012-03-11T08:30:55.000Z</time>
      </trkpt>
      <trkpt lat="43.66278" lon="6.86099">
        <ele>777.20001220703</ele>
        <time>2012-03-11T08:31:31.000Z</time>
      </trkpt>
      <trkpt lat="43.66279" lon="6.86099">
        <ele>777</ele>
        <time>2012-03-11T08:31:57.000Z</time>
      </trkpt>
      <trkpt lat="43.66277" lon="6.86097">
        <ele>777.20001220703</ele>
        <time>2012-03-11T08:31:59.000Z</time>
      </trkpt>
      <trkpt lat="43.66274" lon="6.86091">
        <ele>777.40002441406</ele>
        <time>2012-03-11T08:32:06.000Z</time>
      </trkpt>
      <trkpt lat="43.66273" lon="6.8609">
        <ele>777.59997558594</ele>
        <time>2012-03-11T08:32:21.000Z</time>
      </trkpt>
      <trkpt lat="43.66272" lon="6.8609">
        <ele>777.59997558594</ele>
        <time>2012-03-11T08:32:27.000Z</time>
      </trkpt>
      <trkpt lat="43.66271" lon="6.86088">
        <ele>777.59997558594</ele>
        <time>2012-03-11T08:32:53.000Z</time>
      </trkpt>
      <trkpt lat="43.66272" lon="6.86088">
        <ele>777.59997558594</ele>
        <time>2012-03-11T08:33:03.000Z</time>
      </trkpt>
      <trkpt lat="43.66272" lon="6.86087">
        <ele>777.59997558594</ele>
        <time>2012-03-11T08:33:10.000Z</time>
      </trkpt>
      <trkpt lat="43.66272" lon="6.86085">
        <ele>777.59997558594</ele>
        <time>2012-03-11T08:33:17.000Z</time>
      </trkpt>
      <trkpt lat="43.66274" lon="6.86082">
        <ele>777.40002441406</ele>
        <time>2012-03-11T08:33:31.000Z</time>
      </trkpt>
      <trkpt lat="43.66275" lon="6.86076">
        <ele>776.59997558594</ele>
        <time>2012-03-11T08:33:34.000Z</time>
      </trkpt>
      <trkpt lat="43.66276" lon="6.86067">
        <ele>775.40002441406</ele>
        <time>2012-03-11T08:33:37.000Z</time>
      </trkpt>
      <trkpt lat="43.66272" lon="6.8606">
        <ele>774.40002441406</ele>
        <time>2012-03-11T08:33:42.000Z</time>
      </trkpt>
      <trkpt lat="43.66271" lon="6.86056">
        <ele>774</ele>
        <time>2012-03-11T08:33:44.000Z</time>
      </trkpt>
      <trkpt lat="43.66275" lon="6.86039">
        <ele>771.59997558594</ele>
        <time>2012-03-11T08:33:50.000Z</time>
      </trkpt>
      <trkpt lat="43.66278" lon="6.86032">
        <ele>770.59997558594</ele>
        <time>2012-03-11T08:33:54.000Z</time>
      </trkpt>
      <trkpt lat="43.66281" lon="6.86027">
        <ele>769.79998779297</ele>
        <time>2012-03-11T08:34:02.000Z</time>
      </trkpt>
      <trkpt lat="43.6628" lon="6.86028">
        <ele>770</ele>
        <time>2012-03-11T08:34:11.000Z</time>
      </trkpt>
      <trkpt lat="43.66282" lon="6.86023">
        <ele>769.20001220703</ele>
        <time>2012-03-11T08:34:18.000Z</time>
      </trkpt>
      <trkpt lat="43.66283" lon="6.8602">
        <ele>768.79998779297</ele>
        <time>2012-03-11T08:34:23.000Z</time>
      </trkpt>
      <trkpt lat="43.66284" lon="6.86016">
        <ele>768.40002441406</ele>
        <time>2012-03-11T08:34:29.000Z</time>
      </trkpt>
      <trkpt lat="43.66284" lon="6.86016">
        <ele>768.20001220703</ele>
        <time>2012-03-11T08:34:33.000Z</time>
      </trkpt>
      <trkpt lat="43.66283" lon="6.86011">
        <ele>767.59997558594</ele>
        <time>2012-03-11T08:34:39.000Z</time>
      </trkpt>
      <trkpt lat="43.66282" lon="6.86005">
        <ele>767</ele>
        <time>2012-03-11T08:34:51.000Z</time>
      </trkpt>
      <trkpt lat="43.66282" lon="6.86008">
        <ele>767.20001220703</ele>
        <time>2012-03-11T08:35:01.000Z</time>
      </trkpt>
      <trkpt lat="43.66281" lon="6.86007">
        <ele>767.20001220703</ele>
        <time>2012-03-11T08:35:06.000Z</time>
      </trkpt>
      <trkpt lat="43.66281" lon="6.86007">
        <ele>767.20001220703</ele>
        <time>2012-03-11T08:35:13.000Z</time>
      </trkpt>
      <trkpt lat="43.66276" lon="6.86006">
        <ele>767.20001220703</ele>
        <time>2012-03-11T08:35:22.000Z</time>
      </trkpt>
      <trkpt lat="43.66273" lon="6.86007">
        <ele>767.40002441406</ele>
        <time>2012-03-11T08:35:31.000Z</time>
      </trkpt>
      <trkpt lat="43.66279" lon="6.86006">
        <ele>767</ele>
        <time>2012-03-11T08:35:42.000Z</time>
      </trkpt>
      <trkpt lat="43.6628" lon="6.86005">
        <ele>767</ele>
        <time>2012-03-11T08:36:00.000Z</time>
      </trkpt>
      <trkpt lat="43.66279" lon="6.86005">
        <ele>767</ele>
        <time>2012-03-11T08:36:05.000Z</time>
      </trkpt>
      <trkpt lat="43.66277" lon="6.86005">
        <ele>767</ele>
        <time>2012-03-11T08:36:48.000Z</time>
      </trkpt>
      <trkpt lat="43.66276" lon="6.86">
        <ele>766.40002441406</ele>
        <time>2012-03-11T08:37:05.000Z</time>
      </trkpt>
      <trkpt lat="43.66274" lon="6.86001">
        <ele>766.59997558594</ele>
        <time>2012-03-11T08:37:15.000Z</time>
      </trkpt>
      <trkpt lat="43.66277" lon="6.86001">
        <ele>766.40002441406</ele>
        <time>2012-03-11T08:37:43.000Z</time>
      </trkpt>
      <trkpt lat="43.66279" lon="6.86006">
        <ele>767.20001220703</ele>
        <time>2012-03-11T08:37:59.000Z</time>
      </trkpt>
      <trkpt lat="43.66273" lon="6.86005">
        <ele>767</ele>
        <time>2012-03-11T08:38:29.000Z</time>
      </trkpt>
      <trkpt lat="43.66272" lon="6.86005">
        <ele>767.20001220703</ele>
        <time>2012-03-11T08:38:51.000Z</time>
      </trkpt>
      <trkpt lat="43.66273" lon="6.86004">
        <ele>767</ele>
        <time>2012-03-11T08:38:58.000Z</time>
      </trkpt>
      <trkpt lat="43.66273" lon="6.86003">
        <ele>766.79998779297</ele>
        <time>2012-03-11T08:39:03.000Z</time>
      </trkpt>
      <trkpt lat="43.66272" lon="6.86002">
        <ele>766.79998779297</ele>
        <time>2012-03-11T08:39:10.000Z</time>
      </trkpt>
      <trkpt lat="43.66273" lon="6.86007">
        <ele>767.40002441406</ele>
        <time>2012-03-11T08:39:26.000Z</time>
      </trkpt>
      <trkpt lat="43.66269" lon="6.86003">
        <ele>767</ele>
        <time>2012-03-11T08:39:42.000Z</time>
      </trkpt>
      <trkpt lat="43.66267" lon="6.86001">
        <ele>766.79998779297</ele>
        <time>2012-03-11T08:39:55.000Z</time>
      </trkpt>
      <trkpt lat="43.66267" lon="6.86001">
        <ele>766.79998779297</ele>
        <time>2012-03-11T08:40:06.000Z</time>
      </trkpt>
      <trkpt lat="43.66266" lon="6.85998">
        <ele>766.20001220703</ele>
        <time>2012-03-11T08:40:18.000Z</time>
      </trkpt>
      <trkpt lat="43.66267" lon="6.85996">
        <ele>765.79998779297</ele>
        <time>2012-03-11T08:40:24.000Z</time>
      </trkpt>
      <trkpt lat="43.66269" lon="6.85997">
        <ele>766</ele>
        <time>2012-03-11T08:41:16.000Z</time>
      </trkpt>
      <trkpt lat="43.66269" lon="6.85993">
        <ele>765.20001220703</ele>
        <time>2012-03-11T08:41:28.000Z</time>
      </trkpt>
      <trkpt lat="43.66271" lon="6.85989">
        <ele>764.59997558594</ele>
        <time>2012-03-11T08:41:35.000Z</time>
      </trkpt>
      <trkpt lat="43.66272" lon="6.8599">
        <ele>764.59997558594</ele>
        <time>2012-03-11T08:41:43.000Z</time>
      </trkpt>
      <trkpt lat="43.66274" lon="6.85987">
        <ele>764.20001220703</ele>
        <time>2012-03-11T08:41:53.000Z</time>
      </trkpt>
      <trkpt lat="43.66278" lon="6.85986">
        <ele>764</ele>
        <time>2012-03-11T08:41:58.000Z</time>
      </trkpt>
      <trkpt lat="43.66281" lon="6.85982">
        <ele>763.20001220703</ele>
        <time>2012-03-11T08:42:01.000Z</time>
      </trkpt>
      <trkpt lat="43.66288" lon="6.85968">
        <ele>760.40002441406</ele>
        <time>2012-03-11T08:42:07.000Z</time>
      </trkpt>
      <trkpt lat="43.66288" lon="6.85963">
        <ele>759.79998779297</ele>
        <time>2012-03-11T08:42:09.000Z</time>
      </trkpt>
      <trkpt lat="43.66289" lon="6.85958">
        <ele>758.79998779297</ele>
        <time>2012-03-11T08:42:15.000Z</time>
      </trkpt>
      <trkpt lat="43.66291" lon="6.85955">
        <ele>758.20001220703</ele>
        <time>2012-03-11T08:42:27.000Z</time>
      </trkpt>
      <trkpt lat="43.6629" lon="6.85953">
        <ele>757.79998779297</ele>
        <time>2012-03-11T08:42:37.000Z</time>
      </trkpt>
      <trkpt lat="43.66289" lon="6.85954">
        <ele>758</ele>
        <time>2012-03-11T08:42:54.000Z</time>
      </trkpt>
      <trkpt lat="43.6629" lon="6.85956">
        <ele>758.40002441406</ele>
        <time>2012-03-11T08:43:16.000Z</time>
      </trkpt>
      <trkpt lat="43.66291" lon="6.85957">
        <ele>758.59997558594</ele>
        <time>2012-03-11T08:43:35.000Z</time>
      </trkpt>
      <trkpt lat="43.66291" lon="6.85954">
        <ele>758</ele>
        <time>2012-03-11T08:43:42.000Z</time>
      </trkpt>
      <trkpt lat="43.66289" lon="6.85951">
        <ele>757.40002441406</ele>
        <time>2012-03-11T08:43:50.000Z</time>
      </trkpt>
      <trkpt lat="43.66289" lon="6.85947">
        <ele>756.79998779297</ele>
        <time>2012-03-11T08:44:05.000Z</time>
      </trkpt>
      <trkpt lat="43.66287" lon="6.85942">
        <ele>756</ele>
        <time>2012-03-11T08:44:25.000Z</time>
      </trkpt>
      <trkpt lat="43.66277" lon="6.85935">
        <ele>755.20001220703</ele>
        <time>2012-03-11T08:44:29.000Z</time>
      </trkpt>
      <trkpt lat="43.66273" lon="6.85933">
        <ele>754.79998779297</ele>
        <time>2012-03-11T08:44:31.000Z</time>
      </trkpt>
      <trkpt lat="43.66265" lon="6.85924">
        <ele>753.79998779297</ele>
        <time>2012-03-11T08:44:37.000Z</time>
      </trkpt>
      <trkpt lat="43.66259" lon="6.85923">
        <ele>753.79998779297</ele>
        <time>2012-03-11T08:44:41.000Z</time>
      </trkpt>
      <trkpt lat="43.66256" lon="6.85923">
        <ele>753.79998779297</ele>
        <time>2012-03-11T08:44:43.000Z</time>
      </trkpt>
      <trkpt lat="43.66254" lon="6.85925">
        <ele>754.20001220703</ele>
        <time>2012-03-11T08:44:48.000Z</time>
      </trkpt>
      <trkpt lat="43.66258" lon="6.85928">
        <ele>754.79998779297</ele>
        <time>2012-03-11T08:45:00.000Z</time>
      </trkpt>
      <trkpt lat="43.66257" lon="6.85928">
        <ele>754.59997558594</ele>
        <time>2012-03-11T08:45:11.000Z</time>
      </trkpt>
      <trkpt lat="43.6626" lon="6.85933">
        <ele>755.40002441406</ele>
        <time>2012-03-11T08:45:36.000Z</time>
      </trkpt>
      <trkpt lat="43.66255" lon="6.85928">
        <ele>754.59997558594</ele>
        <time>2012-03-11T08:46:05.000Z</time>
      </trkpt>
      <trkpt lat="43.66254" lon="6.85928">
        <ele>754.79998779297</ele>
        <time>2012-03-11T08:46:19.000Z</time>
      </trkpt>
      <trkpt lat="43.66254" lon="6.85928">
        <ele>754.79998779297</ele>
        <time>2012-03-11T08:46:28.000Z</time>
      </trkpt>
      <trkpt lat="43.66253" lon="6.85928">
        <ele>754.79998779297</ele>
        <time>2012-03-11T08:46:46.000Z</time>
      </trkpt>
      <trkpt lat="43.66243" lon="6.85925">
        <ele>753.79998779297</ele>
        <time>2012-03-11T08:46:51.000Z</time>
      </trkpt>
      <trkpt lat="43.6623" lon="6.85919">
        <ele>752</ele>
        <time>2012-03-11T08:46:56.000Z</time>
      </trkpt>
      <trkpt lat="43.66221" lon="6.85909">
        <ele>749.59997558594</ele>
        <time>2012-03-11T08:47:00.000Z</time>
      </trkpt>
      <trkpt lat="43.66216" lon="6.85904">
        <ele>748</ele>
        <time>2012-03-11T08:47:06.000Z</time>
      </trkpt>
      <trkpt lat="43.66213" lon="6.85895">
        <ele>746.20001220703</ele>
        <time>2012-03-11T08:47:49.000Z</time>
      </trkpt>
      <trkpt lat="43.66212" lon="6.85896">
        <ele>746.40002441406</ele>
        <time>2012-03-11T08:47:52.000Z</time>
      </trkpt>
      <trkpt lat="43.66203" lon="6.85896">
        <ele>745.59997558594</ele>
        <time>2012-03-11T08:47:57.000Z</time>
      </trkpt>
      <trkpt lat="43.66198" lon="6.85897">
        <ele>745.59997558594</ele>
        <time>2012-03-11T08:48:03.000Z</time>
      </trkpt>
      <trkpt lat="43.66196" lon="6.85898">
        <ele>745.59997558594</ele>
        <time>2012-03-11T08:48:08.000Z</time>
      </trkpt>
      <trkpt lat="43.66192" lon="6.859">
        <ele>745.59997558594</ele>
        <time>2012-03-11T08:48:15.000Z</time>
      </trkpt>
      <trkpt lat="43.66188" lon="6.859">
        <ele>745.40002441406</ele>
        <time>2012-03-11T08:48:21.000Z</time>
      </trkpt>
      <trkpt lat="43.66185" lon="6.85897">
        <ele>744.59997558594</ele>
        <time>2012-03-11T08:48:27.000Z</time>
      </trkpt>
      <trkpt lat="43.66185" lon="6.85896">
        <ele>744.40002441406</ele>
        <time>2012-03-11T08:48:33.000Z</time>
      </trkpt>
      <trkpt lat="43.66185" lon="6.8589">
        <ele>743.20001220703</ele>
        <time>2012-03-11T08:48:43.000Z</time>
      </trkpt>
      <trkpt lat="43.66184" lon="6.85891">
        <ele>743.40002441406</ele>
        <time>2012-03-11T08:48:56.000Z</time>
      </trkpt>
      <trkpt lat="43.66181" lon="6.85889">
        <ele>742.59997558594</ele>
        <time>2012-03-11T08:49:03.000Z</time>
      </trkpt>
      <trkpt lat="43.66177" lon="6.85883">
        <ele>741.40002441406</ele>
        <time>2012-03-11T08:49:10.000Z</time>
      </trkpt>
      <trkpt lat="43.6618" lon="6.85877">
        <ele>740.40002441406</ele>
        <time>2012-03-11T08:49:14.000Z</time>
      </trkpt>
      <trkpt lat="43.6618" lon="6.85868">
        <ele>738.59997558594</ele>
        <time>2012-03-11T08:49:18.000Z</time>
      </trkpt>
      <trkpt lat="43.66178" lon="6.85859">
        <ele>736.79998779297</ele>
        <time>2012-03-11T08:49:21.000Z</time>
      </trkpt>
      <trkpt lat="43.6617" lon="6.8586">
        <ele>736.40002441406</ele>
        <time>2012-03-11T08:49:26.000Z</time>
      </trkpt>
      <trkpt lat="43.66171" lon="6.85861">
        <ele>736.59997558594</ele>
        <time>2012-03-11T08:49:30.000Z</time>
      </trkpt>
      <trkpt lat="43.66169" lon="6.85863">
        <ele>736.79998779297</ele>
        <time>2012-03-11T08:49:35.000Z</time>
      </trkpt>
      <trkpt lat="43.66164" lon="6.85867">
        <ele>737.40002441406</ele>
        <time>2012-03-11T08:49:41.000Z</time>
      </trkpt>
      <trkpt lat="43.66161" lon="6.85871">
        <ele>737.79998779297</ele>
        <time>2012-03-11T08:49:47.000Z</time>
      </trkpt>
      <trkpt lat="43.66158" lon="6.85873">
        <ele>738</ele>
        <time>2012-03-11T08:49:52.000Z</time>
      </trkpt>
      <trkpt lat="43.66152" lon="6.85876">
        <ele>738.20001220703</ele>
        <time>2012-03-11T08:49:57.000Z</time>
      </trkpt>
      <trkpt lat="43.66149" lon="6.85876">
        <ele>737.79998779297</ele>
        <time>2012-03-11T08:50:00.000Z</time>
      </trkpt>
      <trkpt lat="43.66146" lon="6.85882">
        <ele>738.59997558594</ele>
        <time>2012-03-11T08:50:08.000Z</time>
      </trkpt>
      <trkpt lat="43.66144" lon="6.85885">
        <ele>739</ele>
        <time>2012-03-11T08:50:14.000Z</time>
      </trkpt>
      <trkpt lat="43.66141" lon="6.85884">
        <ele>738.59997558594</ele>
        <time>2012-03-11T08:50:21.000Z</time>
      </trkpt>
      <trkpt lat="43.66138" lon="6.85886">
        <ele>738.79998779297</ele>
        <time>2012-03-11T08:50:28.000Z</time>
      </trkpt>
      <trkpt lat="43.66134" lon="6.85887">
        <ele>738.59997558594</ele>
        <time>2012-03-11T08:50:35.000Z</time>
      </trkpt>
      <trkpt lat="43.66131" lon="6.8589">
        <ele>738.59997558594</ele>
        <time>2012-03-11T08:50:42.000Z</time>
      </trkpt>
      <trkpt lat="43.66128" lon="6.8589">
        <ele>738.40002441406</ele>
        <time>2012-03-11T08:50:46.000Z</time>
      </trkpt>
      <trkpt lat="43.66122" lon="6.85883">
        <ele>737</ele>
        <time>2012-03-11T08:50:50.000Z</time>
      </trkpt>
      <trkpt lat="43.66113" lon="6.85873">
        <ele>734.79998779297</ele>
        <time>2012-03-11T08:50:55.000Z</time>
      </trkpt>
      <trkpt lat="43.66087" lon="6.8584">
        <ele>729.79998779297</ele>
        <time>2012-03-11T08:51:02.000Z</time>
      </trkpt>
      <trkpt lat="43.66083" lon="6.85835">
        <ele>729</ele>
        <time>2012-03-11T08:51:03.000Z</time>
      </trkpt>
      <trkpt lat="43.66067" lon="6.85817">
        <ele>725.20001220703</ele>
        <time>2012-03-11T08:51:07.000Z</time>
      </trkpt>
      <trkpt lat="43.66063" lon="6.85812">
        <ele>724.20001220703</ele>
        <time>2012-03-11T08:51:12.000Z</time>
      </trkpt>
      <trkpt lat="43.66064" lon="6.85812">
        <ele>724.20001220703</ele>
        <time>2012-03-11T08:51:14.000Z</time>
      </trkpt>
      <trkpt lat="43.66049" lon="6.85799">
        <ele>721.20001220703</ele>
        <time>2012-03-11T08:51:19.000Z</time>
      </trkpt>
      <trkpt lat="43.66024" lon="6.85773">
        <ele>716.20001220703</ele>
        <time>2012-03-11T08:51:24.000Z</time>
      </trkpt>
      <trkpt lat="43.66011" lon="6.85758">
        <ele>713.59997558594</ele>
        <time>2012-03-11T08:51:27.000Z</time>
      </trkpt>
      <trkpt lat="43.65973" lon="6.85724">
        <ele>706.20001220703</ele>
        <time>2012-03-11T08:51:34.000Z</time>
      </trkpt>
      <trkpt lat="43.65941" lon="6.85693">
        <ele>701</ele>
        <time>2012-03-11T08:51:39.000Z</time>
      </trkpt>
      <trkpt lat="43.65907" lon="6.8566">
        <ele>697</ele>
        <time>2012-03-11T08:51:44.000Z</time>
      </trkpt>
      <trkpt lat="43.65868" lon="6.85625">
        <ele>693</ele>
        <time>2012-03-11T08:51:50.000Z</time>
      </trkpt>
      <trkpt lat="43.65865" lon="6.85611">
        <ele>692.40002441406</ele>
        <time>2012-03-11T08:51:54.000Z</time>
      </trkpt>
      <trkpt lat="43.65875" lon="6.8561">
        <ele>693</ele>
        <time>2012-03-11T08:51:57.000Z</time>
      </trkpt>
      <trkpt lat="43.65888" lon="6.85619">
        <ele>694</ele>
        <time>2012-03-11T08:52:00.000Z</time>
      </trkpt>
      <trkpt lat="43.65901" lon="6.85628">
        <ele>695.20001220703</ele>
        <time>2012-03-11T08:52:03.000Z</time>
      </trkpt>
      <trkpt lat="43.65919" lon="6.85622">
        <ele>695.79998779297</ele>
        <time>2012-03-11T08:52:08.000Z</time>
      </trkpt>
      <trkpt lat="43.65923" lon="6.8562">
        <ele>695.79998779297</ele>
        <time>2012-03-11T08:52:09.000Z</time>
      </trkpt>
      <trkpt lat="43.65941" lon="6.85618">
        <ele>695.79998779297</ele>
        <time>2012-03-11T08:52:14.000Z</time>
      </trkpt>
      <trkpt lat="43.65953" lon="6.85626">
        <ele>696.20001220703</ele>
        <time>2012-03-11T08:52:18.000Z</time>
      </trkpt>
      <trkpt lat="43.65967" lon="6.8563">
        <ele>696.79998779297</ele>
        <time>2012-03-11T08:52:23.000Z</time>
      </trkpt>
      <trkpt lat="43.65982" lon="6.85622">
        <ele>696.20001220703</ele>
        <time>2012-03-11T08:52:28.000Z</time>
      </trkpt>
      <trkpt lat="43.66" lon="6.85608">
        <ele>694.79998779297</ele>
        <time>2012-03-11T08:52:32.000Z</time>
      </trkpt>
      <trkpt lat="43.66026" lon="6.85589">
        <ele>693</ele>
        <time>2012-03-11T08:52:37.000Z</time>
      </trkpt>
      <trkpt lat="43.66042" lon="6.85597">
        <ele>694</ele>
        <time>2012-03-11T08:52:40.000Z</time>
      </trkpt>
      <trkpt lat="43.66044" lon="6.85602">
        <ele>694.79998779297</ele>
        <time>2012-03-11T08:52:41.000Z</time>
      </trkpt>
      <trkpt lat="43.66049" lon="6.85613">
        <ele>696.20001220703</ele>
        <time>2012-03-11T08:52:43.000Z</time>
      </trkpt>
      <trkpt lat="43.66064" lon="6.85624">
        <ele>698</ele>
        <time>2012-03-11T08:52:48.000Z</time>
      </trkpt>
      <trkpt lat="43.66075" lon="6.85612">
        <ele>696.59997558594</ele>
        <time>2012-03-11T08:52:52.000Z</time>
      </trkpt>
      <trkpt lat="43.66072" lon="6.85592">
        <ele>694</ele>
        <time>2012-03-11T08:52:56.000Z</time>
      </trkpt>
      <trkpt lat="43.66064" lon="6.85582">
        <ele>692.79998779297</ele>
        <time>2012-03-11T08:52:58.000Z</time>
      </trkpt>
      <trkpt lat="43.66046" lon="6.85548">
        <ele>691</ele>
        <time>2012-03-11T08:53:04.000Z</time>
      </trkpt>
      <trkpt lat="43.66046" lon="6.85529">
        <ele>690</ele>
        <time>2012-03-11T08:53:07.000Z</time>
      </trkpt>
      <trkpt lat="43.6604" lon="6.85511">
        <ele>689</ele>
        <time>2012-03-11T08:53:10.000Z</time>
      </trkpt>
      <trkpt lat="43.66031" lon="6.85506">
        <ele>688.40002441406</ele>
        <time>2012-03-11T08:53:12.000Z</time>
      </trkpt>
      <trkpt lat="43.66003" lon="6.85494">
        <ele>686.79998779297</ele>
        <time>2012-03-11T08:53:18.000Z</time>
      </trkpt>
      <trkpt lat="43.65999" lon="6.85478">
        <ele>685.79998779297</ele>
        <time>2012-03-11T08:53:22.000Z</time>
      </trkpt>
      <trkpt lat="43.66002" lon="6.85474">
        <ele>685.59997558594</ele>
        <time>2012-03-11T08:53:23.000Z</time>
      </trkpt>
      <trkpt lat="43.66007" lon="6.85465">
        <ele>685.20001220703</ele>
        <time>2012-03-11T08:53:25.000Z</time>
      </trkpt>
      <trkpt lat="43.6602" lon="6.85458">
        <ele>685.40002441406</ele>
        <time>2012-03-11T08:53:29.000Z</time>
      </trkpt>
      <trkpt lat="43.6603" lon="6.85459">
        <ele>686</ele>
        <time>2012-03-11T08:53:31.000Z</time>
      </trkpt>
      <trkpt lat="43.66041" lon="6.85454">
        <ele>686.20001220703</ele>
        <time>2012-03-11T08:53:36.000Z</time>
      </trkpt>
      <trkpt lat="43.66051" lon="6.85454">
        <ele>686.79998779297</ele>
        <time>2012-03-11T08:53:40.000Z</time>
      </trkpt>
      <trkpt lat="43.66055" lon="6.85439">
        <ele>686.40002441406</ele>
        <time>2012-03-11T08:53:43.000Z</time>
      </trkpt>
      <trkpt lat="43.66061" lon="6.85416">
        <ele>685.59997558594</ele>
        <time>2012-03-11T08:53:48.000Z</time>
      </trkpt>
      <trkpt lat="43.66062" lon="6.85387">
        <ele>684.40002441406</ele>
        <time>2012-03-11T08:53:53.000Z</time>
      </trkpt>
      <trkpt lat="43.66059" lon="6.85368">
        <ele>683.40002441406</ele>
        <time>2012-03-11T08:53:56.000Z</time>
      </trkpt>
      <trkpt lat="43.66065" lon="6.8534">
        <ele>682.40002441406</ele>
        <time>2012-03-11T08:54:00.000Z</time>
      </trkpt>
      <trkpt lat="43.66075" lon="6.85312">
        <ele>680.40002441406</ele>
        <time>2012-03-11T08:54:04.000Z</time>
      </trkpt>
      <trkpt lat="43.66077" lon="6.85305">
        <ele>679.79998779297</ele>
        <time>2012-03-11T08:54:05.000Z</time>
      </trkpt>
      <trkpt lat="43.66099" lon="6.85266">
        <ele>675.20001220703</ele>
        <time>2012-03-11T08:54:11.000Z</time>
      </trkpt>
      <trkpt lat="43.66104" lon="6.85245">
        <ele>673</ele>
        <time>2012-03-11T08:54:14.000Z</time>
      </trkpt>
      <trkpt lat="43.661" lon="6.85217">
        <ele>671</ele>
        <time>2012-03-11T08:54:18.000Z</time>
      </trkpt>
      <trkpt lat="43.66102" lon="6.85196">
        <ele>669.40002441406</ele>
        <time>2012-03-11T08:54:21.000Z</time>
      </trkpt>
      <trkpt lat="43.6611" lon="6.8517">
        <ele>667.20001220703</ele>
        <time>2012-03-11T08:54:25.000Z</time>
      </trkpt>
      <trkpt lat="43.66109" lon="6.85145">
        <ele>665.79998779297</ele>
        <time>2012-03-11T08:54:29.000Z</time>
      </trkpt>
      <trkpt lat="43.66112" lon="6.85134">
        <ele>665</ele>
        <time>2012-03-11T08:54:35.000Z</time>
      </trkpt>
      <trkpt lat="43.66113" lon="6.85131">
        <ele>664.79998779297</ele>
        <time>2012-03-11T08:54:41.000Z</time>
      </trkpt>
      <trkpt lat="43.66111" lon="6.85123">
        <ele>664.40002441406</ele>
        <time>2012-03-11T08:54:49.000Z</time>
      </trkpt>
      <trkpt lat="43.66111" lon="6.85116">
        <ele>664</ele>
        <time>2012-03-11T08:54:52.000Z</time>
      </trkpt>
      <trkpt lat="43.66111" lon="6.85105">
        <ele>663.40002441406</ele>
        <time>2012-03-11T08:54:56.000Z</time>
      </trkpt>
      <trkpt lat="43.66109" lon="6.85099">
        <ele>663</ele>
        <time>2012-03-11T08:54:58.000Z</time>
      </trkpt>
      <trkpt lat="43.6611" lon="6.85074">
        <ele>661.40002441406</ele>
        <time>2012-03-11T08:55:04.000Z</time>
      </trkpt>
      <trkpt lat="43.66111" lon="6.85069">
        <ele>661</ele>
        <time>2012-03-11T08:55:05.000Z</time>
      </trkpt>
      <trkpt lat="43.66117" lon="6.85051">
        <ele>659.40002441406</ele>
        <time>2012-03-11T08:55:10.000Z</time>
      </trkpt>
      <trkpt lat="43.66118" lon="6.85038">
        <ele>658.40002441406</ele>
        <time>2012-03-11T08:55:16.000Z</time>
      </trkpt>
      <trkpt lat="43.66117" lon="6.85028">
        <ele>657.79998779297</ele>
        <time>2012-03-11T08:55:22.000Z</time>
      </trkpt>
      <trkpt lat="43.66116" lon="6.85027">
        <ele>657.79998779297</ele>
        <time>2012-03-11T08:55:29.000Z</time>
      </trkpt>
      <trkpt lat="43.66117" lon="6.85029">
        <ele>658</ele>
        <time>2012-03-11T08:55:37.000Z</time>
      </trkpt>
      <trkpt lat="43.66114" lon="6.85031">
        <ele>658.20001220703</ele>
        <time>2012-03-11T08:56:05.000Z</time>
      </trkpt>
      <trkpt lat="43.66113" lon="6.85028">
        <ele>658</ele>
        <time>2012-03-11T08:56:09.000Z</time>
      </trkpt>
      <trkpt lat="43.6611" lon="6.85013">
        <ele>657</ele>
        <time>2012-03-11T08:56:15.000Z</time>
      </trkpt>
      <trkpt lat="43.6611" lon="6.85005">
        <ele>656.40002441406</ele>
        <time>2012-03-11T08:56:20.000Z</time>
      </trkpt>
      <trkpt lat="43.66111" lon="6.85002">
        <ele>656.20001220703</ele>
        <time>2012-03-11T08:56:27.000Z</time>
      </trkpt>
      <trkpt lat="43.66111" lon="6.84994">
        <ele>655.40002441406</ele>
        <time>2012-03-11T08:56:33.000Z</time>
      </trkpt>
      <trkpt lat="43.66111" lon="6.84989">
        <ele>654.79998779297</ele>
        <time>2012-03-11T08:56:39.000Z</time>
      </trkpt>
      <trkpt lat="43.66111" lon="6.84984">
        <ele>654.20001220703</ele>
        <time>2012-03-11T08:56:44.000Z</time>
      </trkpt>
      <trkpt lat="43.66111" lon="6.84971">
        <ele>652.59997558594</ele>
        <time>2012-03-11T08:56:49.000Z</time>
      </trkpt>
      <trkpt lat="43.66112" lon="6.8496">
        <ele>651.40002441406</ele>
        <time>2012-03-11T08:56:55.000Z</time>
      </trkpt>
      <trkpt lat="43.66113" lon="6.84959">
        <ele>651.20001220703</ele>
        <time>2012-03-11T08:56:56.000Z</time>
      </trkpt>
      <trkpt lat="43.66117" lon="6.84937">
        <ele>648.79998779297</ele>
        <time>2012-03-11T08:57:02.000Z</time>
      </trkpt>
      <trkpt lat="43.66115" lon="6.84916">
        <ele>646.40002441406</ele>
        <time>2012-03-11T08:57:06.000Z</time>
      </trkpt>
      <trkpt lat="43.6612" lon="6.84892">
        <ele>644</ele>
        <time>2012-03-11T08:57:10.000Z</time>
      </trkpt>
      <trkpt lat="43.6613" lon="6.84857">
        <ele>640.79998779297</ele>
        <time>2012-03-11T08:57:15.000Z</time>
      </trkpt>
      <trkpt lat="43.66133" lon="6.8485">
        <ele>640.40002441406</ele>
        <time>2012-03-11T08:57:16.000Z</time>
      </trkpt>
      <trkpt lat="43.6614" lon="6.84827">
        <ele>638.79998779297</ele>
        <time>2012-03-11T08:57:19.000Z</time>
      </trkpt>
      <trkpt lat="43.66149" lon="6.84797">
        <ele>637.59997558594</ele>
        <time>2012-03-11T08:57:23.000Z</time>
      </trkpt>
      <trkpt lat="43.66158" lon="6.84778">
        <ele>637</ele>
        <time>2012-03-11T08:57:26.000Z</time>
      </trkpt>
      <trkpt lat="43.66152" lon="6.84766">
        <ele>636.20001220703</ele>
        <time>2012-03-11T08:57:30.000Z</time>
      </trkpt>
      <trkpt lat="43.66144" lon="6.84754">
        <ele>635.40002441406</ele>
        <time>2012-03-11T08:57:33.000Z</time>
      </trkpt>
      <trkpt lat="43.66147" lon="6.84741">
        <ele>635</ele>
        <time>2012-03-11T08:57:35.000Z</time>
      </trkpt>
      <trkpt lat="43.66152" lon="6.84699">
        <ele>634</ele>
        <time>2012-03-11T08:57:42.000Z</time>
      </trkpt>
      <trkpt lat="43.66152" lon="6.84695">
        <ele>634</ele>
        <time>2012-03-11T08:57:43.000Z</time>
      </trkpt>
      <trkpt lat="43.66155" lon="6.84685">
        <ele>633.59997558594</ele>
        <time>2012-03-11T08:57:47.000Z</time>
      </trkpt>
      <trkpt lat="43.66154" lon="6.8468">
        <ele>633.59997558594</ele>
        <time>2012-03-11T08:57:55.000Z</time>
      </trkpt>
      <trkpt lat="43.66154" lon="6.84678">
        <ele>633.40002441406</ele>
        <time>2012-03-11T08:57:58.000Z</time>
      </trkpt>
      <trkpt lat="43.66155" lon="6.84663">
        <ele>633</ele>
        <time>2012-03-11T08:58:03.000Z</time>
      </trkpt>
      <trkpt lat="43.66156" lon="6.84642">
        <ele>632.20001220703</ele>
        <time>2012-03-11T08:58:07.000Z</time>
      </trkpt>
      <trkpt lat="43.6615" lon="6.846">
        <ele>631</ele>
        <time>2012-03-11T08:58:14.000Z</time>
      </trkpt>
      <trkpt lat="43.66151" lon="6.84574">
        <ele>630</ele>
        <time>2012-03-11T08:58:18.000Z</time>
      </trkpt>
      <trkpt lat="43.66146" lon="6.84544">
        <ele>628.79998779297</ele>
        <time>2012-03-11T08:58:23.000Z</time>
      </trkpt>
      <trkpt lat="43.6614" lon="6.84511">
        <ele>627.40002441406</ele>
        <time>2012-03-11T08:58:28.000Z</time>
      </trkpt>
      <trkpt lat="43.66142" lon="6.84495">
        <ele>626.79998779297</ele>
        <time>2012-03-11T08:58:31.000Z</time>
      </trkpt>
      <trkpt lat="43.66138" lon="6.84465">
        <ele>625.20001220703</ele>
        <time>2012-03-11T08:58:37.000Z</time>
      </trkpt>
      <trkpt lat="43.66137" lon="6.84442">
        <ele>624</ele>
        <time>2012-03-11T08:58:41.000Z</time>
      </trkpt>
      <trkpt lat="43.66132" lon="6.84421">
        <ele>623</ele>
        <time>2012-03-11T08:58:45.000Z</time>
      </trkpt>
      <trkpt lat="43.66135" lon="6.84398">
        <ele>621.79998779297</ele>
        <time>2012-03-11T08:58:49.000Z</time>
      </trkpt>
      <trkpt lat="43.66141" lon="6.84378">
        <ele>620.40002441406</ele>
        <time>2012-03-11T08:58:52.000Z</time>
      </trkpt>
      <trkpt lat="43.66153" lon="6.84342">
        <ele>617.59997558594</ele>
        <time>2012-03-11T08:58:57.000Z</time>
      </trkpt>
      <trkpt lat="43.66154" lon="6.84325">
        <ele>616.40002441406</ele>
        <time>2012-03-11T08:58:59.000Z</time>
      </trkpt>
      <trkpt lat="43.66155" lon="6.84268">
        <ele>612.40002441406</ele>
        <time>2012-03-11T08:59:06.000Z</time>
      </trkpt>
      <trkpt lat="43.66155" lon="6.84232">
        <ele>609.79998779297</ele>
        <time>2012-03-11T08:59:10.000Z</time>
      </trkpt>
      <trkpt lat="43.66157" lon="6.84196">
        <ele>607.20001220703</ele>
        <time>2012-03-11T08:59:15.000Z</time>
      </trkpt>
      <trkpt lat="43.66159" lon="6.84191">
        <ele>606.59997558594</ele>
        <time>2012-03-11T08:59:16.000Z</time>
      </trkpt>
      <trkpt lat="43.66161" lon="6.84167">
        <ele>604.79998779297</ele>
        <time>2012-03-11T08:59:21.000Z</time>
      </trkpt>
      <trkpt lat="43.66159" lon="6.84148">
        <ele>603.79998779297</ele>
        <time>2012-03-11T08:59:24.000Z</time>
      </trkpt>
      <trkpt lat="43.66161" lon="6.84125">
        <ele>602.20001220703</ele>
        <time>2012-03-11T08:59:28.000Z</time>
      </trkpt>
      <trkpt lat="43.66163" lon="6.84094">
        <ele>600</ele>
        <time>2012-03-11T08:59:33.000Z</time>
      </trkpt>
      <trkpt lat="43.66151" lon="6.84041">
        <ele>600.59997558594</ele>
        <time>2012-03-11T08:59:41.000Z</time>
      </trkpt>
      <trkpt lat="43.66153" lon="6.84017">
        <ele>600.40002441406</ele>
        <time>2012-03-11T08:59:45.000Z</time>
      </trkpt>
      <trkpt lat="43.66154" lon="6.84004">
        <ele>600.20001220703</ele>
        <time>2012-03-11T08:59:47.000Z</time>
      </trkpt>
      <trkpt lat="43.66161" lon="6.83978">
        <ele>599.79998779297</ele>
        <time>2012-03-11T08:59:51.000Z</time>
      </trkpt>
      <trkpt lat="43.66165" lon="6.83957">
        <ele>599.59997558594</ele>
        <time>2012-03-11T08:59:54.000Z</time>
      </trkpt>
      <trkpt lat="43.66175" lon="6.83931">
        <ele>598.79998779297</ele>
        <time>2012-03-11T08:59:58.000Z</time>
      </trkpt>
      <trkpt lat="43.66176" lon="6.83916">
        <ele>598.79998779297</ele>
        <time>2012-03-11T09:00:00.000Z</time>
      </trkpt>
      <trkpt lat="43.66174" lon="6.83895">
        <ele>599.20001220703</ele>
        <time>2012-03-11T09:00:03.000Z</time>
      </trkpt>
      <trkpt lat="43.66181" lon="6.8386">
        <ele>598.79998779297</ele>
        <time>2012-03-11T09:00:08.000Z</time>
      </trkpt>
      <trkpt lat="43.66184" lon="6.83843">
        <ele>598.40002441406</ele>
        <time>2012-03-11T09:00:10.000Z</time>
      </trkpt>
      <trkpt lat="43.6618" lon="6.83803">
        <ele>598.79998779297</ele>
        <time>2012-03-11T09:00:15.000Z</time>
      </trkpt>
      <trkpt lat="43.66176" lon="6.83794">
        <ele>599.20001220703</ele>
        <time>2012-03-11T09:00:17.000Z</time>
      </trkpt>
      <trkpt lat="43.66174" lon="6.83781">
        <ele>599.40002441406</ele>
        <time>2012-03-11T09:00:23.000Z</time>
      </trkpt>
      <trkpt lat="43.66172" lon="6.83773">
        <ele>599.59997558594</ele>
        <time>2012-03-11T09:00:27.000Z</time>
      </trkpt>
      <trkpt lat="43.66172" lon="6.83768">
        <ele>599.59997558594</ele>
        <time>2012-03-11T09:00:29.000Z</time>
      </trkpt>
      <trkpt lat="43.66182" lon="6.83749">
        <ele>597.79998779297</ele>
        <time>2012-03-11T09:00:34.000Z</time>
      </trkpt>
      <trkpt lat="43.66189" lon="6.83731">
        <ele>595.79998779297</ele>
        <time>2012-03-11T09:00:39.000Z</time>
      </trkpt>
      <trkpt lat="43.66188" lon="6.83728">
        <ele>595.59997558594</ele>
        <time>2012-03-11T09:00:40.000Z</time>
      </trkpt>
      <trkpt lat="43.66188" lon="6.83699">
        <ele>594</ele>
        <time>2012-03-11T09:00:46.000Z</time>
      </trkpt>
      <trkpt lat="43.66192" lon="6.83675">
        <ele>591.79998779297</ele>
        <time>2012-03-11T09:00:50.000Z</time>
      </trkpt>
      <trkpt lat="43.66194" lon="6.83668">
        <ele>591.20001220703</ele>
        <time>2012-03-11T09:00:51.000Z</time>
      </trkpt>
      <trkpt lat="43.66198" lon="6.83651">
        <ele>590</ele>
        <time>2012-03-11T09:00:54.000Z</time>
      </trkpt>
      <trkpt lat="43.66195" lon="6.83636">
        <ele>590</ele>
        <time>2012-03-11T09:00:59.000Z</time>
      </trkpt>
      <trkpt lat="43.66192" lon="6.83633">
        <ele>590.40002441406</ele>
        <time>2012-03-11T09:01:01.000Z</time>
      </trkpt>
      <trkpt lat="43.66187" lon="6.83632">
        <ele>590.79998779297</ele>
        <time>2012-03-11T09:01:05.000Z</time>
      </trkpt>
      <trkpt lat="43.66174" lon="6.83626">
        <ele>592.40002441406</ele>
        <time>2012-03-11T09:01:11.000Z</time>
      </trkpt>
      <trkpt lat="43.66165" lon="6.83621">
        <ele>593.40002441406</ele>
        <time>2012-03-11T09:01:15.000Z</time>
      </trkpt>
      <trkpt lat="43.66154" lon="6.83616">
        <ele>594.40002441406</ele>
        <time>2012-03-11T09:01:21.000Z</time>
      </trkpt>
      <trkpt lat="43.6615" lon="6.83614">
        <ele>594.59997558594</ele>
        <time>2012-03-11T09:01:23.000Z</time>
      </trkpt>
      <trkpt lat="43.6614" lon="6.836">
        <ele>595.20001220703</ele>
        <time>2012-03-11T09:01:31.000Z</time>
      </trkpt>
      <trkpt lat="43.66134" lon="6.83587">
        <ele>595.59997558594</ele>
        <time>2012-03-11T09:01:37.000Z</time>
      </trkpt>
      <trkpt lat="43.66128" lon="6.83572">
        <ele>596.40002441406</ele>
        <time>2012-03-11T09:01:44.000Z</time>
      </trkpt>
      <trkpt lat="43.6612" lon="6.83564">
        <ele>597.59997558594</ele>
        <time>2012-03-11T09:01:51.000Z</time>
      </trkpt>
      <trkpt lat="43.6611" lon="6.83564">
        <ele>598.59997558594</ele>
        <time>2012-03-11T09:01:58.000Z</time>
      </trkpt>
      <trkpt lat="43.66102" lon="6.83563">
        <ele>599.40002441406</ele>
        <time>2012-03-11T09:02:04.000Z</time>
      </trkpt>
      <trkpt lat="43.66091" lon="6.83562">
        <ele>600.79998779297</ele>
        <time>2012-03-11T09:02:12.000Z</time>
      </trkpt>
      <trkpt lat="43.6608" lon="6.8356">
        <ele>602</ele>
        <time>2012-03-11T09:02:19.000Z</time>
      </trkpt>
      <trkpt lat="43.6607" lon="6.83554">
        <ele>603.40002441406</ele>
        <time>2012-03-11T09:02:27.000Z</time>
      </trkpt>
      <trkpt lat="43.66061" lon="6.83545">
        <ele>604.59997558594</ele>
        <time>2012-03-11T09:02:34.000Z</time>
      </trkpt>
      <trkpt lat="43.66058" lon="6.8354">
        <ele>605.20001220703</ele>
        <time>2012-03-11T09:02:37.000Z</time>
      </trkpt>
      <trkpt lat="43.66055" lon="6.83535">
        <ele>605.59997558594</ele>
        <time>2012-03-11T09:02:43.000Z</time>
      </trkpt>
      <trkpt lat="43.66051" lon="6.83531">
        <ele>606.20001220703</ele>
        <time>2012-03-11T09:02:48.000Z</time>
      </trkpt>
      <trkpt lat="43.66043" lon="6.83522">
        <ele>607.40002441406</ele>
        <time>2012-03-11T09:02:54.000Z</time>
      </trkpt>
      <trkpt lat="43.66033" lon="6.83517">
        <ele>608.59997558594</ele>
        <time>2012-03-11T09:02:59.000Z</time>
      </trkpt>
      <trkpt lat="43.66023" lon="6.83519">
        <ele>610</ele>
        <time>2012-03-11T09:03:04.000Z</time>
      </trkpt>
      <trkpt lat="43.66012" lon="6.83516">
        <ele>611.20001220703</ele>
        <time>2012-03-11T09:03:11.000Z</time>
      </trkpt>
      <trkpt lat="43.66005" lon="6.83513">
        <ele>612.20001220703</ele>
        <time>2012-03-11T09:03:17.000Z</time>
      </trkpt>
      <trkpt lat="43.66003" lon="6.8351">
        <ele>612.40002441406</ele>
        <time>2012-03-11T09:03:19.000Z</time>
      </trkpt>
      <trkpt lat="43.66004" lon="6.83492">
        <ele>612.40002441406</ele>
        <time>2012-03-11T09:03:25.000Z</time>
      </trkpt>
      <trkpt lat="43.66" lon="6.83473">
        <ele>612.40002441406</ele>
        <time>2012-03-11T09:03:31.000Z</time>
      </trkpt>
      <trkpt lat="43.66005" lon="6.8346">
        <ele>611.59997558594</ele>
        <time>2012-03-11T09:03:36.000Z</time>
      </trkpt>
      <trkpt lat="43.66015" lon="6.83439">
        <ele>610</ele>
        <time>2012-03-11T09:03:42.000Z</time>
      </trkpt>
      <trkpt lat="43.6603" lon="6.8342">
        <ele>608.20001220703</ele>
        <time>2012-03-11T09:03:47.000Z</time>
      </trkpt>
      <trkpt lat="43.6604" lon="6.834">
        <ele>607.79998779297</ele>
        <time>2012-03-11T09:03:51.000Z</time>
      </trkpt>
      <trkpt lat="43.66042" lon="6.83386">
        <ele>608</ele>
        <time>2012-03-11T09:03:55.000Z</time>
      </trkpt>
      <trkpt lat="43.66048" lon="6.8336">
        <ele>608.59997558594</ele>
        <time>2012-03-11T09:04:01.000Z</time>
      </trkpt>
      <trkpt lat="43.6605" lon="6.83331">
        <ele>609.79998779297</ele>
        <time>2012-03-11T09:04:07.000Z</time>
      </trkpt>
      <trkpt lat="43.66056" lon="6.83309">
        <ele>611</ele>
        <time>2012-03-11T09:04:12.000Z</time>
      </trkpt>
      <trkpt lat="43.6607" lon="6.8329">
        <ele>612</ele>
        <time>2012-03-11T09:04:17.000Z</time>
      </trkpt>
      <trkpt lat="43.6608" lon="6.83272">
        <ele>613.20001220703</ele>
        <time>2012-03-11T09:04:22.000Z</time>
      </trkpt>
      <trkpt lat="43.66087" lon="6.83252">
        <ele>614.40002441406</ele>
        <time>2012-03-11T09:04:27.000Z</time>
      </trkpt>
      <trkpt lat="43.66095" lon="6.83238">
        <ele>614.79998779297</ele>
        <time>2012-03-11T09:04:32.000Z</time>
      </trkpt>
      <trkpt lat="43.66103" lon="6.83223">
        <ele>615.40002441406</ele>
        <time>2012-03-11T09:04:37.000Z</time>
      </trkpt>
      <trkpt lat="43.66106" lon="6.83209">
        <ele>616.40002441406</ele>
        <time>2012-03-11T09:04:43.000Z</time>
      </trkpt>
      <trkpt lat="43.66108" lon="6.83197">
        <ele>617.40002441406</ele>
        <time>2012-03-11T09:04:49.000Z</time>
      </trkpt>
      <trkpt lat="43.66108" lon="6.83182">
        <ele>618.79998779297</ele>
        <time>2012-03-11T09:04:55.000Z</time>
      </trkpt>
      <trkpt lat="43.66112" lon="6.83168">
        <ele>619.79998779297</ele>
        <time>2012-03-11T09:05:01.000Z</time>
      </trkpt>
      <trkpt lat="43.66114" lon="6.83158">
        <ele>620.59997558594</ele>
        <time>2012-03-11T09:05:05.000Z</time>
      </trkpt>
      <trkpt lat="43.66115" lon="6.83155">
        <ele>620.79998779297</ele>
        <time>2012-03-11T09:05:08.000Z</time>
      </trkpt>
      <trkpt lat="43.66117" lon="6.8315">
        <ele>621.20001220703</ele>
        <time>2012-03-11T09:05:12.000Z</time>
      </trkpt>
      <trkpt lat="43.66118" lon="6.83141">
        <ele>622.20001220703</ele>
        <time>2012-03-11T09:05:17.000Z</time>
      </trkpt>
      <trkpt lat="43.66119" lon="6.83131">
        <ele>623.20001220703</ele>
        <time>2012-03-11T09:05:23.000Z</time>
      </trkpt>
      <trkpt lat="43.66119" lon="6.83129">
        <ele>623.59997558594</ele>
        <time>2012-03-11T09:05:24.000Z</time>
      </trkpt>
      <trkpt lat="43.66122" lon="6.83104">
        <ele>626.20001220703</ele>
        <time>2012-03-11T09:05:31.000Z</time>
      </trkpt>
      <trkpt lat="43.66125" lon="6.83089">
        <ele>627.79998779297</ele>
        <time>2012-03-11T09:05:37.000Z</time>
      </trkpt>
      <trkpt lat="43.66127" lon="6.83083">
        <ele>628.40002441406</ele>
        <time>2012-03-11T09:05:39.000Z</time>
      </trkpt>
      <trkpt lat="43.6613" lon="6.83069">
        <ele>629.40002441406</ele>
        <time>2012-03-11T09:05:46.000Z</time>
      </trkpt>
      <trkpt lat="43.6613" lon="6.83067">
        <ele>629.59997558594</ele>
        <time>2012-03-11T09:05:47.000Z</time>
      </trkpt>
      <trkpt lat="43.66133" lon="6.83051">
        <ele>631</ele>
        <time>2012-03-11T09:05:54.000Z</time>
      </trkpt>
      <trkpt lat="43.66134" lon="6.83044">
        <ele>631.59997558594</ele>
        <time>2012-03-11T09:05:57.000Z</time>
      </trkpt>
      <trkpt lat="43.66133" lon="6.83034">
        <ele>632.59997558594</ele>
        <time>2012-03-11T09:06:02.000Z</time>
      </trkpt>
      <trkpt lat="43.66139" lon="6.83017">
        <ele>634</ele>
        <time>2012-03-11T09:06:08.000Z</time>
      </trkpt>
      <trkpt lat="43.66143" lon="6.82999">
        <ele>635.79998779297</ele>
        <time>2012-03-11T09:06:15.000Z</time>
      </trkpt>
      <trkpt lat="43.66148" lon="6.82988">
        <ele>636.59997558594</ele>
        <time>2012-03-11T09:06:20.000Z</time>
      </trkpt>
      <trkpt lat="43.66153" lon="6.82974">
        <ele>637.59997558594</ele>
        <time>2012-03-11T09:06:25.000Z</time>
      </trkpt>
      <trkpt lat="43.66155" lon="6.82968">
        <ele>638</ele>
        <time>2012-03-11T09:06:29.000Z</time>
      </trkpt>
      <trkpt lat="43.66162" lon="6.82947">
        <ele>639.59997558594</ele>
        <time>2012-03-11T09:06:36.000Z</time>
      </trkpt>
      <trkpt lat="43.6617" lon="6.82925">
        <ele>641</ele>
        <time>2012-03-11T09:06:43.000Z</time>
      </trkpt>
      <trkpt lat="43.66175" lon="6.82911">
        <ele>641</ele>
        <time>2012-03-11T09:06:48.000Z</time>
      </trkpt>
      <trkpt lat="43.6618" lon="6.82899">
        <ele>640.59997558594</ele>
        <time>2012-03-11T09:06:52.000Z</time>
      </trkpt>
      <trkpt lat="43.66185" lon="6.82886">
        <ele>640.40002441406</ele>
        <time>2012-03-11T09:06:59.000Z</time>
      </trkpt>
      <trkpt lat="43.66192" lon="6.82867">
        <ele>640.40002441406</ele>
        <time>2012-03-11T09:07:06.000Z</time>
      </trkpt>
      <trkpt lat="43.66199" lon="6.8285">
        <ele>640.79998779297</ele>
        <time>2012-03-11T09:07:12.000Z</time>
      </trkpt>
      <trkpt lat="43.66202" lon="6.82843">
        <ele>641</ele>
        <time>2012-03-11T09:07:16.000Z</time>
      </trkpt>
      <trkpt lat="43.66213" lon="6.82827">
        <ele>641.79998779297</ele>
        <time>2012-03-11T09:07:22.000Z</time>
      </trkpt>
      <trkpt lat="43.66216" lon="6.82816">
        <ele>642.59997558594</ele>
        <time>2012-03-11T09:07:26.000Z</time>
      </trkpt>
      <trkpt lat="43.66218" lon="6.82802">
        <ele>643.40002441406</ele>
        <time>2012-03-11T09:07:32.000Z</time>
      </trkpt>
      <trkpt lat="43.6622" lon="6.82794">
        <ele>643.79998779297</ele>
        <time>2012-03-11T09:07:37.000Z</time>
      </trkpt>
      <trkpt lat="43.6622" lon="6.8279">
        <ele>644</ele>
        <time>2012-03-11T09:07:39.000Z</time>
      </trkpt>
      <trkpt lat="43.66222" lon="6.82784">
        <ele>644.40002441406</ele>
        <time>2012-03-11T09:07:44.000Z</time>
      </trkpt>
      <trkpt lat="43.66223" lon="6.82781">
        <ele>644.59997558594</ele>
        <time>2012-03-11T09:07:47.000Z</time>
      </trkpt>
      <trkpt lat="43.66224" lon="6.82775">
        <ele>645</ele>
        <time>2012-03-11T09:07:53.000Z</time>
      </trkpt>
      <trkpt lat="43.66223" lon="6.8277">
        <ele>645.20001220703</ele>
        <time>2012-03-11T09:07:56.000Z</time>
      </trkpt>
      <trkpt lat="43.66224" lon="6.82765">
        <ele>645.59997558594</ele>
        <time>2012-03-11T09:07:59.000Z</time>
      </trkpt>
      <trkpt lat="43.66224" lon="6.82752">
        <ele>646.40002441406</ele>
        <time>2012-03-11T09:08:05.000Z</time>
      </trkpt>
      <trkpt lat="43.66233" lon="6.8274">
        <ele>647.79998779297</ele>
        <time>2012-03-11T09:08:12.000Z</time>
      </trkpt>
      <trkpt lat="43.66244" lon="6.82738">
        <ele>648.59997558594</ele>
        <time>2012-03-11T09:08:17.000Z</time>
      </trkpt>
      <trkpt lat="43.66262" lon="6.82736">
        <ele>648</ele>
        <time>2012-03-11T09:08:23.000Z</time>
      </trkpt>
      <trkpt lat="43.66275" lon="6.82727">
        <ele>647.59997558594</ele>
        <time>2012-03-11T09:08:29.000Z</time>
      </trkpt>
      <trkpt lat="43.6628" lon="6.82713">
        <ele>648.59997558594</ele>
        <time>2012-03-11T09:08:36.000Z</time>
      </trkpt>
      <trkpt lat="43.66282" lon="6.82697">
        <ele>649.79998779297</ele>
        <time>2012-03-11T09:08:42.000Z</time>
      </trkpt>
      <trkpt lat="43.66284" lon="6.82684">
        <ele>650.79998779297</ele>
        <time>2012-03-11T09:08:48.000Z</time>
      </trkpt>
      <trkpt lat="43.66289" lon="6.82669">
        <ele>652</ele>
        <time>2012-03-11T09:08:55.000Z</time>
      </trkpt>
      <trkpt lat="43.6629" lon="6.82652">
        <ele>653.40002441406</ele>
        <time>2012-03-11T09:09:01.000Z</time>
      </trkpt>
      <trkpt lat="43.66297" lon="6.82632">
        <ele>654.79998779297</ele>
        <time>2012-03-11T09:09:08.000Z</time>
      </trkpt>
      <trkpt lat="43.66301" lon="6.82619">
        <ele>655.59997558594</ele>
        <time>2012-03-11T09:09:13.000Z</time>
      </trkpt>
      <trkpt lat="43.66305" lon="6.82609">
        <ele>656.40002441406</ele>
        <time>2012-03-11T09:09:18.000Z</time>
      </trkpt>
      <trkpt lat="43.6631" lon="6.82594">
        <ele>657.40002441406</ele>
        <time>2012-03-11T09:09:24.000Z</time>
      </trkpt>
      <trkpt lat="43.66311" lon="6.82578">
        <ele>658.79998779297</ele>
        <time>2012-03-11T09:09:31.000Z</time>
      </trkpt>
      <trkpt lat="43.66315" lon="6.8256">
        <ele>659.79998779297</ele>
        <time>2012-03-11T09:09:38.000Z</time>
      </trkpt>
      <trkpt lat="43.66322" lon="6.82549">
        <ele>660.20001220703</ele>
        <time>2012-03-11T09:09:43.000Z</time>
      </trkpt>
      <trkpt lat="43.66331" lon="6.82527">
        <ele>661.20001220703</ele>
        <time>2012-03-11T09:09:50.000Z</time>
      </trkpt>
      <trkpt lat="43.66342" lon="6.82508">
        <ele>661.20001220703</ele>
        <time>2012-03-11T09:09:57.000Z</time>
      </trkpt>
      <trkpt lat="43.66346" lon="6.82497">
        <ele>661.40002441406</ele>
        <time>2012-03-11T09:10:01.000Z</time>
      </trkpt>
      <trkpt lat="43.66351" lon="6.82477">
        <ele>662.40002441406</ele>
        <time>2012-03-11T09:10:07.000Z</time>
      </trkpt>
      <trkpt lat="43.66352" lon="6.82466">
        <ele>663.20001220703</ele>
        <time>2012-03-11T09:10:12.000Z</time>
      </trkpt>
      <trkpt lat="43.66355" lon="6.82447">
        <ele>664.59997558594</ele>
        <time>2012-03-11T09:10:18.000Z</time>
      </trkpt>
      <trkpt lat="43.66358" lon="6.82439">
        <ele>665</ele>
        <time>2012-03-11T09:10:20.000Z</time>
      </trkpt>
      <trkpt lat="43.66365" lon="6.82418">
        <ele>666.59997558594</ele>
        <time>2012-03-11T09:10:25.000Z</time>
      </trkpt>
      <trkpt lat="43.66362" lon="6.82407">
        <ele>667.20001220703</ele>
        <time>2012-03-11T09:10:28.000Z</time>
      </trkpt>
      <trkpt lat="43.66353" lon="6.82403">
        <ele>667.79998779297</ele>
        <time>2012-03-11T09:10:33.000Z</time>
      </trkpt>
      <trkpt lat="43.66351" lon="6.82401">
        <ele>668</ele>
        <time>2012-03-11T09:10:34.000Z</time>
      </trkpt>
      <trkpt lat="43.66342" lon="6.82387">
        <ele>668.79998779297</ele>
        <time>2012-03-11T09:10:41.000Z</time>
      </trkpt>
      <trkpt lat="43.66341" lon="6.82385">
        <ele>669</ele>
        <time>2012-03-11T09:10:42.000Z</time>
      </trkpt>
      <trkpt lat="43.66337" lon="6.82373">
        <ele>669.40002441406</ele>
        <time>2012-03-11T09:10:47.000Z</time>
      </trkpt>
      <trkpt lat="43.6634" lon="6.82349">
        <ele>669.59997558594</ele>
        <time>2012-03-11T09:10:53.000Z</time>
      </trkpt>
      <trkpt lat="43.66343" lon="6.82329">
        <ele>669.59997558594</ele>
        <time>2012-03-11T09:10:58.000Z</time>
      </trkpt>
      <trkpt lat="43.66353" lon="6.82299">
        <ele>667.79998779297</ele>
        <time>2012-03-11T09:11:04.000Z</time>
      </trkpt>
      <trkpt lat="43.6636" lon="6.82277">
        <ele>666.79998779297</ele>
        <time>2012-03-11T09:11:08.000Z</time>
      </trkpt>
      <trkpt lat="43.66363" lon="6.82273">
        <ele>666.59997558594</ele>
        <time>2012-03-11T09:11:09.000Z</time>
      </trkpt>
      <trkpt lat="43.66375" lon="6.82248">
        <ele>665.79998779297</ele>
        <time>2012-03-11T09:11:13.000Z</time>
      </trkpt>
      <trkpt lat="43.66376" lon="6.82234">
        <ele>665.40002441406</ele>
        <time>2012-03-11T09:11:17.000Z</time>
      </trkpt>
      <trkpt lat="43.66377" lon="6.82223">
        <ele>665</ele>
        <time>2012-03-11T09:11:20.000Z</time>
      </trkpt>
      <trkpt lat="43.66384" lon="6.82201">
        <ele>664.40002441406</ele>
        <time>2012-03-11T09:11:26.000Z</time>
      </trkpt>
      <trkpt lat="43.66393" lon="6.82178">
        <ele>664</ele>
        <time>2012-03-11T09:11:32.000Z</time>
      </trkpt>
      <trkpt lat="43.66396" lon="6.82162">
        <ele>663.59997558594</ele>
        <time>2012-03-11T09:11:37.000Z</time>
      </trkpt>
      <trkpt lat="43.66395" lon="6.82146">
        <ele>663.20001220703</ele>
        <time>2012-03-11T09:11:41.000Z</time>
      </trkpt>
      <trkpt lat="43.66406" lon="6.82121">
        <ele>663.59997558594</ele>
        <time>2012-03-11T09:11:47.000Z</time>
      </trkpt>
      <trkpt lat="43.66411" lon="6.82105">
        <ele>663.79998779297</ele>
        <time>2012-03-11T09:11:52.000Z</time>
      </trkpt>
      <trkpt lat="43.66417" lon="6.82083">
        <ele>664</ele>
        <time>2012-03-11T09:11:57.000Z</time>
      </trkpt>
      <trkpt lat="43.66423" lon="6.82065">
        <ele>663.59997558594</ele>
        <time>2012-03-11T09:12:01.000Z</time>
      </trkpt>
      <trkpt lat="43.66433" lon="6.82036">
        <ele>663</ele>
        <time>2012-03-11T09:12:07.000Z</time>
      </trkpt>
      <trkpt lat="43.66443" lon="6.82012">
        <ele>662.20001220703</ele>
        <time>2012-03-11T09:12:12.000Z</time>
      </trkpt>
      <trkpt lat="43.66451" lon="6.81997">
        <ele>661.79998779297</ele>
        <time>2012-03-11T09:12:15.000Z</time>
      </trkpt>
      <trkpt lat="43.6646" lon="6.81972">
        <ele>661.40002441406</ele>
        <time>2012-03-11T09:12:20.000Z</time>
      </trkpt>
      <trkpt lat="43.66463" lon="6.81966">
        <ele>661.40002441406</ele>
        <time>2012-03-11T09:12:21.000Z</time>
      </trkpt>
      <trkpt lat="43.66481" lon="6.81926">
        <ele>660.59997558594</ele>
        <time>2012-03-11T09:12:27.000Z</time>
      </trkpt>
      <trkpt lat="43.66508" lon="6.81894">
        <ele>658.40002441406</ele>
        <time>2012-03-11T09:12:32.000Z</time>
      </trkpt>
      <trkpt lat="43.66516" lon="6.81865">
        <ele>657</ele>
        <time>2012-03-11T09:12:37.000Z</time>
      </trkpt>
      <trkpt lat="43.66527" lon="6.81844">
        <ele>655.20001220703</ele>
        <time>2012-03-11T09:12:41.000Z</time>
      </trkpt>
      <trkpt lat="43.6653" lon="6.81834">
        <ele>654.59997558594</ele>
        <time>2012-03-11T09:12:44.000Z</time>
      </trkpt>
      <trkpt lat="43.66529" lon="6.81813">
        <ele>653.59997558594</ele>
        <time>2012-03-11T09:12:48.000Z</time>
      </trkpt>
      <trkpt lat="43.66521" lon="6.818">
        <ele>653.79998779297</ele>
        <time>2012-03-11T09:12:53.000Z</time>
      </trkpt>
      <trkpt lat="43.6653" lon="6.81776">
        <ele>651.40002441406</ele>
        <time>2012-03-11T09:12:58.000Z</time>
      </trkpt>
      <trkpt lat="43.66528" lon="6.81767">
        <ele>651</ele>
        <time>2012-03-11T09:13:00.000Z</time>
      </trkpt>
      <trkpt lat="43.66522" lon="6.81745">
        <ele>650</ele>
        <time>2012-03-11T09:13:03.000Z</time>
      </trkpt>
      <trkpt lat="43.66522" lon="6.81722">
        <ele>647</ele>
        <time>2012-03-11T09:13:07.000Z</time>
      </trkpt>
      <trkpt lat="43.66522" lon="6.81705">
        <ele>644.59997558594</ele>
        <time>2012-03-11T09:13:11.000Z</time>
      </trkpt>
      <trkpt lat="43.6652" lon="6.817">
        <ele>644.20001220703</ele>
        <time>2012-03-11T09:13:12.000Z</time>
      </trkpt>
      <trkpt lat="43.66517" lon="6.8167">
        <ele>640.59997558594</ele>
        <time>2012-03-11T09:13:19.000Z</time>
      </trkpt>
      <trkpt lat="43.66516" lon="6.81652">
        <ele>638.59997558594</ele>
        <time>2012-03-11T09:13:23.000Z</time>
      </trkpt>
      <trkpt lat="43.66512" lon="6.81631">
        <ele>637</ele>
        <time>2012-03-11T09:13:27.000Z</time>
      </trkpt>
      <trkpt lat="43.66509" lon="6.81613">
        <ele>635.20001220703</ele>
        <time>2012-03-11T09:13:31.000Z</time>
      </trkpt>
      <trkpt lat="43.66512" lon="6.81585">
        <ele>632</ele>
        <time>2012-03-11T09:13:36.000Z</time>
      </trkpt>
      <trkpt lat="43.66513" lon="6.81567">
        <ele>630.40002441406</ele>
        <time>2012-03-11T09:13:39.000Z</time>
      </trkpt>
      <trkpt lat="43.66519" lon="6.81552">
        <ele>628.59997558594</ele>
        <time>2012-03-11T09:13:42.000Z</time>
      </trkpt>
      <trkpt lat="43.66523" lon="6.81531">
        <ele>626.40002441406</ele>
        <time>2012-03-11T09:13:46.000Z</time>
      </trkpt>
      <trkpt lat="43.66517" lon="6.81511">
        <ele>625.40002441406</ele>
        <time>2012-03-11T09:13:50.000Z</time>
      </trkpt>
      <trkpt lat="43.66508" lon="6.81504">
        <ele>625.59997558594</ele>
        <time>2012-03-11T09:13:54.000Z</time>
      </trkpt>
      <trkpt lat="43.66507" lon="6.81499">
        <ele>625.40002441406</ele>
        <time>2012-03-11T09:13:55.000Z</time>
      </trkpt>
      <trkpt lat="43.66498" lon="6.8146">
        <ele>624</ele>
        <time>2012-03-11T09:14:01.000Z</time>
      </trkpt>
      <trkpt lat="43.66497" lon="6.81454">
        <ele>623.79998779297</ele>
        <time>2012-03-11T09:14:02.000Z</time>
      </trkpt>
      <trkpt lat="43.66485" lon="6.81437">
        <ele>622.40002441406</ele>
        <time>2012-03-11T09:14:06.000Z</time>
      </trkpt>
      <trkpt lat="43.66472" lon="6.8142">
        <ele>620.79998779297</ele>
        <time>2012-03-11T09:14:10.000Z</time>
      </trkpt>
      <trkpt lat="43.66459" lon="6.81405">
        <ele>618.79998779297</ele>
        <time>2012-03-11T09:14:14.000Z</time>
      </trkpt>
      <trkpt lat="43.66448" lon="6.81386">
        <ele>616.20001220703</ele>
        <time>2012-03-11T09:14:18.000Z</time>
      </trkpt>
      <trkpt lat="43.66437" lon="6.81367">
        <ele>613.20001220703</ele>
        <time>2012-03-11T09:14:23.000Z</time>
      </trkpt>
      <trkpt lat="43.66433" lon="6.81353">
        <ele>611.40002441406</ele>
        <time>2012-03-11T09:14:27.000Z</time>
      </trkpt>
      <trkpt lat="43.6644" lon="6.81333">
        <ele>609.59997558594</ele>
        <time>2012-03-11T09:14:31.000Z</time>
      </trkpt>
      <trkpt lat="43.66443" lon="6.81322">
        <ele>608.59997558594</ele>
        <time>2012-03-11T09:14:33.000Z</time>
      </trkpt>
      <trkpt lat="43.66449" lon="6.81303">
        <ele>606.79998779297</ele>
        <time>2012-03-11T09:14:37.000Z</time>
      </trkpt>
      <trkpt lat="43.66463" lon="6.81277">
        <ele>604.79998779297</ele>
        <time>2012-03-11T09:14:42.000Z</time>
      </trkpt>
      <trkpt lat="43.66477" lon="6.81261">
        <ele>603.79998779297</ele>
        <time>2012-03-11T09:14:46.000Z</time>
      </trkpt>
      <trkpt lat="43.6648" lon="6.81257">
        <ele>603.59997558594</ele>
        <time>2012-03-11T09:14:47.000Z</time>
      </trkpt>
      <trkpt lat="43.66503" lon="6.81242">
        <ele>602.59997558594</ele>
        <time>2012-03-11T09:14:52.000Z</time>
      </trkpt>
      <trkpt lat="43.66513" lon="6.81233">
        <ele>600.20001220703</ele>
        <time>2012-03-11T09:14:55.000Z</time>
      </trkpt>
      <trkpt lat="43.66529" lon="6.81226">
        <ele>597.59997558594</ele>
        <time>2012-03-11T09:14:59.000Z</time>
      </trkpt>
      <trkpt lat="43.66538" lon="6.81225">
        <ele>596.59997558594</ele>
        <time>2012-03-11T09:15:02.000Z</time>
      </trkpt>
      <trkpt lat="43.66547" lon="6.81217">
        <ele>594.59997558594</ele>
        <time>2012-03-11T09:15:07.000Z</time>
      </trkpt>
      <trkpt lat="43.66555" lon="6.81217">
        <ele>593.79998779297</ele>
        <time>2012-03-11T09:15:10.000Z</time>
      </trkpt>
      <trkpt lat="43.6656" lon="6.81205">
        <ele>591.59997558594</ele>
        <time>2012-03-11T09:15:14.000Z</time>
      </trkpt>
      <trkpt lat="43.66564" lon="6.81199">
        <ele>590.40002441406</ele>
        <time>2012-03-11T09:15:16.000Z</time>
      </trkpt>
      <trkpt lat="43.66582" lon="6.81197">
        <ele>588.40002441406</ele>
        <time>2012-03-11T09:15:22.000Z</time>
      </trkpt>
      <trkpt lat="43.66601" lon="6.81201">
        <ele>586.79998779297</ele>
        <time>2012-03-11T09:15:28.000Z</time>
      </trkpt>
      <trkpt lat="43.66613" lon="6.81204">
        <ele>585.59997558594</ele>
        <time>2012-03-11T09:15:31.000Z</time>
      </trkpt>
      <trkpt lat="43.66625" lon="6.81198">
        <ele>583.59997558594</ele>
        <time>2012-03-11T09:15:35.000Z</time>
      </trkpt>
      <trkpt lat="43.66634" lon="6.81197">
        <ele>582.40002441406</ele>
        <time>2012-03-11T09:15:38.000Z</time>
      </trkpt>
      <trkpt lat="43.66637" lon="6.81191">
        <ele>581.40002441406</ele>
        <time>2012-03-11T09:15:43.000Z</time>
      </trkpt>
      <trkpt lat="43.66635" lon="6.81179">
        <ele>580.40002441406</ele>
        <time>2012-03-11T09:15:47.000Z</time>
      </trkpt>
      <trkpt lat="43.66636" lon="6.81174">
        <ele>579.59997558594</ele>
        <time>2012-03-11T09:15:49.000Z</time>
      </trkpt>
      <trkpt lat="43.66648" lon="6.81164">
        <ele>577.59997558594</ele>
        <time>2012-03-11T09:15:54.000Z</time>
      </trkpt>
      <trkpt lat="43.66652" lon="6.81152">
        <ele>576</ele>
        <time>2012-03-11T09:15:59.000Z</time>
      </trkpt>
      <trkpt lat="43.66653" lon="6.81134">
        <ele>574</ele>
        <time>2012-03-11T09:16:04.000Z</time>
      </trkpt>
      <trkpt lat="43.66651" lon="6.81109">
        <ele>571.59997558594</ele>
        <time>2012-03-11T09:16:10.000Z</time>
      </trkpt>
      <trkpt lat="43.66643" lon="6.81086">
        <ele>569.59997558594</ele>
        <time>2012-03-11T09:16:14.000Z</time>
      </trkpt>
      <trkpt lat="43.66639" lon="6.81065">
        <ele>568.20001220703</ele>
        <time>2012-03-11T09:16:18.000Z</time>
      </trkpt>
      <trkpt lat="43.66638" lon="6.81048">
        <ele>566.79998779297</ele>
        <time>2012-03-11T09:16:21.000Z</time>
      </trkpt>
      <trkpt lat="43.66647" lon="6.81029">
        <ele>564.79998779297</ele>
        <time>2012-03-11T09:16:25.000Z</time>
      </trkpt>
      <trkpt lat="43.66662" lon="6.81017">
        <ele>562.79998779297</ele>
        <time>2012-03-11T09:16:30.000Z</time>
      </trkpt>
      <trkpt lat="43.66664" lon="6.81002">
        <ele>561.40002441406</ele>
        <time>2012-03-11T09:16:34.000Z</time>
      </trkpt>
      <trkpt lat="43.66671" lon="6.80987">
        <ele>559.59997558594</ele>
        <time>2012-03-11T09:16:37.000Z</time>
      </trkpt>
      <trkpt lat="43.66681" lon="6.80971">
        <ele>557.59997558594</ele>
        <time>2012-03-11T09:16:42.000Z</time>
      </trkpt>
      <trkpt lat="43.66697" lon="6.80963">
        <ele>555.59997558594</ele>
        <time>2012-03-11T09:16:47.000Z</time>
      </trkpt>
      <trkpt lat="43.66707" lon="6.80957">
        <ele>554.40002441406</ele>
        <time>2012-03-11T09:16:50.000Z</time>
      </trkpt>
      <trkpt lat="43.66724" lon="6.80966">
        <ele>553.40002441406</ele>
        <time>2012-03-11T09:16:56.000Z</time>
      </trkpt>
      <trkpt lat="43.66736" lon="6.80976">
        <ele>552.79998779297</ele>
        <time>2012-03-11T09:17:01.000Z</time>
      </trkpt>
      <trkpt lat="43.66753" lon="6.80981">
        <ele>551.79998779297</ele>
        <time>2012-03-11T09:17:05.000Z</time>
      </trkpt>
      <trkpt lat="43.66772" lon="6.80974">
        <ele>550.40002441406</ele>
        <time>2012-03-11T09:17:09.000Z</time>
      </trkpt>
      <trkpt lat="43.66787" lon="6.80969">
        <ele>549.40002441406</ele>
        <time>2012-03-11T09:17:12.000Z</time>
      </trkpt>
      <trkpt lat="43.66801" lon="6.80969">
        <ele>549</ele>
        <time>2012-03-11T09:17:15.000Z</time>
      </trkpt>
      <trkpt lat="43.66811" lon="6.80958">
        <ele>547.79998779297</ele>
        <time>2012-03-11T09:17:20.000Z</time>
      </trkpt>
      <trkpt lat="43.66811" lon="6.80946">
        <ele>547.20001220703</ele>
        <time>2012-03-11T09:17:23.000Z</time>
      </trkpt>
      <trkpt lat="43.66809" lon="6.80923">
        <ele>546.20001220703</ele>
        <time>2012-03-11T09:17:27.000Z</time>
      </trkpt>
      <trkpt lat="43.66803" lon="6.80896">
        <ele>544.79998779297</ele>
        <time>2012-03-11T09:17:31.000Z</time>
      </trkpt>
      <trkpt lat="43.66801" lon="6.80877">
        <ele>543.79998779297</ele>
        <time>2012-03-11T09:17:34.000Z</time>
      </trkpt>
      <trkpt lat="43.66802" lon="6.80856">
        <ele>542.59997558594</ele>
        <time>2012-03-11T09:17:37.000Z</time>
      </trkpt>
      <trkpt lat="43.66804" lon="6.80833">
        <ele>541.20001220703</ele>
        <time>2012-03-11T09:17:40.000Z</time>
      </trkpt>
      <trkpt lat="43.66799" lon="6.80799">
        <ele>540.79998779297</ele>
        <time>2012-03-11T09:17:44.000Z</time>
      </trkpt>
      <trkpt lat="43.66791" lon="6.80769">
        <ele>540.40002441406</ele>
        <time>2012-03-11T09:17:48.000Z</time>
      </trkpt>
      <trkpt lat="43.66779" lon="6.80738">
        <ele>539.79998779297</ele>
        <time>2012-03-11T09:17:54.000Z</time>
      </trkpt>
      <trkpt lat="43.66778" lon="6.80732">
        <ele>539.79998779297</ele>
        <time>2012-03-11T09:17:55.000Z</time>
      </trkpt>
      <trkpt lat="43.66773" lon="6.80714">
        <ele>539.20001220703</ele>
        <time>2012-03-11T09:17:59.000Z</time>
      </trkpt>
      <trkpt lat="43.66771" lon="6.80705">
        <ele>538.79998779297</ele>
        <time>2012-03-11T09:18:01.000Z</time>
      </trkpt>
      <trkpt lat="43.66765" lon="6.80676">
        <ele>538</ele>
        <time>2012-03-11T09:18:08.000Z</time>
      </trkpt>
      <trkpt lat="43.66762" lon="6.80652">
        <ele>537.20001220703</ele>
        <time>2012-03-11T09:18:13.000Z</time>
      </trkpt>
      <trkpt lat="43.66756" lon="6.80624">
        <ele>536.40002441406</ele>
        <time>2012-03-11T09:18:18.000Z</time>
      </trkpt>
      <trkpt lat="43.66749" lon="6.80596">
        <ele>535.59997558594</ele>
        <time>2012-03-11T09:18:23.000Z</time>
      </trkpt>
      <trkpt lat="43.66743" lon="6.80574">
        <ele>535.20001220703</ele>
        <time>2012-03-11T09:18:27.000Z</time>
      </trkpt>
      <trkpt lat="43.66725" lon="6.80535">
        <ele>534.59997558594</ele>
        <time>2012-03-11T09:18:34.000Z</time>
      </trkpt>
      <trkpt lat="43.6672" lon="6.80523">
        <ele>534.20001220703</ele>
        <time>2012-03-11T09:18:36.000Z</time>
      </trkpt>
      <trkpt lat="43.66709" lon="6.80499">
        <ele>533</ele>
        <time>2012-03-11T09:18:40.000Z</time>
      </trkpt>
      <trkpt lat="43.66703" lon="6.8048">
        <ele>532.20001220703</ele>
        <time>2012-03-11T09:18:43.000Z</time>
      </trkpt>
      <trkpt lat="43.667" lon="6.8045">
        <ele>531</ele>
        <time>2012-03-11T09:18:47.000Z</time>
      </trkpt>
      <trkpt lat="43.66695" lon="6.80392">
        <ele>529.20001220703</ele>
        <time>2012-03-11T09:18:54.000Z</time>
      </trkpt>
      <trkpt lat="43.66704" lon="6.80365">
        <ele>528.59997558594</ele>
        <time>2012-03-11T09:18:58.000Z</time>
      </trkpt>
      <trkpt lat="43.66706" lon="6.80346">
        <ele>528.20001220703</ele>
        <time>2012-03-11T09:19:01.000Z</time>
      </trkpt>
      <trkpt lat="43.66698" lon="6.80331">
        <ele>528.20001220703</ele>
        <time>2012-03-11T09:19:04.000Z</time>
      </trkpt>
      <trkpt lat="43.66695" lon="6.80319">
        <ele>528</ele>
        <time>2012-03-11T09:19:06.000Z</time>
      </trkpt>
      <trkpt lat="43.66677" lon="6.8027">
        <ele>527.20001220703</ele>
        <time>2012-03-11T09:19:13.000Z</time>
      </trkpt>
      <trkpt lat="43.66665" lon="6.80241">
        <ele>526.79998779297</ele>
        <time>2012-03-11T09:19:18.000Z</time>
      </trkpt>
      <trkpt lat="43.66664" lon="6.80234">
        <ele>526.79998779297</ele>
        <time>2012-03-11T09:19:19.000Z</time>
      </trkpt>
      <trkpt lat="43.6666" lon="6.80209">
        <ele>526.20001220703</ele>
        <time>2012-03-11T09:19:23.000Z</time>
      </trkpt>
      <trkpt lat="43.66654" lon="6.8019">
        <ele>526</ele>
        <time>2012-03-11T09:19:27.000Z</time>
      </trkpt>
      <trkpt lat="43.66648" lon="6.80184">
        <ele>526.59997558594</ele>
        <time>2012-03-11T09:19:30.000Z</time>
      </trkpt>
      <trkpt lat="43.66646" lon="6.80181">
        <ele>526.59997558594</ele>
        <time>2012-03-11T09:19:31.000Z</time>
      </trkpt>
      <trkpt lat="43.66644" lon="6.80177">
        <ele>526.79998779297</ele>
        <time>2012-03-11T09:19:33.000Z</time>
      </trkpt>
      <trkpt lat="43.66643" lon="6.80146">
        <ele>526</ele>
        <time>2012-03-11T09:19:40.000Z</time>
      </trkpt>
      <trkpt lat="43.66641" lon="6.80119">
        <ele>525.40002441406</ele>
        <time>2012-03-11T09:19:45.000Z</time>
      </trkpt>
      <trkpt lat="43.66637" lon="6.80092">
        <ele>525</ele>
        <time>2012-03-11T09:19:50.000Z</time>
      </trkpt>
      <trkpt lat="43.66638" lon="6.80078">
        <ele>524.59997558594</ele>
        <time>2012-03-11T09:19:52.000Z</time>
      </trkpt>
      <trkpt lat="43.66637" lon="6.80048">
        <ele>523.79998779297</ele>
        <time>2012-03-11T09:19:56.000Z</time>
      </trkpt>
      <trkpt lat="43.66641" lon="6.80002">
        <ele>522.20001220703</ele>
        <time>2012-03-11T09:20:02.000Z</time>
      </trkpt>
      <trkpt lat="43.66642" lon="6.79995">
        <ele>521.59997558594</ele>
        <time>2012-03-11T09:20:03.000Z</time>
      </trkpt>
      <trkpt lat="43.66636" lon="6.79977">
        <ele>520</ele>
        <time>2012-03-11T09:20:07.000Z</time>
      </trkpt>
      <trkpt lat="43.66615" lon="6.79963">
        <ele>519</ele>
        <time>2012-03-11T09:20:11.000Z</time>
      </trkpt>
      <trkpt lat="43.66595" lon="6.79937">
        <ele>516</ele>
        <time>2012-03-11T09:20:15.000Z</time>
      </trkpt>
      <trkpt lat="43.66589" lon="6.79929">
        <ele>514.79998779297</ele>
        <time>2012-03-11T09:20:16.000Z</time>
      </trkpt>
      <trkpt lat="43.66561" lon="6.79907">
        <ele>510.79998779297</ele>
        <time>2012-03-11T09:20:21.000Z</time>
      </trkpt>
      <trkpt lat="43.66542" lon="6.79894">
        <ele>508.20001220703</ele>
        <time>2012-03-11T09:20:24.000Z</time>
      </trkpt>
      <trkpt lat="43.66516" lon="6.79886">
        <ele>505.60000610352</ele>
        <time>2012-03-11T09:20:28.000Z</time>
      </trkpt>
      <trkpt lat="43.66494" lon="6.79871">
        <ele>502</ele>
        <time>2012-03-11T09:20:32.000Z</time>
      </trkpt>
      <trkpt lat="43.6649" lon="6.79863">
        <ele>500.39999389648</ele>
        <time>2012-03-11T09:20:33.000Z</time>
      </trkpt>
      <trkpt lat="43.66468" lon="6.79828">
        <ele>493.79998779297</ele>
        <time>2012-03-11T09:20:37.000Z</time>
      </trkpt>
      <trkpt lat="43.66457" lon="6.79806">
        <ele>490.79998779297</ele>
        <time>2012-03-11T09:20:40.000Z</time>
      </trkpt>
      <trkpt lat="43.66443" lon="6.79775">
        <ele>486.79998779297</ele>
        <time>2012-03-11T09:20:44.000Z</time>
      </trkpt>
      <trkpt lat="43.66433" lon="6.79744">
        <ele>483.60000610352</ele>
        <time>2012-03-11T09:20:47.000Z</time>
      </trkpt>
      <trkpt lat="43.66423" lon="6.79703">
        <ele>481.20001220703</ele>
        <time>2012-03-11T09:20:51.000Z</time>
      </trkpt>
      <trkpt lat="43.664" lon="6.79687">
        <ele>479.20001220703</ele>
        <time>2012-03-11T09:20:55.000Z</time>
      </trkpt>
      <trkpt lat="43.66387" lon="6.79683">
        <ele>478.60000610352</ele>
        <time>2012-03-11T09:20:57.000Z</time>
      </trkpt>
      <trkpt lat="43.6635" lon="6.79671">
        <ele>476.60000610352</ele>
        <time>2012-03-11T09:21:02.000Z</time>
      </trkpt>
      <trkpt lat="43.66315" lon="6.79654">
        <ele>475.20001220703</ele>
        <time>2012-03-11T09:21:07.000Z</time>
      </trkpt>
      <trkpt lat="43.66284" lon="6.79633">
        <ele>474</ele>
        <time>2012-03-11T09:21:12.000Z</time>
      </trkpt>
      <trkpt lat="43.66246" lon="6.79615">
        <ele>472.79998779297</ele>
        <time>2012-03-11T09:21:18.000Z</time>
      </trkpt>
      <trkpt lat="43.66205" lon="6.79601">
        <ele>471</ele>
        <time>2012-03-11T09:21:25.000Z</time>
      </trkpt>
      <trkpt lat="43.66183" lon="6.79589">
        <ele>469.79998779297</ele>
        <time>2012-03-11T09:21:29.000Z</time>
      </trkpt>
      <trkpt lat="43.66172" lon="6.79595">
        <ele>469.60000610352</ele>
        <time>2012-03-11T09:21:33.000Z</time>
      </trkpt>
      <trkpt lat="43.66171" lon="6.79602">
        <ele>469.60000610352</ele>
        <time>2012-03-11T09:21:34.000Z</time>
      </trkpt>
      <trkpt lat="43.66162" lon="6.79654">
        <ele>470.60000610352</ele>
        <time>2012-03-11T09:21:41.000Z</time>
      </trkpt>
      <trkpt lat="43.66161" lon="6.7966">
        <ele>470.79998779297</ele>
        <time>2012-03-11T09:21:42.000Z</time>
      </trkpt>
      <trkpt lat="43.66142" lon="6.79672">
        <ele>470.60000610352</ele>
        <time>2012-03-11T09:21:46.000Z</time>
      </trkpt>
      <trkpt lat="43.66089" lon="6.79662">
        <ele>470</ele>
        <time>2012-03-11T09:21:55.000Z</time>
      </trkpt>
      <trkpt lat="43.66065" lon="6.79657">
        <ele>469.20001220703</ele>
        <time>2012-03-11T09:21:59.000Z</time>
      </trkpt>
      <trkpt lat="43.66045" lon="6.79639">
        <ele>468.20001220703</ele>
        <time>2012-03-11T09:22:03.000Z</time>
      </trkpt>
      <trkpt lat="43.66024" lon="6.796">
        <ele>466.79998779297</ele>
        <time>2012-03-11T09:22:08.000Z</time>
      </trkpt>
      <trkpt lat="43.66002" lon="6.79581">
        <ele>466</ele>
        <time>2012-03-11T09:22:12.000Z</time>
      </trkpt>
      <trkpt lat="43.6599" lon="6.7958">
        <ele>465.60000610352</ele>
        <time>2012-03-11T09:22:14.000Z</time>
      </trkpt>
      <trkpt lat="43.65977" lon="6.79578">
        <ele>465</ele>
        <time>2012-03-11T09:22:16.000Z</time>
      </trkpt>
      <trkpt lat="43.65956" lon="6.79555">
        <ele>463.79998779297</ele>
        <time>2012-03-11T09:22:20.000Z</time>
      </trkpt>
      <trkpt lat="43.65947" lon="6.79542">
        <ele>463</ele>
        <time>2012-03-11T09:22:22.000Z</time>
      </trkpt>
      <trkpt lat="43.65903" lon="6.7948">
        <ele>460.79998779297</ele>
        <time>2012-03-11T09:22:32.000Z</time>
      </trkpt>
      <trkpt lat="43.65875" lon="6.79448">
        <ele>460.60000610352</ele>
        <time>2012-03-11T09:22:38.000Z</time>
      </trkpt>
      <trkpt lat="43.65841" lon="6.79433">
        <ele>460.39999389648</ele>
        <time>2012-03-11T09:22:44.000Z</time>
      </trkpt>
      <trkpt lat="43.65831" lon="6.79429">
        <ele>460.20001220703</ele>
        <time>2012-03-11T09:22:46.000Z</time>
      </trkpt>
      <trkpt lat="43.65808" lon="6.79407">
        <ele>459</ele>
        <time>2012-03-11T09:22:51.000Z</time>
      </trkpt>
      <trkpt lat="43.658" lon="6.79398">
        <ele>458.79998779297</ele>
        <time>2012-03-11T09:22:53.000Z</time>
      </trkpt>
      <trkpt lat="43.65783" lon="6.79393">
        <ele>458.20001220703</ele>
        <time>2012-03-11T09:22:57.000Z</time>
      </trkpt>
      <trkpt lat="43.6575" lon="6.79406">
        <ele>457</ele>
        <time>2012-03-11T09:23:03.000Z</time>
      </trkpt>
      <trkpt lat="43.65733" lon="6.79413">
        <ele>456.79998779297</ele>
        <time>2012-03-11T09:23:06.000Z</time>
      </trkpt>
      <trkpt lat="43.65707" lon="6.79433">
        <ele>456.60000610352</ele>
        <time>2012-03-11T09:23:11.000Z</time>
      </trkpt>
      <trkpt lat="43.65672" lon="6.79453">
        <ele>456.20001220703</ele>
        <time>2012-03-11T09:23:17.000Z</time>
      </trkpt>
      <trkpt lat="43.65646" lon="6.79468">
        <ele>455.79998779297</ele>
        <time>2012-03-11T09:23:22.000Z</time>
      </trkpt>
      <trkpt lat="43.65609" lon="6.79495">
        <ele>455.39999389648</ele>
        <time>2012-03-11T09:23:29.000Z</time>
      </trkpt>
      <trkpt lat="43.6557" lon="6.79517">
        <ele>454.79998779297</ele>
        <time>2012-03-11T09:23:36.000Z</time>
      </trkpt>
      <trkpt lat="43.65539" lon="6.79544">
        <ele>453.79998779297</ele>
        <time>2012-03-11T09:23:42.000Z</time>
      </trkpt>
      <trkpt lat="43.65505" lon="6.79571">
        <ele>452.39999389648</ele>
        <time>2012-03-11T09:23:48.000Z</time>
      </trkpt>
      <trkpt lat="43.65479" lon="6.79588">
        <ele>451.79998779297</ele>
        <time>2012-03-11T09:23:53.000Z</time>
      </trkpt>
      <trkpt lat="43.65446" lon="6.79603">
        <ele>451.60000610352</ele>
        <time>2012-03-11T09:23:58.000Z</time>
      </trkpt>
      <trkpt lat="43.65419" lon="6.79613">
        <ele>451.39999389648</ele>
        <time>2012-03-11T09:24:03.000Z</time>
      </trkpt>
      <trkpt lat="43.65388" lon="6.79639">
        <ele>450.79998779297</ele>
        <time>2012-03-11T09:24:09.000Z</time>
      </trkpt>
      <trkpt lat="43.65372" lon="6.79654">
        <ele>450.39999389648</ele>
        <time>2012-03-11T09:24:12.000Z</time>
      </trkpt>
      <trkpt lat="43.65363" lon="6.79666">
        <ele>450</ele>
        <time>2012-03-11T09:24:14.000Z</time>
      </trkpt>
      <trkpt lat="43.6534" lon="6.79718">
        <ele>448.60000610352</ele>
        <time>2012-03-11T09:24:21.000Z</time>
      </trkpt>
      <trkpt lat="43.65318" lon="6.79749">
        <ele>447.79998779297</ele>
        <time>2012-03-11T09:24:26.000Z</time>
      </trkpt>
      <trkpt lat="43.65307" lon="6.79755">
        <ele>447.79998779297</ele>
        <time>2012-03-11T09:24:28.000Z</time>
      </trkpt>
      <trkpt lat="43.65263" lon="6.79768">
        <ele>447.39999389648</ele>
        <time>2012-03-11T09:24:35.000Z</time>
      </trkpt>
      <trkpt lat="43.65224" lon="6.79768">
        <ele>448</ele>
        <time>2012-03-11T09:24:41.000Z</time>
      </trkpt>
      <trkpt lat="43.65182" lon="6.7978">
        <ele>449.20001220703</ele>
        <time>2012-03-11T09:24:48.000Z</time>
      </trkpt>
      <trkpt lat="43.65161" lon="6.79786">
        <ele>450</ele>
        <time>2012-03-11T09:24:52.000Z</time>
      </trkpt>
      <trkpt lat="43.65151" lon="6.79801">
        <ele>450.39999389648</ele>
        <time>2012-03-11T09:24:56.000Z</time>
      </trkpt>
      <trkpt lat="43.65146" lon="6.79818">
        <ele>450.39999389648</ele>
        <time>2012-03-11T09:25:02.000Z</time>
      </trkpt>
      <trkpt lat="43.65147" lon="6.79819">
        <ele>450.39999389648</ele>
        <time>2012-03-11T09:25:07.000Z</time>
      </trkpt>
      <trkpt lat="43.65149" lon="6.79821">
        <ele>450.20001220703</ele>
        <time>2012-03-11T09:25:13.000Z</time>
      </trkpt>
      <trkpt lat="43.65152" lon="6.79825">
        <ele>450</ele>
        <time>2012-03-11T09:25:17.000Z</time>
      </trkpt>
      <trkpt lat="43.65156" lon="6.79829">
        <ele>449.60000610352</ele>
        <time>2012-03-11T09:25:23.000Z</time>
      </trkpt>
      <trkpt lat="43.65159" lon="6.79835">
        <ele>449.39999389648</ele>
        <time>2012-03-11T09:25:31.000Z</time>
      </trkpt>
      <trkpt lat="43.65162" lon="6.79835">
        <ele>449.20001220703</ele>
        <time>2012-03-11T09:25:36.000Z</time>
      </trkpt>
      <trkpt lat="43.65162" lon="6.79836">
        <ele>449.20001220703</ele>
        <time>2012-03-11T09:25:43.000Z</time>
      </trkpt>
      <trkpt lat="43.65163" lon="6.79836">
        <ele>449.20001220703</ele>
        <time>2012-03-11T09:25:50.000Z</time>
      </trkpt>
      <trkpt lat="43.65164" lon="6.79837">
        <ele>449</ele>
        <time>2012-03-11T09:25:59.000Z</time>
      </trkpt>
      <trkpt lat="43.65164" lon="6.79839">
        <ele>449</ele>
        <time>2012-03-11T09:26:05.000Z</time>
      </trkpt>
      <trkpt lat="43.65164" lon="6.7984">
        <ele>449</ele>
        <time>2012-03-11T09:26:17.000Z</time>
      </trkpt>
      <trkpt lat="43.65163" lon="6.79842">
        <ele>449</ele>
        <time>2012-03-11T09:26:25.000Z</time>
      </trkpt>
      <trkpt lat="43.65164" lon="6.79843">
        <ele>449</ele>
        <time>2012-03-11T09:26:31.000Z</time>
      </trkpt>
      <trkpt lat="43.65164" lon="6.79842">
        <ele>449</ele>
        <time>2012-03-11T09:26:38.000Z</time>
      </trkpt>
      <trkpt lat="43.65164" lon="6.79842">
        <ele>449</ele>
        <time>2012-03-11T09:26:48.000Z</time>
      </trkpt>
      <trkpt lat="43.65164" lon="6.79843">
        <ele>449</ele>
        <time>2012-03-11T09:26:58.000Z</time>
      </trkpt>
      <trkpt lat="43.65163" lon="6.79845">
        <ele>449</ele>
        <time>2012-03-11T09:27:04.000Z</time>
      </trkpt>
      <trkpt lat="43.65162" lon="6.79845">
        <ele>449</ele>
        <time>2012-03-11T09:27:15.000Z</time>
      </trkpt>
      <trkpt lat="43.6516" lon="6.79842">
        <ele>449.20001220703</ele>
        <time>2012-03-11T09:27:20.000Z</time>
      </trkpt>
      <trkpt lat="43.65159" lon="6.79838">
        <ele>449.39999389648</ele>
        <time>2012-03-11T09:27:24.000Z</time>
      </trkpt>
      <trkpt lat="43.65157" lon="6.79835">
        <ele>449.60000610352</ele>
        <time>2012-03-11T09:27:30.000Z</time>
      </trkpt>
      <trkpt lat="43.65157" lon="6.79836">
        <ele>449.39999389648</ele>
        <time>2012-03-11T09:27:36.000Z</time>
      </trkpt>
      <trkpt lat="43.65156" lon="6.79831">
        <ele>449.60000610352</ele>
        <time>2012-03-11T09:27:41.000Z</time>
      </trkpt>
      <trkpt lat="43.65154" lon="6.79826">
        <ele>449.79998779297</ele>
        <time>2012-03-11T09:27:46.000Z</time>
      </trkpt>
      <trkpt lat="43.6515" lon="6.79823">
        <ele>450.20001220703</ele>
        <time>2012-03-11T09:27:52.000Z</time>
      </trkpt>
      <trkpt lat="43.65149" lon="6.79822">
        <ele>450.20001220703</ele>
        <time>2012-03-11T09:27:58.000Z</time>
      </trkpt>
      <trkpt lat="43.65144" lon="6.79825">
        <ele>450.39999389648</ele>
        <time>2012-03-11T09:28:04.000Z</time>
      </trkpt>
      <trkpt lat="43.65143" lon="6.79842">
        <ele>450.20001220703</ele>
        <time>2012-03-11T09:28:10.000Z</time>
      </trkpt>
      <trkpt lat="43.65147" lon="6.7987">
        <ele>449</ele>
        <time>2012-03-11T09:28:16.000Z</time>
      </trkpt>
      <trkpt lat="43.65153" lon="6.79906">
        <ele>447.79998779297</ele>
        <time>2012-03-11T09:28:23.000Z</time>
      </trkpt>
      <trkpt lat="43.6515" lon="6.79931">
        <ele>447.39999389648</ele>
        <time>2012-03-11T09:28:28.000Z</time>
      </trkpt>
      <trkpt lat="43.65142" lon="6.79959">
        <ele>447.20001220703</ele>
        <time>2012-03-11T09:28:33.000Z</time>
      </trkpt>
      <trkpt lat="43.65119" lon="6.80008">
        <ele>447</ele>
        <time>2012-03-11T09:28:42.000Z</time>
      </trkpt>
      <trkpt lat="43.65106" lon="6.80037">
        <ele>447.20001220703</ele>
        <time>2012-03-11T09:28:47.000Z</time>
      </trkpt>
      <trkpt lat="43.65091" lon="6.8005">
        <ele>447.20001220703</ele>
        <time>2012-03-11T09:28:51.000Z</time>
      </trkpt>
      <trkpt lat="43.65082" lon="6.8005">
        <ele>447.39999389648</ele>
        <time>2012-03-11T09:28:53.000Z</time>
      </trkpt>
      <trkpt lat="43.65048" lon="6.80046">
        <ele>448.20001220703</ele>
        <time>2012-03-11T09:29:01.000Z</time>
      </trkpt>
      <trkpt lat="43.65037" lon="6.80048">
        <ele>448.39999389648</ele>
        <time>2012-03-11T09:29:05.000Z</time>
      </trkpt>
      <trkpt lat="43.65034" lon="6.80049">
        <ele>448.39999389648</ele>
        <time>2012-03-11T09:29:08.000Z</time>
      </trkpt>
      <trkpt lat="43.65036" lon="6.80068">
        <ele>447.60000610352</ele>
        <time>2012-03-11T09:29:12.000Z</time>
      </trkpt>
      <trkpt lat="43.65044" lon="6.80114">
        <ele>446.60000610352</ele>
        <time>2012-03-11T09:29:18.000Z</time>
      </trkpt>
      <trkpt lat="43.65043" lon="6.80173">
        <ele>446.20001220703</ele>
        <time>2012-03-11T09:29:25.000Z</time>
      </trkpt>
      <trkpt lat="43.6504" lon="6.80209">
        <ele>447</ele>
        <time>2012-03-11T09:29:30.000Z</time>
      </trkpt>
      <trkpt lat="43.65032" lon="6.80239">
        <ele>447.79998779297</ele>
        <time>2012-03-11T09:29:35.000Z</time>
      </trkpt>
      <trkpt lat="43.65009" lon="6.80286">
        <ele>448.79998779297</ele>
        <time>2012-03-11T09:29:44.000Z</time>
      </trkpt>
      <trkpt lat="43.64996" lon="6.80334">
        <ele>450</ele>
        <time>2012-03-11T09:29:52.000Z</time>
      </trkpt>
      <trkpt lat="43.64995" lon="6.80352">
        <ele>450.39999389648</ele>
        <time>2012-03-11T09:29:55.000Z</time>
      </trkpt>
      <trkpt lat="43.64986" lon="6.8037">
        <ele>450.79998779297</ele>
        <time>2012-03-11T09:30:00.000Z</time>
      </trkpt>
      <trkpt lat="43.64977" lon="6.80373">
        <ele>451.20001220703</ele>
        <time>2012-03-11T09:30:04.000Z</time>
      </trkpt>
      <trkpt lat="43.64957" lon="6.80382">
        <ele>452.39999389648</ele>
        <time>2012-03-11T09:30:12.000Z</time>
      </trkpt>
      <trkpt lat="43.64939" lon="6.8039">
        <ele>453.39999389648</ele>
        <time>2012-03-11T09:30:20.000Z</time>
      </trkpt>
      <trkpt lat="43.64928" lon="6.80395">
        <ele>454.20001220703</ele>
        <time>2012-03-11T09:30:26.000Z</time>
      </trkpt>
      <trkpt lat="43.6492" lon="6.80401">
        <ele>454.79998779297</ele>
        <time>2012-03-11T09:30:31.000Z</time>
      </trkpt>
      <trkpt lat="43.64906" lon="6.8041">
        <ele>456</ele>
        <time>2012-03-11T09:30:36.000Z</time>
      </trkpt>
      <trkpt lat="43.64892" lon="6.80418">
        <ele>456.79998779297</ele>
        <time>2012-03-11T09:30:41.000Z</time>
      </trkpt>
      <trkpt lat="43.64876" lon="6.8042">
        <ele>457.60000610352</ele>
        <time>2012-03-11T09:30:47.000Z</time>
      </trkpt>
      <trkpt lat="43.64853" lon="6.80421">
        <ele>458.39999389648</ele>
        <time>2012-03-11T09:30:54.000Z</time>
      </trkpt>
      <trkpt lat="43.6483" lon="6.80421">
        <ele>459.20001220703</ele>
        <time>2012-03-11T09:31:01.000Z</time>
      </trkpt>
      <trkpt lat="43.64803" lon="6.8042">
        <ele>459.39999389648</ele>
        <time>2012-03-11T09:31:07.000Z</time>
      </trkpt>
      <trkpt lat="43.6479" lon="6.80399">
        <ele>459.20001220703</ele>
        <time>2012-03-11T09:31:11.000Z</time>
      </trkpt>
      <trkpt lat="43.64786" lon="6.80393">
        <ele>459</ele>
        <time>2012-03-11T09:31:12.000Z</time>
      </trkpt>
      <trkpt lat="43.6476" lon="6.80357">
        <ele>459.60000610352</ele>
        <time>2012-03-11T09:31:18.000Z</time>
      </trkpt>
      <trkpt lat="43.64752" lon="6.80337">
        <ele>459.79998779297</ele>
        <time>2012-03-11T09:31:21.000Z</time>
      </trkpt>
      <trkpt lat="43.64748" lon="6.8032">
        <ele>460.20001220703</ele>
        <time>2012-03-11T09:31:24.000Z</time>
      </trkpt>
      <trkpt lat="43.64743" lon="6.80306">
        <ele>460.60000610352</ele>
        <time>2012-03-11T09:31:28.000Z</time>
      </trkpt>
      <trkpt lat="43.64728" lon="6.80291">
        <ele>462.20001220703</ele>
        <time>2012-03-11T09:31:34.000Z</time>
      </trkpt>
      <trkpt lat="43.6472" lon="6.80283">
        <ele>462.79998779297</ele>
        <time>2012-03-11T09:31:38.000Z</time>
      </trkpt>
      <trkpt lat="43.64706" lon="6.80275">
        <ele>464.20001220703</ele>
        <time>2012-03-11T09:31:44.000Z</time>
      </trkpt>
      <trkpt lat="43.64688" lon="6.80265">
        <ele>466</ele>
        <time>2012-03-11T09:31:51.000Z</time>
      </trkpt>
      <trkpt lat="43.64673" lon="6.80258">
        <ele>467.39999389648</ele>
        <time>2012-03-11T09:31:57.000Z</time>
      </trkpt>
      <trkpt lat="43.64662" lon="6.80257">
        <ele>468.39999389648</ele>
        <time>2012-03-11T09:32:04.000Z</time>
      </trkpt>
      <trkpt lat="43.64653" lon="6.80257">
        <ele>469</ele>
        <time>2012-03-11T09:32:09.000Z</time>
      </trkpt>
      <trkpt lat="43.64639" lon="6.80264">
        <ele>470</ele>
        <time>2012-03-11T09:32:17.000Z</time>
      </trkpt>
      <trkpt lat="43.6463" lon="6.80268">
        <ele>470.60000610352</ele>
        <time>2012-03-11T09:32:23.000Z</time>
      </trkpt>
      <trkpt lat="43.64626" lon="6.80267">
        <ele>470.79998779297</ele>
        <time>2012-03-11T09:32:25.000Z</time>
      </trkpt>
      <trkpt lat="43.6462" lon="6.8026">
        <ele>471.39999389648</ele>
        <time>2012-03-11T09:32:29.000Z</time>
      </trkpt>
      <trkpt lat="43.6461" lon="6.80236">
        <ele>472.39999389648</ele>
        <time>2012-03-11T09:32:36.000Z</time>
      </trkpt>
      <trkpt lat="43.6461" lon="6.80212">
        <ele>473</ele>
        <time>2012-03-11T09:32:42.000Z</time>
      </trkpt>
      <trkpt lat="43.64608" lon="6.80192">
        <ele>473.60000610352</ele>
        <time>2012-03-11T09:32:47.000Z</time>
      </trkpt>
      <trkpt lat="43.64607" lon="6.80171">
        <ele>474.20001220703</ele>
        <time>2012-03-11T09:32:53.000Z</time>
      </trkpt>
      <trkpt lat="43.64608" lon="6.8015">
        <ele>475.20001220703</ele>
        <time>2012-03-11T09:32:59.000Z</time>
      </trkpt>
      <trkpt lat="43.64607" lon="6.80133">
        <ele>476.20001220703</ele>
        <time>2012-03-11T09:33:06.000Z</time>
      </trkpt>
      <trkpt lat="43.64606" lon="6.80113">
        <ele>477.39999389648</ele>
        <time>2012-03-11T09:33:13.000Z</time>
      </trkpt>
      <trkpt lat="43.64607" lon="6.80095">
        <ele>478.20001220703</ele>
        <time>2012-03-11T09:33:19.000Z</time>
      </trkpt>
      <trkpt lat="43.64608" lon="6.80069">
        <ele>479</ele>
        <time>2012-03-11T09:33:26.000Z</time>
      </trkpt>
      <trkpt lat="43.64606" lon="6.80043">
        <ele>479.20001220703</ele>
        <time>2012-03-11T09:33:32.000Z</time>
      </trkpt>
      <trkpt lat="43.64605" lon="6.80034">
        <ele>479.39999389648</ele>
        <time>2012-03-11T09:33:35.000Z</time>
      </trkpt>
      <trkpt lat="43.64596" lon="6.80027">
        <ele>479.79998779297</ele>
        <time>2012-03-11T09:33:39.000Z</time>
      </trkpt>
      <trkpt lat="43.64589" lon="6.80028">
        <ele>479.79998779297</ele>
        <time>2012-03-11T09:33:41.000Z</time>
      </trkpt>
      <trkpt lat="43.64559" lon="6.80033">
        <ele>480.39999389648</ele>
        <time>2012-03-11T09:33:49.000Z</time>
      </trkpt>
      <trkpt lat="43.64547" lon="6.80034">
        <ele>480.79998779297</ele>
        <time>2012-03-11T09:33:52.000Z</time>
      </trkpt>
      <trkpt lat="43.6454" lon="6.80018">
        <ele>481</ele>
        <time>2012-03-11T09:33:56.000Z</time>
      </trkpt>
      <trkpt lat="43.64547" lon="6.80004">
        <ele>480.79998779297</ele>
        <time>2012-03-11T09:33:58.000Z</time>
      </trkpt>
      <trkpt lat="43.64559" lon="6.79985">
        <ele>480.20001220703</ele>
        <time>2012-03-11T09:34:01.000Z</time>
      </trkpt>
      <trkpt lat="43.6457" lon="6.79945">
        <ele>479.20001220703</ele>
        <time>2012-03-11T09:34:07.000Z</time>
      </trkpt>
      <trkpt lat="43.64569" lon="6.79929">
        <ele>478.79998779297</ele>
        <time>2012-03-11T09:34:09.000Z</time>
      </trkpt>
      <trkpt lat="43.6456" lon="6.79883">
        <ele>477.20001220703</ele>
        <time>2012-03-11T09:34:15.000Z</time>
      </trkpt>
      <trkpt lat="43.64558" lon="6.79851">
        <ele>475.79998779297</ele>
        <time>2012-03-11T09:34:19.000Z</time>
      </trkpt>
      <trkpt lat="43.64548" lon="6.79821">
        <ele>474.79998779297</ele>
        <time>2012-03-11T09:34:24.000Z</time>
      </trkpt>
      <trkpt lat="43.64538" lon="6.79821">
        <ele>474.79998779297</ele>
        <time>2012-03-11T09:34:26.000Z</time>
      </trkpt>
      <trkpt lat="43.64511" lon="6.79824">
        <ele>474.60000610352</ele>
        <time>2012-03-11T09:34:32.000Z</time>
      </trkpt>
      <trkpt lat="43.64491" lon="6.79822">
        <ele>474.20001220703</ele>
        <time>2012-03-11T09:34:36.000Z</time>
      </trkpt>
      <trkpt lat="43.64469" lon="6.79823">
        <ele>473.79998779297</ele>
        <time>2012-03-11T09:34:40.000Z</time>
      </trkpt>
      <trkpt lat="43.64438" lon="6.79811">
        <ele>471.39999389648</ele>
        <time>2012-03-11T09:34:46.000Z</time>
      </trkpt>
      <trkpt lat="43.64408" lon="6.79806">
        <ele>467.60000610352</ele>
        <time>2012-03-11T09:34:53.000Z</time>
      </trkpt>
      <trkpt lat="43.64398" lon="6.79809">
        <ele>466.20001220703</ele>
        <time>2012-03-11T09:34:55.000Z</time>
      </trkpt>
      <trkpt lat="43.64374" lon="6.79827">
        <ele>465.60000610352</ele>
        <time>2012-03-11T09:35:01.000Z</time>
      </trkpt>
      <trkpt lat="43.64364" lon="6.79838">
        <ele>466.39999389648</ele>
        <time>2012-03-11T09:35:04.000Z</time>
      </trkpt>
      <trkpt lat="43.64345" lon="6.79874">
        <ele>471</ele>
        <time>2012-03-11T09:35:10.000Z</time>
      </trkpt>
      <trkpt lat="43.64326" lon="6.79901">
        <ele>474.79998779297</ele>
        <time>2012-03-11T09:35:14.000Z</time>
      </trkpt>
      <trkpt lat="43.64301" lon="6.79916">
        <ele>474.39999389648</ele>
        <time>2012-03-11T09:35:18.000Z</time>
      </trkpt>
      <trkpt lat="43.64288" lon="6.79916">
        <ele>472.20001220703</ele>
        <time>2012-03-11T09:35:20.000Z</time>
      </trkpt>
      <trkpt lat="43.64272" lon="6.79916">
        <ele>469.60000610352</ele>
        <time>2012-03-11T09:35:22.000Z</time>
      </trkpt>
      <trkpt lat="43.64238" lon="6.79908">
        <ele>460.79998779297</ele>
        <time>2012-03-11T09:35:26.000Z</time>
      </trkpt>
      <trkpt lat="43.64206" lon="6.79909">
        <ele>456.60000610352</ele>
        <time>2012-03-11T09:35:30.000Z</time>
      </trkpt>
      <trkpt lat="43.64185" lon="6.79924">
        <ele>456.60000610352</ele>
        <time>2012-03-11T09:35:33.000Z</time>
      </trkpt>
      <trkpt lat="43.6417" lon="6.79935">
        <ele>455.20001220703</ele>
        <time>2012-03-11T09:35:35.000Z</time>
      </trkpt>
      <trkpt lat="43.64127" lon="6.79981">
        <ele>449</ele>
        <time>2012-03-11T09:35:41.000Z</time>
      </trkpt>
      <trkpt lat="43.64097" lon="6.80036">
        <ele>446.79998779297</ele>
        <time>2012-03-11T09:35:48.000Z</time>
      </trkpt>
      <trkpt lat="43.64079" lon="6.80055">
        <ele>443.60000610352</ele>
        <time>2012-03-11T09:35:52.000Z</time>
      </trkpt>
      <trkpt lat="43.64042" lon="6.80078">
        <ele>436.20001220703</ele>
        <time>2012-03-11T09:35:57.000Z</time>
      </trkpt>
      <trkpt lat="43.64018" lon="6.80091">
        <ele>431.20001220703</ele>
        <time>2012-03-11T09:36:00.000Z</time>
      </trkpt>
      <trkpt lat="43.63981" lon="6.801">
        <ele>423.79998779297</ele>
        <time>2012-03-11T09:36:05.000Z</time>
      </trkpt>
      <trkpt lat="43.63968" lon="6.80115">
        <ele>421.79998779297</ele>
        <time>2012-03-11T09:36:08.000Z</time>
      </trkpt>
      <trkpt lat="43.63962" lon="6.80119">
        <ele>420.79998779297</ele>
        <time>2012-03-11T09:36:09.000Z</time>
      </trkpt>
      <trkpt lat="43.63928" lon="6.80142">
        <ele>415.20001220703</ele>
        <time>2012-03-11T09:36:13.000Z</time>
      </trkpt>
      <trkpt lat="43.63902" lon="6.80157">
        <ele>411.20001220703</ele>
        <time>2012-03-11T09:36:16.000Z</time>
      </trkpt>
      <trkpt lat="43.6387" lon="6.80158">
        <ele>405.79998779297</ele>
        <time>2012-03-11T09:36:20.000Z</time>
      </trkpt>
      <trkpt lat="43.63845" lon="6.80152">
        <ele>401.20001220703</ele>
        <time>2012-03-11T09:36:23.000Z</time>
      </trkpt>
      <trkpt lat="43.63825" lon="6.80137">
        <ele>397.60000610352</ele>
        <time>2012-03-11T09:36:27.000Z</time>
      </trkpt>
      <trkpt lat="43.63821" lon="6.80126">
        <ele>396.79998779297</ele>
        <time>2012-03-11T09:36:29.000Z</time>
      </trkpt>
      <trkpt lat="43.63816" lon="6.80114">
        <ele>395.79998779297</ele>
        <time>2012-03-11T09:36:34.000Z</time>
      </trkpt>
      <trkpt lat="43.63815" lon="6.80111">
        <ele>395.60000610352</ele>
        <time>2012-03-11T09:36:39.000Z</time>
      </trkpt>
      <trkpt lat="43.63813" lon="6.80108">
        <ele>395.39999389648</ele>
        <time>2012-03-11T09:36:41.000Z</time>
      </trkpt>
      <trkpt lat="43.63804" lon="6.80093">
        <ele>394.20001220703</ele>
        <time>2012-03-11T09:36:46.000Z</time>
      </trkpt>
      <trkpt lat="43.63781" lon="6.80069">
        <ele>389.39999389648</ele>
        <time>2012-03-11T09:36:51.000Z</time>
      </trkpt>
      <trkpt lat="43.63751" lon="6.80072">
        <ele>387.60000610352</ele>
        <time>2012-03-11T09:36:56.000Z</time>
      </trkpt>
      <trkpt lat="43.63745" lon="6.80076">
        <ele>388.20001220703</ele>
        <time>2012-03-11T09:36:57.000Z</time>
      </trkpt>
      <trkpt lat="43.63728" lon="6.8008">
        <ele>388.60000610352</ele>
        <time>2012-03-11T09:37:00.000Z</time>
      </trkpt>
      <trkpt lat="43.63718" lon="6.80078">
        <ele>388</ele>
        <time>2012-03-11T09:37:02.000Z</time>
      </trkpt>
      <trkpt lat="43.63701" lon="6.80062">
        <ele>385.20001220703</ele>
        <time>2012-03-11T09:37:06.000Z</time>
      </trkpt>
      <trkpt lat="43.63695" lon="6.80055">
        <ele>384.20001220703</ele>
        <time>2012-03-11T09:37:07.000Z</time>
      </trkpt>
      <trkpt lat="43.63676" lon="6.80045">
        <ele>383</ele>
        <time>2012-03-11T09:37:11.000Z</time>
      </trkpt>
      <trkpt lat="43.63644" lon="6.80022">
        <ele>382.60000610352</ele>
        <time>2012-03-11T09:37:18.000Z</time>
      </trkpt>
      <trkpt lat="43.63627" lon="6.80012">
        <ele>382.79998779297</ele>
        <time>2012-03-11T09:37:22.000Z</time>
      </trkpt>
      <trkpt lat="43.63616" lon="6.80001">
        <ele>382.79998779297</ele>
        <time>2012-03-11T09:37:25.000Z</time>
      </trkpt>
      <trkpt lat="43.63602" lon="6.79991">
        <ele>382</ele>
        <time>2012-03-11T09:37:28.000Z</time>
      </trkpt>
      <trkpt lat="43.63585" lon="6.7998">
        <ele>381.60000610352</ele>
        <time>2012-03-11T09:37:32.000Z</time>
      </trkpt>
      <trkpt lat="43.63577" lon="6.79974">
        <ele>380.79998779297</ele>
        <time>2012-03-11T09:37:34.000Z</time>
      </trkpt>
      <trkpt lat="43.6357" lon="6.7997">
        <ele>380.39999389648</ele>
        <time>2012-03-11T09:37:36.000Z</time>
      </trkpt>
      <trkpt lat="43.63551" lon="6.7996">
        <ele>379.20001220703</ele>
        <time>2012-03-11T09:37:41.000Z</time>
      </trkpt>
      <trkpt lat="43.63531" lon="6.7995">
        <ele>378.39999389648</ele>
        <time>2012-03-11T09:37:47.000Z</time>
      </trkpt>
      <trkpt lat="43.63514" lon="6.79941">
        <ele>377.60000610352</ele>
        <time>2012-03-11T09:37:51.000Z</time>
      </trkpt>
      <trkpt lat="43.63499" lon="6.79933">
        <ele>376.60000610352</ele>
        <time>2012-03-11T09:37:54.000Z</time>
      </trkpt>
      <trkpt lat="43.63476" lon="6.79933">
        <ele>369.79998779297</ele>
        <time>2012-03-11T09:37:59.000Z</time>
      </trkpt>
      <trkpt lat="43.63462" lon="6.79946">
        <ele>367.79998779297</ele>
        <time>2012-03-11T09:38:02.000Z</time>
      </trkpt>
      <trkpt lat="43.63447" lon="6.79963">
        <ele>367</ele>
        <time>2012-03-11T09:38:07.000Z</time>
      </trkpt>
      <trkpt lat="43.63432" lon="6.79975">
        <ele>365.39999389648</ele>
        <time>2012-03-11T09:38:12.000Z</time>
      </trkpt>
      <trkpt lat="43.63416" lon="6.79985">
        <ele>363.39999389648</ele>
        <time>2012-03-11T09:38:17.000Z</time>
      </trkpt>
      <trkpt lat="43.63408" lon="6.79994">
        <ele>362.39999389648</ele>
        <time>2012-03-11T09:38:21.000Z</time>
      </trkpt>
      <trkpt lat="43.63402" lon="6.80012">
        <ele>364.39999389648</ele>
        <time>2012-03-11T09:38:26.000Z</time>
      </trkpt>
      <trkpt lat="43.63393" lon="6.80034">
        <ele>366.39999389648</ele>
        <time>2012-03-11T09:38:33.000Z</time>
      </trkpt>
      <trkpt lat="43.63381" lon="6.80046">
        <ele>365.60000610352</ele>
        <time>2012-03-11T09:38:38.000Z</time>
      </trkpt>
      <trkpt lat="43.63369" lon="6.80056">
        <ele>364.20001220703</ele>
        <time>2012-03-11T09:38:43.000Z</time>
      </trkpt>
      <trkpt lat="43.6336" lon="6.80062">
        <ele>363.20001220703</ele>
        <time>2012-03-11T09:38:47.000Z</time>
      </trkpt>
      <trkpt lat="43.63352" lon="6.80064">
        <ele>361.20001220703</ele>
        <time>2012-03-11T09:38:52.000Z</time>
      </trkpt>
      <trkpt lat="43.63337" lon="6.80065">
        <ele>357</ele>
        <time>2012-03-11T09:38:57.000Z</time>
      </trkpt>
      <trkpt lat="43.63324" lon="6.80066">
        <ele>352.39999389648</ele>
        <time>2012-03-11T09:39:02.000Z</time>
      </trkpt>
      <trkpt lat="43.63311" lon="6.80067">
        <ele>347.39999389648</ele>
        <time>2012-03-11T09:39:07.000Z</time>
      </trkpt>
      <trkpt lat="43.63299" lon="6.80066">
        <ele>342.39999389648</ele>
        <time>2012-03-11T09:39:11.000Z</time>
      </trkpt>
      <trkpt lat="43.6328" lon="6.80071">
        <ele>336.60000610352</ele>
        <time>2012-03-11T09:39:16.000Z</time>
      </trkpt>
      <trkpt lat="43.63271" lon="6.80081">
        <ele>336</ele>
        <time>2012-03-11T09:39:19.000Z</time>
      </trkpt>
      <trkpt lat="43.63257" lon="6.80109">
        <ele>336.60000610352</ele>
        <time>2012-03-11T09:39:24.000Z</time>
      </trkpt>
      <trkpt lat="43.63241" lon="6.80133">
        <ele>334.20001220703</ele>
        <time>2012-03-11T09:39:29.000Z</time>
      </trkpt>
      <trkpt lat="43.63225" lon="6.80157">
        <ele>331.79998779297</ele>
        <time>2012-03-11T09:39:35.000Z</time>
      </trkpt>
      <trkpt lat="43.63227" lon="6.80162">
        <ele>333.79998779297</ele>
        <time>2012-03-11T09:39:42.000Z</time>
      </trkpt>
      <trkpt lat="43.63224" lon="6.80168">
        <ele>333.39999389648</ele>
        <time>2012-03-11T09:39:58.000Z</time>
      </trkpt>
      <trkpt lat="43.63216" lon="6.80179">
        <ele>332</ele>
        <time>2012-03-11T09:40:03.000Z</time>
      </trkpt>
      <trkpt lat="43.63214" lon="6.80181">
        <ele>331.60000610352</ele>
        <time>2012-03-11T09:40:06.000Z</time>
      </trkpt>
      <trkpt lat="43.63213" lon="6.80176">
        <ele>330</ele>
        <time>2012-03-11T09:40:09.000Z</time>
      </trkpt>
      <trkpt lat="43.63211" lon="6.80179">
        <ele>329.60000610352</ele>
        <time>2012-03-11T09:40:16.000Z</time>
      </trkpt>
      <trkpt lat="43.63211" lon="6.80176">
        <ele>328.60000610352</ele>
        <time>2012-03-11T09:40:21.000Z</time>
      </trkpt>
      <trkpt lat="43.6321" lon="6.80167">
        <ele>326.79998779297</ele>
        <time>2012-03-11T09:40:35.000Z</time>
      </trkpt>
      <trkpt lat="43.63209" lon="6.80158">
        <ele>324.20001220703</ele>
        <time>2012-03-11T09:40:40.000Z</time>
      </trkpt>
      <trkpt lat="43.63208" lon="6.80156">
        <ele>323.60000610352</ele>
        <time>2012-03-11T09:40:46.000Z</time>
      </trkpt>
      <trkpt lat="43.63208" lon="6.80149">
        <ele>321.79998779297</ele>
        <time>2012-03-11T09:40:52.000Z</time>
      </trkpt>
      <trkpt lat="43.63208" lon="6.80151">
        <ele>322.39999389648</ele>
        <time>2012-03-11T09:41:00.000Z</time>
      </trkpt>
      <trkpt lat="43.63206" lon="6.80152">
        <ele>321.79998779297</ele>
        <time>2012-03-11T09:41:05.000Z</time>
      </trkpt>
      <trkpt lat="43.63206" lon="6.80152">
        <ele>321.79998779297</ele>
        <time>2012-03-11T09:41:07.000Z</time>
      </trkpt>
      <trkpt lat="43.63203" lon="6.80154">
        <ele>320.60000610352</ele>
        <time>2012-03-11T09:41:13.000Z</time>
      </trkpt>
      <trkpt lat="43.63202" lon="6.80146">
        <ele>318.39999389648</ele>
        <time>2012-03-11T09:41:19.000Z</time>
      </trkpt>
      <trkpt lat="43.632" lon="6.80144">
        <ele>317</ele>
        <time>2012-03-11T09:41:25.000Z</time>
      </trkpt>
      <trkpt lat="43.63197" lon="6.8014">
        <ele>314.79998779297</ele>
        <time>2012-03-11T09:41:30.000Z</time>
      </trkpt>
      <trkpt lat="43.63195" lon="6.80137">
        <ele>313.20001220703</ele>
        <time>2012-03-11T09:41:34.000Z</time>
      </trkpt>
      <trkpt lat="43.63196" lon="6.80137">
        <ele>313.60000610352</ele>
        <time>2012-03-11T09:41:40.000Z</time>
      </trkpt>
      <trkpt lat="43.63197" lon="6.80139">
        <ele>314.39999389648</ele>
        <time>2012-03-11T09:41:45.000Z</time>
      </trkpt>
      <trkpt lat="43.63196" lon="6.80139">
        <ele>314</ele>
        <time>2012-03-11T09:41:49.000Z</time>
      </trkpt>
      <trkpt lat="43.63194" lon="6.80136">
        <ele>312.39999389648</ele>
        <time>2012-03-11T09:41:54.000Z</time>
      </trkpt>
      <trkpt lat="43.63191" lon="6.80139">
        <ele>311.60000610352</ele>
        <time>2012-03-11T09:41:59.000Z</time>
      </trkpt>
      <trkpt lat="43.63183" lon="6.8015">
        <ele>310.60000610352</ele>
        <time>2012-03-11T09:42:04.000Z</time>
      </trkpt>
      <trkpt lat="43.63168" lon="6.8017">
        <ele>308.20001220703</ele>
        <time>2012-03-11T09:42:10.000Z</time>
      </trkpt>
      <trkpt lat="43.63158" lon="6.80178">
        <ele>304.79998779297</ele>
        <time>2012-03-11T09:42:14.000Z</time>
      </trkpt>
      <trkpt lat="43.63157" lon="6.80179">
        <ele>304.20001220703</ele>
        <time>2012-03-11T09:42:15.000Z</time>
      </trkpt>
      <trkpt lat="43.63148" lon="6.8019">
        <ele>302</ele>
        <time>2012-03-11T09:42:20.000Z</time>
      </trkpt>
      <trkpt lat="43.63141" lon="6.802">
        <ele>300</ele>
        <time>2012-03-11T09:42:25.000Z</time>
      </trkpt>
      <trkpt lat="43.63141" lon="6.80204">
        <ele>301</ele>
        <time>2012-03-11T09:42:31.000Z</time>
      </trkpt>
      <trkpt lat="43.6314" lon="6.80207">
        <ele>300.60000610352</ele>
        <time>2012-03-11T09:42:37.000Z</time>
      </trkpt>
      <trkpt lat="43.63134" lon="6.80213">
        <ele>298.60000610352</ele>
        <time>2012-03-11T09:42:41.000Z</time>
      </trkpt>
      <trkpt lat="43.63129" lon="6.80213">
        <ele>296</ele>
        <time>2012-03-11T09:42:45.000Z</time>
      </trkpt>
      <trkpt lat="43.6313" lon="6.80202">
        <ele>294.79998779297</ele>
        <time>2012-03-11T09:42:50.000Z</time>
      </trkpt>
      <trkpt lat="43.63124" lon="6.80199">
        <ele>291.20001220703</ele>
        <time>2012-03-11T09:43:00.000Z</time>
      </trkpt>
      <trkpt lat="43.63124" lon="6.80195">
        <ele>290.20001220703</ele>
        <time>2012-03-11T09:43:06.000Z</time>
      </trkpt>
      <trkpt lat="43.63123" lon="6.80197">
        <ele>290.20001220703</ele>
        <time>2012-03-11T09:43:10.000Z</time>
      </trkpt>
      <trkpt lat="43.63132" lon="6.802">
        <ele>295.20001220703</ele>
        <time>2012-03-11T09:43:21.000Z</time>
      </trkpt>
      <trkpt lat="43.63138" lon="6.80198">
        <ele>298</ele>
        <time>2012-03-11T09:43:38.000Z</time>
      </trkpt>
      <trkpt lat="43.63137" lon="6.8019">
        <ele>296.20001220703</ele>
        <time>2012-03-11T09:43:42.000Z</time>
      </trkpt>
      <trkpt lat="43.63135" lon="6.80188">
        <ele>295</ele>
        <time>2012-03-11T09:43:44.000Z</time>
      </trkpt>
      <trkpt lat="43.63132" lon="6.80186">
        <ele>292.79998779297</ele>
        <time>2012-03-11T09:43:47.000Z</time>
      </trkpt>
      <trkpt lat="43.63124" lon="6.80175">
        <ele>287</ele>
        <time>2012-03-11T09:43:52.000Z</time>
      </trkpt>
      <trkpt lat="43.63124" lon="6.80174">
        <ele>286.60000610352</ele>
        <time>2012-03-11T09:43:54.000Z</time>
      </trkpt>
      <trkpt lat="43.63119" lon="6.8017">
        <ele>283.79998779297</ele>
        <time>2012-03-11T09:44:00.000Z</time>
      </trkpt>
      <trkpt lat="43.63117" lon="6.80174">
        <ele>283.20001220703</ele>
        <time>2012-03-11T09:44:05.000Z</time>
      </trkpt>
      <trkpt lat="43.63117" lon="6.80172">
        <ele>283</ele>
        <time>2012-03-11T09:44:10.000Z</time>
      </trkpt>
      <trkpt lat="43.63117" lon="6.8017">
        <ele>282.39999389648</ele>
        <time>2012-03-11T09:44:15.000Z</time>
      </trkpt>
      <trkpt lat="43.63116" lon="6.80171">
        <ele>282.20001220703</ele>
        <time>2012-03-11T09:44:16.000Z</time>
      </trkpt>
      <trkpt lat="43.63111" lon="6.80175">
        <ele>280.39999389648</ele>
        <time>2012-03-11T09:44:20.000Z</time>
      </trkpt>
      <trkpt lat="43.6311" lon="6.80174">
        <ele>279.79998779297</ele>
        <time>2012-03-11T09:44:21.000Z</time>
      </trkpt>
      <trkpt lat="43.63108" lon="6.80166">
        <ele>277.39999389648</ele>
        <time>2012-03-11T09:44:27.000Z</time>
      </trkpt>
      <trkpt lat="43.63107" lon="6.80162">
        <ele>276</ele>
        <time>2012-03-11T09:44:33.000Z</time>
      </trkpt>
      <trkpt lat="43.63109" lon="6.80163">
        <ele>276.79998779297</ele>
        <time>2012-03-11T09:44:38.000Z</time>
      </trkpt>
      <trkpt lat="43.63104" lon="6.80171">
        <ele>276</ele>
        <time>2012-03-11T09:44:43.000Z</time>
      </trkpt>
      <trkpt lat="43.63101" lon="6.80175">
        <ele>275.20001220703</ele>
        <time>2012-03-11T09:44:48.000Z</time>
      </trkpt>
      <trkpt lat="43.631" lon="6.80175">
        <ele>275</ele>
        <time>2012-03-11T09:44:53.000Z</time>
      </trkpt>
      <trkpt lat="43.63099" lon="6.80175">
        <ele>274.20001220703</ele>
        <time>2012-03-11T09:45:00.000Z</time>
      </trkpt>
      <trkpt lat="43.63098" lon="6.80175">
        <ele>273.79998779297</ele>
        <time>2012-03-11T09:45:08.000Z</time>
      </trkpt>
      <trkpt lat="43.63094" lon="6.80181">
        <ele>272.60000610352</ele>
        <time>2012-03-11T09:45:15.000Z</time>
      </trkpt>
      <trkpt lat="43.6309" lon="6.80173">
        <ele>269.39999389648</ele>
        <time>2012-03-11T09:45:23.000Z</time>
      </trkpt>
      <trkpt lat="43.63087" lon="6.80171">
        <ele>267.20001220703</ele>
        <time>2012-03-11T09:45:28.000Z</time>
      </trkpt>
      <trkpt lat="43.63087" lon="6.80172">
        <ele>267.60000610352</ele>
        <time>2012-03-11T09:45:34.000Z</time>
      </trkpt>
      <trkpt lat="43.63087" lon="6.80168">
        <ele>267</ele>
        <time>2012-03-11T09:45:41.000Z</time>
      </trkpt>
      <trkpt lat="43.63084" lon="6.80171">
        <ele>266.20001220703</ele>
        <time>2012-03-11T09:45:49.000Z</time>
      </trkpt>
      <trkpt lat="43.63078" lon="6.80179">
        <ele>264.20001220703</ele>
        <time>2012-03-11T09:45:54.000Z</time>
      </trkpt>
      <trkpt lat="43.63073" lon="6.80181">
        <ele>262.20001220703</ele>
        <time>2012-03-11T09:45:59.000Z</time>
      </trkpt>
      <trkpt lat="43.63071" lon="6.80181">
        <ele>261.39999389648</ele>
        <time>2012-03-11T09:46:01.000Z</time>
      </trkpt>
      <trkpt lat="43.63069" lon="6.80181">
        <ele>260.20001220703</ele>
        <time>2012-03-11T09:46:09.000Z</time>
      </trkpt>
      <trkpt lat="43.63068" lon="6.80179">
        <ele>259.60000610352</ele>
        <time>2012-03-11T09:46:11.000Z</time>
      </trkpt>
      <trkpt lat="43.63067" lon="6.80166">
        <ele>257</ele>
        <time>2012-03-11T09:46:17.000Z</time>
      </trkpt>
      <trkpt lat="43.63066" lon="6.80165">
        <ele>256.20001220703</ele>
        <time>2012-03-11T09:46:24.000Z</time>
      </trkpt>
      <trkpt lat="43.63066" lon="6.80165">
        <ele>256</ele>
        <time>2012-03-11T09:46:30.000Z</time>
      </trkpt>
      <trkpt lat="43.63066" lon="6.80169">
        <ele>257</ele>
        <time>2012-03-11T09:46:35.000Z</time>
      </trkpt>
      <trkpt lat="43.63065" lon="6.80172">
        <ele>257</ele>
        <time>2012-03-11T09:46:39.000Z</time>
      </trkpt>
      <trkpt lat="43.63063" lon="6.80171">
        <ele>256</ele>
        <time>2012-03-11T09:46:44.000Z</time>
      </trkpt>
      <trkpt lat="43.63062" lon="6.80166">
        <ele>254.60000610352</ele>
        <time>2012-03-11T09:46:49.000Z</time>
      </trkpt>
      <trkpt lat="43.63059" lon="6.80167">
        <ele>253.39999389648</ele>
        <time>2012-03-11T09:46:54.000Z</time>
      </trkpt>
      <trkpt lat="43.63052" lon="6.80171">
        <ele>250.80000305176</ele>
        <time>2012-03-11T09:47:00.000Z</time>
      </trkpt>
      <trkpt lat="43.63049" lon="6.80163">
        <ele>247.39999389648</ele>
        <time>2012-03-11T09:47:04.000Z</time>
      </trkpt>
      <trkpt lat="43.6305" lon="6.80145">
        <ele>244.19999694824</ele>
        <time>2012-03-11T09:47:12.000Z</time>
      </trkpt>
      <trkpt lat="43.63051" lon="6.8013">
        <ele>241.60000610352</ele>
        <time>2012-03-11T09:47:17.000Z</time>
      </trkpt>
      <trkpt lat="43.63053" lon="6.80121">
        <ele>240.80000305176</ele>
        <time>2012-03-11T09:47:22.000Z</time>
      </trkpt>
      <trkpt lat="43.63053" lon="6.80118">
        <ele>240</ele>
        <time>2012-03-11T09:47:27.000Z</time>
      </trkpt>
      <trkpt lat="43.63062" lon="6.80098">
        <ele>239.39999389648</ele>
        <time>2012-03-11T09:47:32.000Z</time>
      </trkpt>
      <trkpt lat="43.63064" lon="6.80093">
        <ele>239</ele>
        <time>2012-03-11T09:47:34.000Z</time>
      </trkpt>
      <trkpt lat="43.6306" lon="6.80088">
        <ele>236.60000610352</ele>
        <time>2012-03-11T09:47:38.000Z</time>
      </trkpt>
      <trkpt lat="43.63061" lon="6.80086">
        <ele>236.39999389648</ele>
        <time>2012-03-11T09:47:39.000Z</time>
      </trkpt>
      <trkpt lat="43.63065" lon="6.8008">
        <ele>236</ele>
        <time>2012-03-11T09:47:41.000Z</time>
      </trkpt>
      <trkpt lat="43.63068" lon="6.80071">
        <ele>234.60000610352</ele>
        <time>2012-03-11T09:47:46.000Z</time>
      </trkpt>
      <trkpt lat="43.63069" lon="6.80067">
        <ele>233.60000610352</ele>
        <time>2012-03-11T09:47:48.000Z</time>
      </trkpt>
      <trkpt lat="43.6308" lon="6.80052">
        <ele>232.39999389648</ele>
        <time>2012-03-11T09:47:54.000Z</time>
      </trkpt>
      <trkpt lat="43.63082" lon="6.80049">
        <ele>232.19999694824</ele>
        <time>2012-03-11T09:48:00.000Z</time>
      </trkpt>
      <trkpt lat="43.6308" lon="6.80049">
        <ele>231.60000610352</ele>
        <time>2012-03-11T09:48:05.000Z</time>
      </trkpt>
      <trkpt lat="43.63073" lon="6.8005">
        <ele>229.60000610352</ele>
        <time>2012-03-11T09:48:09.000Z</time>
      </trkpt>
      <trkpt lat="43.63076" lon="6.80039">
        <ele>227</ele>
        <time>2012-03-11T09:48:14.000Z</time>
      </trkpt>
      <trkpt lat="43.63076" lon="6.80036">
        <ele>226.19999694824</ele>
        <time>2012-03-11T09:48:15.000Z</time>
      </trkpt>
      <trkpt lat="43.63078" lon="6.80031">
        <ele>225</ele>
        <time>2012-03-11T09:48:17.000Z</time>
      </trkpt>
      <trkpt lat="43.63076" lon="6.80029">
        <ele>223.80000305176</ele>
        <time>2012-03-11T09:48:21.000Z</time>
      </trkpt>
      <trkpt lat="43.63065" lon="6.80035">
        <ele>222.60000610352</ele>
        <time>2012-03-11T09:48:27.000Z</time>
      </trkpt>
      <trkpt lat="43.63061" lon="6.80038">
        <ele>222.19999694824</ele>
        <time>2012-03-11T09:48:29.000Z</time>
      </trkpt>
      <trkpt lat="43.63058" lon="6.80041">
        <ele>222.19999694824</ele>
        <time>2012-03-11T09:48:31.000Z</time>
      </trkpt>
      <trkpt lat="43.63054" lon="6.80042">
        <ele>221.19999694824</ele>
        <time>2012-03-11T09:48:35.000Z</time>
      </trkpt>
      <trkpt lat="43.63052" lon="6.80047">
        <ele>222.19999694824</ele>
        <time>2012-03-11T09:48:40.000Z</time>
      </trkpt>
      <trkpt lat="43.63039" lon="6.80048">
        <ele>218.39999389648</ele>
        <time>2012-03-11T09:48:47.000Z</time>
      </trkpt>
      <trkpt lat="43.63037" lon="6.80051">
        <ele>218.39999389648</ele>
        <time>2012-03-11T09:48:49.000Z</time>
      </trkpt>
      <trkpt lat="43.63028" lon="6.80062">
        <ele>218.19999694824</ele>
        <time>2012-03-11T09:48:54.000Z</time>
      </trkpt>
      <trkpt lat="43.63025" lon="6.80065">
        <ele>218</ele>
        <time>2012-03-11T09:48:55.000Z</time>
      </trkpt>
      <trkpt lat="43.63014" lon="6.8008">
        <ele>217.60000610352</ele>
        <time>2012-03-11T09:49:00.000Z</time>
      </trkpt>
      <trkpt lat="43.63011" lon="6.80085">
        <ele>217.39999389648</ele>
        <time>2012-03-11T09:49:02.000Z</time>
      </trkpt>
      <trkpt lat="43.62999" lon="6.80104">
        <ele>215.60000610352</ele>
        <time>2012-03-11T09:49:08.000Z</time>
      </trkpt>
      <trkpt lat="43.62985" lon="6.80116">
        <ele>214.39999389648</ele>
        <time>2012-03-11T09:49:12.000Z</time>
      </trkpt>
      <trkpt lat="43.62978" lon="6.80118">
        <ele>213</ele>
        <time>2012-03-11T09:49:14.000Z</time>
      </trkpt>
      <trkpt lat="43.62967" lon="6.80122">
        <ele>211</ele>
        <time>2012-03-11T09:49:19.000Z</time>
      </trkpt>
      <trkpt lat="43.6296" lon="6.80125">
        <ele>209.60000610352</ele>
        <time>2012-03-11T09:49:23.000Z</time>
      </trkpt>
      <trkpt lat="43.62952" lon="6.80132">
        <ele>208</ele>
        <time>2012-03-11T09:49:27.000Z</time>
      </trkpt>
      <trkpt lat="43.62949" lon="6.8014">
        <ele>207.60000610352</ele>
        <time>2012-03-11T09:49:30.000Z</time>
      </trkpt>
      <trkpt lat="43.62946" lon="6.80146">
        <ele>207.19999694824</ele>
        <time>2012-03-11T09:49:36.000Z</time>
      </trkpt>
      <trkpt lat="43.62945" lon="6.80151">
        <ele>207.19999694824</ele>
        <time>2012-03-11T09:49:44.000Z</time>
      </trkpt>
      <trkpt lat="43.62944" lon="6.80151">
        <ele>207</ele>
        <time>2012-03-11T09:49:45.000Z</time>
      </trkpt>
      <trkpt lat="43.62939" lon="6.80154">
        <ele>205.80000305176</ele>
        <time>2012-03-11T09:49:51.000Z</time>
      </trkpt>
      <trkpt lat="43.62934" lon="6.80156">
        <ele>204.19999694824</ele>
        <time>2012-03-11T09:50:00.000Z</time>
      </trkpt>
      <trkpt lat="43.6293" lon="6.80149">
        <ele>203</ele>
        <time>2012-03-11T09:50:13.000Z</time>
      </trkpt>
      <trkpt lat="43.62929" lon="6.80149">
        <ele>202.80000305176</ele>
        <time>2012-03-11T09:50:27.000Z</time>
      </trkpt>
      <trkpt lat="43.6293" lon="6.80151">
        <ele>203</ele>
        <time>2012-03-11T09:50:29.000Z</time>
      </trkpt>
      <trkpt lat="43.6293" lon="6.80167">
        <ele>203.19999694824</ele>
        <time>2012-03-11T09:50:34.000Z</time>
      </trkpt>
      <trkpt lat="43.62932" lon="6.80173">
        <ele>203.80000305176</ele>
        <time>2012-03-11T09:50:41.000Z</time>
      </trkpt>
      <trkpt lat="43.62933" lon="6.8018">
        <ele>204.19999694824</ele>
        <time>2012-03-11T09:51:05.000Z</time>
      </trkpt>
      <trkpt lat="43.62933" lon="6.80192">
        <ele>204.19999694824</ele>
        <time>2012-03-11T09:51:09.000Z</time>
      </trkpt>
      <trkpt lat="43.62931" lon="6.80197">
        <ele>203.60000610352</ele>
        <time>2012-03-11T09:51:15.000Z</time>
      </trkpt>
      <trkpt lat="43.62933" lon="6.80199">
        <ele>204.39999389648</ele>
        <time>2012-03-11T09:51:23.000Z</time>
      </trkpt>
      <trkpt lat="43.62932" lon="6.80201">
        <ele>204</ele>
        <time>2012-03-11T09:51:30.000Z</time>
      </trkpt>
      <trkpt lat="43.62922" lon="6.80202">
        <ele>200.39999389648</ele>
        <time>2012-03-11T09:51:36.000Z</time>
      </trkpt>
      <trkpt lat="43.62915" lon="6.80202">
        <ele>197.60000610352</ele>
        <time>2012-03-11T09:51:41.000Z</time>
      </trkpt>
      <trkpt lat="43.62911" lon="6.80204">
        <ele>196</ele>
        <time>2012-03-11T09:51:45.000Z</time>
      </trkpt>
      <trkpt lat="43.62907" lon="6.80207">
        <ele>194.39999389648</ele>
        <time>2012-03-11T09:51:50.000Z</time>
      </trkpt>
      <trkpt lat="43.62904" lon="6.80208">
        <ele>193.39999389648</ele>
        <time>2012-03-11T09:51:57.000Z</time>
      </trkpt>
      <trkpt lat="43.62899" lon="6.80209">
        <ele>191.80000305176</ele>
        <time>2012-03-11T09:52:03.000Z</time>
      </trkpt>
      <trkpt lat="43.62896" lon="6.8021">
        <ele>190.39999389648</ele>
        <time>2012-03-11T09:52:08.000Z</time>
      </trkpt>
      <trkpt lat="43.62893" lon="6.8021">
        <ele>189.39999389648</ele>
        <time>2012-03-11T09:52:11.000Z</time>
      </trkpt>
      <trkpt lat="43.62891" lon="6.80214">
        <ele>188.60000610352</ele>
        <time>2012-03-11T09:52:17.000Z</time>
      </trkpt>
      <trkpt lat="43.62891" lon="6.80218">
        <ele>188.39999389648</ele>
        <time>2012-03-11T09:52:22.000Z</time>
      </trkpt>
      <trkpt lat="43.62891" lon="6.80221">
        <ele>188.19999694824</ele>
        <time>2012-03-11T09:52:25.000Z</time>
      </trkpt>
      <trkpt lat="43.62891" lon="6.80234">
        <ele>188</ele>
        <time>2012-03-11T09:52:30.000Z</time>
      </trkpt>
      <trkpt lat="43.62887" lon="6.80264">
        <ele>185.80000305176</ele>
        <time>2012-03-11T09:52:37.000Z</time>
      </trkpt>
      <trkpt lat="43.62887" lon="6.80289">
        <ele>185.39999389648</ele>
        <time>2012-03-11T09:52:42.000Z</time>
      </trkpt>
      <trkpt lat="43.62884" lon="6.80304">
        <ele>184</ele>
        <time>2012-03-11T09:52:46.000Z</time>
      </trkpt>
      <trkpt lat="43.62883" lon="6.80309">
        <ele>183.80000305176</ele>
        <time>2012-03-11T09:52:48.000Z</time>
      </trkpt>
      <trkpt lat="43.62886" lon="6.80319">
        <ele>184.60000610352</ele>
        <time>2012-03-11T09:52:54.000Z</time>
      </trkpt>
      <trkpt lat="43.62886" lon="6.80325">
        <ele>184.80000305176</ele>
        <time>2012-03-11T09:53:00.000Z</time>
      </trkpt>
      <trkpt lat="43.62888" lon="6.80331">
        <ele>185.39999389648</ele>
        <time>2012-03-11T09:53:05.000Z</time>
      </trkpt>
      <trkpt lat="43.62886" lon="6.80348">
        <ele>182.80000305176</ele>
        <time>2012-03-11T09:53:10.000Z</time>
      </trkpt>
      <trkpt lat="43.62893" lon="6.8036">
        <ele>183.60000610352</ele>
        <time>2012-03-11T09:53:14.000Z</time>
      </trkpt>
      <trkpt lat="43.62897" lon="6.80363">
        <ele>184.39999389648</ele>
        <time>2012-03-11T09:53:15.000Z</time>
      </trkpt>
      <trkpt lat="43.62907" lon="6.80385">
        <ele>184.80000305176</ele>
        <time>2012-03-11T09:53:19.000Z</time>
      </trkpt>
      <trkpt lat="43.6293" lon="6.80429">
        <ele>187</ele>
        <time>2012-03-11T09:53:25.000Z</time>
      </trkpt>
      <trkpt lat="43.62937" lon="6.80454">
        <ele>186.39999389648</ele>
        <time>2012-03-11T09:53:29.000Z</time>
      </trkpt>
      <trkpt lat="43.62945" lon="6.80474">
        <ele>186</ele>
        <time>2012-03-11T09:53:32.000Z</time>
      </trkpt>
      <trkpt lat="43.6296" lon="6.80499">
        <ele>186.80000305176</ele>
        <time>2012-03-11T09:53:37.000Z</time>
      </trkpt>
      <trkpt lat="43.62963" lon="6.80501">
        <ele>187.39999389648</ele>
        <time>2012-03-11T09:53:38.000Z</time>
      </trkpt>
      <trkpt lat="43.62973" lon="6.80509">
        <ele>189.60000610352</ele>
        <time>2012-03-11T09:53:41.000Z</time>
      </trkpt>
      <trkpt lat="43.62982" lon="6.80533">
        <ele>189.19999694824</ele>
        <time>2012-03-11T09:53:48.000Z</time>
      </trkpt>
      <trkpt lat="43.62988" lon="6.80563">
        <ele>186.80000305176</ele>
        <time>2012-03-11T09:53:53.000Z</time>
      </trkpt>
      <trkpt lat="43.62989" lon="6.80593">
        <ele>183.39999389648</ele>
        <time>2012-03-11T09:53:58.000Z</time>
      </trkpt>
      <trkpt lat="43.62997" lon="6.80615">
        <ele>184.39999389648</ele>
        <time>2012-03-11T09:54:02.000Z</time>
      </trkpt>
      <trkpt lat="43.63006" lon="6.80639">
        <ele>186</ele>
        <time>2012-03-11T09:54:06.000Z</time>
      </trkpt>
      <trkpt lat="43.6301" lon="6.80657">
        <ele>185.80000305176</ele>
        <time>2012-03-11T09:54:09.000Z</time>
      </trkpt>
      <trkpt lat="43.63015" lon="6.80683">
        <ele>184</ele>
        <time>2012-03-11T09:54:13.000Z</time>
      </trkpt>
      <trkpt lat="43.63017" lon="6.80697">
        <ele>182</ele>
        <time>2012-03-11T09:54:15.000Z</time>
      </trkpt>
      <trkpt lat="43.63026" lon="6.80725">
        <ele>180.39999389648</ele>
        <time>2012-03-11T09:54:20.000Z</time>
      </trkpt>
      <trkpt lat="43.63035" lon="6.8074">
        <ele>180.80000305176</ele>
        <time>2012-03-11T09:54:23.000Z</time>
      </trkpt>
      <trkpt lat="43.63056" lon="6.80762">
        <ele>184.80000305176</ele>
        <time>2012-03-11T09:54:28.000Z</time>
      </trkpt>
      <trkpt lat="43.63067" lon="6.8077">
        <ele>188</ele>
        <time>2012-03-11T09:54:31.000Z</time>
      </trkpt>
      <trkpt lat="43.63074" lon="6.80778">
        <ele>189.19999694824</ele>
        <time>2012-03-11T09:54:33.000Z</time>
      </trkpt>
      <trkpt lat="43.63083" lon="6.80787">
        <ele>191</ele>
        <time>2012-03-11T09:54:35.000Z</time>
      </trkpt>
      <trkpt lat="43.6309" lon="6.80807">
        <ele>191.19999694824</ele>
        <time>2012-03-11T09:54:40.000Z</time>
      </trkpt>
      <trkpt lat="43.63091" lon="6.8081">
        <ele>191.19999694824</ele>
        <time>2012-03-11T09:54:41.000Z</time>
      </trkpt>
      <trkpt lat="43.63098" lon="6.80831">
        <ele>190.19999694824</ele>
        <time>2012-03-11T09:54:47.000Z</time>
      </trkpt>
      <trkpt lat="43.63106" lon="6.80843">
        <ele>192</ele>
        <time>2012-03-11T09:54:52.000Z</time>
      </trkpt>
      <trkpt lat="43.63109" lon="6.80852">
        <ele>192.19999694824</ele>
        <time>2012-03-11T09:54:54.000Z</time>
      </trkpt>
      <trkpt lat="43.63113" lon="6.80864">
        <ele>192.80000305176</ele>
        <time>2012-03-11T09:54:58.000Z</time>
      </trkpt>
      <trkpt lat="43.63114" lon="6.80875">
        <ele>192</ele>
        <time>2012-03-11T09:55:03.000Z</time>
      </trkpt>
      <trkpt lat="43.63112" lon="6.80886">
        <ele>190.19999694824</ele>
        <time>2012-03-11T09:55:09.000Z</time>
      </trkpt>
      <trkpt lat="43.63121" lon="6.80898">
        <ele>192</ele>
        <time>2012-03-11T09:55:15.000Z</time>
      </trkpt>
      <trkpt lat="43.63121" lon="6.80901">
        <ele>192</ele>
        <time>2012-03-11T09:55:16.000Z</time>
      </trkpt>
      <trkpt lat="43.63123" lon="6.80907">
        <ele>192</ele>
        <time>2012-03-11T09:55:19.000Z</time>
      </trkpt>
      <trkpt lat="43.63126" lon="6.80911">
        <ele>192.19999694824</ele>
        <time>2012-03-11T09:55:21.000Z</time>
      </trkpt>
      <trkpt lat="43.63125" lon="6.80929">
        <ele>189.80000305176</ele>
        <time>2012-03-11T09:55:27.000Z</time>
      </trkpt>
      <trkpt lat="43.63122" lon="6.80946">
        <ele>186.60000610352</ele>
        <time>2012-03-11T09:55:31.000Z</time>
      </trkpt>
      <trkpt lat="43.6312" lon="6.80963">
        <ele>183.80000305176</ele>
        <time>2012-03-11T09:55:35.000Z</time>
      </trkpt>
      <trkpt lat="43.6312" lon="6.80969">
        <ele>182.80000305176</ele>
        <time>2012-03-11T09:55:37.000Z</time>
      </trkpt>
      <trkpt lat="43.6312" lon="6.80972">
        <ele>182.60000610352</ele>
        <time>2012-03-11T09:55:39.000Z</time>
      </trkpt>
      <trkpt lat="43.63121" lon="6.80992">
        <ele>180</ele>
        <time>2012-03-11T09:55:44.000Z</time>
      </trkpt>
      <trkpt lat="43.63127" lon="6.81024">
        <ele>178.80000305176</ele>
        <time>2012-03-11T09:55:51.000Z</time>
      </trkpt>
      <trkpt lat="43.6314" lon="6.81057">
        <ele>180</ele>
        <time>2012-03-11T09:55:57.000Z</time>
      </trkpt>
      <trkpt lat="43.63145" lon="6.81068">
        <ele>180.19999694824</ele>
        <time>2012-03-11T09:55:59.000Z</time>
      </trkpt>
      <trkpt lat="43.63148" lon="6.81086">
        <ele>179.39999389648</ele>
        <time>2012-03-11T09:56:02.000Z</time>
      </trkpt>
      <trkpt lat="43.63154" lon="6.81122">
        <ele>175.60000610352</ele>
        <time>2012-03-11T09:56:07.000Z</time>
      </trkpt>
      <trkpt lat="43.63159" lon="6.81149">
        <ele>173.19999694824</ele>
        <time>2012-03-11T09:56:10.000Z</time>
      </trkpt>
      <trkpt lat="43.63174" lon="6.81171">
        <ele>176.80000305176</ele>
        <time>2012-03-11T09:56:14.000Z</time>
      </trkpt>
      <trkpt lat="43.63178" lon="6.81187">
        <ele>176.19999694824</ele>
        <time>2012-03-11T09:56:18.000Z</time>
      </trkpt>
      <trkpt lat="43.63178" lon="6.81193">
        <ele>175.39999389648</ele>
        <time>2012-03-11T09:56:19.000Z</time>
      </trkpt>
      <trkpt lat="43.6318" lon="6.81205">
        <ele>174.39999389648</ele>
        <time>2012-03-11T09:56:21.000Z</time>
      </trkpt>
      <trkpt lat="43.63184" lon="6.81222">
        <ele>173.60000610352</ele>
        <time>2012-03-11T09:56:24.000Z</time>
      </trkpt>
      <trkpt lat="43.63188" lon="6.81235">
        <ele>173.19999694824</ele>
        <time>2012-03-11T09:56:26.000Z</time>
      </trkpt>
      <trkpt lat="43.63192" lon="6.81255">
        <ele>172.19999694824</ele>
        <time>2012-03-11T09:56:31.000Z</time>
      </trkpt>
      <trkpt lat="43.63192" lon="6.81257">
        <ele>172.19999694824</ele>
        <time>2012-03-11T09:56:32.000Z</time>
      </trkpt>
      <trkpt lat="43.63195" lon="6.81281">
        <ele>171.39999389648</ele>
        <time>2012-03-11T09:56:37.000Z</time>
      </trkpt>
      <trkpt lat="43.63199" lon="6.81314">
        <ele>170.60000610352</ele>
        <time>2012-03-11T09:56:42.000Z</time>
      </trkpt>
      <trkpt lat="43.632" lon="6.81322">
        <ele>170.39999389648</ele>
        <time>2012-03-11T09:56:43.000Z</time>
      </trkpt>
      <trkpt lat="43.632" lon="6.81343">
        <ele>169.80000305176</ele>
        <time>2012-03-11T09:56:46.000Z</time>
      </trkpt>
      <trkpt lat="43.632" lon="6.81355">
        <ele>169.80000305176</ele>
        <time>2012-03-11T09:56:48.000Z</time>
      </trkpt>
      <trkpt lat="43.63202" lon="6.81373">
        <ele>170.60000610352</ele>
        <time>2012-03-11T09:56:51.000Z</time>
      </trkpt>
      <trkpt lat="43.63199" lon="6.81398">
        <ele>169.80000305176</ele>
        <time>2012-03-11T09:56:55.000Z</time>
      </trkpt>
      <trkpt lat="43.63196" lon="6.81418">
        <ele>168.60000610352</ele>
        <time>2012-03-11T09:57:00.000Z</time>
      </trkpt>
      <trkpt lat="43.63194" lon="6.81426">
        <ele>167</ele>
        <time>2012-03-11T09:57:03.000Z</time>
      </trkpt>
      <trkpt lat="43.63193" lon="6.81429">
        <ele>166</ele>
        <time>2012-03-11T09:57:10.000Z</time>
      </trkpt>
      <trkpt lat="43.63192" lon="6.81432">
        <ele>165.19999694824</ele>
        <time>2012-03-11T09:57:15.000Z</time>
      </trkpt>
      <trkpt lat="43.63195" lon="6.81436">
        <ele>166</ele>
        <time>2012-03-11T09:57:30.000Z</time>
      </trkpt>
      <trkpt lat="43.63192" lon="6.8144">
        <ele>164.19999694824</ele>
        <time>2012-03-11T09:57:35.000Z</time>
      </trkpt>
      <trkpt lat="43.63188" lon="6.8146">
        <ele>160</ele>
        <time>2012-03-11T09:57:42.000Z</time>
      </trkpt>
      <trkpt lat="43.63188" lon="6.81462">
        <ele>160</ele>
        <time>2012-03-11T09:57:45.000Z</time>
      </trkpt>
      <trkpt lat="43.63189" lon="6.81462">
        <ele>160.19999694824</ele>
        <time>2012-03-11T09:57:56.000Z</time>
      </trkpt>
      <trkpt lat="43.63188" lon="6.81462">
        <ele>160</ele>
        <time>2012-03-11T09:58:05.000Z</time>
      </trkpt>
      <trkpt lat="43.63198" lon="6.81477">
        <ele>161.39999389648</ele>
        <time>2012-03-11T09:58:10.000Z</time>
      </trkpt>
      <trkpt lat="43.63205" lon="6.81488">
        <ele>162.39999389648</ele>
        <time>2012-03-11T09:58:15.000Z</time>
      </trkpt>
      <trkpt lat="43.63212" lon="6.81502">
        <ele>162.80000305176</ele>
        <time>2012-03-11T09:58:20.000Z</time>
      </trkpt>
      <trkpt lat="43.63217" lon="6.81513">
        <ele>162</ele>
        <time>2012-03-11T09:58:24.000Z</time>
      </trkpt>
      <trkpt lat="43.63224" lon="6.81525">
        <ele>162</ele>
        <time>2012-03-11T09:58:28.000Z</time>
      </trkpt>
      <trkpt lat="43.6323" lon="6.81531">
        <ele>162.39999389648</ele>
        <time>2012-03-11T09:58:31.000Z</time>
      </trkpt>
      <trkpt lat="43.63234" lon="6.81536">
        <ele>162.60000610352</ele>
        <time>2012-03-11T09:58:38.000Z</time>
      </trkpt>
      <trkpt lat="43.63233" lon="6.81537">
        <ele>162</ele>
        <time>2012-03-11T09:58:48.000Z</time>
      </trkpt>
      <trkpt lat="43.63227" lon="6.81539">
        <ele>159.80000305176</ele>
        <time>2012-03-11T09:59:03.000Z</time>
      </trkpt>
      <trkpt lat="43.63229" lon="6.81542">
        <ele>159.39999389648</ele>
        <time>2012-03-11T09:59:06.000Z</time>
      </trkpt>
      <trkpt lat="43.63233" lon="6.81548">
        <ele>159.39999389648</ele>
        <time>2012-03-11T09:59:14.000Z</time>
      </trkpt>
      <trkpt lat="43.63243" lon="6.81555">
        <ele>161</ele>
        <time>2012-03-11T09:59:19.000Z</time>
      </trkpt>
      <trkpt lat="43.63251" lon="6.81557">
        <ele>163.19999694824</ele>
        <time>2012-03-11T09:59:23.000Z</time>
      </trkpt>
      <trkpt lat="43.63255" lon="6.81563">
        <ele>163.39999389648</ele>
        <time>2012-03-11T09:59:28.000Z</time>
      </trkpt>
      <trkpt lat="43.63257" lon="6.81567">
        <ele>163.39999389648</ele>
        <time>2012-03-11T09:59:31.000Z</time>
      </trkpt>
      <trkpt lat="43.63259" lon="6.81572">
        <ele>163</ele>
        <time>2012-03-11T09:59:34.000Z</time>
      </trkpt>
      <trkpt lat="43.63264" lon="6.81578">
        <ele>163.80000305176</ele>
        <time>2012-03-11T09:59:40.000Z</time>
      </trkpt>
      <trkpt lat="43.63267" lon="6.81582">
        <ele>164.60000610352</ele>
        <time>2012-03-11T09:59:46.000Z</time>
      </trkpt>
      <trkpt lat="43.63269" lon="6.81588">
        <ele>164.80000305176</ele>
        <time>2012-03-11T09:59:51.000Z</time>
      </trkpt>
      <trkpt lat="43.63272" lon="6.81606">
        <ele>165.60000610352</ele>
        <time>2012-03-11T09:59:57.000Z</time>
      </trkpt>
      <trkpt lat="43.63273" lon="6.81608">
        <ele>165.80000305176</ele>
        <time>2012-03-11T10:00:03.000Z</time>
      </trkpt>
      <trkpt lat="43.63274" lon="6.81613">
        <ele>166.19999694824</ele>
        <time>2012-03-11T10:00:09.000Z</time>
      </trkpt>
      <trkpt lat="43.63272" lon="6.81616">
        <ele>165</ele>
        <time>2012-03-11T10:00:13.000Z</time>
      </trkpt>
      <trkpt lat="43.63272" lon="6.81626">
        <ele>164.80000305176</ele>
        <time>2012-03-11T10:00:17.000Z</time>
      </trkpt>
      <trkpt lat="43.63271" lon="6.81638">
        <ele>163.80000305176</ele>
        <time>2012-03-11T10:00:21.000Z</time>
      </trkpt>
      <trkpt lat="43.63269" lon="6.81644">
        <ele>162.80000305176</ele>
        <time>2012-03-11T10:00:22.000Z</time>
      </trkpt>
      <trkpt lat="43.63259" lon="6.81665">
        <ele>158.19999694824</ele>
        <time>2012-03-11T10:00:26.000Z</time>
      </trkpt>
      <trkpt lat="43.63256" lon="6.81666">
        <ele>157.19999694824</ele>
        <time>2012-03-11T10:00:27.000Z</time>
      </trkpt>
      <trkpt lat="43.63245" lon="6.8167">
        <ele>155.19999694824</ele>
        <time>2012-03-11T10:00:30.000Z</time>
      </trkpt>
      <trkpt lat="43.63232" lon="6.81657">
        <ele>152.60000610352</ele>
        <time>2012-03-11T10:00:35.000Z</time>
      </trkpt>
      <trkpt lat="43.63213" lon="6.81662">
        <ele>150.19999694824</ele>
        <time>2012-03-11T10:00:41.000Z</time>
      </trkpt>
      <trkpt lat="43.63195" lon="6.81669">
        <ele>149</ele>
        <time>2012-03-11T10:00:47.000Z</time>
      </trkpt>
      <trkpt lat="43.63177" lon="6.81673">
        <ele>147.80000305176</ele>
        <time>2012-03-11T10:00:53.000Z</time>
      </trkpt>
      <trkpt lat="43.63167" lon="6.8168">
        <ele>148.19999694824</ele>
        <time>2012-03-11T10:00:58.000Z</time>
      </trkpt>
      <trkpt lat="43.63158" lon="6.81686">
        <ele>146.80000305176</ele>
        <time>2012-03-11T10:01:02.000Z</time>
      </trkpt>
      <trkpt lat="43.63145" lon="6.81698">
        <ele>146.19999694824</ele>
        <time>2012-03-11T10:01:07.000Z</time>
      </trkpt>
      <trkpt lat="43.63131" lon="6.81716">
        <ele>146.19999694824</ele>
        <time>2012-03-11T10:01:11.000Z</time>
      </trkpt>
      <trkpt lat="43.63114" lon="6.81738">
        <ele>145.19999694824</ele>
        <time>2012-03-11T10:01:14.000Z</time>
      </trkpt>
      <trkpt lat="43.63106" lon="6.81759">
        <ele>147.39999389648</ele>
        <time>2012-03-11T10:01:18.000Z</time>
      </trkpt>
      <trkpt lat="43.63105" lon="6.81779">
        <ele>151.39999389648</ele>
        <time>2012-03-11T10:01:26.000Z</time>
      </trkpt>
      <trkpt lat="43.63105" lon="6.81778">
        <ele>151.60000610352</ele>
        <time>2012-03-11T10:01:34.000Z</time>
      </trkpt>
      <trkpt lat="43.63105" lon="6.81778">
        <ele>151.60000610352</ele>
        <time>2012-03-11T10:01:52.000Z</time>
      </trkpt>
      <trkpt lat="43.63106" lon="6.81787">
        <ele>153.80000305176</ele>
        <time>2012-03-11T10:02:14.000Z</time>
      </trkpt>
      <trkpt lat="43.631" lon="6.81816">
        <ele>158.19999694824</ele>
        <time>2012-03-11T10:02:19.000Z</time>
      </trkpt>
      <trkpt lat="43.6309" lon="6.81832">
        <ele>157.80000305176</ele>
        <time>2012-03-11T10:02:23.000Z</time>
      </trkpt>
      <trkpt lat="43.63076" lon="6.8184">
        <ele>156.60000610352</ele>
        <time>2012-03-11T10:02:28.000Z</time>
      </trkpt>
      <trkpt lat="43.63056" lon="6.81856">
        <ele>159.60000610352</ele>
        <time>2012-03-11T10:02:34.000Z</time>
      </trkpt>
      <trkpt lat="43.63043" lon="6.81862">
        <ele>159.80000305176</ele>
        <time>2012-03-11T10:02:38.000Z</time>
      </trkpt>
      <trkpt lat="43.6303" lon="6.81863">
        <ele>158.19999694824</ele>
        <time>2012-03-11T10:02:43.000Z</time>
      </trkpt>
      <trkpt lat="43.63021" lon="6.81861">
        <ele>156.80000305176</ele>
        <time>2012-03-11T10:02:48.000Z</time>
      </trkpt>
      <trkpt lat="43.63007" lon="6.81858">
        <ele>154.19999694824</ele>
        <time>2012-03-11T10:02:54.000Z</time>
      </trkpt>
      <trkpt lat="43.62985" lon="6.8186">
        <ele>151.39999389648</ele>
        <time>2012-03-11T10:03:00.000Z</time>
      </trkpt>
      <trkpt lat="43.62969" lon="6.81873">
        <ele>151.80000305176</ele>
        <time>2012-03-11T10:03:06.000Z</time>
      </trkpt>
      <trkpt lat="43.62949" lon="6.81893">
        <ele>153.19999694824</ele>
        <time>2012-03-11T10:03:14.000Z</time>
      </trkpt>
      <trkpt lat="43.6293" lon="6.81917">
        <ele>156.19999694824</ele>
        <time>2012-03-11T10:03:22.000Z</time>
      </trkpt>
      <trkpt lat="43.62922" lon="6.81932">
        <ele>158.60000610352</ele>
        <time>2012-03-11T10:03:26.000Z</time>
      </trkpt>
      <trkpt lat="43.62911" lon="6.81953">
        <ele>161</ele>
        <time>2012-03-11T10:03:32.000Z</time>
      </trkpt>
      <trkpt lat="43.62894" lon="6.81987">
        <ele>164</ele>
        <time>2012-03-11T10:03:40.000Z</time>
      </trkpt>
      <trkpt lat="43.6288" lon="6.82012">
        <ele>166</ele>
        <time>2012-03-11T10:03:46.000Z</time>
      </trkpt>
      <trkpt lat="43.62866" lon="6.82014">
        <ele>162.39999389648</ele>
        <time>2012-03-11T10:03:50.000Z</time>
      </trkpt>
      <trkpt lat="43.62848" lon="6.82011">
        <ele>156.19999694824</ele>
        <time>2012-03-11T10:03:55.000Z</time>
      </trkpt>
      <trkpt lat="43.62835" lon="6.82026">
        <ele>155.80000305176</ele>
        <time>2012-03-11T10:03:59.000Z</time>
      </trkpt>
      <trkpt lat="43.62832" lon="6.82031">
        <ele>156</ele>
        <time>2012-03-11T10:04:00.000Z</time>
      </trkpt>
      <trkpt lat="43.62811" lon="6.82045">
        <ele>154</ele>
        <time>2012-03-11T10:04:05.000Z</time>
      </trkpt>
      <trkpt lat="43.62798" lon="6.82049">
        <ele>151.60000610352</ele>
        <time>2012-03-11T10:04:08.000Z</time>
      </trkpt>
      <trkpt lat="43.62774" lon="6.82074">
        <ele>151.19999694824</ele>
        <time>2012-03-11T10:04:13.000Z</time>
      </trkpt>
      <trkpt lat="43.62756" lon="6.82104">
        <ele>150.80000305176</ele>
        <time>2012-03-11T10:04:17.000Z</time>
      </trkpt>
      <trkpt lat="43.62741" lon="6.82138">
        <ele>149.80000305176</ele>
        <time>2012-03-11T10:04:21.000Z</time>
      </trkpt>
      <trkpt lat="43.6273" lon="6.82155">
        <ele>148.80000305176</ele>
        <time>2012-03-11T10:04:25.000Z</time>
      </trkpt>
      <trkpt lat="43.62717" lon="6.82157">
        <ele>145.80000305176</ele>
        <time>2012-03-11T10:04:29.000Z</time>
      </trkpt>
      <trkpt lat="43.62709" lon="6.82163">
        <ele>144.60000610352</ele>
        <time>2012-03-11T10:04:31.000Z</time>
      </trkpt>
      <trkpt lat="43.62691" lon="6.8219">
        <ele>145</ele>
        <time>2012-03-11T10:04:37.000Z</time>
      </trkpt>
      <trkpt lat="43.62689" lon="6.82193">
        <ele>145.19999694824</ele>
        <time>2012-03-11T10:04:38.000Z</time>
      </trkpt>
      <trkpt lat="43.62673" lon="6.82211">
        <ele>143.80000305176</ele>
        <time>2012-03-11T10:04:44.000Z</time>
      </trkpt>
      <trkpt lat="43.62654" lon="6.82232">
        <ele>141.39999389648</ele>
        <time>2012-03-11T10:04:48.000Z</time>
      </trkpt>
      <trkpt lat="43.62637" lon="6.8226">
        <ele>141.39999389648</ele>
        <time>2012-03-11T10:04:52.000Z</time>
      </trkpt>
      <trkpt lat="43.62623" lon="6.82295">
        <ele>143.80000305176</ele>
        <time>2012-03-11T10:04:56.000Z</time>
      </trkpt>
      <trkpt lat="43.62605" lon="6.82314">
        <ele>141.19999694824</ele>
        <time>2012-03-11T10:05:00.000Z</time>
      </trkpt>
      <trkpt lat="43.62596" lon="6.82321">
        <ele>139</ele>
        <time>2012-03-11T10:05:02.000Z</time>
      </trkpt>
      <trkpt lat="43.62584" lon="6.82333">
        <ele>136.19999694824</ele>
        <time>2012-03-11T10:05:05.000Z</time>
      </trkpt>
      <trkpt lat="43.62573" lon="6.82348">
        <ele>134.39999389648</ele>
        <time>2012-03-11T10:05:08.000Z</time>
      </trkpt>
      <trkpt lat="43.62561" lon="6.82367">
        <ele>133</ele>
        <time>2012-03-11T10:05:11.000Z</time>
      </trkpt>
      <trkpt lat="43.62545" lon="6.82404">
        <ele>132</ele>
        <time>2012-03-11T10:05:16.000Z</time>
      </trkpt>
      <trkpt lat="43.6254" lon="6.82417">
        <ele>131.80000305176</ele>
        <time>2012-03-11T10:05:18.000Z</time>
      </trkpt>
      <trkpt lat="43.62535" lon="6.82429">
        <ele>131.80000305176</ele>
        <time>2012-03-11T10:05:20.000Z</time>
      </trkpt>
      <trkpt lat="43.6252" lon="6.82457">
        <ele>130.80000305176</ele>
        <time>2012-03-11T10:05:26.000Z</time>
      </trkpt>
      <trkpt lat="43.62513" lon="6.82482">
        <ele>132.39999389648</ele>
        <time>2012-03-11T10:05:30.000Z</time>
      </trkpt>
      <trkpt lat="43.6251" lon="6.82528">
        <ele>136.39999389648</ele>
        <time>2012-03-11T10:05:36.000Z</time>
      </trkpt>
      <trkpt lat="43.62504" lon="6.82577">
        <ele>138.80000305176</ele>
        <time>2012-03-11T10:05:43.000Z</time>
      </trkpt>
      <trkpt lat="43.62502" lon="6.8259">
        <ele>139.80000305176</ele>
        <time>2012-03-11T10:05:45.000Z</time>
      </trkpt>
      <trkpt lat="43.6249" lon="6.82631">
        <ele>142.80000305176</ele>
        <time>2012-03-11T10:05:53.000Z</time>
      </trkpt>
      <trkpt lat="43.62478" lon="6.82667">
        <ele>144.60000610352</ele>
        <time>2012-03-11T10:06:01.000Z</time>
      </trkpt>
      <trkpt lat="43.62472" lon="6.82701">
        <ele>144.60000610352</ele>
        <time>2012-03-11T10:06:07.000Z</time>
      </trkpt>
      <trkpt lat="43.62474" lon="6.82726">
        <ele>146.60000610352</ele>
        <time>2012-03-11T10:06:11.000Z</time>
      </trkpt>
      <trkpt lat="43.62474" lon="6.82742">
        <ele>147.60000610352</ele>
        <time>2012-03-11T10:06:14.000Z</time>
      </trkpt>
      <trkpt lat="43.62476" lon="6.82788">
        <ele>149.19999694824</ele>
        <time>2012-03-11T10:06:23.000Z</time>
      </trkpt>
      <trkpt lat="43.62481" lon="6.82821">
        <ele>151.19999694824</ele>
        <time>2012-03-11T10:06:29.000Z</time>
      </trkpt>
      <trkpt lat="43.62485" lon="6.82848">
        <ele>152.60000610352</ele>
        <time>2012-03-11T10:06:34.000Z</time>
      </trkpt>
      <trkpt lat="43.62491" lon="6.829">
        <ele>154</ele>
        <time>2012-03-11T10:06:44.000Z</time>
      </trkpt>
      <trkpt lat="43.62495" lon="6.82939">
        <ele>155.19999694824</ele>
        <time>2012-03-11T10:06:52.000Z</time>
      </trkpt>
      <trkpt lat="43.625" lon="6.82979">
        <ele>156.19999694824</ele>
        <time>2012-03-11T10:06:59.000Z</time>
      </trkpt>
      <trkpt lat="43.62504" lon="6.83027">
        <ele>158</ele>
        <time>2012-03-11T10:07:08.000Z</time>
      </trkpt>
      <trkpt lat="43.62508" lon="6.83061">
        <ele>159.80000305176</ele>
        <time>2012-03-11T10:07:14.000Z</time>
      </trkpt>
      <trkpt lat="43.62512" lon="6.831">
        <ele>162</ele>
        <time>2012-03-11T10:07:21.000Z</time>
      </trkpt>
      <trkpt lat="43.62516" lon="6.83146">
        <ele>163.80000305176</ele>
        <time>2012-03-11T10:07:30.000Z</time>
      </trkpt>
      <trkpt lat="43.62519" lon="6.83168">
        <ele>164.60000610352</ele>
        <time>2012-03-11T10:07:35.000Z</time>
      </trkpt>
      <trkpt lat="43.62524" lon="6.83194">
        <ele>165.19999694824</ele>
        <time>2012-03-11T10:07:41.000Z</time>
      </trkpt>
      <trkpt lat="43.62534" lon="6.83221">
        <ele>167</ele>
        <time>2012-03-11T10:07:47.000Z</time>
      </trkpt>
      <trkpt lat="43.62547" lon="6.83257">
        <ele>169.19999694824</ele>
        <time>2012-03-11T10:07:55.000Z</time>
      </trkpt>
      <trkpt lat="43.62558" lon="6.83299">
        <ele>170</ele>
        <time>2012-03-11T10:08:04.000Z</time>
      </trkpt>
      <trkpt lat="43.62562" lon="6.83323">
        <ele>170</ele>
        <time>2012-03-11T10:08:10.000Z</time>
      </trkpt>
      <trkpt lat="43.62573" lon="6.83353">
        <ele>170.19999694824</ele>
        <time>2012-03-11T10:08:16.000Z</time>
      </trkpt>
      <trkpt lat="43.62593" lon="6.83388">
        <ele>172</ele>
        <time>2012-03-11T10:08:24.000Z</time>
      </trkpt>
      <trkpt lat="43.62609" lon="6.83415">
        <ele>174</ele>
        <time>2012-03-11T10:08:31.000Z</time>
      </trkpt>
      <trkpt lat="43.62633" lon="6.83452">
        <ele>176.39999389648</ele>
        <time>2012-03-11T10:08:41.000Z</time>
      </trkpt>
      <trkpt lat="43.62659" lon="6.83493">
        <ele>178.19999694824</ele>
        <time>2012-03-11T10:08:52.000Z</time>
      </trkpt>
      <trkpt lat="43.62677" lon="6.83516">
        <ele>179.80000305176</ele>
        <time>2012-03-11T10:08:59.000Z</time>
      </trkpt>
      <trkpt lat="43.62698" lon="6.83542">
        <ele>181.39999389648</ele>
        <time>2012-03-11T10:09:07.000Z</time>
      </trkpt>
      <trkpt lat="43.62719" lon="6.83569">
        <ele>182.19999694824</ele>
        <time>2012-03-11T10:09:14.000Z</time>
      </trkpt>
      <trkpt lat="43.62743" lon="6.83596">
        <ele>183.39999389648</ele>
        <time>2012-03-11T10:09:22.000Z</time>
      </trkpt>
      <trkpt lat="43.62766" lon="6.83623">
        <ele>185.39999389648</ele>
        <time>2012-03-11T10:09:31.000Z</time>
      </trkpt>
      <trkpt lat="43.62782" lon="6.83641">
        <ele>186.60000610352</ele>
        <time>2012-03-11T10:09:38.000Z</time>
      </trkpt>
      <trkpt lat="43.62796" lon="6.83655">
        <ele>187.60000610352</ele>
        <time>2012-03-11T10:09:42.000Z</time>
      </trkpt>
      <trkpt lat="43.62823" lon="6.83665">
        <ele>191.39999389648</ele>
        <time>2012-03-11T10:09:48.000Z</time>
      </trkpt>
      <trkpt lat="43.6284" lon="6.83682">
        <ele>192</ele>
        <time>2012-03-11T10:09:53.000Z</time>
      </trkpt>
      <trkpt lat="43.62858" lon="6.83718">
        <ele>190.39999389648</ele>
        <time>2012-03-11T10:10:01.000Z</time>
      </trkpt>
      <trkpt lat="43.62872" lon="6.83747">
        <ele>189.39999389648</ele>
        <time>2012-03-11T10:10:08.000Z</time>
      </trkpt>
      <trkpt lat="43.62885" lon="6.83775">
        <ele>190.39999389648</ele>
        <time>2012-03-11T10:10:16.000Z</time>
      </trkpt>
      <trkpt lat="43.62891" lon="6.83793">
        <ele>190.80000305176</ele>
        <time>2012-03-11T10:10:21.000Z</time>
      </trkpt>
      <trkpt lat="43.62903" lon="6.83818">
        <ele>192</ele>
        <time>2012-03-11T10:10:28.000Z</time>
      </trkpt>
      <trkpt lat="43.62918" lon="6.83837">
        <ele>193.80000305176</ele>
        <time>2012-03-11T10:10:35.000Z</time>
      </trkpt>
      <trkpt lat="43.62929" lon="6.83853">
        <ele>194.19999694824</ele>
        <time>2012-03-11T10:10:40.000Z</time>
      </trkpt>
      <trkpt lat="43.62944" lon="6.83875">
        <ele>194.60000610352</ele>
        <time>2012-03-11T10:10:47.000Z</time>
      </trkpt>
      <trkpt lat="43.6296" lon="6.83887">
        <ele>195.80000305176</ele>
        <time>2012-03-11T10:10:53.000Z</time>
      </trkpt>
      <trkpt lat="43.62982" lon="6.83899">
        <ele>198</ele>
        <time>2012-03-11T10:11:00.000Z</time>
      </trkpt>
      <trkpt lat="43.63012" lon="6.83916">
        <ele>199.80000305176</ele>
        <time>2012-03-11T10:11:10.000Z</time>
      </trkpt>
      <trkpt lat="43.6303" lon="6.83927">
        <ele>200</ele>
        <time>2012-03-11T10:11:16.000Z</time>
      </trkpt>
      <trkpt lat="43.63048" lon="6.83937">
        <ele>200.39999389648</ele>
        <time>2012-03-11T10:11:22.000Z</time>
      </trkpt>
      <trkpt lat="43.63075" lon="6.83948">
        <ele>201.19999694824</ele>
        <time>2012-03-11T10:11:28.000Z</time>
      </trkpt>
      <trkpt lat="43.63085" lon="6.83952">
        <ele>201.80000305176</ele>
        <time>2012-03-11T10:11:30.000Z</time>
      </trkpt>
      <trkpt lat="43.63116" lon="6.83978">
        <ele>204</ele>
        <time>2012-03-11T10:11:37.000Z</time>
      </trkpt>
      <trkpt lat="43.63136" lon="6.84007">
        <ele>205.39999389648</ele>
        <time>2012-03-11T10:11:43.000Z</time>
      </trkpt>
      <trkpt lat="43.63145" lon="6.84036">
        <ele>208.60000610352</ele>
        <time>2012-03-11T10:11:49.000Z</time>
      </trkpt>
      <trkpt lat="43.63154" lon="6.84066">
        <ele>211.19999694824</ele>
        <time>2012-03-11T10:11:56.000Z</time>
      </trkpt>
      <trkpt lat="43.63158" lon="6.84089">
        <ele>213.39999389648</ele>
        <time>2012-03-11T10:12:02.000Z</time>
      </trkpt>
      <trkpt lat="43.63156" lon="6.84092">
        <ele>214</ele>
        <time>2012-03-11T10:12:03.000Z</time>
      </trkpt>
      <trkpt lat="43.63138" lon="6.84103">
        <ele>215.19999694824</ele>
        <time>2012-03-11T10:12:09.000Z</time>
      </trkpt>
      <trkpt lat="43.63115" lon="6.8411">
        <ele>215.60000610352</ele>
        <time>2012-03-11T10:12:17.000Z</time>
      </trkpt>
      <trkpt lat="43.63102" lon="6.84105">
        <ele>213.80000305176</ele>
        <time>2012-03-11T10:12:22.000Z</time>
      </trkpt>
      <trkpt lat="43.63089" lon="6.841">
        <ele>212</ele>
        <time>2012-03-11T10:12:27.000Z</time>
      </trkpt>
      <trkpt lat="43.63075" lon="6.84096">
        <ele>210.39999389648</ele>
        <time>2012-03-11T10:12:32.000Z</time>
      </trkpt>
      <trkpt lat="43.63055" lon="6.84095">
        <ele>209.80000305176</ele>
        <time>2012-03-11T10:12:38.000Z</time>
      </trkpt>
      <trkpt lat="43.63039" lon="6.84105">
        <ele>211.19999694824</ele>
        <time>2012-03-11T10:12:44.000Z</time>
      </trkpt>
      <trkpt lat="43.63025" lon="6.84126">
        <ele>215.60000610352</ele>
        <time>2012-03-11T10:12:51.000Z</time>
      </trkpt>
      <trkpt lat="43.63014" lon="6.84141">
        <ele>218.80000305176</ele>
        <time>2012-03-11T10:12:57.000Z</time>
      </trkpt>
      <trkpt lat="43.63002" lon="6.84146">
        <ele>219.39999389648</ele>
        <time>2012-03-11T10:13:02.000Z</time>
      </trkpt>
      <trkpt lat="43.62975" lon="6.84147">
        <ele>221.80000305176</ele>
        <time>2012-03-11T10:13:11.000Z</time>
      </trkpt>
      <trkpt lat="43.62973" lon="6.84155">
        <ele>224.19999694824</ele>
        <time>2012-03-11T10:13:15.000Z</time>
      </trkpt>
      <trkpt lat="43.62983" lon="6.84159">
        <ele>224.19999694824</ele>
        <time>2012-03-11T10:13:19.000Z</time>
      </trkpt>
      <trkpt lat="43.63004" lon="6.84177">
        <ele>226.19999694824</ele>
        <time>2012-03-11T10:13:28.000Z</time>
      </trkpt>
      <trkpt lat="43.63015" lon="6.84181">
        <ele>227.19999694824</ele>
        <time>2012-03-11T10:13:33.000Z</time>
      </trkpt>
      <trkpt lat="43.63028" lon="6.84176">
        <ele>226.80000305176</ele>
        <time>2012-03-11T10:13:39.000Z</time>
      </trkpt>
      <trkpt lat="43.6304" lon="6.84164">
        <ele>224.80000305176</ele>
        <time>2012-03-11T10:13:45.000Z</time>
      </trkpt>
      <trkpt lat="43.63056" lon="6.84157">
        <ele>223.80000305176</ele>
        <time>2012-03-11T10:13:52.000Z</time>
      </trkpt>
      <trkpt lat="43.63066" lon="6.84162">
        <ele>225.39999389648</ele>
        <time>2012-03-11T10:13:57.000Z</time>
      </trkpt>
      <trkpt lat="43.6308" lon="6.84179">
        <ele>229</ele>
        <time>2012-03-11T10:14:05.000Z</time>
      </trkpt>
      <trkpt lat="43.63091" lon="6.84195">
        <ele>232</ele>
        <time>2012-03-11T10:14:12.000Z</time>
      </trkpt>
      <trkpt lat="43.63087" lon="6.84203">
        <ele>233.19999694824</ele>
        <time>2012-03-11T10:14:16.000Z</time>
      </trkpt>
      <trkpt lat="43.63083" lon="6.8421">
        <ele>234.19999694824</ele>
        <time>2012-03-11T10:14:20.000Z</time>
      </trkpt>
      <trkpt lat="43.63088" lon="6.84217">
        <ele>235.60000610352</ele>
        <time>2012-03-11T10:14:25.000Z</time>
      </trkpt>
      <trkpt lat="43.63091" lon="6.84222">
        <ele>236.60000610352</ele>
        <time>2012-03-11T10:14:29.000Z</time>
      </trkpt>
      <trkpt lat="43.63097" lon="6.84232">
        <ele>238.39999389648</ele>
        <time>2012-03-11T10:14:36.000Z</time>
      </trkpt>
      <trkpt lat="43.63096" lon="6.84236">
        <ele>239.19999694824</ele>
        <time>2012-03-11T10:14:41.000Z</time>
      </trkpt>
      <trkpt lat="43.63092" lon="6.84241">
        <ele>239.80000305176</ele>
        <time>2012-03-11T10:14:50.000Z</time>
      </trkpt>
      <trkpt lat="43.63088" lon="6.84246">
        <ele>240.39999389648</ele>
        <time>2012-03-11T10:14:58.000Z</time>
      </trkpt>
      <trkpt lat="43.63087" lon="6.84246">
        <ele>240.60000610352</ele>
        <time>2012-03-11T10:14:59.000Z</time>
      </trkpt>
      <trkpt lat="43.63083" lon="6.84257">
        <ele>241.19999694824</ele>
        <time>2012-03-11T10:15:04.000Z</time>
      </trkpt>
      <trkpt lat="43.63086" lon="6.84263">
        <ele>241.60000610352</ele>
        <time>2012-03-11T10:15:07.000Z</time>
      </trkpt>
      <trkpt lat="43.63088" lon="6.84281">
        <ele>242.19999694824</ele>
        <time>2012-03-11T10:15:17.000Z</time>
      </trkpt>
      <trkpt lat="43.63088" lon="6.84283">
        <ele>242.39999389648</ele>
        <time>2012-03-11T10:15:18.000Z</time>
      </trkpt>
      <trkpt lat="43.63088" lon="6.84291">
        <ele>242.60000610352</ele>
        <time>2012-03-11T10:15:24.000Z</time>
      </trkpt>
      <trkpt lat="43.63087" lon="6.84296">
        <ele>242.80000305176</ele>
        <time>2012-03-11T10:15:28.000Z</time>
      </trkpt>
      <trkpt lat="43.63089" lon="6.84303">
        <ele>243.19999694824</ele>
        <time>2012-03-11T10:15:34.000Z</time>
      </trkpt>
      <trkpt lat="43.63088" lon="6.84304">
        <ele>243.19999694824</ele>
        <time>2012-03-11T10:15:35.000Z</time>
      </trkpt>
      <trkpt lat="43.6308" lon="6.84315">
        <ele>243.39999389648</ele>
        <time>2012-03-11T10:15:42.000Z</time>
      </trkpt>
      <trkpt lat="43.63071" lon="6.84324">
        <ele>243.80000305176</ele>
        <time>2012-03-11T10:15:47.000Z</time>
      </trkpt>
      <trkpt lat="43.63064" lon="6.84342">
        <ele>243.80000305176</ele>
        <time>2012-03-11T10:15:52.000Z</time>
      </trkpt>
      <trkpt lat="43.63052" lon="6.84351">
        <ele>243.80000305176</ele>
        <time>2012-03-11T10:15:55.000Z</time>
      </trkpt>
      <trkpt lat="43.63036" lon="6.8437">
        <ele>243.80000305176</ele>
        <time>2012-03-11T10:16:00.000Z</time>
      </trkpt>
      <trkpt lat="43.63026" lon="6.8439">
        <ele>244</ele>
        <time>2012-03-11T10:16:04.000Z</time>
      </trkpt>
      <trkpt lat="43.63029" lon="6.84416">
        <ele>243.60000610352</ele>
        <time>2012-03-11T10:16:08.000Z</time>
      </trkpt>
      <trkpt lat="43.63031" lon="6.84422">
        <ele>243.19999694824</ele>
        <time>2012-03-11T10:16:09.000Z</time>
      </trkpt>
      <trkpt lat="43.63042" lon="6.84452">
        <ele>241.39999389648</ele>
        <time>2012-03-11T10:16:14.000Z</time>
      </trkpt>
      <trkpt lat="43.63047" lon="6.8448">
        <ele>239.80000305176</ele>
        <time>2012-03-11T10:16:18.000Z</time>
      </trkpt>
      <trkpt lat="43.63047" lon="6.84506">
        <ele>238.80000305176</ele>
        <time>2012-03-11T10:16:21.000Z</time>
      </trkpt>
      <trkpt lat="43.6304" lon="6.84553">
        <ele>235.80000305176</ele>
        <time>2012-03-11T10:16:26.000Z</time>
      </trkpt>
      <trkpt lat="43.63024" lon="6.84583">
        <ele>235.60000610352</ele>
        <time>2012-03-11T10:16:30.000Z</time>
      </trkpt>
      <trkpt lat="43.63009" lon="6.846">
        <ele>234.80000305176</ele>
        <time>2012-03-11T10:16:33.000Z</time>
      </trkpt>
      <trkpt lat="43.62979" lon="6.84619">
        <ele>235.19999694824</ele>
        <time>2012-03-11T10:16:40.000Z</time>
      </trkpt>
      <trkpt lat="43.62962" lon="6.84624">
        <ele>236.60000610352</ele>
        <time>2012-03-11T10:16:45.000Z</time>
      </trkpt>
      <trkpt lat="43.62947" lon="6.84625">
        <ele>238.19999694824</ele>
        <time>2012-03-11T10:16:52.000Z</time>
      </trkpt>
      <trkpt lat="43.62927" lon="6.84627">
        <ele>240.19999694824</ele>
        <time>2012-03-11T10:17:00.000Z</time>
      </trkpt>
      <trkpt lat="43.62909" lon="6.84626">
        <ele>241.80000305176</ele>
        <time>2012-03-11T10:17:07.000Z</time>
      </trkpt>
      <trkpt lat="43.62884" lon="6.84625">
        <ele>242.19999694824</ele>
        <time>2012-03-11T10:17:16.000Z</time>
      </trkpt>
      <trkpt lat="43.6286" lon="6.84621">
        <ele>243.19999694824</ele>
        <time>2012-03-11T10:17:24.000Z</time>
      </trkpt>
      <trkpt lat="43.62833" lon="6.84618">
        <ele>244</ele>
        <time>2012-03-11T10:17:32.000Z</time>
      </trkpt>
      <trkpt lat="43.62808" lon="6.84623">
        <ele>242.60000610352</ele>
        <time>2012-03-11T10:17:40.000Z</time>
      </trkpt>
      <trkpt lat="43.62796" lon="6.84628">
        <ele>241.80000305176</ele>
        <time>2012-03-11T10:17:45.000Z</time>
      </trkpt>
      <trkpt lat="43.62781" lon="6.84629">
        <ele>241.80000305176</ele>
        <time>2012-03-11T10:17:49.000Z</time>
      </trkpt>
      <trkpt lat="43.62758" lon="6.84623">
        <ele>242.19999694824</ele>
        <time>2012-03-11T10:17:53.000Z</time>
      </trkpt>
      <trkpt lat="43.62726" lon="6.84631">
        <ele>240.60000610352</ele>
        <time>2012-03-11T10:17:58.000Z</time>
      </trkpt>
      <trkpt lat="43.62712" lon="6.84636">
        <ele>240</ele>
        <time>2012-03-11T10:18:00.000Z</time>
      </trkpt>
      <trkpt lat="43.62685" lon="6.84637">
        <ele>239.19999694824</ele>
        <time>2012-03-11T10:18:04.000Z</time>
      </trkpt>
      <trkpt lat="43.62668" lon="6.84632">
        <ele>238.60000610352</ele>
        <time>2012-03-11T10:18:07.000Z</time>
      </trkpt>
      <trkpt lat="43.62646" lon="6.8463">
        <ele>240</ele>
        <time>2012-03-11T10:18:11.000Z</time>
      </trkpt>
      <trkpt lat="43.62639" lon="6.8463">
        <ele>240.39999389648</ele>
        <time>2012-03-11T10:18:14.000Z</time>
      </trkpt>
      <trkpt lat="43.62647" lon="6.84634">
        <ele>240</ele>
        <time>2012-03-11T10:18:18.000Z</time>
      </trkpt>
      <trkpt lat="43.62655" lon="6.84651">
        <ele>239.60000610352</ele>
        <time>2012-03-11T10:18:21.000Z</time>
      </trkpt>
      <trkpt lat="43.6266" lon="6.84656">
        <ele>239.39999389648</ele>
        <time>2012-03-11T10:18:22.000Z</time>
      </trkpt>
      <trkpt lat="43.62681" lon="6.84684">
        <ele>237.19999694824</ele>
        <time>2012-03-11T10:18:27.000Z</time>
      </trkpt>
      <trkpt lat="43.62702" lon="6.84701">
        <ele>234.39999389648</ele>
        <time>2012-03-11T10:18:31.000Z</time>
      </trkpt>
      <trkpt lat="43.62742" lon="6.84708">
        <ele>232</ele>
        <time>2012-03-11T10:18:37.000Z</time>
      </trkpt>
      <trkpt lat="43.62756" lon="6.84703">
        <ele>231.80000305176</ele>
        <time>2012-03-11T10:18:42.000Z</time>
      </trkpt>
      <trkpt lat="43.62759" lon="6.84702">
        <ele>231.80000305176</ele>
        <time>2012-03-11T10:18:43.000Z</time>
      </trkpt>
      <trkpt lat="43.62783" lon="6.84692">
        <ele>231.80000305176</ele>
        <time>2012-03-11T10:18:49.000Z</time>
      </trkpt>
      <trkpt lat="43.62791" lon="6.84695">
        <ele>230.39999389648</ele>
        <time>2012-03-11T10:18:51.000Z</time>
      </trkpt>
      <trkpt lat="43.62808" lon="6.847">
        <ele>228</ele>
        <time>2012-03-11T10:18:56.000Z</time>
      </trkpt>
      <trkpt lat="43.62823" lon="6.847">
        <ele>226.60000610352</ele>
        <time>2012-03-11T10:19:00.000Z</time>
      </trkpt>
      <trkpt lat="43.62842" lon="6.847">
        <ele>225.60000610352</ele>
        <time>2012-03-11T10:19:04.000Z</time>
      </trkpt>
      <trkpt lat="43.62856" lon="6.84699">
        <ele>225.60000610352</ele>
        <time>2012-03-11T10:19:08.000Z</time>
      </trkpt>
      <trkpt lat="43.6286" lon="6.84699">
        <ele>225.80000305176</ele>
        <time>2012-03-11T10:19:09.000Z</time>
      </trkpt>
      <trkpt lat="43.62878" lon="6.84696">
        <ele>226.19999694824</ele>
        <time>2012-03-11T10:19:14.000Z</time>
      </trkpt>
      <trkpt lat="43.62887" lon="6.84697">
        <ele>225.80000305176</ele>
        <time>2012-03-11T10:19:16.000Z</time>
      </trkpt>
      <trkpt lat="43.62899" lon="6.84708">
        <ele>223.19999694824</ele>
        <time>2012-03-11T10:19:20.000Z</time>
      </trkpt>
      <trkpt lat="43.62912" lon="6.84714">
        <ele>221.60000610352</ele>
        <time>2012-03-11T10:19:23.000Z</time>
      </trkpt>
      <trkpt lat="43.62923" lon="6.84725">
        <ele>218.60000610352</ele>
        <time>2012-03-11T10:19:28.000Z</time>
      </trkpt>
      <trkpt lat="43.62937" lon="6.84742">
        <ele>214.19999694824</ele>
        <time>2012-03-11T10:19:33.000Z</time>
      </trkpt>
      <trkpt lat="43.62939" lon="6.84746">
        <ele>213.39999389648</ele>
        <time>2012-03-11T10:19:34.000Z</time>
      </trkpt>
      <trkpt lat="43.62951" lon="6.8475">
        <ele>212.19999694824</ele>
        <time>2012-03-11T10:19:38.000Z</time>
      </trkpt>
      <trkpt lat="43.62985" lon="6.8475">
        <ele>211.39999389648</ele>
        <time>2012-03-11T10:19:47.000Z</time>
      </trkpt>
      <trkpt lat="43.63013" lon="6.84758">
        <ele>212</ele>
        <time>2012-03-11T10:19:53.000Z</time>
      </trkpt>
      <trkpt lat="43.63021" lon="6.8476">
        <ele>212.60000610352</ele>
        <time>2012-03-11T10:19:55.000Z</time>
      </trkpt>
      <trkpt lat="43.63038" lon="6.84761">
        <ele>213.60000610352</ele>
        <time>2012-03-11T10:19:59.000Z</time>
      </trkpt>
      <trkpt lat="43.63054" lon="6.84774">
        <ele>215</ele>
        <time>2012-03-11T10:20:04.000Z</time>
      </trkpt>
      <trkpt lat="43.63056" lon="6.84786">
        <ele>215.60000610352</ele>
        <time>2012-03-11T10:20:08.000Z</time>
      </trkpt>
      <trkpt lat="43.63056" lon="6.8479">
        <ele>215.60000610352</ele>
        <time>2012-03-11T10:20:09.000Z</time>
      </trkpt>
      <trkpt lat="43.63053" lon="6.84811">
        <ele>216.19999694824</ele>
        <time>2012-03-11T10:20:16.000Z</time>
      </trkpt>
      <trkpt lat="43.63048" lon="6.84826">
        <ele>216.19999694824</ele>
        <time>2012-03-11T10:20:22.000Z</time>
      </trkpt>
      <trkpt lat="43.63032" lon="6.84834">
        <ele>215.39999389648</ele>
        <time>2012-03-11T10:20:27.000Z</time>
      </trkpt>
      <trkpt lat="43.63" lon="6.84846">
        <ele>215.19999694824</ele>
        <time>2012-03-11T10:20:35.000Z</time>
      </trkpt>
      <trkpt lat="43.6299" lon="6.8485">
        <ele>215</ele>
        <time>2012-03-11T10:20:37.000Z</time>
      </trkpt>
      <trkpt lat="43.6296" lon="6.84877">
        <ele>216</ele>
        <time>2012-03-11T10:20:44.000Z</time>
      </trkpt>
      <trkpt lat="43.62953" lon="6.84883">
        <ele>216</ele>
        <time>2012-03-11T10:20:46.000Z</time>
      </trkpt>
      <trkpt lat="43.62929" lon="6.84913">
        <ele>217.19999694824</ele>
        <time>2012-03-11T10:20:54.000Z</time>
      </trkpt>
      <trkpt lat="43.62906" lon="6.84941">
        <ele>218.39999389648</ele>
        <time>2012-03-11T10:21:02.000Z</time>
      </trkpt>
      <trkpt lat="43.62891" lon="6.84966">
        <ele>219</ele>
        <time>2012-03-11T10:21:08.000Z</time>
      </trkpt>
      <trkpt lat="43.62885" lon="6.84975">
        <ele>219.19999694824</ele>
        <time>2012-03-11T10:21:10.000Z</time>
      </trkpt>
      <trkpt lat="43.62869" lon="6.85009">
        <ele>220.60000610352</ele>
        <time>2012-03-11T10:21:18.000Z</time>
      </trkpt>
      <trkpt lat="43.62862" lon="6.85033">
        <ele>223.39999389648</ele>
        <time>2012-03-11T10:21:24.000Z</time>
      </trkpt>
      <trkpt lat="43.62853" lon="6.85055">
        <ele>224.80000305176</ele>
        <time>2012-03-11T10:21:31.000Z</time>
      </trkpt>
      <trkpt lat="43.62839" lon="6.85084">
        <ele>225.19999694824</ele>
        <time>2012-03-11T10:21:41.000Z</time>
      </trkpt>
      <trkpt lat="43.62833" lon="6.85111">
        <ele>227.80000305176</ele>
        <time>2012-03-11T10:21:49.000Z</time>
      </trkpt>
      <trkpt lat="43.6283" lon="6.85128">
        <ele>230</ele>
        <time>2012-03-11T10:21:55.000Z</time>
      </trkpt>
      <trkpt lat="43.62824" lon="6.85144">
        <ele>231.19999694824</ele>
        <time>2012-03-11T10:22:01.000Z</time>
      </trkpt>
      <trkpt lat="43.62814" lon="6.85165">
        <ele>231.80000305176</ele>
        <time>2012-03-11T10:22:09.000Z</time>
      </trkpt>
      <trkpt lat="43.6281" lon="6.85186">
        <ele>232.80000305176</ele>
        <time>2012-03-11T10:22:15.000Z</time>
      </trkpt>
      <trkpt lat="43.62811" lon="6.85211">
        <ele>235.60000610352</ele>
        <time>2012-03-11T10:22:22.000Z</time>
      </trkpt>
      <trkpt lat="43.62809" lon="6.8523">
        <ele>237.19999694824</ele>
        <time>2012-03-11T10:22:28.000Z</time>
      </trkpt>
      <trkpt lat="43.62807" lon="6.85248">
        <ele>238.80000305176</ele>
        <time>2012-03-11T10:22:34.000Z</time>
      </trkpt>
      <trkpt lat="43.62808" lon="6.85273">
        <ele>241.60000610352</ele>
        <time>2012-03-11T10:22:41.000Z</time>
      </trkpt>
      <trkpt lat="43.62804" lon="6.85302">
        <ele>243.80000305176</ele>
        <time>2012-03-11T10:22:49.000Z</time>
      </trkpt>
      <trkpt lat="43.62792" lon="6.85328">
        <ele>243.39999389648</ele>
        <time>2012-03-11T10:22:57.000Z</time>
      </trkpt>
      <trkpt lat="43.62778" lon="6.85337">
        <ele>241</ele>
        <time>2012-03-11T10:23:02.000Z</time>
      </trkpt>
      <trkpt lat="43.6276" lon="6.85357">
        <ele>239.39999389648</ele>
        <time>2012-03-11T10:23:07.000Z</time>
      </trkpt>
      <trkpt lat="43.6274" lon="6.85382">
        <ele>240.39999389648</ele>
        <time>2012-03-11T10:23:13.000Z</time>
      </trkpt>
      <trkpt lat="43.62721" lon="6.85404">
        <ele>241.80000305176</ele>
        <time>2012-03-11T10:23:20.000Z</time>
      </trkpt>
      <trkpt lat="43.62703" lon="6.85425">
        <ele>242.60000610352</ele>
        <time>2012-03-11T10:23:28.000Z</time>
      </trkpt>
      <trkpt lat="43.62686" lon="6.85441">
        <ele>242</ele>
        <time>2012-03-11T10:23:33.000Z</time>
      </trkpt>
      <trkpt lat="43.62668" lon="6.85465">
        <ele>241.60000610352</ele>
        <time>2012-03-11T10:23:38.000Z</time>
      </trkpt>
      <trkpt lat="43.6266" lon="6.85474">
        <ele>241.19999694824</ele>
        <time>2012-03-11T10:23:40.000Z</time>
      </trkpt>
      <trkpt lat="43.62648" lon="6.85486">
        <ele>240.60000610352</ele>
        <time>2012-03-11T10:23:43.000Z</time>
      </trkpt>
      <trkpt lat="43.62637" lon="6.85504">
        <ele>240.19999694824</ele>
        <time>2012-03-11T10:23:48.000Z</time>
      </trkpt>
      <trkpt lat="43.62628" lon="6.85518">
        <ele>239.19999694824</ele>
        <time>2012-03-11T10:23:53.000Z</time>
      </trkpt>
      <trkpt lat="43.62623" lon="6.85533">
        <ele>238.80000305176</ele>
        <time>2012-03-11T10:23:57.000Z</time>
      </trkpt>
      <trkpt lat="43.62614" lon="6.85556">
        <ele>237.60000610352</ele>
        <time>2012-03-11T10:24:02.000Z</time>
      </trkpt>
      <trkpt lat="43.62611" lon="6.85584">
        <ele>237.19999694824</ele>
        <time>2012-03-11T10:24:06.000Z</time>
      </trkpt>
      <trkpt lat="43.62602" lon="6.85611">
        <ele>234</ele>
        <time>2012-03-11T10:24:10.000Z</time>
      </trkpt>
      <trkpt lat="43.62599" lon="6.85625">
        <ele>232.80000305176</ele>
        <time>2012-03-11T10:24:12.000Z</time>
      </trkpt>
      <trkpt lat="43.62598" lon="6.85662">
        <ele>232.39999389648</ele>
        <time>2012-03-11T10:24:17.000Z</time>
      </trkpt>
      <trkpt lat="43.62591" lon="6.85682">
        <ele>228.39999389648</ele>
        <time>2012-03-11T10:24:20.000Z</time>
      </trkpt>
      <trkpt lat="43.62592" lon="6.85707">
        <ele>227.60000610352</ele>
        <time>2012-03-11T10:24:24.000Z</time>
      </trkpt>
      <trkpt lat="43.62596" lon="6.8574">
        <ele>227.39999389648</ele>
        <time>2012-03-11T10:24:29.000Z</time>
      </trkpt>
      <trkpt lat="43.62594" lon="6.85746">
        <ele>226.19999694824</ele>
        <time>2012-03-11T10:24:30.000Z</time>
      </trkpt>
      <trkpt lat="43.62586" lon="6.85777">
        <ele>221.19999694824</ele>
        <time>2012-03-11T10:24:35.000Z</time>
      </trkpt>
      <trkpt lat="43.62589" lon="6.85821">
        <ele>219.39999389648</ele>
        <time>2012-03-11T10:24:40.000Z</time>
      </trkpt>
      <trkpt lat="43.62598" lon="6.85873">
        <ele>217.19999694824</ele>
        <time>2012-03-11T10:24:47.000Z</time>
      </trkpt>
      <trkpt lat="43.62602" lon="6.85894">
        <ele>216</ele>
        <time>2012-03-11T10:24:50.000Z</time>
      </trkpt>
      <trkpt lat="43.62616" lon="6.85927">
        <ele>216</ele>
        <time>2012-03-11T10:24:54.000Z</time>
      </trkpt>
      <trkpt lat="43.62631" lon="6.85954">
        <ele>217</ele>
        <time>2012-03-11T10:24:58.000Z</time>
      </trkpt>
      <trkpt lat="43.62634" lon="6.85958">
        <ele>217.19999694824</ele>
        <time>2012-03-11T10:25:00.000Z</time>
      </trkpt>
      <trkpt lat="43.62636" lon="6.8596">
        <ele>217.39999389648</ele>
        <time>2012-03-11T10:25:05.000Z</time>
      </trkpt>
      <trkpt lat="43.62647" lon="6.85975">
        <ele>217.80000305176</ele>
        <time>2012-03-11T10:25:12.000Z</time>
      </trkpt>
      <trkpt lat="43.6266" lon="6.86002">
        <ele>217.19999694824</ele>
        <time>2012-03-11T10:25:19.000Z</time>
      </trkpt>
      <trkpt lat="43.62676" lon="6.86028">
        <ele>218.80000305176</ele>
        <time>2012-03-11T10:25:26.000Z</time>
      </trkpt>
      <trkpt lat="43.62693" lon="6.86056">
        <ele>220</ele>
        <time>2012-03-11T10:25:33.000Z</time>
      </trkpt>
      <trkpt lat="43.62693" lon="6.86064">
        <ele>219.60000610352</ele>
        <time>2012-03-11T10:25:35.000Z</time>
      </trkpt>
      <trkpt lat="43.62681" lon="6.86083">
        <ele>217.39999389648</ele>
        <time>2012-03-11T10:25:39.000Z</time>
      </trkpt>
      <trkpt lat="43.62678" lon="6.86088">
        <ele>217.39999389648</ele>
        <time>2012-03-11T10:25:40.000Z</time>
      </trkpt>
      <trkpt lat="43.62664" lon="6.861">
        <ele>217.19999694824</ele>
        <time>2012-03-11T10:25:44.000Z</time>
      </trkpt>
      <trkpt lat="43.6265" lon="6.86094">
        <ele>216.60000610352</ele>
        <time>2012-03-11T10:25:47.000Z</time>
      </trkpt>
      <trkpt lat="43.62622" lon="6.86073">
        <ele>215.19999694824</ele>
        <time>2012-03-11T10:25:53.000Z</time>
      </trkpt>
      <trkpt lat="43.62594" lon="6.86046">
        <ele>212.60000610352</ele>
        <time>2012-03-11T10:25:59.000Z</time>
      </trkpt>
      <trkpt lat="43.6256" lon="6.86001">
        <ele>207.19999694824</ele>
        <time>2012-03-11T10:26:06.000Z</time>
      </trkpt>
      <trkpt lat="43.62531" lon="6.8595">
        <ele>204.80000305176</ele>
        <time>2012-03-11T10:26:13.000Z</time>
      </trkpt>
      <trkpt lat="43.62517" lon="6.85901">
        <ele>202.80000305176</ele>
        <time>2012-03-11T10:26:19.000Z</time>
      </trkpt>
      <trkpt lat="43.62508" lon="6.85841">
        <ele>204</ele>
        <time>2012-03-11T10:26:26.000Z</time>
      </trkpt>
      <trkpt lat="43.62508" lon="6.8578">
        <ele>204.60000610352</ele>
        <time>2012-03-11T10:26:33.000Z</time>
      </trkpt>
      <trkpt lat="43.6251" lon="6.85744">
        <ele>205.19999694824</ele>
        <time>2012-03-11T10:26:38.000Z</time>
      </trkpt>
      <trkpt lat="43.62513" lon="6.85701">
        <ele>205.80000305176</ele>
        <time>2012-03-11T10:26:44.000Z</time>
      </trkpt>
      <trkpt lat="43.62515" lon="6.85655">
        <ele>206.19999694824</ele>
        <time>2012-03-11T10:26:50.000Z</time>
      </trkpt>
      <trkpt lat="43.62507" lon="6.85602">
        <ele>202.80000305176</ele>
        <time>2012-03-11T10:26:57.000Z</time>
      </trkpt>
      <trkpt lat="43.62506" lon="6.85595">
        <ele>202.19999694824</ele>
        <time>2012-03-11T10:26:58.000Z</time>
      </trkpt>
      <trkpt lat="43.62498" lon="6.85568">
        <ele>200.60000610352</ele>
        <time>2012-03-11T10:27:02.000Z</time>
      </trkpt>
      <trkpt lat="43.62488" lon="6.85529">
        <ele>201.39999389648</ele>
        <time>2012-03-11T10:27:08.000Z</time>
      </trkpt>
      <trkpt lat="43.62477" lon="6.85486">
        <ele>200.80000305176</ele>
        <time>2012-03-11T10:27:15.000Z</time>
      </trkpt>
      <trkpt lat="43.62462" lon="6.85453">
        <ele>197.60000610352</ele>
        <time>2012-03-11T10:27:21.000Z</time>
      </trkpt>
      <trkpt lat="43.62454" lon="6.85434">
        <ele>195.39999389648</ele>
        <time>2012-03-11T10:27:25.000Z</time>
      </trkpt>
      <trkpt lat="43.62451" lon="6.85421">
        <ele>194.19999694824</ele>
        <time>2012-03-11T10:27:28.000Z</time>
      </trkpt>
      <trkpt lat="43.62451" lon="6.85403">
        <ele>193</ele>
        <time>2012-03-11T10:27:32.000Z</time>
      </trkpt>
      <trkpt lat="43.62445" lon="6.85401">
        <ele>191.39999389648</ele>
        <time>2012-03-11T10:27:36.000Z</time>
      </trkpt>
      <trkpt lat="43.62445" lon="6.85409">
        <ele>191.80000305176</ele>
        <time>2012-03-11T10:27:39.000Z</time>
      </trkpt>
      <trkpt lat="43.62446" lon="6.85415">
        <ele>192.60000610352</ele>
        <time>2012-03-11T10:27:41.000Z</time>
      </trkpt>
      <trkpt lat="43.62435" lon="6.85434">
        <ele>190.80000305176</ele>
        <time>2012-03-11T10:27:47.000Z</time>
      </trkpt>
      <trkpt lat="43.62423" lon="6.85453">
        <ele>189.39999389648</ele>
        <time>2012-03-11T10:27:51.000Z</time>
      </trkpt>
      <trkpt lat="43.62418" lon="6.85464">
        <ele>189.19999694824</ele>
        <time>2012-03-11T10:27:55.000Z</time>
      </trkpt>
      <trkpt lat="43.62403" lon="6.85489">
        <ele>193</ele>
        <time>2012-03-11T10:28:01.000Z</time>
      </trkpt>
      <trkpt lat="43.62388" lon="6.85501">
        <ele>197</ele>
        <time>2012-03-11T10:28:05.000Z</time>
      </trkpt>
      <trkpt lat="43.62377" lon="6.85504">
        <ele>199.19999694824</ele>
        <time>2012-03-11T10:28:09.000Z</time>
      </trkpt>
      <trkpt lat="43.62371" lon="6.85496">
        <ele>199</ele>
        <time>2012-03-11T10:28:14.000Z</time>
      </trkpt>
      <trkpt lat="43.6237" lon="6.85489">
        <ele>198</ele>
        <time>2012-03-11T10:28:16.000Z</time>
      </trkpt>
      <trkpt lat="43.62367" lon="6.85466">
        <ele>194.39999389648</ele>
        <time>2012-03-11T10:28:21.000Z</time>
      </trkpt>
      <trkpt lat="43.6236" lon="6.85441">
        <ele>190.39999389648</ele>
        <time>2012-03-11T10:28:26.000Z</time>
      </trkpt>
      <trkpt lat="43.62355" lon="6.85412">
        <ele>184.80000305176</ele>
        <time>2012-03-11T10:28:31.000Z</time>
      </trkpt>
      <trkpt lat="43.62349" lon="6.85389">
        <ele>180.39999389648</ele>
        <time>2012-03-11T10:28:36.000Z</time>
      </trkpt>
      <trkpt lat="43.62341" lon="6.85373">
        <ele>176.60000610352</ele>
        <time>2012-03-11T10:28:40.000Z</time>
      </trkpt>
      <trkpt lat="43.62337" lon="6.85361">
        <ele>173.60000610352</ele>
        <time>2012-03-11T10:28:45.000Z</time>
      </trkpt>
      <trkpt lat="43.62337" lon="6.85359">
        <ele>173.39999389648</ele>
        <time>2012-03-11T10:28:46.000Z</time>
      </trkpt>
      <trkpt lat="43.62333" lon="6.85354">
        <ele>171.60000610352</ele>
        <time>2012-03-11T10:28:51.000Z</time>
      </trkpt>
      <trkpt lat="43.62331" lon="6.85353">
        <ele>171.80000305176</ele>
        <time>2012-03-11T10:28:52.000Z</time>
      </trkpt>
      <trkpt lat="43.62317" lon="6.85349">
        <ele>172.39999389648</ele>
        <time>2012-03-11T10:28:58.000Z</time>
      </trkpt>
      <trkpt lat="43.6231" lon="6.85348">
        <ele>173</ele>
        <time>2012-03-11T10:29:01.000Z</time>
      </trkpt>
      <trkpt lat="43.62303" lon="6.8534">
        <ele>171.60000610352</ele>
        <time>2012-03-11T10:29:06.000Z</time>
      </trkpt>
      <trkpt lat="43.62291" lon="6.85335">
        <ele>171.39999389648</ele>
        <time>2012-03-11T10:29:10.000Z</time>
      </trkpt>
      <trkpt lat="43.6229" lon="6.85332">
        <ele>171.19999694824</ele>
        <time>2012-03-11T10:29:11.000Z</time>
      </trkpt>
      <trkpt lat="43.62286" lon="6.85328">
        <ele>171.60000610352</ele>
        <time>2012-03-11T10:29:13.000Z</time>
      </trkpt>
      <trkpt lat="43.62273" lon="6.85316">
        <ele>172.19999694824</ele>
        <time>2012-03-11T10:29:19.000Z</time>
      </trkpt>
      <trkpt lat="43.62265" lon="6.85313">
        <ele>172.39999389648</ele>
        <time>2012-03-11T10:29:21.000Z</time>
      </trkpt>
      <trkpt lat="43.62238" lon="6.85303">
        <ele>173</ele>
        <time>2012-03-11T10:29:28.000Z</time>
      </trkpt>
      <trkpt lat="43.62232" lon="6.853">
        <ele>173</ele>
        <time>2012-03-11T10:29:30.000Z</time>
      </trkpt>
      <trkpt lat="43.62229" lon="6.8528">
        <ele>170.60000610352</ele>
        <time>2012-03-11T10:29:36.000Z</time>
      </trkpt>
      <trkpt lat="43.62223" lon="6.85271">
        <ele>169.60000610352</ele>
        <time>2012-03-11T10:29:43.000Z</time>
      </trkpt>
      <trkpt lat="43.62219" lon="6.85263">
        <ele>168.60000610352</ele>
        <time>2012-03-11T10:29:51.000Z</time>
      </trkpt>
      <trkpt lat="43.62216" lon="6.85251">
        <ele>166.80000305176</ele>
        <time>2012-03-11T10:29:56.000Z</time>
      </trkpt>
      <trkpt lat="43.6221" lon="6.8524">
        <ele>166.60000610352</ele>
        <time>2012-03-11T10:30:02.000Z</time>
      </trkpt>
      <trkpt lat="43.62206" lon="6.85238">
        <ele>166.60000610352</ele>
        <time>2012-03-11T10:30:06.000Z</time>
      </trkpt>
      <trkpt lat="43.622" lon="6.85232">
        <ele>166</ele>
        <time>2012-03-11T10:30:12.000Z</time>
      </trkpt>
      <trkpt lat="43.62192" lon="6.85221">
        <ele>165</ele>
        <time>2012-03-11T10:30:17.000Z</time>
      </trkpt>
      <trkpt lat="43.62187" lon="6.85215">
        <ele>164.19999694824</ele>
        <time>2012-03-11T10:30:19.000Z</time>
      </trkpt>
      <trkpt lat="43.62174" lon="6.85205">
        <ele>161.19999694824</ele>
        <time>2012-03-11T10:30:24.000Z</time>
      </trkpt>
      <trkpt lat="43.62159" lon="6.85206">
        <ele>160</ele>
        <time>2012-03-11T10:30:29.000Z</time>
      </trkpt>
      <trkpt lat="43.62151" lon="6.85216">
        <ele>161.19999694824</ele>
        <time>2012-03-11T10:30:33.000Z</time>
      </trkpt>
      <trkpt lat="43.62145" lon="6.85227">
        <ele>162.19999694824</ele>
        <time>2012-03-11T10:30:36.000Z</time>
      </trkpt>
      <trkpt lat="43.62128" lon="6.85245">
        <ele>163.60000610352</ele>
        <time>2012-03-11T10:30:43.000Z</time>
      </trkpt>
      <trkpt lat="43.62123" lon="6.85247">
        <ele>163.60000610352</ele>
        <time>2012-03-11T10:30:48.000Z</time>
      </trkpt>
      <trkpt lat="43.62121" lon="6.85244">
        <ele>163.19999694824</ele>
        <time>2012-03-11T10:31:02.000Z</time>
      </trkpt>
      <trkpt lat="43.62117" lon="6.85251">
        <ele>163.80000305176</ele>
        <time>2012-03-11T10:31:06.000Z</time>
      </trkpt>
      <trkpt lat="43.62111" lon="6.85252">
        <ele>164</ele>
        <time>2012-03-11T10:31:11.000Z</time>
      </trkpt>
      <trkpt lat="43.62108" lon="6.85247">
        <ele>163</ele>
        <time>2012-03-11T10:31:18.000Z</time>
      </trkpt>
      <trkpt lat="43.62104" lon="6.85245">
        <ele>162.60000610352</ele>
        <time>2012-03-11T10:31:21.000Z</time>
      </trkpt>
      <trkpt lat="43.62089" lon="6.85243">
        <ele>161.80000305176</ele>
        <time>2012-03-11T10:31:27.000Z</time>
      </trkpt>
      <trkpt lat="43.62074" lon="6.85246">
        <ele>163.80000305176</ele>
        <time>2012-03-11T10:31:32.000Z</time>
      </trkpt>
      <trkpt lat="43.62059" lon="6.85242">
        <ele>166.19999694824</ele>
        <time>2012-03-11T10:31:39.000Z</time>
      </trkpt>
      <trkpt lat="43.6205" lon="6.85236">
        <ele>167.19999694824</ele>
        <time>2012-03-11T10:31:43.000Z</time>
      </trkpt>
      <trkpt lat="43.62038" lon="6.85227">
        <ele>167.80000305176</ele>
        <time>2012-03-11T10:31:49.000Z</time>
      </trkpt>
      <trkpt lat="43.62031" lon="6.85214">
        <ele>166.19999694824</ele>
        <time>2012-03-11T10:31:54.000Z</time>
      </trkpt>
      <trkpt lat="43.62031" lon="6.85211">
        <ele>166</ele>
        <time>2012-03-11T10:31:55.000Z</time>
      </trkpt>
      <trkpt lat="43.62029" lon="6.85209">
        <ele>165.80000305176</ele>
        <time>2012-03-11T10:32:02.000Z</time>
      </trkpt>
      <trkpt lat="43.62026" lon="6.85204">
        <ele>165</ele>
        <time>2012-03-11T10:32:16.000Z</time>
      </trkpt>
      <trkpt lat="43.62023" lon="6.85189">
        <ele>162.19999694824</ele>
        <time>2012-03-11T10:32:21.000Z</time>
      </trkpt>
      <trkpt lat="43.62016" lon="6.8517">
        <ele>158.39999389648</ele>
        <time>2012-03-11T10:32:26.000Z</time>
      </trkpt>
      <trkpt lat="43.62011" lon="6.85162">
        <ele>157.39999389648</ele>
        <time>2012-03-11T10:32:31.000Z</time>
      </trkpt>
      <trkpt lat="43.62006" lon="6.85145">
        <ele>155.80000305176</ele>
        <time>2012-03-11T10:32:35.000Z</time>
      </trkpt>
      <trkpt lat="43.62005" lon="6.8514">
        <ele>155.19999694824</ele>
        <time>2012-03-11T10:32:36.000Z</time>
      </trkpt>
      <trkpt lat="43.61994" lon="6.85127">
        <ele>154.19999694824</ele>
        <time>2012-03-11T10:32:41.000Z</time>
      </trkpt>
      <trkpt lat="43.61991" lon="6.85119">
        <ele>153.80000305176</ele>
        <time>2012-03-11T10:32:44.000Z</time>
      </trkpt>
      <trkpt lat="43.61979" lon="6.851">
        <ele>152.19999694824</ele>
        <time>2012-03-11T10:32:52.000Z</time>
      </trkpt>
      <trkpt lat="43.61966" lon="6.85089">
        <ele>151</ele>
        <time>2012-03-11T10:32:58.000Z</time>
      </trkpt>
      <trkpt lat="43.61952" lon="6.85087">
        <ele>151.19999694824</ele>
        <time>2012-03-11T10:33:04.000Z</time>
      </trkpt>
      <trkpt lat="43.61936" lon="6.85084">
        <ele>151.19999694824</ele>
        <time>2012-03-11T10:33:09.000Z</time>
      </trkpt>
      <trkpt lat="43.61916" lon="6.8508">
        <ele>151.80000305176</ele>
        <time>2012-03-11T10:33:15.000Z</time>
      </trkpt>
      <trkpt lat="43.61902" lon="6.85076">
        <ele>152.39999389648</ele>
        <time>2012-03-11T10:33:20.000Z</time>
      </trkpt>
      <trkpt lat="43.61893" lon="6.85065">
        <ele>151.19999694824</ele>
        <time>2012-03-11T10:33:25.000Z</time>
      </trkpt>
      <trkpt lat="43.61887" lon="6.85053">
        <ele>149.39999389648</ele>
        <time>2012-03-11T10:33:29.000Z</time>
      </trkpt>
      <trkpt lat="43.61881" lon="6.85039">
        <ele>146.60000610352</ele>
        <time>2012-03-11T10:33:35.000Z</time>
      </trkpt>
      <trkpt lat="43.61869" lon="6.85021">
        <ele>142</ele>
        <time>2012-03-11T10:33:40.000Z</time>
      </trkpt>
      <trkpt lat="43.61855" lon="6.85017">
        <ele>139.80000305176</ele>
        <time>2012-03-11T10:33:44.000Z</time>
      </trkpt>
      <trkpt lat="43.61841" lon="6.85019">
        <ele>139</ele>
        <time>2012-03-11T10:33:47.000Z</time>
      </trkpt>
      <trkpt lat="43.61825" lon="6.85023">
        <ele>139.39999389648</ele>
        <time>2012-03-11T10:33:50.000Z</time>
      </trkpt>
      <trkpt lat="43.61804" lon="6.85023">
        <ele>138.60000610352</ele>
        <time>2012-03-11T10:33:55.000Z</time>
      </trkpt>
      <trkpt lat="43.6179" lon="6.8502">
        <ele>137.19999694824</ele>
        <time>2012-03-11T10:33:59.000Z</time>
      </trkpt>
      <trkpt lat="43.61781" lon="6.85019">
        <ele>136.19999694824</ele>
        <time>2012-03-11T10:34:03.000Z</time>
      </trkpt>
      <trkpt lat="43.61768" lon="6.85013">
        <ele>134.19999694824</ele>
        <time>2012-03-11T10:34:07.000Z</time>
      </trkpt>
      <trkpt lat="43.61757" lon="6.85021">
        <ele>136</ele>
        <time>2012-03-11T10:34:10.000Z</time>
      </trkpt>
      <trkpt lat="43.61748" lon="6.8503">
        <ele>138.60000610352</ele>
        <time>2012-03-11T10:34:13.000Z</time>
      </trkpt>
      <trkpt lat="43.61732" lon="6.85031">
        <ele>140.80000305176</ele>
        <time>2012-03-11T10:34:17.000Z</time>
      </trkpt>
      <trkpt lat="43.6172" lon="6.85028">
        <ele>141</ele>
        <time>2012-03-11T10:34:20.000Z</time>
      </trkpt>
      <trkpt lat="43.61708" lon="6.85016">
        <ele>138.19999694824</ele>
        <time>2012-03-11T10:34:25.000Z</time>
      </trkpt>
      <trkpt lat="43.61696" lon="6.84998">
        <ele>133.80000305176</ele>
        <time>2012-03-11T10:34:30.000Z</time>
      </trkpt>
      <trkpt lat="43.61679" lon="6.84986">
        <ele>132.80000305176</ele>
        <time>2012-03-11T10:34:34.000Z</time>
      </trkpt>
      <trkpt lat="43.61656" lon="6.84972">
        <ele>131</ele>
        <time>2012-03-11T10:34:38.000Z</time>
      </trkpt>
      <trkpt lat="43.6165" lon="6.84969">
        <ele>130.60000610352</ele>
        <time>2012-03-11T10:34:39.000Z</time>
      </trkpt>
      <trkpt lat="43.61629" lon="6.84957">
        <ele>129</ele>
        <time>2012-03-11T10:34:44.000Z</time>
      </trkpt>
      <trkpt lat="43.61623" lon="6.84955">
        <ele>128.80000305176</ele>
        <time>2012-03-11T10:34:45.000Z</time>
      </trkpt>
      <trkpt lat="43.61593" lon="6.84949">
        <ele>128</ele>
        <time>2012-03-11T10:34:50.000Z</time>
      </trkpt>
      <trkpt lat="43.61577" lon="6.84943">
        <ele>126.80000305176</ele>
        <time>2012-03-11T10:34:53.000Z</time>
      </trkpt>
      <trkpt lat="43.61562" lon="6.84938">
        <ele>126.59999847412</ele>
        <time>2012-03-11T10:34:56.000Z</time>
      </trkpt>
      <trkpt lat="43.61531" lon="6.84929">
        <ele>126.59999847412</ele>
        <time>2012-03-11T10:35:02.000Z</time>
      </trkpt>
      <trkpt lat="43.61518" lon="6.84925">
        <ele>126.40000152588</ele>
        <time>2012-03-11T10:35:05.000Z</time>
      </trkpt>
      <trkpt lat="43.61509" lon="6.84919">
        <ele>125</ele>
        <time>2012-03-11T10:35:10.000Z</time>
      </trkpt>
      <trkpt lat="43.61508" lon="6.84918">
        <ele>124.59999847412</ele>
        <time>2012-03-11T10:35:11.000Z</time>
      </trkpt>
      <trkpt lat="43.61507" lon="6.84915">
        <ele>124.19999694824</ele>
        <time>2012-03-11T10:35:13.000Z</time>
      </trkpt>
      <trkpt lat="43.61497" lon="6.84907">
        <ele>125.19999694824</ele>
        <time>2012-03-11T10:35:19.000Z</time>
      </trkpt>
      <trkpt lat="43.61497" lon="6.84893">
        <ele>123</ele>
        <time>2012-03-11T10:35:24.000Z</time>
      </trkpt>
      <trkpt lat="43.61498" lon="6.84886">
        <ele>122</ele>
        <time>2012-03-11T10:35:26.000Z</time>
      </trkpt>
      <trkpt lat="43.61502" lon="6.8487">
        <ele>118.19999694824</ele>
        <time>2012-03-11T10:35:30.000Z</time>
      </trkpt>
      <trkpt lat="43.61502" lon="6.84851">
        <ele>115.80000305176</ele>
        <time>2012-03-11T10:35:34.000Z</time>
      </trkpt>
      <trkpt lat="43.61503" lon="6.84841">
        <ele>114.40000152588</ele>
        <time>2012-03-11T10:35:37.000Z</time>
      </trkpt>
      <trkpt lat="43.61504" lon="6.84825">
        <ele>113.19999694824</ele>
        <time>2012-03-11T10:35:41.000Z</time>
      </trkpt>
      <trkpt lat="43.61507" lon="6.84807">
        <ele>113.19999694824</ele>
        <time>2012-03-11T10:35:46.000Z</time>
      </trkpt>
      <trkpt lat="43.61513" lon="6.84789">
        <ele>113.40000152588</ele>
        <time>2012-03-11T10:35:52.000Z</time>
      </trkpt>
      <trkpt lat="43.61516" lon="6.8478">
        <ele>113.59999847412</ele>
        <time>2012-03-11T10:35:55.000Z</time>
      </trkpt>
      <trkpt lat="43.61518" lon="6.84759">
        <ele>113.40000152588</ele>
        <time>2012-03-11T10:36:01.000Z</time>
      </trkpt>
      <trkpt lat="43.61519" lon="6.84749">
        <ele>113.40000152588</ele>
        <time>2012-03-11T10:36:05.000Z</time>
      </trkpt>
      <trkpt lat="43.61518" lon="6.84735">
        <ele>111.19999694824</ele>
        <time>2012-03-11T10:36:09.000Z</time>
      </trkpt>
      <trkpt lat="43.6151" lon="6.84706">
        <ele>105.40000152588</ele>
        <time>2012-03-11T10:36:15.000Z</time>
      </trkpt>
      <trkpt lat="43.61501" lon="6.84686">
        <ele>100.40000152588</ele>
        <time>2012-03-11T10:36:19.000Z</time>
      </trkpt>
      <trkpt lat="43.61494" lon="6.84678">
        <ele>100.19999694824</ele>
        <time>2012-03-11T10:36:22.000Z</time>
      </trkpt>
      <trkpt lat="43.61491" lon="6.84676">
        <ele>100.59999847412</ele>
        <time>2012-03-11T10:36:24.000Z</time>
      </trkpt>
      <trkpt lat="43.61474" lon="6.84671">
        <ele>103.40000152588</ele>
        <time>2012-03-11T10:36:33.000Z</time>
      </trkpt>
      <trkpt lat="43.6147" lon="6.84669">
        <ele>103.59999847412</ele>
        <time>2012-03-11T10:36:43.000Z</time>
      </trkpt>
      <trkpt lat="43.61466" lon="6.84668">
        <ele>104</ele>
        <time>2012-03-11T10:36:51.000Z</time>
      </trkpt>
      <trkpt lat="43.61458" lon="6.84659">
        <ele>105</ele>
        <time>2012-03-11T10:36:56.000Z</time>
      </trkpt>
      <trkpt lat="43.6145" lon="6.84656">
        <ele>105.80000305176</ele>
        <time>2012-03-11T10:37:00.000Z</time>
      </trkpt>
      <trkpt lat="43.61447" lon="6.84656">
        <ele>106.40000152588</ele>
        <time>2012-03-11T10:37:07.000Z</time>
      </trkpt>
      <trkpt lat="43.61446" lon="6.84657">
        <ele>106.59999847412</ele>
        <time>2012-03-11T10:37:17.000Z</time>
      </trkpt>
      <trkpt lat="43.61445" lon="6.84657">
        <ele>106.59999847412</ele>
        <time>2012-03-11T10:37:20.000Z</time>
      </trkpt>
      <trkpt lat="43.61434" lon="6.84651">
        <ele>107.40000152588</ele>
        <time>2012-03-11T10:37:25.000Z</time>
      </trkpt>
      <trkpt lat="43.61423" lon="6.84641">
        <ele>106.59999847412</ele>
        <time>2012-03-11T10:37:31.000Z</time>
      </trkpt>
      <trkpt lat="43.61411" lon="6.84632">
        <ele>106</ele>
        <time>2012-03-11T10:37:35.000Z</time>
      </trkpt>
      <trkpt lat="43.6139" lon="6.8461">
        <ele>104</ele>
        <time>2012-03-11T10:37:41.000Z</time>
      </trkpt>
      <trkpt lat="43.61385" lon="6.84602">
        <ele>102.80000305176</ele>
        <time>2012-03-11T10:37:46.000Z</time>
      </trkpt>
      <trkpt lat="43.61377" lon="6.84593">
        <ele>101.59999847412</ele>
        <time>2012-03-11T10:38:04.000Z</time>
      </trkpt>
      <trkpt lat="43.61376" lon="6.84592">
        <ele>101.40000152588</ele>
        <time>2012-03-11T10:38:05.000Z</time>
      </trkpt>
      <trkpt lat="43.61374" lon="6.8458">
        <ele>99</ele>
        <time>2012-03-11T10:38:11.000Z</time>
      </trkpt>
      <trkpt lat="43.61372" lon="6.84568">
        <ele>98.400001525879</ele>
        <time>2012-03-11T10:38:17.000Z</time>
      </trkpt>
      <trkpt lat="43.61372" lon="6.84568">
        <ele>98.599998474121</ele>
        <time>2012-03-11T10:38:18.000Z</time>
      </trkpt>
      <trkpt lat="43.61369" lon="6.8457">
        <ele>99</ele>
        <time>2012-03-11T10:38:30.000Z</time>
      </trkpt>
      <trkpt lat="43.61368" lon="6.84567">
        <ele>98.800003051758</ele>
        <time>2012-03-11T10:38:38.000Z</time>
      </trkpt>
      <trkpt lat="43.61368" lon="6.84566">
        <ele>98.800003051758</ele>
        <time>2012-03-11T10:38:39.000Z</time>
      </trkpt>
      <trkpt lat="43.61365" lon="6.84554">
        <ele>97.599998474121</ele>
        <time>2012-03-11T10:38:43.000Z</time>
      </trkpt>
      <trkpt lat="43.61361" lon="6.84538">
        <ele>95.800003051758</ele>
        <time>2012-03-11T10:38:48.000Z</time>
      </trkpt>
      <trkpt lat="43.61354" lon="6.84528">
        <ele>94</ele>
        <time>2012-03-11T10:38:53.000Z</time>
      </trkpt>
      <trkpt lat="43.61342" lon="6.84517">
        <ele>90.599998474121</ele>
        <time>2012-03-11T10:38:59.000Z</time>
      </trkpt>
      <trkpt lat="43.61341" lon="6.84516">
        <ele>90.400001525879</ele>
        <time>2012-03-11T10:39:00.000Z</time>
      </trkpt>
      <trkpt lat="43.6134" lon="6.84517">
        <ele>90.199996948242</ele>
        <time>2012-03-11T10:39:10.000Z</time>
      </trkpt>
      <trkpt lat="43.61338" lon="6.84515">
        <ele>89.599998474121</ele>
        <time>2012-03-11T10:39:20.000Z</time>
      </trkpt>
      <trkpt lat="43.61335" lon="6.84512">
        <ele>88.400001525879</ele>
        <time>2012-03-11T10:39:26.000Z</time>
      </trkpt>
      <trkpt lat="43.61331" lon="6.8451">
        <ele>87.199996948242</ele>
        <time>2012-03-11T10:39:31.000Z</time>
      </trkpt>
      <trkpt lat="43.61328" lon="6.84509">
        <ele>86.800003051758</ele>
        <time>2012-03-11T10:39:37.000Z</time>
      </trkpt>
      <trkpt lat="43.61329" lon="6.8451">
        <ele>87.199996948242</ele>
        <time>2012-03-11T10:39:44.000Z</time>
      </trkpt>
      <trkpt lat="43.61328" lon="6.84508">
        <ele>86.599998474121</ele>
        <time>2012-03-11T10:39:51.000Z</time>
      </trkpt>
      <trkpt lat="43.61327" lon="6.84507">
        <ele>86.199996948242</ele>
        <time>2012-03-11T10:39:52.000Z</time>
      </trkpt>
      <trkpt lat="43.61322" lon="6.84497">
        <ele>84</ele>
        <time>2012-03-11T10:39:57.000Z</time>
      </trkpt>
      <trkpt lat="43.61315" lon="6.84483">
        <ele>83.800003051758</ele>
        <time>2012-03-11T10:40:01.000Z</time>
      </trkpt>
      <trkpt lat="43.61311" lon="6.84466">
        <ele>84</ele>
        <time>2012-03-11T10:40:06.000Z</time>
      </trkpt>
      <trkpt lat="43.61307" lon="6.84444">
        <ele>84.400001525879</ele>
        <time>2012-03-11T10:40:12.000Z</time>
      </trkpt>
      <trkpt lat="43.613" lon="6.8443">
        <ele>84</ele>
        <time>2012-03-11T10:40:17.000Z</time>
      </trkpt>
      <trkpt lat="43.61291" lon="6.84423">
        <ele>83.199996948242</ele>
        <time>2012-03-11T10:40:21.000Z</time>
      </trkpt>
      <trkpt lat="43.61284" lon="6.84422">
        <ele>82.400001525879</ele>
        <time>2012-03-11T10:40:26.000Z</time>
      </trkpt>
      <trkpt lat="43.61278" lon="6.84425">
        <ele>81.800003051758</ele>
        <time>2012-03-11T10:40:32.000Z</time>
      </trkpt>
      <trkpt lat="43.61276" lon="6.84427">
        <ele>81.599998474121</ele>
        <time>2012-03-11T10:40:34.000Z</time>
      </trkpt>
      <trkpt lat="43.61259" lon="6.84432">
        <ele>79.599998474121</ele>
        <time>2012-03-11T10:40:42.000Z</time>
      </trkpt>
      <trkpt lat="43.61256" lon="6.84434">
        <ele>79.199996948242</ele>
        <time>2012-03-11T10:40:44.000Z</time>
      </trkpt>
      <trkpt lat="43.61251" lon="6.84437">
        <ele>78.599998474121</ele>
        <time>2012-03-11T10:40:50.000Z</time>
      </trkpt>
      <trkpt lat="43.61246" lon="6.84437">
        <ele>78.800003051758</ele>
        <time>2012-03-11T10:40:54.000Z</time>
      </trkpt>
      <trkpt lat="43.61236" lon="6.8444">
        <ele>79.599998474121</ele>
        <time>2012-03-11T10:41:00.000Z</time>
      </trkpt>
      <trkpt lat="43.61235" lon="6.84441">
        <ele>79.800003051758</ele>
        <time>2012-03-11T10:41:01.000Z</time>
      </trkpt>
      <trkpt lat="43.61221" lon="6.8444">
        <ele>81</ele>
        <time>2012-03-11T10:41:08.000Z</time>
      </trkpt>
      <trkpt lat="43.61219" lon="6.8444">
        <ele>81.199996948242</ele>
        <time>2012-03-11T10:41:09.000Z</time>
      </trkpt>
      <trkpt lat="43.61201" lon="6.84449">
        <ele>81.599998474121</ele>
        <time>2012-03-11T10:41:14.000Z</time>
      </trkpt>
      <trkpt lat="43.6118" lon="6.8446">
        <ele>81</ele>
        <time>2012-03-11T10:41:19.000Z</time>
      </trkpt>
      <trkpt lat="43.61146" lon="6.84467">
        <ele>81.199996948242</ele>
        <time>2012-03-11T10:41:23.000Z</time>
      </trkpt>
      <trkpt lat="43.61122" lon="6.84476">
        <ele>80</ele>
        <time>2012-03-11T10:41:26.000Z</time>
      </trkpt>
      <trkpt lat="43.61084" lon="6.84508">
        <ele>72.400001525879</ele>
        <time>2012-03-11T10:41:31.000Z</time>
      </trkpt>
      <trkpt lat="43.61065" lon="6.84511">
        <ele>72.400001525879</ele>
        <time>2012-03-11T10:41:37.000Z</time>
      </trkpt>
      <trkpt lat="43.61058" lon="6.84507">
        <ele>72.800003051758</ele>
        <time>2012-03-11T10:41:40.000Z</time>
      </trkpt>
      <trkpt lat="43.61046" lon="6.84499">
        <ele>73.599998474121</ele>
        <time>2012-03-11T10:41:47.000Z</time>
      </trkpt>
      <trkpt lat="43.61039" lon="6.84494">
        <ele>75.199996948242</ele>
        <time>2012-03-11T10:41:54.000Z</time>
      </trkpt>
      <trkpt lat="43.61036" lon="6.84494">
        <ele>75.400001525879</ele>
        <time>2012-03-11T10:42:01.000Z</time>
      </trkpt>
      <trkpt lat="43.61033" lon="6.84496">
        <ele>74.599998474121</ele>
        <time>2012-03-11T10:42:07.000Z</time>
      </trkpt>
      <trkpt lat="43.6103" lon="6.84497">
        <ele>74.599998474121</ele>
        <time>2012-03-11T10:42:24.000Z</time>
      </trkpt>
      <trkpt lat="43.61032" lon="6.84501">
        <ele>73.599998474121</ele>
        <time>2012-03-11T10:42:35.000Z</time>
      </trkpt>
      <trkpt lat="43.6103" lon="6.84498">
        <ele>74.199996948242</ele>
        <time>2012-03-11T10:43:00.000Z</time>
      </trkpt>
      <trkpt lat="43.6103" lon="6.84497">
        <ele>74.599998474121</ele>
        <time>2012-03-11T10:43:26.000Z</time>
      </trkpt>
      <trkpt lat="43.61032" lon="6.84497">
        <ele>74.400001525879</ele>
        <time>2012-03-11T10:43:35.000Z</time>
      </trkpt>
      <trkpt lat="43.61034" lon="6.84492">
        <ele>75.800003051758</ele>
        <time>2012-03-11T10:44:14.000Z</time>
      </trkpt>
      <trkpt lat="43.61036" lon="6.84491">
        <ele>76.199996948242</ele>
        <time>2012-03-11T10:44:28.000Z</time>
      </trkpt>
      <trkpt lat="43.61028" lon="6.84489">
        <ele>76.800003051758</ele>
        <time>2012-03-11T10:45:01.000Z</time>
      </trkpt>
      <trkpt lat="43.61019" lon="6.84488">
        <ele>77</ele>
        <time>2012-03-11T10:45:19.000Z</time>
      </trkpt>
      <trkpt lat="43.61027" lon="6.84482">
        <ele>78.599998474121</ele>
        <time>2012-03-11T10:45:42.000Z</time>
      </trkpt>
      <trkpt lat="43.61027" lon="6.84482">
        <ele>78.599998474121</ele>
        <time>2012-03-11T10:46:01.000Z</time>
      </trkpt>
      <trkpt lat="43.61032" lon="6.84478">
        <ele>79.800003051758</ele>
        <time>2012-03-11T10:46:18.000Z</time>
      </trkpt>
      <trkpt lat="43.61017" lon="6.84488">
        <ele>76.800003051758</ele>
        <time>2012-03-11T10:46:44.000Z</time>
      </trkpt>
      <trkpt lat="43.61021" lon="6.84488">
        <ele>77</ele>
        <time>2012-03-11T10:46:55.000Z</time>
      </trkpt>
      <trkpt lat="43.61022" lon="6.84489">
        <ele>76.599998474121</ele>
        <time>2012-03-11T10:47:01.000Z</time>
      </trkpt>
      <trkpt lat="43.61023" lon="6.84489">
        <ele>76.800003051758</ele>
        <time>2012-03-11T10:47:07.000Z</time>
      </trkpt>
      <trkpt lat="43.61023" lon="6.84487">
        <ele>77.199996948242</ele>
        <time>2012-03-11T10:47:18.000Z</time>
      </trkpt>
      <trkpt lat="43.61022" lon="6.84486">
        <ele>77.400001525879</ele>
        <time>2012-03-11T10:47:30.000Z</time>
      </trkpt>
      <trkpt lat="43.61015" lon="6.84484">
        <ele>77.800003051758</ele>
        <time>2012-03-11T10:47:36.000Z</time>
      </trkpt>
      <trkpt lat="43.61011" lon="6.84484">
        <ele>78</ele>
        <time>2012-03-11T10:47:40.000Z</time>
      </trkpt>
      <trkpt lat="43.61004" lon="6.84485">
        <ele>77.599998474121</ele>
        <time>2012-03-11T10:47:47.000Z</time>
      </trkpt>
      <trkpt lat="43.60999" lon="6.84486">
        <ele>77.199996948242</ele>
        <time>2012-03-11T10:47:52.000Z</time>
      </trkpt>
      <trkpt lat="43.60988" lon="6.84483">
        <ele>78.199996948242</ele>
        <time>2012-03-11T10:47:57.000Z</time>
      </trkpt>
      <trkpt lat="43.60987" lon="6.84483">
        <ele>78</ele>
        <time>2012-03-11T10:47:58.000Z</time>
      </trkpt>
      <trkpt lat="43.60977" lon="6.84483">
        <ele>78</ele>
        <time>2012-03-11T10:48:04.000Z</time>
      </trkpt>
      <trkpt lat="43.60971" lon="6.84486">
        <ele>77.199996948242</ele>
        <time>2012-03-11T10:48:08.000Z</time>
      </trkpt>
      <trkpt lat="43.60964" lon="6.84493">
        <ele>75.599998474121</ele>
        <time>2012-03-11T10:48:14.000Z</time>
      </trkpt>
      <trkpt lat="43.6096" lon="6.84499">
        <ele>74.199996948242</ele>
        <time>2012-03-11T10:48:19.000Z</time>
      </trkpt>
      <trkpt lat="43.60958" lon="6.845">
        <ele>74.199996948242</ele>
        <time>2012-03-11T10:48:20.000Z</time>
      </trkpt>
      <trkpt lat="43.60949" lon="6.84506">
        <ele>73.800003051758</ele>
        <time>2012-03-11T10:48:27.000Z</time>
      </trkpt>
      <trkpt lat="43.60947" lon="6.84508">
        <ele>73.800003051758</ele>
        <time>2012-03-11T10:48:28.000Z</time>
      </trkpt>
      <trkpt lat="43.60946" lon="6.84534">
        <ele>73.199996948242</ele>
        <time>2012-03-11T10:48:34.000Z</time>
      </trkpt>
      <trkpt lat="43.60951" lon="6.84569">
        <ele>72.199996948242</ele>
        <time>2012-03-11T10:48:42.000Z</time>
      </trkpt>
      <trkpt lat="43.60959" lon="6.84569">
        <ele>71.800003051758</ele>
        <time>2012-03-11T10:48:46.000Z</time>
      </trkpt>
      <trkpt lat="43.60971" lon="6.8457">
        <ele>71.199996948242</ele>
        <time>2012-03-11T10:48:52.000Z</time>
      </trkpt>
      <trkpt lat="43.6098" lon="6.84579">
        <ele>70.400001525879</ele>
        <time>2012-03-11T10:48:58.000Z</time>
      </trkpt>
      <trkpt lat="43.60991" lon="6.84594">
        <ele>69.400001525879</ele>
        <time>2012-03-11T10:49:02.000Z</time>
      </trkpt>
      <trkpt lat="43.61" lon="6.8461">
        <ele>68</ele>
        <time>2012-03-11T10:49:06.000Z</time>
      </trkpt>
      <trkpt lat="43.60998" lon="6.84628">
        <ele>67.800003051758</ele>
        <time>2012-03-11T10:49:09.000Z</time>
      </trkpt>
      <trkpt lat="43.6099" lon="6.84656">
        <ele>68.599998474121</ele>
        <time>2012-03-11T10:49:13.000Z</time>
      </trkpt>
      <trkpt lat="43.60975" lon="6.84686">
        <ele>72.800003051758</ele>
        <time>2012-03-11T10:49:18.000Z</time>
      </trkpt>
      <trkpt lat="43.6096" lon="6.84703">
        <ele>75.199996948242</ele>
        <time>2012-03-11T10:49:22.000Z</time>
      </trkpt>
      <trkpt lat="43.60945" lon="6.84727">
        <ele>76.199996948242</ele>
        <time>2012-03-11T10:49:27.000Z</time>
      </trkpt>
      <trkpt lat="43.60939" lon="6.84736">
        <ele>76</ele>
        <time>2012-03-11T10:49:29.000Z</time>
      </trkpt>
      <trkpt lat="43.60934" lon="6.84745">
        <ele>75.400001525879</ele>
        <time>2012-03-11T10:49:31.000Z</time>
      </trkpt>
      <trkpt lat="43.60919" lon="6.84771">
        <ele>75.199996948242</ele>
        <time>2012-03-11T10:49:37.000Z</time>
      </trkpt>
      <trkpt lat="43.60909" lon="6.84787">
        <ele>76.199996948242</ele>
        <time>2012-03-11T10:49:40.000Z</time>
      </trkpt>
      <trkpt lat="43.60891" lon="6.84819">
        <ele>75.800003051758</ele>
        <time>2012-03-11T10:49:46.000Z</time>
      </trkpt>
      <trkpt lat="43.60882" lon="6.84833">
        <ele>74.199996948242</ele>
        <time>2012-03-11T10:49:49.000Z</time>
      </trkpt>
      <trkpt lat="43.60862" lon="6.84856">
        <ele>77.400001525879</ele>
        <time>2012-03-11T10:49:55.000Z</time>
      </trkpt>
      <trkpt lat="43.6086" lon="6.8486">
        <ele>77.599998474121</ele>
        <time>2012-03-11T10:49:56.000Z</time>
      </trkpt>
      <trkpt lat="43.60843" lon="6.84876">
        <ele>76.800003051758</ele>
        <time>2012-03-11T10:50:02.000Z</time>
      </trkpt>
      <trkpt lat="43.60831" lon="6.84876">
        <ele>75.199996948242</ele>
        <time>2012-03-11T10:50:08.000Z</time>
      </trkpt>
      <trkpt lat="43.60825" lon="6.84882">
        <ele>75.400001525879</ele>
        <time>2012-03-11T10:50:12.000Z</time>
      </trkpt>
      <trkpt lat="43.60824" lon="6.84884">
        <ele>75.400001525879</ele>
        <time>2012-03-11T10:50:13.000Z</time>
      </trkpt>
      <trkpt lat="43.60822" lon="6.84889">
        <ele>75.599998474121</ele>
        <time>2012-03-11T10:50:15.000Z</time>
      </trkpt>
      <trkpt lat="43.60816" lon="6.84896">
        <ele>75.400001525879</ele>
        <time>2012-03-11T10:50:22.000Z</time>
      </trkpt>
      <trkpt lat="43.60814" lon="6.84897">
        <ele>75.400001525879</ele>
        <time>2012-03-11T10:50:24.000Z</time>
      </trkpt>
      <trkpt lat="43.60808" lon="6.84901">
        <ele>75.199996948242</ele>
        <time>2012-03-11T10:50:31.000Z</time>
      </trkpt>
      <trkpt lat="43.60802" lon="6.84912">
        <ele>74.599998474121</ele>
        <time>2012-03-11T10:50:36.000Z</time>
      </trkpt>
      <trkpt lat="43.6079" lon="6.84919">
        <ele>73.800003051758</ele>
        <time>2012-03-11T10:50:41.000Z</time>
      </trkpt>
      <trkpt lat="43.60787" lon="6.84923">
        <ele>74.400001525879</ele>
        <time>2012-03-11T10:50:43.000Z</time>
      </trkpt>
      <trkpt lat="43.60781" lon="6.84929">
        <ele>75</ele>
        <time>2012-03-11T10:50:48.000Z</time>
      </trkpt>
      <trkpt lat="43.60773" lon="6.8493">
        <ele>74.199996948242</ele>
        <time>2012-03-11T10:50:52.000Z</time>
      </trkpt>
      <trkpt lat="43.60759" lon="6.84938">
        <ele>73.800003051758</ele>
        <time>2012-03-11T10:50:57.000Z</time>
      </trkpt>
      <trkpt lat="43.60748" lon="6.8494">
        <ele>72.800003051758</ele>
        <time>2012-03-11T10:51:03.000Z</time>
      </trkpt>
      <trkpt lat="43.60744" lon="6.84944">
        <ele>73.199996948242</ele>
        <time>2012-03-11T10:51:06.000Z</time>
      </trkpt>
      <trkpt lat="43.60738" lon="6.84946">
        <ele>73.400001525879</ele>
        <time>2012-03-11T10:51:11.000Z</time>
      </trkpt>
      <trkpt lat="43.6073" lon="6.84944">
        <ele>73</ele>
        <time>2012-03-11T10:51:18.000Z</time>
      </trkpt>
      <trkpt lat="43.60724" lon="6.84943">
        <ele>73</ele>
        <time>2012-03-11T10:51:22.000Z</time>
      </trkpt>
      <trkpt lat="43.60717" lon="6.8494">
        <ele>72.800003051758</ele>
        <time>2012-03-11T10:51:28.000Z</time>
      </trkpt>
      <trkpt lat="43.60715" lon="6.84939">
        <ele>72.599998474121</ele>
        <time>2012-03-11T10:51:31.000Z</time>
      </trkpt>
      <trkpt lat="43.6071" lon="6.84937">
        <ele>72.599998474121</ele>
        <time>2012-03-11T10:51:37.000Z</time>
      </trkpt>
      <trkpt lat="43.60702" lon="6.84944">
        <ele>72.800003051758</ele>
        <time>2012-03-11T10:51:43.000Z</time>
      </trkpt>
      <trkpt lat="43.60695" lon="6.84949">
        <ele>72.599998474121</ele>
        <time>2012-03-11T10:51:49.000Z</time>
      </trkpt>
      <trkpt lat="43.60694" lon="6.84951">
        <ele>72.599998474121</ele>
        <time>2012-03-11T10:51:51.000Z</time>
      </trkpt>
      <trkpt lat="43.60688" lon="6.84954">
        <ele>72.400001525879</ele>
        <time>2012-03-11T10:51:55.000Z</time>
      </trkpt>
      <trkpt lat="43.6068" lon="6.84956">
        <ele>72.199996948242</ele>
        <time>2012-03-11T10:52:00.000Z</time>
      </trkpt>
      <trkpt lat="43.60659" lon="6.84964">
        <ele>71.400001525879</ele>
        <time>2012-03-11T10:52:05.000Z</time>
      </trkpt>
      <trkpt lat="43.60648" lon="6.84971">
        <ele>71</ele>
        <time>2012-03-11T10:52:08.000Z</time>
      </trkpt>
      <trkpt lat="43.60631" lon="6.84969">
        <ele>71.400001525879</ele>
        <time>2012-03-11T10:52:14.000Z</time>
      </trkpt>
      <trkpt lat="43.60623" lon="6.84966">
        <ele>71.800003051758</ele>
        <time>2012-03-11T10:52:19.000Z</time>
      </trkpt>
      <trkpt lat="43.60615" lon="6.84968">
        <ele>71.599998474121</ele>
        <time>2012-03-11T10:52:25.000Z</time>
      </trkpt>
      <trkpt lat="43.60609" lon="6.8497">
        <ele>71.400001525879</ele>
        <time>2012-03-11T10:52:31.000Z</time>
      </trkpt>
      <trkpt lat="43.60606" lon="6.8497">
        <ele>71.400001525879</ele>
        <time>2012-03-11T10:52:37.000Z</time>
      </trkpt>
      <trkpt lat="43.606" lon="6.84968">
        <ele>71.800003051758</ele>
        <time>2012-03-11T10:52:50.000Z</time>
      </trkpt>
      <trkpt lat="43.60593" lon="6.84977">
        <ele>70.400001525879</ele>
        <time>2012-03-11T10:52:56.000Z</time>
      </trkpt>
      <trkpt lat="43.60591" lon="6.8498">
        <ele>69.800003051758</ele>
        <time>2012-03-11T10:52:58.000Z</time>
      </trkpt>
      <trkpt lat="43.60581" lon="6.8499">
        <ele>68.199996948242</ele>
        <time>2012-03-11T10:53:03.000Z</time>
      </trkpt>
      <trkpt lat="43.60572" lon="6.84995">
        <ele>68.599998474121</ele>
        <time>2012-03-11T10:53:06.000Z</time>
      </trkpt>
      <trkpt lat="43.60567" lon="6.84998">
        <ele>68.599998474121</ele>
        <time>2012-03-11T10:53:08.000Z</time>
      </trkpt>
      <trkpt lat="43.60556" lon="6.8501">
        <ele>69.400001525879</ele>
        <time>2012-03-11T10:53:14.000Z</time>
      </trkpt>
      <trkpt lat="43.60554" lon="6.85019">
        <ele>69.400001525879</ele>
        <time>2012-03-11T10:53:19.000Z</time>
      </trkpt>
      <trkpt lat="43.60553" lon="6.85021">
        <ele>69.400001525879</ele>
        <time>2012-03-11T10:53:20.000Z</time>
      </trkpt>
      <trkpt lat="43.60544" lon="6.85026">
        <ele>70</ele>
        <time>2012-03-11T10:53:25.000Z</time>
      </trkpt>
      <trkpt lat="43.60541" lon="6.85027">
        <ele>70.199996948242</ele>
        <time>2012-03-11T10:53:26.000Z</time>
      </trkpt>
      <trkpt lat="43.60526" lon="6.85032">
        <ele>71</ele>
        <time>2012-03-11T10:53:33.000Z</time>
      </trkpt>
      <trkpt lat="43.60521" lon="6.85039">
        <ele>70.800003051758</ele>
        <time>2012-03-11T10:53:37.000Z</time>
      </trkpt>
      <trkpt lat="43.60519" lon="6.85041">
        <ele>70.599998474121</ele>
        <time>2012-03-11T10:53:38.000Z</time>
      </trkpt>
      <trkpt lat="43.60509" lon="6.85052">
        <ele>69.800003051758</ele>
        <time>2012-03-11T10:53:43.000Z</time>
      </trkpt>
      <trkpt lat="43.60503" lon="6.85056">
        <ele>69.599998474121</ele>
        <time>2012-03-11T10:53:45.000Z</time>
      </trkpt>
      <trkpt lat="43.60491" lon="6.85062">
        <ele>72</ele>
        <time>2012-03-11T10:53:49.000Z</time>
      </trkpt>
      <trkpt lat="43.60481" lon="6.8507">
        <ele>74.400001525879</ele>
        <time>2012-03-11T10:53:53.000Z</time>
      </trkpt>
      <trkpt lat="43.60478" lon="6.8508">
        <ele>73.800003051758</ele>
        <time>2012-03-11T10:53:58.000Z</time>
      </trkpt>
      <trkpt lat="43.60471" lon="6.85115">
        <ele>74.800003051758</ele>
        <time>2012-03-11T10:54:11.000Z</time>
      </trkpt>
      <trkpt lat="43.60467" lon="6.85123">
        <ele>75.800003051758</ele>
        <time>2012-03-11T10:54:15.000Z</time>
      </trkpt>
      <trkpt lat="43.60463" lon="6.85132">
        <ele>76.599998474121</ele>
        <time>2012-03-11T10:54:19.000Z</time>
      </trkpt>
      <trkpt lat="43.60464" lon="6.85142">
        <ele>76.199996948242</ele>
        <time>2012-03-11T10:54:25.000Z</time>
      </trkpt>
      <trkpt lat="43.60463" lon="6.85146">
        <ele>76.199996948242</ele>
        <time>2012-03-11T10:54:27.000Z</time>
      </trkpt>
      <trkpt lat="43.6045" lon="6.8516">
        <ele>78.800003051758</ele>
        <time>2012-03-11T10:54:32.000Z</time>
      </trkpt>
      <trkpt lat="43.60436" lon="6.85172">
        <ele>81</ele>
        <time>2012-03-11T10:54:36.000Z</time>
      </trkpt>
      <trkpt lat="43.60424" lon="6.85188">
        <ele>82.199996948242</ele>
        <time>2012-03-11T10:54:41.000Z</time>
      </trkpt>
      <trkpt lat="43.60423" lon="6.85198">
        <ele>81.400001525879</ele>
        <time>2012-03-11T10:54:43.000Z</time>
      </trkpt>
      <trkpt lat="43.60417" lon="6.85214">
        <ele>80.800003051758</ele>
        <time>2012-03-11T10:54:50.000Z</time>
      </trkpt>
      <trkpt lat="43.60409" lon="6.85243">
        <ele>83</ele>
        <time>2012-03-11T10:55:03.000Z</time>
      </trkpt>
      <trkpt lat="43.60412" lon="6.85254">
        <ele>80.199996948242</ele>
        <time>2012-03-11T10:55:10.000Z</time>
      </trkpt>
      <trkpt lat="43.60412" lon="6.85261">
        <ele>80</ele>
        <time>2012-03-11T10:55:15.000Z</time>
      </trkpt>
      <trkpt lat="43.60411" lon="6.85267">
        <ele>80.400001525879</ele>
        <time>2012-03-11T10:55:17.000Z</time>
      </trkpt>
      <trkpt lat="43.6041" lon="6.85273">
        <ele>81</ele>
        <time>2012-03-11T10:55:20.000Z</time>
      </trkpt>
      <trkpt lat="43.60406" lon="6.85285">
        <ele>82.800003051758</ele>
        <time>2012-03-11T10:55:25.000Z</time>
      </trkpt>
      <trkpt lat="43.60407" lon="6.85295">
        <ele>82</ele>
        <time>2012-03-11T10:55:30.000Z</time>
      </trkpt>
      <trkpt lat="43.60409" lon="6.85303">
        <ele>80.199996948242</ele>
        <time>2012-03-11T10:55:33.000Z</time>
      </trkpt>
      <trkpt lat="43.60421" lon="6.85321">
        <ele>73.800003051758</ele>
        <time>2012-03-11T10:55:39.000Z</time>
      </trkpt>
      <trkpt lat="43.60428" lon="6.8533">
        <ele>72.599998474121</ele>
        <time>2012-03-11T10:55:46.000Z</time>
      </trkpt>
      <trkpt lat="43.60429" lon="6.85332">
        <ele>72.400001525879</ele>
        <time>2012-03-11T10:55:51.000Z</time>
      </trkpt>
      <trkpt lat="43.60432" lon="6.85336">
        <ele>72</ele>
        <time>2012-03-11T10:55:57.000Z</time>
      </trkpt>
      <trkpt lat="43.60436" lon="6.85341">
        <ele>71.800003051758</ele>
        <time>2012-03-11T10:56:00.000Z</time>
      </trkpt>
      <trkpt lat="43.60444" lon="6.8535">
        <ele>71.199996948242</ele>
        <time>2012-03-11T10:56:05.000Z</time>
      </trkpt>
      <trkpt lat="43.60447" lon="6.85353">
        <ele>71</ele>
        <time>2012-03-11T10:56:11.000Z</time>
      </trkpt>
      <trkpt lat="43.6045" lon="6.85357">
        <ele>70.800003051758</ele>
        <time>2012-03-11T10:56:18.000Z</time>
      </trkpt>
      <trkpt lat="43.60455" lon="6.85364">
        <ele>70.400001525879</ele>
        <time>2012-03-11T10:56:24.000Z</time>
      </trkpt>
      <trkpt lat="43.60456" lon="6.85365">
        <ele>70</ele>
        <time>2012-03-11T10:56:25.000Z</time>
      </trkpt>
      <trkpt lat="43.60468" lon="6.85368">
        <ele>68.199996948242</ele>
        <time>2012-03-11T10:56:32.000Z</time>
      </trkpt>
      <trkpt lat="43.60469" lon="6.8537">
        <ele>68</ele>
        <time>2012-03-11T10:56:36.000Z</time>
      </trkpt>
      <trkpt lat="43.60474" lon="6.85377">
        <ele>67.400001525879</ele>
        <time>2012-03-11T10:56:41.000Z</time>
      </trkpt>
      <trkpt lat="43.60476" lon="6.8538">
        <ele>67.199996948242</ele>
        <time>2012-03-11T10:56:43.000Z</time>
      </trkpt>
      <trkpt lat="43.60479" lon="6.85392">
        <ele>67</ele>
        <time>2012-03-11T10:56:50.000Z</time>
      </trkpt>
      <trkpt lat="43.60482" lon="6.85401">
        <ele>66.599998474121</ele>
        <time>2012-03-11T10:56:54.000Z</time>
      </trkpt>
      <trkpt lat="43.60484" lon="6.85404">
        <ele>66.199996948242</ele>
        <time>2012-03-11T10:56:56.000Z</time>
      </trkpt>
      <trkpt lat="43.60494" lon="6.85408">
        <ele>64.199996948242</ele>
        <time>2012-03-11T10:57:01.000Z</time>
      </trkpt>
      <trkpt lat="43.60502" lon="6.85421">
        <ele>64.599998474121</ele>
        <time>2012-03-11T10:57:06.000Z</time>
      </trkpt>
      <trkpt lat="43.60504" lon="6.85428">
        <ele>66.599998474121</ele>
        <time>2012-03-11T10:57:08.000Z</time>
      </trkpt>
      <trkpt lat="43.60527" lon="6.85432">
        <ele>68</ele>
        <time>2012-03-11T10:57:14.000Z</time>
      </trkpt>
      <trkpt lat="43.60547" lon="6.85431">
        <ele>67.800003051758</ele>
        <time>2012-03-11T10:57:18.000Z</time>
      </trkpt>
      <trkpt lat="43.60559" lon="6.8543">
        <ele>67.400001525879</ele>
        <time>2012-03-11T10:57:24.000Z</time>
      </trkpt>
      <trkpt lat="43.60565" lon="6.85428">
        <ele>66.599998474121</ele>
        <time>2012-03-11T10:57:28.000Z</time>
      </trkpt>
      <trkpt lat="43.6057" lon="6.85427">
        <ele>66.400001525879</ele>
        <time>2012-03-11T10:57:32.000Z</time>
      </trkpt>
      <trkpt lat="43.60586" lon="6.85418">
        <ele>63.799999237061</ele>
        <time>2012-03-11T10:57:42.000Z</time>
      </trkpt>
      <trkpt lat="43.60593" lon="6.85416">
        <ele>64.400001525879</ele>
        <time>2012-03-11T10:57:50.000Z</time>
      </trkpt>
      <trkpt lat="43.60594" lon="6.85415">
        <ele>64.400001525879</ele>
        <time>2012-03-11T10:57:54.000Z</time>
      </trkpt>
      <trkpt lat="43.60597" lon="6.85414">
        <ele>65</ele>
        <time>2012-03-11T10:57:56.000Z</time>
      </trkpt>
      <trkpt lat="43.60605" lon="6.85407">
        <ele>65.599998474121</ele>
        <time>2012-03-11T10:58:02.000Z</time>
      </trkpt>
      <trkpt lat="43.60607" lon="6.85407">
        <ele>65.800003051758</ele>
        <time>2012-03-11T10:58:03.000Z</time>
      </trkpt>
      <trkpt lat="43.60619" lon="6.85402">
        <ele>67</ele>
        <time>2012-03-11T10:58:08.000Z</time>
      </trkpt>
      <trkpt lat="43.60628" lon="6.85395">
        <ele>67.199996948242</ele>
        <time>2012-03-11T10:58:13.000Z</time>
      </trkpt>
      <trkpt lat="43.60636" lon="6.85391">
        <ele>67.599998474121</ele>
        <time>2012-03-11T10:58:18.000Z</time>
      </trkpt>
      <trkpt lat="43.60646" lon="6.85381">
        <ele>67</ele>
        <time>2012-03-11T10:58:23.000Z</time>
      </trkpt>
      <trkpt lat="43.60654" lon="6.85371">
        <ele>66.199996948242</ele>
        <time>2012-03-11T10:58:28.000Z</time>
      </trkpt>
      <trkpt lat="43.60665" lon="6.85366">
        <ele>65.800003051758</ele>
        <time>2012-03-11T10:58:33.000Z</time>
      </trkpt>
      <trkpt lat="43.60669" lon="6.85364">
        <ele>65.599998474121</ele>
        <time>2012-03-11T10:58:35.000Z</time>
      </trkpt>
      <trkpt lat="43.60681" lon="6.85361">
        <ele>65.599998474121</ele>
        <time>2012-03-11T10:58:41.000Z</time>
      </trkpt>
      <trkpt lat="43.60689" lon="6.85357">
        <ele>65.199996948242</ele>
        <time>2012-03-11T10:58:45.000Z</time>
      </trkpt>
      <trkpt lat="43.607" lon="6.85349">
        <ele>63.599998474121</ele>
        <time>2012-03-11T10:58:50.000Z</time>
      </trkpt>
      <trkpt lat="43.60716" lon="6.85339">
        <ele>61.799999237061</ele>
        <time>2012-03-11T10:58:56.000Z</time>
      </trkpt>
      <trkpt lat="43.60728" lon="6.8533">
        <ele>60.799999237061</ele>
        <time>2012-03-11T10:59:01.000Z</time>
      </trkpt>
      <trkpt lat="43.60732" lon="6.85328">
        <ele>60.799999237061</ele>
        <time>2012-03-11T10:59:03.000Z</time>
      </trkpt>
      <trkpt lat="43.60741" lon="6.8532">
        <ele>60.599998474121</ele>
        <time>2012-03-11T10:59:09.000Z</time>
      </trkpt>
      <trkpt lat="43.60751" lon="6.85309">
        <ele>60.400001525879</ele>
        <time>2012-03-11T10:59:15.000Z</time>
      </trkpt>
      <trkpt lat="43.60753" lon="6.85307">
        <ele>60.400001525879</ele>
        <time>2012-03-11T10:59:16.000Z</time>
      </trkpt>
      <trkpt lat="43.60759" lon="6.85302">
        <ele>60.200000762939</ele>
        <time>2012-03-11T10:59:21.000Z</time>
      </trkpt>
      <trkpt lat="43.60767" lon="6.85297">
        <ele>60</ele>
        <time>2012-03-11T10:59:29.000Z</time>
      </trkpt>
      <trkpt lat="43.60774" lon="6.85294">
        <ele>60</ele>
        <time>2012-03-11T10:59:34.000Z</time>
      </trkpt>
      <trkpt lat="43.60783" lon="6.85293">
        <ele>59.799999237061</ele>
        <time>2012-03-11T10:59:41.000Z</time>
      </trkpt>
      <trkpt lat="43.60793" lon="6.85292">
        <ele>59.799999237061</ele>
        <time>2012-03-11T10:59:45.000Z</time>
      </trkpt>
      <trkpt lat="43.6081" lon="6.85292">
        <ele>59.599998474121</ele>
        <time>2012-03-11T10:59:51.000Z</time>
      </trkpt>
      <trkpt lat="43.60817" lon="6.85292">
        <ele>59.599998474121</ele>
        <time>2012-03-11T10:59:56.000Z</time>
      </trkpt>
      <trkpt lat="43.60826" lon="6.85291">
        <ele>59.599998474121</ele>
        <time>2012-03-11T11:00:08.000Z</time>
      </trkpt>
      <trkpt lat="43.60845" lon="6.85288">
        <ele>59.799999237061</ele>
        <time>2012-03-11T11:00:13.000Z</time>
      </trkpt>
      <trkpt lat="43.60849" lon="6.85289">
        <ele>59.799999237061</ele>
        <time>2012-03-11T11:00:14.000Z</time>
      </trkpt>
      <trkpt lat="43.60857" lon="6.85305">
        <ele>60</ele>
        <time>2012-03-11T11:00:20.000Z</time>
      </trkpt>
      <trkpt lat="43.60858" lon="6.85311">
        <ele>60.200000762939</ele>
        <time>2012-03-11T11:00:22.000Z</time>
      </trkpt>
      <trkpt lat="43.60864" lon="6.85341">
        <ele>60.599998474121</ele>
        <time>2012-03-11T11:00:32.000Z</time>
      </trkpt>
      <trkpt lat="43.60865" lon="6.85344">
        <ele>61</ele>
        <time>2012-03-11T11:00:33.000Z</time>
      </trkpt>
      <trkpt lat="43.60861" lon="6.8535">
        <ele>61.599998474121</ele>
        <time>2012-03-11T11:00:37.000Z</time>
      </trkpt>
      <trkpt lat="43.60861" lon="6.85348">
        <ele>61.599998474121</ele>
        <time>2012-03-11T11:00:38.000Z</time>
      </trkpt>
      <trkpt lat="43.6086" lon="6.85343">
        <ele>61</ele>
        <time>2012-03-11T11:00:42.000Z</time>
      </trkpt>
      <trkpt lat="43.60849" lon="6.85341">
        <ele>61.400001525879</ele>
        <time>2012-03-11T11:00:48.000Z</time>
      </trkpt>
      <trkpt lat="43.60835" lon="6.8534">
        <ele>62</ele>
        <time>2012-03-11T11:00:54.000Z</time>
      </trkpt>
      <trkpt lat="43.60823" lon="6.85348">
        <ele>63.400001525879</ele>
        <time>2012-03-11T11:01:01.000Z</time>
      </trkpt>
      <trkpt lat="43.6081" lon="6.85355">
        <ele>65</ele>
        <time>2012-03-11T11:01:10.000Z</time>
      </trkpt>
      <trkpt lat="43.60795" lon="6.85359">
        <ele>66.400001525879</ele>
        <time>2012-03-11T11:01:18.000Z</time>
      </trkpt>
      <trkpt lat="43.60783" lon="6.85366">
        <ele>68.199996948242</ele>
        <time>2012-03-11T11:01:25.000Z</time>
      </trkpt>
      <trkpt lat="43.60773" lon="6.85371">
        <ele>70</ele>
        <time>2012-03-11T11:01:31.000Z</time>
      </trkpt>
      <trkpt lat="43.60762" lon="6.85381">
        <ele>72.800003051758</ele>
        <time>2012-03-11T11:01:39.000Z</time>
      </trkpt>
      <trkpt lat="43.60753" lon="6.85389">
        <ele>75.400001525879</ele>
        <time>2012-03-11T11:01:46.000Z</time>
      </trkpt>
      <trkpt lat="43.6075" lon="6.854">
        <ele>78.400001525879</ele>
        <time>2012-03-11T11:01:53.000Z</time>
      </trkpt>
      <trkpt lat="43.60748" lon="6.85404">
        <ele>79.599998474121</ele>
        <time>2012-03-11T11:02:01.000Z</time>
      </trkpt>
      <trkpt lat="43.60746" lon="6.85412">
        <ele>81.400001525879</ele>
        <time>2012-03-11T11:02:09.000Z</time>
      </trkpt>
      <trkpt lat="43.60747" lon="6.85421">
        <ele>83.800003051758</ele>
        <time>2012-03-11T11:02:17.000Z</time>
      </trkpt>
      <trkpt lat="43.60747" lon="6.85422">
        <ele>84.199996948242</ele>
        <time>2012-03-11T11:02:23.000Z</time>
      </trkpt>
      <trkpt lat="43.60751" lon="6.85425">
        <ele>85.199996948242</ele>
        <time>2012-03-11T11:02:31.000Z</time>
      </trkpt>
      <trkpt lat="43.60751" lon="6.85426">
        <ele>85.599998474121</ele>
        <time>2012-03-11T11:02:32.000Z</time>
      </trkpt>
      <trkpt lat="43.60755" lon="6.85437">
        <ele>88</ele>
        <time>2012-03-11T11:02:41.000Z</time>
      </trkpt>
      <trkpt lat="43.60757" lon="6.85444">
        <ele>89.400001525879</ele>
        <time>2012-03-11T11:02:48.000Z</time>
      </trkpt>
      <trkpt lat="43.60759" lon="6.85451">
        <ele>91</ele>
        <time>2012-03-11T11:02:54.000Z</time>
      </trkpt>
      <trkpt lat="43.60761" lon="6.85453">
        <ele>91.199996948242</ele>
        <time>2012-03-11T11:02:58.000Z</time>
      </trkpt>
      <trkpt lat="43.60765" lon="6.85461">
        <ele>92.400001525879</ele>
        <time>2012-03-11T11:03:07.000Z</time>
      </trkpt>
      <trkpt lat="43.60769" lon="6.85473">
        <ele>94.599998474121</ele>
        <time>2012-03-11T11:03:14.000Z</time>
      </trkpt>
      <trkpt lat="43.60769" lon="6.85477">
        <ele>95.400001525879</ele>
        <time>2012-03-11T11:03:16.000Z</time>
      </trkpt>
      <trkpt lat="43.60771" lon="6.85484">
        <ele>96.599998474121</ele>
        <time>2012-03-11T11:03:20.000Z</time>
      </trkpt>
      <trkpt lat="43.60768" lon="6.85494">
        <ele>99.800003051758</ele>
        <time>2012-03-11T11:03:27.000Z</time>
      </trkpt>
      <trkpt lat="43.60765" lon="6.85495">
        <ele>101</ele>
        <time>2012-03-11T11:03:33.000Z</time>
      </trkpt>
      <trkpt lat="43.60758" lon="6.85493">
        <ele>102</ele>
        <time>2012-03-11T11:03:40.000Z</time>
      </trkpt>
      <trkpt lat="43.60758" lon="6.85492">
        <ele>101.80000305176</ele>
        <time>2012-03-11T11:03:45.000Z</time>
      </trkpt>
      <trkpt lat="43.60753" lon="6.8549">
        <ele>102.59999847412</ele>
        <time>2012-03-11T11:03:53.000Z</time>
      </trkpt>
      <trkpt lat="43.6075" lon="6.85489">
        <ele>102.80000305176</ele>
        <time>2012-03-11T11:03:59.000Z</time>
      </trkpt>
      <trkpt lat="43.60749" lon="6.85488">
        <ele>102.59999847412</ele>
        <time>2012-03-11T11:04:02.000Z</time>
      </trkpt>
      <trkpt lat="43.60731" lon="6.85484">
        <ele>101.59999847412</ele>
        <time>2012-03-11T11:04:10.000Z</time>
      </trkpt>
      <trkpt lat="43.60723" lon="6.85482">
        <ele>100.80000305176</ele>
        <time>2012-03-11T11:04:13.000Z</time>
      </trkpt>
      <trkpt lat="43.60715" lon="6.85483">
        <ele>101.19999694824</ele>
        <time>2012-03-11T11:04:17.000Z</time>
      </trkpt>
      <trkpt lat="43.60704" lon="6.85484">
        <ele>101.59999847412</ele>
        <time>2012-03-11T11:04:23.000Z</time>
      </trkpt>
      <trkpt lat="43.60688" lon="6.85488">
        <ele>103.19999694824</ele>
        <time>2012-03-11T11:04:31.000Z</time>
      </trkpt>
      <trkpt lat="43.60675" lon="6.85497">
        <ele>106.80000305176</ele>
        <time>2012-03-11T11:04:39.000Z</time>
      </trkpt>
      <trkpt lat="43.60661" lon="6.85502">
        <ele>106.80000305176</ele>
        <time>2012-03-11T11:04:46.000Z</time>
      </trkpt>
      <trkpt lat="43.60646" lon="6.85509">
        <ele>104.19999694824</ele>
        <time>2012-03-11T11:04:53.000Z</time>
      </trkpt>
      <trkpt lat="43.60633" lon="6.85518">
        <ele>102.40000152588</ele>
        <time>2012-03-11T11:04:59.000Z</time>
      </trkpt>
      <trkpt lat="43.60621" lon="6.8553">
        <ele>101.59999847412</ele>
        <time>2012-03-11T11:05:06.000Z</time>
      </trkpt>
      <trkpt lat="43.60606" lon="6.85538">
        <ele>100.59999847412</ele>
        <time>2012-03-11T11:05:10.000Z</time>
      </trkpt>
      <trkpt lat="43.60599" lon="6.85543">
        <ele>100.40000152588</ele>
        <time>2012-03-11T11:05:13.000Z</time>
      </trkpt>
      <trkpt lat="43.60581" lon="6.85544">
        <ele>99</ele>
        <time>2012-03-11T11:05:17.000Z</time>
      </trkpt>
      <trkpt lat="43.60574" lon="6.85545">
        <ele>99.400001525879</ele>
        <time>2012-03-11T11:05:18.000Z</time>
      </trkpt>
      <trkpt lat="43.60528" lon="6.85541">
        <ele>100.59999847412</ele>
        <time>2012-03-11T11:05:25.000Z</time>
      </trkpt>
      <trkpt lat="43.60513" lon="6.85547">
        <ele>102.80000305176</ele>
        <time>2012-03-11T11:05:29.000Z</time>
      </trkpt>
      <trkpt lat="43.60509" lon="6.85552">
        <ele>104.59999847412</ele>
        <time>2012-03-11T11:05:32.000Z</time>
      </trkpt>
      <trkpt lat="43.60496" lon="6.8556">
        <ele>108</ele>
        <time>2012-03-11T11:05:40.000Z</time>
      </trkpt>
      <trkpt lat="43.60484" lon="6.85571">
        <ele>113.40000152588</ele>
        <time>2012-03-11T11:05:49.000Z</time>
      </trkpt>
      <trkpt lat="43.60476" lon="6.85576">
        <ele>116.19999694824</ele>
        <time>2012-03-11T11:05:55.000Z</time>
      </trkpt>
      <trkpt lat="43.60471" lon="6.8558">
        <ele>118.40000152588</ele>
        <time>2012-03-11T11:06:00.000Z</time>
      </trkpt>
      <trkpt lat="43.6046" lon="6.85579">
        <ele>120.19999694824</ele>
        <time>2012-03-11T11:06:06.000Z</time>
      </trkpt>
      <trkpt lat="43.6045" lon="6.85578">
        <ele>121.59999847412</ele>
        <time>2012-03-11T11:06:12.000Z</time>
      </trkpt>
      <trkpt lat="43.60446" lon="6.85576">
        <ele>121.80000305176</ele>
        <time>2012-03-11T11:06:18.000Z</time>
      </trkpt>
      <trkpt lat="43.60444" lon="6.85575">
        <ele>122</ele>
        <time>2012-03-11T11:06:23.000Z</time>
      </trkpt>
      <trkpt lat="43.6044" lon="6.85573">
        <ele>122.19999694824</ele>
        <time>2012-03-11T11:06:28.000Z</time>
      </trkpt>
      <trkpt lat="43.60438" lon="6.85573">
        <ele>122.40000152588</ele>
        <time>2012-03-11T11:06:30.000Z</time>
      </trkpt>
      <trkpt lat="43.60431" lon="6.85568">
        <ele>122.80000305176</ele>
        <time>2012-03-11T11:06:36.000Z</time>
      </trkpt>
      <trkpt lat="43.60417" lon="6.85562">
        <ele>123.59999847412</ele>
        <time>2012-03-11T11:06:44.000Z</time>
      </trkpt>
      <trkpt lat="43.60403" lon="6.85558">
        <ele>126.19999694824</ele>
        <time>2012-03-11T11:06:52.000Z</time>
      </trkpt>
      <trkpt lat="43.60392" lon="6.85556">
        <ele>128.39999389648</ele>
        <time>2012-03-11T11:06:58.000Z</time>
      </trkpt>
      <trkpt lat="43.6038" lon="6.85553">
        <ele>130.60000610352</ele>
        <time>2012-03-11T11:07:05.000Z</time>
      </trkpt>
      <trkpt lat="43.60373" lon="6.8555">
        <ele>132</ele>
        <time>2012-03-11T11:07:10.000Z</time>
      </trkpt>
      <trkpt lat="43.60371" lon="6.85549">
        <ele>132.60000610352</ele>
        <time>2012-03-11T11:07:16.000Z</time>
      </trkpt>
      <trkpt lat="43.60368" lon="6.8555">
        <ele>133.19999694824</ele>
        <time>2012-03-11T11:07:22.000Z</time>
      </trkpt>
      <trkpt lat="43.60367" lon="6.8555">
        <ele>133.60000610352</ele>
        <time>2012-03-11T11:07:24.000Z</time>
      </trkpt>
      <trkpt lat="43.60358" lon="6.8555">
        <ele>135.80000305176</ele>
        <time>2012-03-11T11:07:31.000Z</time>
      </trkpt>
      <trkpt lat="43.60349" lon="6.85551">
        <ele>138.19999694824</ele>
        <time>2012-03-11T11:07:37.000Z</time>
      </trkpt>
      <trkpt lat="43.60339" lon="6.85552">
        <ele>140.80000305176</ele>
        <time>2012-03-11T11:07:43.000Z</time>
      </trkpt>
      <trkpt lat="43.60328" lon="6.85553">
        <ele>143.60000610352</ele>
        <time>2012-03-11T11:07:51.000Z</time>
      </trkpt>
      <trkpt lat="43.60313" lon="6.85552">
        <ele>147.60000610352</ele>
        <time>2012-03-11T11:07:58.000Z</time>
      </trkpt>
      <trkpt lat="43.60308" lon="6.85552">
        <ele>149.19999694824</ele>
        <time>2012-03-11T11:08:01.000Z</time>
      </trkpt>
      <trkpt lat="43.603" lon="6.85551">
        <ele>151.39999389648</ele>
        <time>2012-03-11T11:08:06.000Z</time>
      </trkpt>
      <trkpt lat="43.60295" lon="6.8555">
        <ele>152.80000305176</ele>
        <time>2012-03-11T11:08:12.000Z</time>
      </trkpt>
      <trkpt lat="43.60294" lon="6.8555">
        <ele>152.80000305176</ele>
        <time>2012-03-11T11:08:14.000Z</time>
      </trkpt>
      <trkpt lat="43.60291" lon="6.85549">
        <ele>153.80000305176</ele>
        <time>2012-03-11T11:08:16.000Z</time>
      </trkpt>
      <trkpt lat="43.60288" lon="6.85547">
        <ele>154.60000610352</ele>
        <time>2012-03-11T11:08:20.000Z</time>
      </trkpt>
      <trkpt lat="43.60278" lon="6.85541">
        <ele>157.60000610352</ele>
        <time>2012-03-11T11:08:25.000Z</time>
      </trkpt>
      <trkpt lat="43.6027" lon="6.85534">
        <ele>160.39999389648</ele>
        <time>2012-03-11T11:08:31.000Z</time>
      </trkpt>
      <trkpt lat="43.60261" lon="6.85529">
        <ele>163</ele>
        <time>2012-03-11T11:08:37.000Z</time>
      </trkpt>
      <trkpt lat="43.6026" lon="6.85528">
        <ele>163.39999389648</ele>
        <time>2012-03-11T11:08:38.000Z</time>
      </trkpt>
      <trkpt lat="43.60255" lon="6.85524">
        <ele>165</ele>
        <time>2012-03-11T11:08:43.000Z</time>
      </trkpt>
      <trkpt lat="43.60252" lon="6.85522">
        <ele>166</ele>
        <time>2012-03-11T11:08:49.000Z</time>
      </trkpt>
      <trkpt lat="43.60244" lon="6.85515">
        <ele>168</ele>
        <time>2012-03-11T11:08:59.000Z</time>
      </trkpt>
      <trkpt lat="43.60238" lon="6.85511">
        <ele>169</ele>
        <time>2012-03-11T11:09:04.000Z</time>
      </trkpt>
      <trkpt lat="43.60227" lon="6.85507">
        <ele>171</ele>
        <time>2012-03-11T11:09:09.000Z</time>
      </trkpt>
      <trkpt lat="43.60226" lon="6.85506">
        <ele>171.19999694824</ele>
        <time>2012-03-11T11:09:10.000Z</time>
      </trkpt>
      <trkpt lat="43.60224" lon="6.85504">
        <ele>171.60000610352</ele>
        <time>2012-03-11T11:09:14.000Z</time>
      </trkpt>
      <trkpt lat="43.60211" lon="6.85501">
        <ele>173.60000610352</ele>
        <time>2012-03-11T11:09:22.000Z</time>
      </trkpt>
      <trkpt lat="43.60201" lon="6.855">
        <ele>175</ele>
        <time>2012-03-11T11:09:27.000Z</time>
      </trkpt>
      <trkpt lat="43.60193" lon="6.85503">
        <ele>176.19999694824</ele>
        <time>2012-03-11T11:09:33.000Z</time>
      </trkpt>
      <trkpt lat="43.60184" lon="6.85506">
        <ele>177.39999389648</ele>
        <time>2012-03-11T11:09:39.000Z</time>
      </trkpt>
      <trkpt lat="43.60171" lon="6.85508">
        <ele>179.39999389648</ele>
        <time>2012-03-11T11:09:47.000Z</time>
      </trkpt>
      <trkpt lat="43.60165" lon="6.85508">
        <ele>180.60000610352</ele>
        <time>2012-03-11T11:09:50.000Z</time>
      </trkpt>
      <trkpt lat="43.60159" lon="6.85507">
        <ele>181.80000305176</ele>
        <time>2012-03-11T11:09:54.000Z</time>
      </trkpt>
      <trkpt lat="43.60147" lon="6.8551">
        <ele>184.80000305176</ele>
        <time>2012-03-11T11:10:00.000Z</time>
      </trkpt>
      <trkpt lat="43.60145" lon="6.85517">
        <ele>185</ele>
        <time>2012-03-11T11:10:04.000Z</time>
      </trkpt>
      <trkpt lat="43.60137" lon="6.85534">
        <ele>186.39999389648</ele>
        <time>2012-03-11T11:10:13.000Z</time>
      </trkpt>
      <trkpt lat="43.60133" lon="6.85537">
        <ele>187</ele>
        <time>2012-03-11T11:10:16.000Z</time>
      </trkpt>
      <trkpt lat="43.60117" lon="6.85543">
        <ele>190</ele>
        <time>2012-03-11T11:10:23.000Z</time>
      </trkpt>
      <trkpt lat="43.60115" lon="6.85544">
        <ele>190.19999694824</ele>
        <time>2012-03-11T11:10:24.000Z</time>
      </trkpt>
      <trkpt lat="43.60113" lon="6.8555">
        <ele>190.19999694824</ele>
        <time>2012-03-11T11:10:28.000Z</time>
      </trkpt>
      <trkpt lat="43.6011" lon="6.85554">
        <ele>190.60000610352</ele>
        <time>2012-03-11T11:10:33.000Z</time>
      </trkpt>
      <trkpt lat="43.60104" lon="6.85554">
        <ele>191.60000610352</ele>
        <time>2012-03-11T11:10:39.000Z</time>
      </trkpt>
      <trkpt lat="43.60099" lon="6.85553">
        <ele>192.60000610352</ele>
        <time>2012-03-11T11:10:44.000Z</time>
      </trkpt>
      <trkpt lat="43.60098" lon="6.8555">
        <ele>193.19999694824</ele>
        <time>2012-03-11T11:10:46.000Z</time>
      </trkpt>
      <trkpt lat="43.60092" lon="6.8554">
        <ele>195.39999389648</ele>
        <time>2012-03-11T11:10:52.000Z</time>
      </trkpt>
      <trkpt lat="43.60089" lon="6.85533">
        <ele>196.80000305176</ele>
        <time>2012-03-11T11:10:57.000Z</time>
      </trkpt>
      <trkpt lat="43.60087" lon="6.85529">
        <ele>197.80000305176</ele>
        <time>2012-03-11T11:11:04.000Z</time>
      </trkpt>
      <trkpt lat="43.6009" lon="6.85522">
        <ele>197.60000610352</ele>
        <time>2012-03-11T11:11:10.000Z</time>
      </trkpt>
      <trkpt lat="43.60091" lon="6.85521">
        <ele>197.80000305176</ele>
        <time>2012-03-11T11:11:11.000Z</time>
      </trkpt>
      <trkpt lat="43.60095" lon="6.85513">
        <ele>197.60000610352</ele>
        <time>2012-03-11T11:11:17.000Z</time>
      </trkpt>
      <trkpt lat="43.60102" lon="6.85509">
        <ele>196.19999694824</ele>
        <time>2012-03-11T11:11:22.000Z</time>
      </trkpt>
      <trkpt lat="43.60111" lon="6.85495">
        <ele>196</ele>
        <time>2012-03-11T11:11:29.000Z</time>
      </trkpt>
      <trkpt lat="43.60115" lon="6.8548">
        <ele>198.80000305176</ele>
        <time>2012-03-11T11:11:36.000Z</time>
      </trkpt>
      <trkpt lat="43.60117" lon="6.85477">
        <ele>199</ele>
        <time>2012-03-11T11:11:39.000Z</time>
      </trkpt>
      <trkpt lat="43.60117" lon="6.85474">
        <ele>199.60000610352</ele>
        <time>2012-03-11T11:11:41.000Z</time>
      </trkpt>
      <trkpt lat="43.60122" lon="6.85468">
        <ele>199.80000305176</ele>
        <time>2012-03-11T11:11:46.000Z</time>
      </trkpt>
      <trkpt lat="43.60127" lon="6.85461">
        <ele>200.60000610352</ele>
        <time>2012-03-11T11:11:53.000Z</time>
      </trkpt>
      <trkpt lat="43.60135" lon="6.85457">
        <ele>199.60000610352</ele>
        <time>2012-03-11T11:11:59.000Z</time>
      </trkpt>
      <trkpt lat="43.60136" lon="6.85456">
        <ele>199.60000610352</ele>
        <time>2012-03-11T11:12:00.000Z</time>
      </trkpt>
      <trkpt lat="43.60146" lon="6.85449">
        <ele>199.19999694824</ele>
        <time>2012-03-11T11:12:07.000Z</time>
      </trkpt>
      <trkpt lat="43.60157" lon="6.85437">
        <ele>199.60000610352</ele>
        <time>2012-03-11T11:12:14.000Z</time>
      </trkpt>
      <trkpt lat="43.60165" lon="6.85424">
        <ele>201.39999389648</ele>
        <time>2012-03-11T11:12:21.000Z</time>
      </trkpt>
      <trkpt lat="43.60168" lon="6.85417">
        <ele>202.80000305176</ele>
        <time>2012-03-11T11:12:24.000Z</time>
      </trkpt>
      <trkpt lat="43.60167" lon="6.85401">
        <ele>203.60000610352</ele>
        <time>2012-03-11T11:12:32.000Z</time>
      </trkpt>
      <trkpt lat="43.60164" lon="6.85392">
        <ele>204.80000305176</ele>
        <time>2012-03-11T11:12:40.000Z</time>
      </trkpt>
      <trkpt lat="43.6016" lon="6.85386">
        <ele>206.19999694824</ele>
        <time>2012-03-11T11:12:48.000Z</time>
      </trkpt>
      <trkpt lat="43.60156" lon="6.85384">
        <ele>207.39999389648</ele>
        <time>2012-03-11T11:12:55.000Z</time>
      </trkpt>
      <trkpt lat="43.60153" lon="6.8538">
        <ele>208.39999389648</ele>
        <time>2012-03-11T11:13:01.000Z</time>
      </trkpt>
      <trkpt lat="43.60149" lon="6.85374">
        <ele>210.19999694824</ele>
        <time>2012-03-11T11:13:09.000Z</time>
      </trkpt>
      <trkpt lat="43.60143" lon="6.85367">
        <ele>212.19999694824</ele>
        <time>2012-03-11T11:13:16.000Z</time>
      </trkpt>
      <trkpt lat="43.60142" lon="6.85366">
        <ele>212.60000610352</ele>
        <time>2012-03-11T11:13:17.000Z</time>
      </trkpt>
      <trkpt lat="43.60139" lon="6.8536">
        <ele>214</ele>
        <time>2012-03-11T11:13:22.000Z</time>
      </trkpt>
      <trkpt lat="43.60132" lon="6.85349">
        <ele>217</ele>
        <time>2012-03-11T11:13:31.000Z</time>
      </trkpt>
      <trkpt lat="43.60132" lon="6.85347">
        <ele>217.60000610352</ele>
        <time>2012-03-11T11:13:33.000Z</time>
      </trkpt>
      <trkpt lat="43.60131" lon="6.85345">
        <ele>217.80000305176</ele>
        <time>2012-03-11T11:13:35.000Z</time>
      </trkpt>
      <trkpt lat="43.60129" lon="6.85338">
        <ele>219</ele>
        <time>2012-03-11T11:13:42.000Z</time>
      </trkpt>
      <trkpt lat="43.60125" lon="6.8533">
        <ele>221.19999694824</ele>
        <time>2012-03-11T11:13:49.000Z</time>
      </trkpt>
      <trkpt lat="43.60121" lon="6.8532">
        <ele>223.39999389648</ele>
        <time>2012-03-11T11:13:55.000Z</time>
      </trkpt>
      <trkpt lat="43.6012" lon="6.85312">
        <ele>224.39999389648</ele>
        <time>2012-03-11T11:13:59.000Z</time>
      </trkpt>
      <trkpt lat="43.60122" lon="6.85302">
        <ele>224.60000610352</ele>
        <time>2012-03-11T11:14:05.000Z</time>
      </trkpt>
      <trkpt lat="43.60122" lon="6.85301">
        <ele>224.60000610352</ele>
        <time>2012-03-11T11:14:06.000Z</time>
      </trkpt>
      <trkpt lat="43.6012" lon="6.85287">
        <ele>226.19999694824</ele>
        <time>2012-03-11T11:14:14.000Z</time>
      </trkpt>
      <trkpt lat="43.60117" lon="6.85275">
        <ele>228</ele>
        <time>2012-03-11T11:14:21.000Z</time>
      </trkpt>
      <trkpt lat="43.60118" lon="6.85271">
        <ele>228</ele>
        <time>2012-03-11T11:14:23.000Z</time>
      </trkpt>
      <trkpt lat="43.60121" lon="6.85262">
        <ele>227.80000305176</ele>
        <time>2012-03-11T11:14:28.000Z</time>
      </trkpt>
      <trkpt lat="43.60119" lon="6.85256">
        <ele>228.80000305176</ele>
        <time>2012-03-11T11:14:34.000Z</time>
      </trkpt>
      <trkpt lat="43.60118" lon="6.85261">
        <ele>228.80000305176</ele>
        <time>2012-03-11T11:14:39.000Z</time>
      </trkpt>
      <trkpt lat="43.60116" lon="6.85268">
        <ele>229</ele>
        <time>2012-03-11T11:14:46.000Z</time>
      </trkpt>
      <trkpt lat="43.60113" lon="6.85268">
        <ele>229.80000305176</ele>
        <time>2012-03-11T11:14:47.000Z</time>
      </trkpt>
      <trkpt lat="43.601" lon="6.85276">
        <ele>233.19999694824</ele>
        <time>2012-03-11T11:14:55.000Z</time>
      </trkpt>
      <trkpt lat="43.6009" lon="6.85283">
        <ele>235.80000305176</ele>
        <time>2012-03-11T11:15:01.000Z</time>
      </trkpt>
      <trkpt lat="43.60083" lon="6.85297">
        <ele>237.19999694824</ele>
        <time>2012-03-11T11:15:08.000Z</time>
      </trkpt>
      <trkpt lat="43.60071" lon="6.85308">
        <ele>237</ele>
        <time>2012-03-11T11:15:15.000Z</time>
      </trkpt>
      <trkpt lat="43.60059" lon="6.85321">
        <ele>237.39999389648</ele>
        <time>2012-03-11T11:15:23.000Z</time>
      </trkpt>
      <trkpt lat="43.60046" lon="6.85338">
        <ele>237.80000305176</ele>
        <time>2012-03-11T11:15:31.000Z</time>
      </trkpt>
      <trkpt lat="43.60034" lon="6.85353">
        <ele>238.39999389648</ele>
        <time>2012-03-11T11:15:38.000Z</time>
      </trkpt>
      <trkpt lat="43.60017" lon="6.85373">
        <ele>240.39999389648</ele>
        <time>2012-03-11T11:15:48.000Z</time>
      </trkpt>
      <trkpt lat="43.60001" lon="6.85387">
        <ele>243.80000305176</ele>
        <time>2012-03-11T11:15:57.000Z</time>
      </trkpt>
      <trkpt lat="43.59989" lon="6.85395">
        <ele>244.80000305176</ele>
        <time>2012-03-11T11:16:04.000Z</time>
      </trkpt>
      <trkpt lat="43.59976" lon="6.85404">
        <ele>246</ele>
        <time>2012-03-11T11:16:11.000Z</time>
      </trkpt>
      <trkpt lat="43.59962" lon="6.85417">
        <ele>248.19999694824</ele>
        <time>2012-03-11T11:16:19.000Z</time>
      </trkpt>
      <trkpt lat="43.59945" lon="6.85428">
        <ele>249.60000610352</ele>
        <time>2012-03-11T11:16:27.000Z</time>
      </trkpt>
      <trkpt lat="43.59935" lon="6.85432">
        <ele>251</ele>
        <time>2012-03-11T11:16:33.000Z</time>
      </trkpt>
      <trkpt lat="43.59925" lon="6.85436">
        <ele>252.60000610352</ele>
        <time>2012-03-11T11:16:40.000Z</time>
      </trkpt>
      <trkpt lat="43.5991" lon="6.85438">
        <ele>253.60000610352</ele>
        <time>2012-03-11T11:16:48.000Z</time>
      </trkpt>
      <trkpt lat="43.59895" lon="6.85444">
        <ele>253.19999694824</ele>
        <time>2012-03-11T11:16:56.000Z</time>
      </trkpt>
      <trkpt lat="43.59884" lon="6.85456">
        <ele>253.80000305176</ele>
        <time>2012-03-11T11:17:04.000Z</time>
      </trkpt>
      <trkpt lat="43.59877" lon="6.85466">
        <ele>254.39999389648</ele>
        <time>2012-03-11T11:17:11.000Z</time>
      </trkpt>
      <trkpt lat="43.59865" lon="6.85476">
        <ele>254.80000305176</ele>
        <time>2012-03-11T11:17:20.000Z</time>
      </trkpt>
      <trkpt lat="43.59853" lon="6.85482">
        <ele>254.80000305176</ele>
        <time>2012-03-11T11:17:29.000Z</time>
      </trkpt>
      <trkpt lat="43.59842" lon="6.85491">
        <ele>255.19999694824</ele>
        <time>2012-03-11T11:17:37.000Z</time>
      </trkpt>
      <trkpt lat="43.59838" lon="6.85502">
        <ele>256.39999389648</ele>
        <time>2012-03-11T11:17:43.000Z</time>
      </trkpt>
      <trkpt lat="43.59841" lon="6.8552">
        <ele>257.39999389648</ele>
        <time>2012-03-11T11:17:52.000Z</time>
      </trkpt>
      <trkpt lat="43.59849" lon="6.85539">
        <ele>258.60000610352</ele>
        <time>2012-03-11T11:18:00.000Z</time>
      </trkpt>
      <trkpt lat="43.59857" lon="6.85561">
        <ele>259.60000610352</ele>
        <time>2012-03-11T11:18:10.000Z</time>
      </trkpt>
      <trkpt lat="43.59863" lon="6.8558">
        <ele>260.20001220703</ele>
        <time>2012-03-11T11:18:18.000Z</time>
      </trkpt>
      <trkpt lat="43.59865" lon="6.85595">
        <ele>260.79998779297</ele>
        <time>2012-03-11T11:18:25.000Z</time>
      </trkpt>
      <trkpt lat="43.59869" lon="6.85621">
        <ele>262</ele>
        <time>2012-03-11T11:18:35.000Z</time>
      </trkpt>
      <trkpt lat="43.5987" lon="6.85631">
        <ele>262.20001220703</ele>
        <time>2012-03-11T11:18:41.000Z</time>
      </trkpt>
      <trkpt lat="43.59874" lon="6.85641">
        <ele>262.20001220703</ele>
        <time>2012-03-11T11:18:46.000Z</time>
      </trkpt>
      <trkpt lat="43.59875" lon="6.85643">
        <ele>262.20001220703</ele>
        <time>2012-03-11T11:18:51.000Z</time>
      </trkpt>
      <trkpt lat="43.59875" lon="6.85644">
        <ele>262.20001220703</ele>
        <time>2012-03-11T11:18:58.000Z</time>
      </trkpt>
      <trkpt lat="43.59875" lon="6.85646">
        <ele>262.20001220703</ele>
        <time>2012-03-11T11:19:06.000Z</time>
      </trkpt>
      <trkpt lat="43.5987" lon="6.85653">
        <ele>263.20001220703</ele>
        <time>2012-03-11T11:19:53.000Z</time>
      </trkpt>
      <trkpt lat="43.59867" lon="6.85656">
        <ele>263.79998779297</ele>
        <time>2012-03-11T11:20:06.000Z</time>
      </trkpt>
      <trkpt lat="43.59867" lon="6.85659">
        <ele>264</ele>
        <time>2012-03-11T11:20:29.000Z</time>
      </trkpt>
      <trkpt lat="43.59871" lon="6.85657">
        <ele>263.20001220703</ele>
        <time>2012-03-11T11:21:06.000Z</time>
      </trkpt>
      <trkpt lat="43.59874" lon="6.85661">
        <ele>263</ele>
        <time>2012-03-11T11:22:25.000Z</time>
      </trkpt>
      <trkpt lat="43.59878" lon="6.8566">
        <ele>262.20001220703</ele>
        <time>2012-03-11T11:23:07.000Z</time>
      </trkpt>
      <trkpt lat="43.59878" lon="6.85659">
        <ele>262.20001220703</ele>
        <time>2012-03-11T11:23:20.000Z</time>
      </trkpt>
      <trkpt lat="43.5988" lon="6.8566">
        <ele>262</ele>
        <time>2012-03-11T11:23:35.000Z</time>
      </trkpt>
      <trkpt lat="43.59879" lon="6.8566">
        <ele>262.20001220703</ele>
        <time>2012-03-11T11:23:43.000Z</time>
      </trkpt>
      <trkpt lat="43.59876" lon="6.85659">
        <ele>262.60000610352</ele>
        <time>2012-03-11T11:24:07.000Z</time>
      </trkpt>
      <trkpt lat="43.59879" lon="6.85661">
        <ele>262.20001220703</ele>
        <time>2012-03-11T11:24:19.000Z</time>
      </trkpt>
      <trkpt lat="43.59882" lon="6.85662">
        <ele>261.60000610352</ele>
        <time>2012-03-11T11:24:28.000Z</time>
      </trkpt>
      <trkpt lat="43.59881" lon="6.85663">
        <ele>261.79998779297</ele>
        <time>2012-03-11T11:24:40.000Z</time>
      </trkpt>
      <trkpt lat="43.59881" lon="6.85664">
        <ele>262</ele>
        <time>2012-03-11T11:24:56.000Z</time>
      </trkpt>
      <trkpt lat="43.59877" lon="6.85669">
        <ele>263</ele>
        <time>2012-03-11T11:25:03.000Z</time>
      </trkpt>
      <trkpt lat="43.59864" lon="6.85681">
        <ele>266.79998779297</ele>
        <time>2012-03-11T11:25:11.000Z</time>
      </trkpt>
      <trkpt lat="43.59847" lon="6.85693">
        <ele>271.60000610352</ele>
        <time>2012-03-11T11:25:19.000Z</time>
      </trkpt>
      <trkpt lat="43.59832" lon="6.85709">
        <ele>277</ele>
        <time>2012-03-11T11:25:27.000Z</time>
      </trkpt>
      <trkpt lat="43.59817" lon="6.85716">
        <ele>278.20001220703</ele>
        <time>2012-03-11T11:25:34.000Z</time>
      </trkpt>
      <trkpt lat="43.598" lon="6.85721">
        <ele>279.20001220703</ele>
        <time>2012-03-11T11:25:42.000Z</time>
      </trkpt>
      <trkpt lat="43.59785" lon="6.85723">
        <ele>279.60000610352</ele>
        <time>2012-03-11T11:25:49.000Z</time>
      </trkpt>
      <trkpt lat="43.59775" lon="6.85722">
        <ele>279.60000610352</ele>
        <time>2012-03-11T11:25:54.000Z</time>
      </trkpt>
      <trkpt lat="43.59763" lon="6.85723">
        <ele>279.79998779297</ele>
        <time>2012-03-11T11:25:59.000Z</time>
      </trkpt>
      <trkpt lat="43.5975" lon="6.85728">
        <ele>281.60000610352</ele>
        <time>2012-03-11T11:26:05.000Z</time>
      </trkpt>
      <trkpt lat="43.59733" lon="6.85739">
        <ele>282.60000610352</ele>
        <time>2012-03-11T11:26:12.000Z</time>
      </trkpt>
      <trkpt lat="43.59719" lon="6.85751">
        <ele>284.39999389648</ele>
        <time>2012-03-11T11:26:19.000Z</time>
      </trkpt>
      <trkpt lat="43.59709" lon="6.85757">
        <ele>284.20001220703</ele>
        <time>2012-03-11T11:26:24.000Z</time>
      </trkpt>
      <trkpt lat="43.59692" lon="6.85763">
        <ele>283.60000610352</ele>
        <time>2012-03-11T11:26:31.000Z</time>
      </trkpt>
      <trkpt lat="43.59678" lon="6.85774">
        <ele>285</ele>
        <time>2012-03-11T11:26:38.000Z</time>
      </trkpt>
      <trkpt lat="43.59663" lon="6.85797">
        <ele>289</ele>
        <time>2012-03-11T11:26:46.000Z</time>
      </trkpt>
      <trkpt lat="43.59647" lon="6.8581">
        <ele>289.60000610352</ele>
        <time>2012-03-11T11:26:53.000Z</time>
      </trkpt>
      <trkpt lat="43.5963" lon="6.8582">
        <ele>289</ele>
        <time>2012-03-11T11:27:01.000Z</time>
      </trkpt>
      <trkpt lat="43.59615" lon="6.85832">
        <ele>290</ele>
        <time>2012-03-11T11:27:08.000Z</time>
      </trkpt>
      <trkpt lat="43.59602" lon="6.8584">
        <ele>288.60000610352</ele>
        <time>2012-03-11T11:27:14.000Z</time>
      </trkpt>
      <trkpt lat="43.59586" lon="6.85855">
        <ele>288</ele>
        <time>2012-03-11T11:27:21.000Z</time>
      </trkpt>
      <trkpt lat="43.59578" lon="6.85875">
        <ele>289.20001220703</ele>
        <time>2012-03-11T11:27:27.000Z</time>
      </trkpt>
      <trkpt lat="43.5957" lon="6.85895">
        <ele>291.20001220703</ele>
        <time>2012-03-11T11:27:33.000Z</time>
      </trkpt>
      <trkpt lat="43.59555" lon="6.8591">
        <ele>292.39999389648</ele>
        <time>2012-03-11T11:27:40.000Z</time>
      </trkpt>
      <trkpt lat="43.59543" lon="6.85923">
        <ele>292</ele>
        <time>2012-03-11T11:27:46.000Z</time>
      </trkpt>
      <trkpt lat="43.59529" lon="6.85933">
        <ele>290.20001220703</ele>
        <time>2012-03-11T11:27:52.000Z</time>
      </trkpt>
      <trkpt lat="43.59519" lon="6.85941">
        <ele>289.20001220703</ele>
        <time>2012-03-11T11:27:57.000Z</time>
      </trkpt>
      <trkpt lat="43.59504" lon="6.85953">
        <ele>288.20001220703</ele>
        <time>2012-03-11T11:28:04.000Z</time>
      </trkpt>
      <trkpt lat="43.59487" lon="6.85966">
        <ele>289.60000610352</ele>
        <time>2012-03-11T11:28:11.000Z</time>
      </trkpt>
      <trkpt lat="43.59473" lon="6.85977">
        <ele>291.79998779297</ele>
        <time>2012-03-11T11:28:17.000Z</time>
      </trkpt>
      <trkpt lat="43.59457" lon="6.85994">
        <ele>295.20001220703</ele>
        <time>2012-03-11T11:28:25.000Z</time>
      </trkpt>
      <trkpt lat="43.5945" lon="6.86007">
        <ele>295.39999389648</ele>
        <time>2012-03-11T11:28:31.000Z</time>
      </trkpt>
      <trkpt lat="43.59447" lon="6.86018">
        <ele>293.79998779297</ele>
        <time>2012-03-11T11:28:35.000Z</time>
      </trkpt>
      <trkpt lat="43.59439" lon="6.86031">
        <ele>293</ele>
        <time>2012-03-11T11:28:40.000Z</time>
      </trkpt>
      <trkpt lat="43.59432" lon="6.86051">
        <ele>290.60000610352</ele>
        <time>2012-03-11T11:28:46.000Z</time>
      </trkpt>
      <trkpt lat="43.59426" lon="6.86056">
        <ele>291.39999389648</ele>
        <time>2012-03-11T11:28:48.000Z</time>
      </trkpt>
      <trkpt lat="43.5941" lon="6.86071">
        <ele>294</ele>
        <time>2012-03-11T11:28:55.000Z</time>
      </trkpt>
      <trkpt lat="43.59394" lon="6.86091">
        <ele>296.60000610352</ele>
        <time>2012-03-11T11:29:02.000Z</time>
      </trkpt>
      <trkpt lat="43.59389" lon="6.86109">
        <ele>293.79998779297</ele>
        <time>2012-03-11T11:29:08.000Z</time>
      </trkpt>
      <trkpt lat="43.59386" lon="6.86126">
        <ele>290.60000610352</ele>
        <time>2012-03-11T11:29:13.000Z</time>
      </trkpt>
      <trkpt lat="43.59382" lon="6.8614">
        <ele>288.60000610352</ele>
        <time>2012-03-11T11:29:18.000Z</time>
      </trkpt>
      <trkpt lat="43.59376" lon="6.86163">
        <ele>284.60000610352</ele>
        <time>2012-03-11T11:29:26.000Z</time>
      </trkpt>
      <trkpt lat="43.59373" lon="6.8617">
        <ele>284.20001220703</ele>
        <time>2012-03-11T11:29:29.000Z</time>
      </trkpt>
      <trkpt lat="43.59364" lon="6.86183">
        <ele>284</ele>
        <time>2012-03-11T11:29:36.000Z</time>
      </trkpt>
      <trkpt lat="43.59357" lon="6.86191">
        <ele>284.79998779297</ele>
        <time>2012-03-11T11:29:40.000Z</time>
      </trkpt>
      <trkpt lat="43.59338" lon="6.86209">
        <ele>287.39999389648</ele>
        <time>2012-03-11T11:29:46.000Z</time>
      </trkpt>
      <trkpt lat="43.59328" lon="6.86219">
        <ele>288.20001220703</ele>
        <time>2012-03-11T11:29:50.000Z</time>
      </trkpt>
      <trkpt lat="43.59323" lon="6.86236">
        <ele>285.39999389648</ele>
        <time>2012-03-11T11:29:55.000Z</time>
      </trkpt>
      <trkpt lat="43.59305" lon="6.86254">
        <ele>288.60000610352</ele>
        <time>2012-03-11T11:30:00.000Z</time>
      </trkpt>
      <trkpt lat="43.59292" lon="6.86265">
        <ele>292.60000610352</ele>
        <time>2012-03-11T11:30:03.000Z</time>
      </trkpt>
      <trkpt lat="43.59282" lon="6.86275">
        <ele>295.79998779297</ele>
        <time>2012-03-11T11:30:06.000Z</time>
      </trkpt>
      <trkpt lat="43.59273" lon="6.86282">
        <ele>299.20001220703</ele>
        <time>2012-03-11T11:30:08.000Z</time>
      </trkpt>
      <trkpt lat="43.5925" lon="6.863">
        <ele>307.60000610352</ele>
        <time>2012-03-11T11:30:12.000Z</time>
      </trkpt>
      <trkpt lat="43.59234" lon="6.86325">
        <ele>305</ele>
        <time>2012-03-11T11:30:18.000Z</time>
      </trkpt>
      <trkpt lat="43.59224" lon="6.8635">
        <ele>305.20001220703</ele>
        <time>2012-03-11T11:30:24.000Z</time>
      </trkpt>
      <trkpt lat="43.59223" lon="6.86354">
        <ele>305.39999389648</ele>
        <time>2012-03-11T11:30:25.000Z</time>
      </trkpt>
      <trkpt lat="43.59222" lon="6.8638">
        <ele>307.20001220703</ele>
        <time>2012-03-11T11:30:32.000Z</time>
      </trkpt>
      <trkpt lat="43.59225" lon="6.86402">
        <ele>308.60000610352</ele>
        <time>2012-03-11T11:30:38.000Z</time>
      </trkpt>
      <trkpt lat="43.59228" lon="6.86428">
        <ele>311.20001220703</ele>
        <time>2012-03-11T11:30:45.000Z</time>
      </trkpt>
      <trkpt lat="43.59232" lon="6.86461">
        <ele>315.60000610352</ele>
        <time>2012-03-11T11:30:54.000Z</time>
      </trkpt>
      <trkpt lat="43.59236" lon="6.86492">
        <ele>319.39999389648</ele>
        <time>2012-03-11T11:31:02.000Z</time>
      </trkpt>
      <trkpt lat="43.5924" lon="6.86522">
        <ele>323.60000610352</ele>
        <time>2012-03-11T11:31:10.000Z</time>
      </trkpt>
      <trkpt lat="43.59251" lon="6.86544">
        <ele>325.60000610352</ele>
        <time>2012-03-11T11:31:17.000Z</time>
      </trkpt>
      <trkpt lat="43.59268" lon="6.86573">
        <ele>327.20001220703</ele>
        <time>2012-03-11T11:31:26.000Z</time>
      </trkpt>
      <trkpt lat="43.59279" lon="6.866">
        <ele>330</ele>
        <time>2012-03-11T11:31:34.000Z</time>
      </trkpt>
      <trkpt lat="43.59295" lon="6.86609">
        <ele>329.39999389648</ele>
        <time>2012-03-11T11:31:40.000Z</time>
      </trkpt>
      <trkpt lat="43.59316" lon="6.86614">
        <ele>327.79998779297</ele>
        <time>2012-03-11T11:31:47.000Z</time>
      </trkpt>
      <trkpt lat="43.59336" lon="6.86631">
        <ele>329.39999389648</ele>
        <time>2012-03-11T11:31:55.000Z</time>
      </trkpt>
      <trkpt lat="43.59354" lon="6.86645">
        <ele>329.60000610352</ele>
        <time>2012-03-11T11:32:02.000Z</time>
      </trkpt>
      <trkpt lat="43.59366" lon="6.8665">
        <ele>328.60000610352</ele>
        <time>2012-03-11T11:32:07.000Z</time>
      </trkpt>
      <trkpt lat="43.59388" lon="6.86668">
        <ele>328.60000610352</ele>
        <time>2012-03-11T11:32:15.000Z</time>
      </trkpt>
      <trkpt lat="43.59395" lon="6.86688">
        <ele>328.20001220703</ele>
        <time>2012-03-11T11:32:20.000Z</time>
      </trkpt>
      <trkpt lat="43.59391" lon="6.86711">
        <ele>330.39999389648</ele>
        <time>2012-03-11T11:32:25.000Z</time>
      </trkpt>
      <trkpt lat="43.59382" lon="6.86729">
        <ele>333.79998779297</ele>
        <time>2012-03-11T11:32:30.000Z</time>
      </trkpt>
      <trkpt lat="43.59373" lon="6.86748">
        <ele>338</ele>
        <time>2012-03-11T11:32:36.000Z</time>
      </trkpt>
      <trkpt lat="43.59362" lon="6.86762">
        <ele>342</ele>
        <time>2012-03-11T11:32:41.000Z</time>
      </trkpt>
      <trkpt lat="43.59358" lon="6.8678">
        <ele>343.60000610352</ele>
        <time>2012-03-11T11:32:46.000Z</time>
      </trkpt>
      <trkpt lat="43.5936" lon="6.86801">
        <ele>343.20001220703</ele>
        <time>2012-03-11T11:32:51.000Z</time>
      </trkpt>
      <trkpt lat="43.59356" lon="6.8682">
        <ele>345.39999389648</ele>
        <time>2012-03-11T11:32:56.000Z</time>
      </trkpt>
      <trkpt lat="43.59355" lon="6.86845">
        <ele>346.60000610352</ele>
        <time>2012-03-11T11:33:02.000Z</time>
      </trkpt>
      <trkpt lat="43.59352" lon="6.86868">
        <ele>349.60000610352</ele>
        <time>2012-03-11T11:33:07.000Z</time>
      </trkpt>
      <trkpt lat="43.59345" lon="6.86888">
        <ele>354</ele>
        <time>2012-03-11T11:33:13.000Z</time>
      </trkpt>
      <trkpt lat="43.59348" lon="6.86901">
        <ele>353.39999389648</ele>
        <time>2012-03-11T11:33:17.000Z</time>
      </trkpt>
      <trkpt lat="43.59357" lon="6.86911">
        <ele>350</ele>
        <time>2012-03-11T11:33:22.000Z</time>
      </trkpt>
      <trkpt lat="43.59368" lon="6.86933">
        <ele>345.39999389648</ele>
        <time>2012-03-11T11:33:28.000Z</time>
      </trkpt>
      <trkpt lat="43.59375" lon="6.8696">
        <ele>342.79998779297</ele>
        <time>2012-03-11T11:33:34.000Z</time>
      </trkpt>
      <trkpt lat="43.59377" lon="6.86998">
        <ele>342.39999389648</ele>
        <time>2012-03-11T11:33:41.000Z</time>
      </trkpt>
      <trkpt lat="43.59368" lon="6.87012">
        <ele>344.39999389648</ele>
        <time>2012-03-11T11:33:45.000Z</time>
      </trkpt>
      <trkpt lat="43.59334" lon="6.87035">
        <ele>355.79998779297</ele>
        <time>2012-03-11T11:33:56.000Z</time>
      </trkpt>
      <trkpt lat="43.59317" lon="6.87051">
        <ele>359.79998779297</ele>
        <time>2012-03-11T11:34:03.000Z</time>
      </trkpt>
      <trkpt lat="43.59314" lon="6.87068">
        <ele>358.39999389648</ele>
        <time>2012-03-11T11:34:08.000Z</time>
      </trkpt>
      <trkpt lat="43.59312" lon="6.87078">
        <ele>358.20001220703</ele>
        <time>2012-03-11T11:34:11.000Z</time>
      </trkpt>
      <trkpt lat="43.59315" lon="6.871">
        <ele>354</ele>
        <time>2012-03-11T11:34:17.000Z</time>
      </trkpt>
      <trkpt lat="43.59314" lon="6.87117">
        <ele>352.79998779297</ele>
        <time>2012-03-11T11:34:21.000Z</time>
      </trkpt>
      <trkpt lat="43.59315" lon="6.87143">
        <ele>349.60000610352</ele>
        <time>2012-03-11T11:34:26.000Z</time>
      </trkpt>
      <trkpt lat="43.59315" lon="6.87171">
        <ele>346.79998779297</ele>
        <time>2012-03-11T11:34:31.000Z</time>
      </trkpt>
      <trkpt lat="43.59315" lon="6.87183">
        <ele>345.60000610352</ele>
        <time>2012-03-11T11:34:33.000Z</time>
      </trkpt>
      <trkpt lat="43.59301" lon="6.87208">
        <ele>347.39999389648</ele>
        <time>2012-03-11T11:34:38.000Z</time>
      </trkpt>
      <trkpt lat="43.59288" lon="6.87218">
        <ele>350.39999389648</ele>
        <time>2012-03-11T11:34:41.000Z</time>
      </trkpt>
      <trkpt lat="43.59262" lon="6.87239">
        <ele>356.20001220703</ele>
        <time>2012-03-11T11:34:49.000Z</time>
      </trkpt>
      <trkpt lat="43.59235" lon="6.87253">
        <ele>361</ele>
        <time>2012-03-11T11:34:57.000Z</time>
      </trkpt>
      <trkpt lat="43.59215" lon="6.87258">
        <ele>365.20001220703</ele>
        <time>2012-03-11T11:35:03.000Z</time>
      </trkpt>
      <trkpt lat="43.59194" lon="6.87268">
        <ele>368.39999389648</ele>
        <time>2012-03-11T11:35:10.000Z</time>
      </trkpt>
      <trkpt lat="43.59177" lon="6.87283">
        <ele>369.39999389648</ele>
        <time>2012-03-11T11:35:16.000Z</time>
      </trkpt>
      <trkpt lat="43.59164" lon="6.87305">
        <ele>367.60000610352</ele>
        <time>2012-03-11T11:35:22.000Z</time>
      </trkpt>
      <trkpt lat="43.5916" lon="6.87327">
        <ele>363</ele>
        <time>2012-03-11T11:35:27.000Z</time>
      </trkpt>
      <trkpt lat="43.59148" lon="6.87356">
        <ele>361.39999389648</ele>
        <time>2012-03-11T11:35:33.000Z</time>
      </trkpt>
      <trkpt lat="43.59133" lon="6.87391">
        <ele>361</ele>
        <time>2012-03-11T11:35:41.000Z</time>
      </trkpt>
      <trkpt lat="43.59128" lon="6.87417">
        <ele>360.20001220703</ele>
        <time>2012-03-11T11:35:47.000Z</time>
      </trkpt>
      <trkpt lat="43.59125" lon="6.87445">
        <ele>361</ele>
        <time>2012-03-11T11:35:53.000Z</time>
      </trkpt>
      <trkpt lat="43.5912" lon="6.87481">
        <ele>362.60000610352</ele>
        <time>2012-03-11T11:36:00.000Z</time>
      </trkpt>
      <trkpt lat="43.59114" lon="6.87503">
        <ele>364.20001220703</ele>
        <time>2012-03-11T11:36:05.000Z</time>
      </trkpt>
      <trkpt lat="43.59103" lon="6.8752">
        <ele>365.60000610352</ele>
        <time>2012-03-11T11:36:11.000Z</time>
      </trkpt>
      <trkpt lat="43.59091" lon="6.87533">
        <ele>367.60000610352</ele>
        <time>2012-03-11T11:36:17.000Z</time>
      </trkpt>
      <trkpt lat="43.59072" lon="6.87547">
        <ele>369.20001220703</ele>
        <time>2012-03-11T11:36:26.000Z</time>
      </trkpt>
      <trkpt lat="43.59065" lon="6.87554">
        <ele>369.39999389648</ele>
        <time>2012-03-11T11:36:32.000Z</time>
      </trkpt>
      <trkpt lat="43.5906" lon="6.87558">
        <ele>369.60000610352</ele>
        <time>2012-03-11T11:36:35.000Z</time>
      </trkpt>
      <trkpt lat="43.59055" lon="6.87563">
        <ele>370</ele>
        <time>2012-03-11T11:36:41.000Z</time>
      </trkpt>
      <trkpt lat="43.59052" lon="6.87561">
        <ele>370.20001220703</ele>
        <time>2012-03-11T11:36:51.000Z</time>
      </trkpt>
      <trkpt lat="43.59052" lon="6.87561">
        <ele>370.20001220703</ele>
        <time>2012-03-11T11:37:02.000Z</time>
      </trkpt>
      <trkpt lat="43.5905" lon="6.87565">
        <ele>370.39999389648</ele>
        <time>2012-03-11T11:37:08.000Z</time>
      </trkpt>
      <trkpt lat="43.59041" lon="6.87576">
        <ele>371.39999389648</ele>
        <time>2012-03-11T11:37:14.000Z</time>
      </trkpt>
      <trkpt lat="43.59031" lon="6.8759">
        <ele>372.39999389648</ele>
        <time>2012-03-11T11:37:21.000Z</time>
      </trkpt>
      <trkpt lat="43.59025" lon="6.87593">
        <ele>372.79998779297</ele>
        <time>2012-03-11T11:37:26.000Z</time>
      </trkpt>
      <trkpt lat="43.5902" lon="6.87594">
        <ele>373.60000610352</ele>
        <time>2012-03-11T11:37:33.000Z</time>
      </trkpt>
      <trkpt lat="43.59017" lon="6.87595">
        <ele>374</ele>
        <time>2012-03-11T11:37:40.000Z</time>
      </trkpt>
      <trkpt lat="43.59017" lon="6.87595">
        <ele>373.79998779297</ele>
        <time>2012-03-11T11:37:46.000Z</time>
      </trkpt>
      <trkpt lat="43.5902" lon="6.87598">
        <ele>373.20001220703</ele>
        <time>2012-03-11T11:37:49.000Z</time>
      </trkpt>
      <trkpt lat="43.59014" lon="6.87608">
        <ele>373.39999389648</ele>
        <time>2012-03-11T11:37:53.000Z</time>
      </trkpt>
      <trkpt lat="43.58999" lon="6.87628">
        <ele>374.39999389648</ele>
        <time>2012-03-11T11:38:01.000Z</time>
      </trkpt>
      <trkpt lat="43.58986" lon="6.87646">
        <ele>375.60000610352</ele>
        <time>2012-03-11T11:38:07.000Z</time>
      </trkpt>
      <trkpt lat="43.58969" lon="6.87666">
        <ele>377.79998779297</ele>
        <time>2012-03-11T11:38:12.000Z</time>
      </trkpt>
      <trkpt lat="43.58958" lon="6.87684">
        <ele>377</ele>
        <time>2012-03-11T11:38:16.000Z</time>
      </trkpt>
      <trkpt lat="43.58946" lon="6.87711">
        <ele>375.39999389648</ele>
        <time>2012-03-11T11:38:21.000Z</time>
      </trkpt>
      <trkpt lat="43.58944" lon="6.87729">
        <ele>373.20001220703</ele>
        <time>2012-03-11T11:38:23.000Z</time>
      </trkpt>
      <trkpt lat="43.5894" lon="6.87754">
        <ele>370</ele>
        <time>2012-03-11T11:38:25.000Z</time>
      </trkpt>
      <trkpt lat="43.58924" lon="6.87786">
        <ele>368.20001220703</ele>
        <time>2012-03-11T11:38:29.000Z</time>
      </trkpt>
      <trkpt lat="43.58889" lon="6.87827">
        <ele>370.60000610352</ele>
        <time>2012-03-11T11:38:35.000Z</time>
      </trkpt>
      <trkpt lat="43.58883" lon="6.87836">
        <ele>371.39999389648</ele>
        <time>2012-03-11T11:38:36.000Z</time>
      </trkpt>
      <trkpt lat="43.58874" lon="6.87866">
        <ele>374.39999389648</ele>
        <time>2012-03-11T11:38:40.000Z</time>
      </trkpt>
      <trkpt lat="43.58886" lon="6.8789">
        <ele>369.60000610352</ele>
        <time>2012-03-11T11:38:43.000Z</time>
      </trkpt>
      <trkpt lat="43.58906" lon="6.87952">
        <ele>355.20001220703</ele>
        <time>2012-03-11T11:38:49.000Z</time>
      </trkpt>
      <trkpt lat="43.58895" lon="6.8798">
        <ele>354.79998779297</ele>
        <time>2012-03-11T11:38:52.000Z</time>
      </trkpt>
      <trkpt lat="43.5889" lon="6.87988">
        <ele>355.60000610352</ele>
        <time>2012-03-11T11:38:53.000Z</time>
      </trkpt>
      <trkpt lat="43.58863" lon="6.88024">
        <ele>352.79998779297</ele>
        <time>2012-03-11T11:38:57.000Z</time>
      </trkpt>
      <trkpt lat="43.58822" lon="6.88052">
        <ele>352.39999389648</ele>
        <time>2012-03-11T11:39:02.000Z</time>
      </trkpt>
      <trkpt lat="43.58759" lon="6.88097">
        <ele>354.79998779297</ele>
        <time>2012-03-11T11:39:09.000Z</time>
      </trkpt>
      <trkpt lat="43.5875" lon="6.88103">
        <ele>356.39999389648</ele>
        <time>2012-03-11T11:39:10.000Z</time>
      </trkpt>
      <trkpt lat="43.58727" lon="6.88139">
        <ele>359.79998779297</ele>
        <time>2012-03-11T11:39:14.000Z</time>
      </trkpt>
      <trkpt lat="43.5872" lon="6.88163">
        <ele>358.79998779297</ele>
        <time>2012-03-11T11:39:17.000Z</time>
      </trkpt>
      <trkpt lat="43.58732" lon="6.8819">
        <ele>353.20001220703</ele>
        <time>2012-03-11T11:39:19.000Z</time>
      </trkpt>
      <trkpt lat="43.58751" lon="6.88224">
        <ele>347</ele>
        <time>2012-03-11T11:39:22.000Z</time>
      </trkpt>
      <trkpt lat="43.58784" lon="6.88253">
        <ele>333</ele>
        <time>2012-03-11T11:39:25.000Z</time>
      </trkpt>
      <trkpt lat="43.58809" lon="6.88298">
        <ele>322.20001220703</ele>
        <time>2012-03-11T11:39:29.000Z</time>
      </trkpt>
      <trkpt lat="43.58812" lon="6.88339">
        <ele>320.79998779297</ele>
        <time>2012-03-11T11:39:32.000Z</time>
      </trkpt>
      <trkpt lat="43.588" lon="6.88358">
        <ele>322</ele>
        <time>2012-03-11T11:39:34.000Z</time>
      </trkpt>
      <trkpt lat="43.58795" lon="6.88368">
        <ele>322</ele>
        <time>2012-03-11T11:39:35.000Z</time>
      </trkpt>
      <trkpt lat="43.58771" lon="6.88434">
        <ele>314.60000610352</ele>
        <time>2012-03-11T11:39:41.000Z</time>
      </trkpt>
      <trkpt lat="43.58741" lon="6.88462">
        <ele>315.60000610352</ele>
        <time>2012-03-11T11:39:45.000Z</time>
      </trkpt>
      <trkpt lat="43.5872" lon="6.8848">
        <ele>314.79998779297</ele>
        <time>2012-03-11T11:39:48.000Z</time>
      </trkpt>
      <trkpt lat="43.58685" lon="6.88492">
        <ele>318.79998779297</ele>
        <time>2012-03-11T11:39:52.000Z</time>
      </trkpt>
      <trkpt lat="43.58655" lon="6.88507">
        <ele>320</ele>
        <time>2012-03-11T11:39:56.000Z</time>
      </trkpt>
      <trkpt lat="43.58642" lon="6.88521">
        <ele>318.20001220703</ele>
        <time>2012-03-11T11:39:58.000Z</time>
      </trkpt>
      <trkpt lat="43.58625" lon="6.88546">
        <ele>313</ele>
        <time>2012-03-11T11:40:01.000Z</time>
      </trkpt>
      <trkpt lat="43.58617" lon="6.88566">
        <ele>307.39999389648</ele>
        <time>2012-03-11T11:40:03.000Z</time>
      </trkpt>
      <trkpt lat="43.58595" lon="6.88595">
        <ele>302.79998779297</ele>
        <time>2012-03-11T11:40:07.000Z</time>
      </trkpt>
      <trkpt lat="43.58547" lon="6.88625">
        <ele>299</ele>
        <time>2012-03-11T11:40:13.000Z</time>
      </trkpt>
      <trkpt lat="43.58494" lon="6.8864">
        <ele>301.79998779297</ele>
        <time>2012-03-11T11:40:19.000Z</time>
      </trkpt>
      <trkpt lat="43.58486" lon="6.88642">
        <ele>301</ele>
        <time>2012-03-11T11:40:20.000Z</time>
      </trkpt>
      <trkpt lat="43.58464" lon="6.88659">
        <ele>297.20001220703</ele>
        <time>2012-03-11T11:40:24.000Z</time>
      </trkpt>
      <trkpt lat="43.58463" lon="6.88674">
        <ele>296.20001220703</ele>
        <time>2012-03-11T11:40:26.000Z</time>
      </trkpt>
      <trkpt lat="43.58458" lon="6.88714">
        <ele>296.20001220703</ele>
        <time>2012-03-11T11:40:32.000Z</time>
      </trkpt>
      <trkpt lat="43.58457" lon="6.8872">
        <ele>296.39999389648</ele>
        <time>2012-03-11T11:40:34.000Z</time>
      </trkpt>
      <trkpt lat="43.58457" lon="6.88752">
        <ele>296.79998779297</ele>
        <time>2012-03-11T11:40:42.000Z</time>
      </trkpt>
      <trkpt lat="43.58453" lon="6.88774">
        <ele>299</ele>
        <time>2012-03-11T11:40:48.000Z</time>
      </trkpt>
      <trkpt lat="43.58438" lon="6.8879">
        <ele>302.39999389648</ele>
        <time>2012-03-11T11:40:56.000Z</time>
      </trkpt>
      <trkpt lat="43.58422" lon="6.88801">
        <ele>306.39999389648</ele>
        <time>2012-03-11T11:41:04.000Z</time>
      </trkpt>
      <trkpt lat="43.58407" lon="6.88819">
        <ele>309.79998779297</ele>
        <time>2012-03-11T11:41:13.000Z</time>
      </trkpt>
      <trkpt lat="43.58393" lon="6.88833">
        <ele>311.60000610352</ele>
        <time>2012-03-11T11:41:21.000Z</time>
      </trkpt>
      <trkpt lat="43.5838" lon="6.88837">
        <ele>312.20001220703</ele>
        <time>2012-03-11T11:41:28.000Z</time>
      </trkpt>
      <trkpt lat="43.58365" lon="6.88844">
        <ele>313.20001220703</ele>
        <time>2012-03-11T11:41:36.000Z</time>
      </trkpt>
      <trkpt lat="43.58353" lon="6.88859">
        <ele>315.79998779297</ele>
        <time>2012-03-11T11:41:43.000Z</time>
      </trkpt>
      <trkpt lat="43.58347" lon="6.88879">
        <ele>319.39999389648</ele>
        <time>2012-03-11T11:41:51.000Z</time>
      </trkpt>
      <trkpt lat="43.58345" lon="6.88895">
        <ele>322.20001220703</ele>
        <time>2012-03-11T11:41:58.000Z</time>
      </trkpt>
      <trkpt lat="43.5834" lon="6.88913">
        <ele>325.39999389648</ele>
        <time>2012-03-11T11:42:05.000Z</time>
      </trkpt>
      <trkpt lat="43.58338" lon="6.88919">
        <ele>326.39999389648</ele>
        <time>2012-03-11T11:42:08.000Z</time>
      </trkpt>
      <trkpt lat="43.58334" lon="6.88931">
        <ele>328.20001220703</ele>
        <time>2012-03-11T11:42:14.000Z</time>
      </trkpt>
      <trkpt lat="43.58333" lon="6.88936">
        <ele>328.79998779297</ele>
        <time>2012-03-11T11:42:16.000Z</time>
      </trkpt>
      <trkpt lat="43.58325" lon="6.88957">
        <ele>332.60000610352</ele>
        <time>2012-03-11T11:42:24.000Z</time>
      </trkpt>
      <trkpt lat="43.58324" lon="6.88966">
        <ele>334</ele>
        <time>2012-03-11T11:42:28.000Z</time>
      </trkpt>
      <trkpt lat="43.58331" lon="6.8897">
        <ele>334</ele>
        <time>2012-03-11T11:42:34.000Z</time>
      </trkpt>
      <trkpt lat="43.58335" lon="6.88967">
        <ele>333.20001220703</ele>
        <time>2012-03-11T11:42:38.000Z</time>
      </trkpt>
      <trkpt lat="43.58336" lon="6.88966">
        <ele>333</ele>
        <time>2012-03-11T11:42:39.000Z</time>
      </trkpt>
      <trkpt lat="43.58342" lon="6.8895">
        <ele>330.79998779297</ele>
        <time>2012-03-11T11:42:47.000Z</time>
      </trkpt>
      <trkpt lat="43.58346" lon="6.88933">
        <ele>328.39999389648</ele>
        <time>2012-03-11T11:42:54.000Z</time>
      </trkpt>
      <trkpt lat="43.58353" lon="6.88916">
        <ele>326</ele>
        <time>2012-03-11T11:43:01.000Z</time>
      </trkpt>
      <trkpt lat="43.58363" lon="6.88912">
        <ele>325.20001220703</ele>
        <time>2012-03-11T11:43:06.000Z</time>
      </trkpt>
      <trkpt lat="43.58376" lon="6.88911">
        <ele>325</ele>
        <time>2012-03-11T11:43:13.000Z</time>
      </trkpt>
      <trkpt lat="43.58382" lon="6.88911">
        <ele>325</ele>
        <time>2012-03-11T11:43:17.000Z</time>
      </trkpt>
      <trkpt lat="43.58391" lon="6.88919">
        <ele>326.39999389648</ele>
        <time>2012-03-11T11:43:25.000Z</time>
      </trkpt>
      <trkpt lat="43.58396" lon="6.88934">
        <ele>328.60000610352</ele>
        <time>2012-03-11T11:43:33.000Z</time>
      </trkpt>
      <trkpt lat="43.58393" lon="6.88951">
        <ele>330.79998779297</ele>
        <time>2012-03-11T11:43:41.000Z</time>
      </trkpt>
      <trkpt lat="43.58386" lon="6.88967">
        <ele>333.20001220703</ele>
        <time>2012-03-11T11:43:49.000Z</time>
      </trkpt>
      <trkpt lat="43.58382" lon="6.88981">
        <ele>335.39999389648</ele>
        <time>2012-03-11T11:43:56.000Z</time>
      </trkpt>
      <trkpt lat="43.58378" lon="6.88993">
        <ele>337</ele>
        <time>2012-03-11T11:44:02.000Z</time>
      </trkpt>
      <trkpt lat="43.58381" lon="6.89008">
        <ele>339.39999389648</ele>
        <time>2012-03-11T11:44:09.000Z</time>
      </trkpt>
      <trkpt lat="43.58381" lon="6.89016">
        <ele>341</ele>
        <time>2012-03-11T11:44:14.000Z</time>
      </trkpt>
      <trkpt lat="43.58381" lon="6.89023">
        <ele>342.20001220703</ele>
        <time>2012-03-11T11:44:18.000Z</time>
      </trkpt>
      <trkpt lat="43.58379" lon="6.89029">
        <ele>343.39999389648</ele>
        <time>2012-03-11T11:44:23.000Z</time>
      </trkpt>
      <trkpt lat="43.58379" lon="6.89039">
        <ele>345.20001220703</ele>
        <time>2012-03-11T11:44:27.000Z</time>
      </trkpt>
      <trkpt lat="43.58374" lon="6.89051">
        <ele>347.79998779297</ele>
        <time>2012-03-11T11:44:33.000Z</time>
      </trkpt>
      <trkpt lat="43.58373" lon="6.89057">
        <ele>349</ele>
        <time>2012-03-11T11:44:41.000Z</time>
      </trkpt>
      <trkpt lat="43.58371" lon="6.89061">
        <ele>350</ele>
        <time>2012-03-11T11:44:47.000Z</time>
      </trkpt>
      <trkpt lat="43.58365" lon="6.89065">
        <ele>351.39999389648</ele>
        <time>2012-03-11T11:44:54.000Z</time>
      </trkpt>
      <trkpt lat="43.58359" lon="6.89069">
        <ele>352.79998779297</ele>
        <time>2012-03-11T11:45:00.000Z</time>
      </trkpt>
      <trkpt lat="43.58355" lon="6.89071">
        <ele>353.79998779297</ele>
        <time>2012-03-11T11:45:06.000Z</time>
      </trkpt>
      <trkpt lat="43.5835" lon="6.89074">
        <ele>355</ele>
        <time>2012-03-11T11:45:14.000Z</time>
      </trkpt>
      <trkpt lat="43.58346" lon="6.89076">
        <ele>355.79998779297</ele>
        <time>2012-03-11T11:45:22.000Z</time>
      </trkpt>
      <trkpt lat="43.58338" lon="6.89077">
        <ele>357</ele>
        <time>2012-03-11T11:45:28.000Z</time>
      </trkpt>
      <trkpt lat="43.58333" lon="6.89079">
        <ele>358</ele>
        <time>2012-03-11T11:45:32.000Z</time>
      </trkpt>
      <trkpt lat="43.58329" lon="6.8908">
        <ele>358.79998779297</ele>
        <time>2012-03-11T11:45:35.000Z</time>
      </trkpt>
      <trkpt lat="43.58327" lon="6.89079">
        <ele>359.20001220703</ele>
        <time>2012-03-11T11:45:37.000Z</time>
      </trkpt>
      <trkpt lat="43.5832" lon="6.89079">
        <ele>360.39999389648</ele>
        <time>2012-03-11T11:45:41.000Z</time>
      </trkpt>
      <trkpt lat="43.58308" lon="6.8908">
        <ele>362.79998779297</ele>
        <time>2012-03-11T11:45:47.000Z</time>
      </trkpt>
      <trkpt lat="43.58302" lon="6.89079">
        <ele>363.79998779297</ele>
        <time>2012-03-11T11:45:50.000Z</time>
      </trkpt>
      <trkpt lat="43.58294" lon="6.89077">
        <ele>364.79998779297</ele>
        <time>2012-03-11T11:45:56.000Z</time>
      </trkpt>
      <trkpt lat="43.58289" lon="6.89074">
        <ele>365.20001220703</ele>
        <time>2012-03-11T11:45:59.000Z</time>
      </trkpt>
      <trkpt lat="43.58281" lon="6.8907">
        <ele>365.39999389648</ele>
        <time>2012-03-11T11:46:05.000Z</time>
      </trkpt>
      <trkpt lat="43.5827" lon="6.89064">
        <ele>365.79998779297</ele>
        <time>2012-03-11T11:46:11.000Z</time>
      </trkpt>
      <trkpt lat="43.58267" lon="6.89063">
        <ele>366</ele>
        <time>2012-03-11T11:46:15.000Z</time>
      </trkpt>
      <trkpt lat="43.58263" lon="6.89057">
        <ele>365.20001220703</ele>
        <time>2012-03-11T11:46:21.000Z</time>
      </trkpt>
      <trkpt lat="43.58258" lon="6.89052">
        <ele>364.39999389648</ele>
        <time>2012-03-11T11:46:28.000Z</time>
      </trkpt>
      <trkpt lat="43.58251" lon="6.89048">
        <ele>364.79998779297</ele>
        <time>2012-03-11T11:46:34.000Z</time>
      </trkpt>
      <trkpt lat="43.58247" lon="6.89047">
        <ele>364.79998779297</ele>
        <time>2012-03-11T11:46:37.000Z</time>
      </trkpt>
      <trkpt lat="43.58242" lon="6.89046">
        <ele>365</ele>
        <time>2012-03-11T11:46:42.000Z</time>
      </trkpt>
      <trkpt lat="43.5823" lon="6.89046">
        <ele>365.79998779297</ele>
        <time>2012-03-11T11:46:49.000Z</time>
      </trkpt>
      <trkpt lat="43.58217" lon="6.89046">
        <ele>367</ele>
        <time>2012-03-11T11:46:56.000Z</time>
      </trkpt>
      <trkpt lat="43.58201" lon="6.89046">
        <ele>368.39999389648</ele>
        <time>2012-03-11T11:47:04.000Z</time>
      </trkpt>
      <trkpt lat="43.58185" lon="6.89047">
        <ele>370</ele>
        <time>2012-03-11T11:47:10.000Z</time>
      </trkpt>
      <trkpt lat="43.58161" lon="6.8905">
        <ele>372</ele>
        <time>2012-03-11T11:47:16.000Z</time>
      </trkpt>
      <trkpt lat="43.58142" lon="6.89049">
        <ele>370.39999389648</ele>
        <time>2012-03-11T11:47:21.000Z</time>
      </trkpt>
      <trkpt lat="43.58121" lon="6.89048">
        <ele>368.79998779297</ele>
        <time>2012-03-11T11:47:26.000Z</time>
      </trkpt>
      <trkpt lat="43.58117" lon="6.89047">
        <ele>368.20001220703</ele>
        <time>2012-03-11T11:47:28.000Z</time>
      </trkpt>
      <trkpt lat="43.58104" lon="6.89052">
        <ele>368.39999389648</ele>
        <time>2012-03-11T11:47:33.000Z</time>
      </trkpt>
      <trkpt lat="43.58102" lon="6.89054">
        <ele>368.79998779297</ele>
        <time>2012-03-11T11:47:34.000Z</time>
      </trkpt>
      <trkpt lat="43.58095" lon="6.89061">
        <ele>369.60000610352</ele>
        <time>2012-03-11T11:47:38.000Z</time>
      </trkpt>
      <trkpt lat="43.5809" lon="6.89068">
        <ele>370.60000610352</ele>
        <time>2012-03-11T11:47:45.000Z</time>
      </trkpt>
      <trkpt lat="43.58082" lon="6.89086">
        <ele>373</ele>
        <time>2012-03-11T11:47:49.000Z</time>
      </trkpt>
      <trkpt lat="43.58071" lon="6.89111">
        <ele>374.60000610352</ele>
        <time>2012-03-11T11:47:54.000Z</time>
      </trkpt>
      <trkpt lat="43.58065" lon="6.89124">
        <ele>375.79998779297</ele>
        <time>2012-03-11T11:47:57.000Z</time>
      </trkpt>
      <trkpt lat="43.58052" lon="6.89152">
        <ele>378.79998779297</ele>
        <time>2012-03-11T11:48:03.000Z</time>
      </trkpt>
      <trkpt lat="43.58041" lon="6.8917">
        <ele>380.60000610352</ele>
        <time>2012-03-11T11:48:08.000Z</time>
      </trkpt>
      <trkpt lat="43.5803" lon="6.89168">
        <ele>378.39999389648</ele>
        <time>2012-03-11T11:48:13.000Z</time>
      </trkpt>
      <trkpt lat="43.58028" lon="6.89167">
        <ele>377.60000610352</ele>
        <time>2012-03-11T11:48:14.000Z</time>
      </trkpt>
      <trkpt lat="43.58015" lon="6.89165">
        <ele>375.20001220703</ele>
        <time>2012-03-11T11:48:20.000Z</time>
      </trkpt>
      <trkpt lat="43.58003" lon="6.89167">
        <ele>373.39999389648</ele>
        <time>2012-03-11T11:48:25.000Z</time>
      </trkpt>
      <trkpt lat="43.57997" lon="6.89169">
        <ele>373.39999389648</ele>
        <time>2012-03-11T11:48:30.000Z</time>
      </trkpt>
      <trkpt lat="43.57991" lon="6.89171">
        <ele>373.60000610352</ele>
        <time>2012-03-11T11:48:35.000Z</time>
      </trkpt>
      <trkpt lat="43.5798" lon="6.89174">
        <ele>373.79998779297</ele>
        <time>2012-03-11T11:48:42.000Z</time>
      </trkpt>
      <trkpt lat="43.57977" lon="6.89175">
        <ele>374</ele>
        <time>2012-03-11T11:48:44.000Z</time>
      </trkpt>
      <trkpt lat="43.57974" lon="6.89179">
        <ele>374.79998779297</ele>
        <time>2012-03-11T11:48:51.000Z</time>
      </trkpt>
      <trkpt lat="43.5797" lon="6.89181">
        <ele>375</ele>
        <time>2012-03-11T11:48:56.000Z</time>
      </trkpt>
      <trkpt lat="43.57965" lon="6.89182">
        <ele>375.20001220703</ele>
        <time>2012-03-11T11:48:59.000Z</time>
      </trkpt>
      <trkpt lat="43.57962" lon="6.89186">
        <ele>376</ele>
        <time>2012-03-11T11:49:03.000Z</time>
      </trkpt>
      <trkpt lat="43.5796" lon="6.89189">
        <ele>376.60000610352</ele>
        <time>2012-03-11T11:49:05.000Z</time>
      </trkpt>
      <trkpt lat="43.57952" lon="6.89196">
        <ele>378</ele>
        <time>2012-03-11T11:49:13.000Z</time>
      </trkpt>
      <trkpt lat="43.57948" lon="6.89198">
        <ele>378.39999389648</ele>
        <time>2012-03-11T11:49:18.000Z</time>
      </trkpt>
      <trkpt lat="43.57947" lon="6.89198">
        <ele>378.39999389648</ele>
        <time>2012-03-11T11:49:19.000Z</time>
      </trkpt>
      <trkpt lat="43.57939" lon="6.89208">
        <ele>380.39999389648</ele>
        <time>2012-03-11T11:49:26.000Z</time>
      </trkpt>
      <trkpt lat="43.57936" lon="6.89215">
        <ele>382.20001220703</ele>
        <time>2012-03-11T11:49:31.000Z</time>
      </trkpt>
      <trkpt lat="43.57931" lon="6.89217">
        <ele>382.39999389648</ele>
        <time>2012-03-11T11:49:36.000Z</time>
      </trkpt>
      <trkpt lat="43.57924" lon="6.89221">
        <ele>383</ele>
        <time>2012-03-11T11:49:41.000Z</time>
      </trkpt>
      <trkpt lat="43.57912" lon="6.89226">
        <ele>384.20001220703</ele>
        <time>2012-03-11T11:49:46.000Z</time>
      </trkpt>
      <trkpt lat="43.57897" lon="6.89235">
        <ele>386.79998779297</ele>
        <time>2012-03-11T11:49:51.000Z</time>
      </trkpt>
      <trkpt lat="43.57879" lon="6.8924">
        <ele>388.39999389648</ele>
        <time>2012-03-11T11:49:57.000Z</time>
      </trkpt>
      <trkpt lat="43.57869" lon="6.89239">
        <ele>388.60000610352</ele>
        <time>2012-03-11T11:50:01.000Z</time>
      </trkpt>
      <trkpt lat="43.57867" lon="6.89239">
        <ele>388.79998779297</ele>
        <time>2012-03-11T11:50:04.000Z</time>
      </trkpt>
      <trkpt lat="43.57865" lon="6.89238">
        <ele>388.60000610352</ele>
        <time>2012-03-11T11:50:07.000Z</time>
      </trkpt>
      <trkpt lat="43.5786" lon="6.89232">
        <ele>387.20001220703</ele>
        <time>2012-03-11T11:50:12.000Z</time>
      </trkpt>
      <trkpt lat="43.57856" lon="6.89221">
        <ele>385</ele>
        <time>2012-03-11T11:50:17.000Z</time>
      </trkpt>
      <trkpt lat="43.57848" lon="6.89209">
        <ele>382.60000610352</ele>
        <time>2012-03-11T11:50:23.000Z</time>
      </trkpt>
      <trkpt lat="43.57841" lon="6.89202">
        <ele>381.39999389648</ele>
        <time>2012-03-11T11:50:28.000Z</time>
      </trkpt>
      <trkpt lat="43.57834" lon="6.89197">
        <ele>380.39999389648</ele>
        <time>2012-03-11T11:50:33.000Z</time>
      </trkpt>
      <trkpt lat="43.5783" lon="6.89195">
        <ele>380</ele>
        <time>2012-03-11T11:50:36.000Z</time>
      </trkpt>
      <trkpt lat="43.57826" lon="6.89192">
        <ele>379.39999389648</ele>
        <time>2012-03-11T11:50:39.000Z</time>
      </trkpt>
      <trkpt lat="43.57821" lon="6.8919">
        <ele>379</ele>
        <time>2012-03-11T11:50:42.000Z</time>
      </trkpt>
      <trkpt lat="43.57808" lon="6.89187">
        <ele>378.60000610352</ele>
        <time>2012-03-11T11:50:50.000Z</time>
      </trkpt>
      <trkpt lat="43.57807" lon="6.89187">
        <ele>378.60000610352</ele>
        <time>2012-03-11T11:50:51.000Z</time>
      </trkpt>
      <trkpt lat="43.57796" lon="6.89185">
        <ele>378.20001220703</ele>
        <time>2012-03-11T11:50:58.000Z</time>
      </trkpt>
      <trkpt lat="43.57791" lon="6.89186">
        <ele>378.39999389648</ele>
        <time>2012-03-11T11:51:03.000Z</time>
      </trkpt>
      <trkpt lat="43.57781" lon="6.89189">
        <ele>378.79998779297</ele>
        <time>2012-03-11T11:51:08.000Z</time>
      </trkpt>
      <trkpt lat="43.57778" lon="6.89191">
        <ele>379.20001220703</ele>
        <time>2012-03-11T11:51:10.000Z</time>
      </trkpt>
      <trkpt lat="43.57773" lon="6.89198">
        <ele>380.20001220703</ele>
        <time>2012-03-11T11:51:14.000Z</time>
      </trkpt>
      <trkpt lat="43.57767" lon="6.89203">
        <ele>381</ele>
        <time>2012-03-11T11:51:20.000Z</time>
      </trkpt>
      <trkpt lat="43.57767" lon="6.89211">
        <ele>382.20001220703</ele>
        <time>2012-03-11T11:51:25.000Z</time>
      </trkpt>
      <trkpt lat="43.57767" lon="6.89226">
        <ele>384.39999389648</ele>
        <time>2012-03-11T11:51:33.000Z</time>
      </trkpt>
      <trkpt lat="43.57768" lon="6.89231">
        <ele>385.20001220703</ele>
        <time>2012-03-11T11:51:36.000Z</time>
      </trkpt>
      <trkpt lat="43.5777" lon="6.89245">
        <ele>387.39999389648</ele>
        <time>2012-03-11T11:51:42.000Z</time>
      </trkpt>
      <trkpt lat="43.57772" lon="6.8926">
        <ele>388.39999389648</ele>
        <time>2012-03-11T11:51:48.000Z</time>
      </trkpt>
      <trkpt lat="43.57776" lon="6.89273">
        <ele>389</ele>
        <time>2012-03-11T11:51:54.000Z</time>
      </trkpt>
      <trkpt lat="43.5778" lon="6.89282">
        <ele>389.60000610352</ele>
        <time>2012-03-11T11:52:00.000Z</time>
      </trkpt>
      <trkpt lat="43.57787" lon="6.89295">
        <ele>390.79998779297</ele>
        <time>2012-03-11T11:52:07.000Z</time>
      </trkpt>
      <trkpt lat="43.57793" lon="6.89305">
        <ele>392</ele>
        <time>2012-03-11T11:52:13.000Z</time>
      </trkpt>
      <trkpt lat="43.57802" lon="6.89318">
        <ele>394.20001220703</ele>
        <time>2012-03-11T11:52:21.000Z</time>
      </trkpt>
      <trkpt lat="43.57805" lon="6.8932">
        <ele>394.79998779297</ele>
        <time>2012-03-11T11:52:24.000Z</time>
      </trkpt>
      <trkpt lat="43.57813" lon="6.89325">
        <ele>396.60000610352</ele>
        <time>2012-03-11T11:52:30.000Z</time>
      </trkpt>
      <trkpt lat="43.57821" lon="6.89331">
        <ele>398.39999389648</ele>
        <time>2012-03-11T11:52:34.000Z</time>
      </trkpt>
      <trkpt lat="43.57826" lon="6.89342">
        <ele>399.20001220703</ele>
        <time>2012-03-11T11:52:41.000Z</time>
      </trkpt>
      <trkpt lat="43.57828" lon="6.89345">
        <ele>399.60000610352</ele>
        <time>2012-03-11T11:52:44.000Z</time>
      </trkpt>
      <trkpt lat="43.57832" lon="6.89356">
        <ele>400</ele>
        <time>2012-03-11T11:52:50.000Z</time>
      </trkpt>
      <trkpt lat="43.57832" lon="6.89361">
        <ele>399.60000610352</ele>
        <time>2012-03-11T11:52:52.000Z</time>
      </trkpt>
      <trkpt lat="43.57827" lon="6.89378">
        <ele>397.79998779297</ele>
        <time>2012-03-11T11:52:57.000Z</time>
      </trkpt>
      <trkpt lat="43.57832" lon="6.89395">
        <ele>398.60000610352</ele>
        <time>2012-03-11T11:53:02.000Z</time>
      </trkpt>
      <trkpt lat="43.57843" lon="6.894">
        <ele>401</ele>
        <time>2012-03-11T11:53:06.000Z</time>
      </trkpt>
      <trkpt lat="43.57848" lon="6.89402">
        <ele>402.20001220703</ele>
        <time>2012-03-11T11:53:08.000Z</time>
      </trkpt>
      <trkpt lat="43.57862" lon="6.89413">
        <ele>405.79998779297</ele>
        <time>2012-03-11T11:53:14.000Z</time>
      </trkpt>
      <trkpt lat="43.5787" lon="6.89429">
        <ele>406.60000610352</ele>
        <time>2012-03-11T11:53:20.000Z</time>
      </trkpt>
      <trkpt lat="43.57884" lon="6.89459">
        <ele>406.79998779297</ele>
        <time>2012-03-11T11:53:27.000Z</time>
      </trkpt>
      <trkpt lat="43.57893" lon="6.89485">
        <ele>407.20001220703</ele>
        <time>2012-03-11T11:53:33.000Z</time>
      </trkpt>
      <trkpt lat="43.57904" lon="6.89501">
        <ele>410</ele>
        <time>2012-03-11T11:53:38.000Z</time>
      </trkpt>
      <trkpt lat="43.57913" lon="6.89526">
        <ele>412.20001220703</ele>
        <time>2012-03-11T11:53:43.000Z</time>
      </trkpt>
      <trkpt lat="43.57912" lon="6.89544">
        <ele>410.20001220703</ele>
        <time>2012-03-11T11:53:46.000Z</time>
      </trkpt>
      <trkpt lat="43.5791" lon="6.89559">
        <ele>408.39999389648</ele>
        <time>2012-03-11T11:53:49.000Z</time>
      </trkpt>
      <trkpt lat="43.5791" lon="6.89596">
        <ele>407.39999389648</ele>
        <time>2012-03-11T11:53:57.000Z</time>
      </trkpt>
      <trkpt lat="43.57911" lon="6.89624">
        <ele>409</ele>
        <time>2012-03-11T11:54:03.000Z</time>
      </trkpt>
      <trkpt lat="43.57916" lon="6.89651">
        <ele>412.39999389648</ele>
        <time>2012-03-11T11:54:09.000Z</time>
      </trkpt>
      <trkpt lat="43.57917" lon="6.89669">
        <ele>413.20001220703</ele>
        <time>2012-03-11T11:54:15.000Z</time>
      </trkpt>
      <trkpt lat="43.57914" lon="6.89685">
        <ele>413</ele>
        <time>2012-03-11T11:54:22.000Z</time>
      </trkpt>
      <trkpt lat="43.57913" lon="6.89687">
        <ele>412.79998779297</ele>
        <time>2012-03-11T11:54:23.000Z</time>
      </trkpt>
      <trkpt lat="43.57905" lon="6.89703">
        <ele>411.20001220703</ele>
        <time>2012-03-11T11:54:31.000Z</time>
      </trkpt>
      <trkpt lat="43.57902" lon="6.89712">
        <ele>410.79998779297</ele>
        <time>2012-03-11T11:54:35.000Z</time>
      </trkpt>
      <trkpt lat="43.57902" lon="6.89721">
        <ele>411.20001220703</ele>
        <time>2012-03-11T11:54:42.000Z</time>
      </trkpt>
      <trkpt lat="43.57905" lon="6.8973">
        <ele>413.20001220703</ele>
        <time>2012-03-11T11:54:50.000Z</time>
      </trkpt>
      <trkpt lat="43.57908" lon="6.89736">
        <ele>414.39999389648</ele>
        <time>2012-03-11T11:54:56.000Z</time>
      </trkpt>
      <trkpt lat="43.57912" lon="6.89746">
        <ele>416.39999389648</ele>
        <time>2012-03-11T11:55:02.000Z</time>
      </trkpt>
      <trkpt lat="43.57919" lon="6.89758">
        <ele>418.39999389648</ele>
        <time>2012-03-11T11:55:08.000Z</time>
      </trkpt>
      <trkpt lat="43.57924" lon="6.89773">
        <ele>419</ele>
        <time>2012-03-11T11:55:15.000Z</time>
      </trkpt>
      <trkpt lat="43.57926" lon="6.8978">
        <ele>419</ele>
        <time>2012-03-11T11:55:19.000Z</time>
      </trkpt>
      <trkpt lat="43.57932" lon="6.89786">
        <ele>419.79998779297</ele>
        <time>2012-03-11T11:55:27.000Z</time>
      </trkpt>
      <trkpt lat="43.57934" lon="6.89789">
        <ele>420</ele>
        <time>2012-03-11T11:55:33.000Z</time>
      </trkpt>
      <trkpt lat="43.57935" lon="6.89791">
        <ele>420</ele>
        <time>2012-03-11T11:55:45.000Z</time>
      </trkpt>
      <trkpt lat="43.57932" lon="6.89805">
        <ele>419</ele>
        <time>2012-03-11T11:59:11.000Z</time>
      </trkpt>
      <trkpt lat="43.57935" lon="6.89809">
        <ele>419.20001220703</ele>
        <time>2012-03-11T11:59:15.000Z</time>
      </trkpt>
      <trkpt lat="43.57942" lon="6.89819">
        <ele>419.39999389648</ele>
        <time>2012-03-11T11:59:21.000Z</time>
      </trkpt>
      <trkpt lat="43.5795" lon="6.89832">
        <ele>419.20001220703</ele>
        <time>2012-03-11T11:59:28.000Z</time>
      </trkpt>
      <trkpt lat="43.57957" lon="6.89846">
        <ele>418</ele>
        <time>2012-03-11T11:59:34.000Z</time>
      </trkpt>
      <trkpt lat="43.57967" lon="6.89866">
        <ele>415.20001220703</ele>
        <time>2012-03-11T11:59:40.000Z</time>
      </trkpt>
      <trkpt lat="43.57969" lon="6.89874">
        <ele>414</ele>
        <time>2012-03-11T11:59:42.000Z</time>
      </trkpt>
      <trkpt lat="43.57963" lon="6.89892">
        <ele>412</ele>
        <time>2012-03-11T11:59:47.000Z</time>
      </trkpt>
      <trkpt lat="43.57949" lon="6.89916">
        <ele>411.20001220703</ele>
        <time>2012-03-11T11:59:56.000Z</time>
      </trkpt>
      <trkpt lat="43.5794" lon="6.89937">
        <ele>408.60000610352</ele>
        <time>2012-03-11T12:00:04.000Z</time>
      </trkpt>
      <trkpt lat="43.57932" lon="6.89951">
        <ele>407.39999389648</ele>
        <time>2012-03-11T12:00:10.000Z</time>
      </trkpt>
      <trkpt lat="43.57914" lon="6.89966">
        <ele>408.60000610352</ele>
        <time>2012-03-11T12:00:17.000Z</time>
      </trkpt>
      <trkpt lat="43.57899" lon="6.89974">
        <ele>409.39999389648</ele>
        <time>2012-03-11T12:00:23.000Z</time>
      </trkpt>
      <trkpt lat="43.57882" lon="6.89981">
        <ele>411</ele>
        <time>2012-03-11T12:00:29.000Z</time>
      </trkpt>
      <trkpt lat="43.57861" lon="6.8999">
        <ele>414</ele>
        <time>2012-03-11T12:00:36.000Z</time>
      </trkpt>
      <trkpt lat="43.57843" lon="6.89998">
        <ele>417.20001220703</ele>
        <time>2012-03-11T12:00:42.000Z</time>
      </trkpt>
      <trkpt lat="43.57821" lon="6.90015">
        <ele>419.39999389648</ele>
        <time>2012-03-11T12:00:49.000Z</time>
      </trkpt>
      <trkpt lat="43.57808" lon="6.90042">
        <ele>419.20001220703</ele>
        <time>2012-03-11T12:00:57.000Z</time>
      </trkpt>
      <trkpt lat="43.57805" lon="6.90051">
        <ele>419</ele>
        <time>2012-03-11T12:01:00.000Z</time>
      </trkpt>
      <trkpt lat="43.57799" lon="6.9007">
        <ele>418.79998779297</ele>
        <time>2012-03-11T12:01:05.000Z</time>
      </trkpt>
      <trkpt lat="43.57786" lon="6.90093">
        <ele>419.79998779297</ele>
        <time>2012-03-11T12:01:12.000Z</time>
      </trkpt>
      <trkpt lat="43.57779" lon="6.90109">
        <ele>419.39999389648</ele>
        <time>2012-03-11T12:01:18.000Z</time>
      </trkpt>
      <trkpt lat="43.57769" lon="6.90118">
        <ele>420.79998779297</ele>
        <time>2012-03-11T12:01:23.000Z</time>
      </trkpt>
      <trkpt lat="43.57759" lon="6.90124">
        <ele>423.20001220703</ele>
        <time>2012-03-11T12:01:29.000Z</time>
      </trkpt>
      <trkpt lat="43.57745" lon="6.90133">
        <ele>425</ele>
        <time>2012-03-11T12:01:34.000Z</time>
      </trkpt>
      <trkpt lat="43.5773" lon="6.90146">
        <ele>425.20001220703</ele>
        <time>2012-03-11T12:01:39.000Z</time>
      </trkpt>
      <trkpt lat="43.57711" lon="6.90165">
        <ele>425.20001220703</ele>
        <time>2012-03-11T12:01:45.000Z</time>
      </trkpt>
      <trkpt lat="43.57692" lon="6.90183">
        <ele>423.79998779297</ele>
        <time>2012-03-11T12:01:51.000Z</time>
      </trkpt>
      <trkpt lat="43.57669" lon="6.90207">
        <ele>422.39999389648</ele>
        <time>2012-03-11T12:01:57.000Z</time>
      </trkpt>
      <trkpt lat="43.57642" lon="6.90224">
        <ele>419.39999389648</ele>
        <time>2012-03-11T12:02:02.000Z</time>
      </trkpt>
      <trkpt lat="43.57613" lon="6.90248">
        <ele>417.20001220703</ele>
        <time>2012-03-11T12:02:06.000Z</time>
      </trkpt>
      <trkpt lat="43.57592" lon="6.90269">
        <ele>418</ele>
        <time>2012-03-11T12:02:09.000Z</time>
      </trkpt>
      <trkpt lat="43.57567" lon="6.90287">
        <ele>419</ele>
        <time>2012-03-11T12:02:13.000Z</time>
      </trkpt>
      <trkpt lat="43.57546" lon="6.90293">
        <ele>419.20001220703</ele>
        <time>2012-03-11T12:02:17.000Z</time>
      </trkpt>
      <trkpt lat="43.57526" lon="6.90302">
        <ele>420.20001220703</ele>
        <time>2012-03-11T12:02:21.000Z</time>
      </trkpt>
      <trkpt lat="43.575" lon="6.90314">
        <ele>422.39999389648</ele>
        <time>2012-03-11T12:02:27.000Z</time>
      </trkpt>
      <trkpt lat="43.5748" lon="6.90336">
        <ele>426</ele>
        <time>2012-03-11T12:02:34.000Z</time>
      </trkpt>
      <trkpt lat="43.57468" lon="6.90363">
        <ele>426.60000610352</ele>
        <time>2012-03-11T12:02:41.000Z</time>
      </trkpt>
      <trkpt lat="43.57458" lon="6.90378">
        <ele>427.20001220703</ele>
        <time>2012-03-11T12:02:45.000Z</time>
      </trkpt>
      <trkpt lat="43.57446" lon="6.904">
        <ele>428</ele>
        <time>2012-03-11T12:02:51.000Z</time>
      </trkpt>
      <trkpt lat="43.5743" lon="6.90421">
        <ele>428.79998779297</ele>
        <time>2012-03-11T12:02:57.000Z</time>
      </trkpt>
      <trkpt lat="43.5741" lon="6.90447">
        <ele>428.60000610352</ele>
        <time>2012-03-11T12:03:04.000Z</time>
      </trkpt>
      <trkpt lat="43.57389" lon="6.90479">
        <ele>428.79998779297</ele>
        <time>2012-03-11T12:03:13.000Z</time>
      </trkpt>
      <trkpt lat="43.5737" lon="6.90506">
        <ele>430.20001220703</ele>
        <time>2012-03-11T12:03:21.000Z</time>
      </trkpt>
      <trkpt lat="43.57348" lon="6.90518">
        <ele>433</ele>
        <time>2012-03-11T12:03:29.000Z</time>
      </trkpt>
      <trkpt lat="43.57335" lon="6.90523">
        <ele>435.39999389648</ele>
        <time>2012-03-11T12:03:34.000Z</time>
      </trkpt>
      <trkpt lat="43.57321" lon="6.90523">
        <ele>436.39999389648</ele>
        <time>2012-03-11T12:03:39.000Z</time>
      </trkpt>
      <trkpt lat="43.57304" lon="6.90519">
        <ele>437.20001220703</ele>
        <time>2012-03-11T12:03:45.000Z</time>
      </trkpt>
      <trkpt lat="43.57282" lon="6.90516">
        <ele>438.39999389648</ele>
        <time>2012-03-11T12:03:52.000Z</time>
      </trkpt>
      <trkpt lat="43.57257" lon="6.90521">
        <ele>440.60000610352</ele>
        <time>2012-03-11T12:04:00.000Z</time>
      </trkpt>
      <trkpt lat="43.57238" lon="6.90512">
        <ele>440.60000610352</ele>
        <time>2012-03-11T12:04:05.000Z</time>
      </trkpt>
      <trkpt lat="43.57215" lon="6.90496">
        <ele>440.39999389648</ele>
        <time>2012-03-11T12:04:13.000Z</time>
      </trkpt>
      <trkpt lat="43.57194" lon="6.90494">
        <ele>441.79998779297</ele>
        <time>2012-03-11T12:04:20.000Z</time>
      </trkpt>
      <trkpt lat="43.57177" lon="6.90493">
        <ele>443.20001220703</ele>
        <time>2012-03-11T12:04:27.000Z</time>
      </trkpt>
      <trkpt lat="43.5716" lon="6.90491">
        <ele>444.20001220703</ele>
        <time>2012-03-11T12:04:33.000Z</time>
      </trkpt>
      <trkpt lat="43.57144" lon="6.90485">
        <ele>444.79998779297</ele>
        <time>2012-03-11T12:04:39.000Z</time>
      </trkpt>
      <trkpt lat="43.57125" lon="6.90476">
        <ele>445.20001220703</ele>
        <time>2012-03-11T12:04:46.000Z</time>
      </trkpt>
      <trkpt lat="43.57107" lon="6.90469">
        <ele>445.60000610352</ele>
        <time>2012-03-11T12:04:52.000Z</time>
      </trkpt>
      <trkpt lat="43.57091" lon="6.90463">
        <ele>446.20001220703</ele>
        <time>2012-03-11T12:04:57.000Z</time>
      </trkpt>
      <trkpt lat="43.57064" lon="6.90456">
        <ele>448.39999389648</ele>
        <time>2012-03-11T12:05:05.000Z</time>
      </trkpt>
      <trkpt lat="43.57045" lon="6.90448">
        <ele>450</ele>
        <time>2012-03-11T12:05:12.000Z</time>
      </trkpt>
      <trkpt lat="43.5703" lon="6.90441">
        <ele>451</ele>
        <time>2012-03-11T12:05:17.000Z</time>
      </trkpt>
      <trkpt lat="43.57012" lon="6.90425">
        <ele>451.20001220703</ele>
        <time>2012-03-11T12:05:23.000Z</time>
      </trkpt>
      <trkpt lat="43.56986" lon="6.904">
        <ele>449.39999389648</ele>
        <time>2012-03-11T12:05:32.000Z</time>
      </trkpt>
      <trkpt lat="43.56971" lon="6.90396">
        <ele>448.39999389648</ele>
        <time>2012-03-11T12:05:37.000Z</time>
      </trkpt>
      <trkpt lat="43.56956" lon="6.90406">
        <ele>449.60000610352</ele>
        <time>2012-03-11T12:05:44.000Z</time>
      </trkpt>
      <trkpt lat="43.56942" lon="6.90418">
        <ele>451.60000610352</ele>
        <time>2012-03-11T12:05:50.000Z</time>
      </trkpt>
      <trkpt lat="43.5693" lon="6.90431">
        <ele>453.60000610352</ele>
        <time>2012-03-11T12:05:55.000Z</time>
      </trkpt>
      <trkpt lat="43.5691" lon="6.90454">
        <ele>456.79998779297</ele>
        <time>2012-03-11T12:06:03.000Z</time>
      </trkpt>
      <trkpt lat="43.56893" lon="6.9047">
        <ele>457.60000610352</ele>
        <time>2012-03-11T12:06:11.000Z</time>
      </trkpt>
      <trkpt lat="43.56875" lon="6.90485">
        <ele>458</ele>
        <time>2012-03-11T12:06:18.000Z</time>
      </trkpt>
      <trkpt lat="43.5686" lon="6.90506">
        <ele>459.60000610352</ele>
        <time>2012-03-11T12:06:25.000Z</time>
      </trkpt>
      <trkpt lat="43.56848" lon="6.90524">
        <ele>461.79998779297</ele>
        <time>2012-03-11T12:06:31.000Z</time>
      </trkpt>
      <trkpt lat="43.56836" lon="6.90532">
        <ele>462.20001220703</ele>
        <time>2012-03-11T12:06:36.000Z</time>
      </trkpt>
      <trkpt lat="43.5682" lon="6.90534">
        <ele>463</ele>
        <time>2012-03-11T12:06:42.000Z</time>
      </trkpt>
      <trkpt lat="43.56802" lon="6.90534">
        <ele>463.60000610352</ele>
        <time>2012-03-11T12:06:48.000Z</time>
      </trkpt>
      <trkpt lat="43.56787" lon="6.90532">
        <ele>464</ele>
        <time>2012-03-11T12:06:53.000Z</time>
      </trkpt>
      <trkpt lat="43.56774" lon="6.90527">
        <ele>463.60000610352</ele>
        <time>2012-03-11T12:06:58.000Z</time>
      </trkpt>
      <trkpt lat="43.56758" lon="6.90513">
        <ele>462.39999389648</ele>
        <time>2012-03-11T12:07:04.000Z</time>
      </trkpt>
      <trkpt lat="43.56739" lon="6.90502">
        <ele>462.60000610352</ele>
        <time>2012-03-11T12:07:11.000Z</time>
      </trkpt>
      <trkpt lat="43.56721" lon="6.90497">
        <ele>463.79998779297</ele>
        <time>2012-03-11T12:07:17.000Z</time>
      </trkpt>
      <trkpt lat="43.56703" lon="6.90494">
        <ele>465.39999389648</ele>
        <time>2012-03-11T12:07:24.000Z</time>
      </trkpt>
      <trkpt lat="43.56687" lon="6.90494">
        <ele>467.20001220703</ele>
        <time>2012-03-11T12:07:30.000Z</time>
      </trkpt>
      <trkpt lat="43.56673" lon="6.9049">
        <ele>468.39999389648</ele>
        <time>2012-03-11T12:07:35.000Z</time>
      </trkpt>
      <trkpt lat="43.56655" lon="6.90481">
        <ele>469</ele>
        <time>2012-03-11T12:07:42.000Z</time>
      </trkpt>
      <trkpt lat="43.56636" lon="6.90473">
        <ele>469.39999389648</ele>
        <time>2012-03-11T12:07:48.000Z</time>
      </trkpt>
      <trkpt lat="43.56618" lon="6.9046">
        <ele>469.20001220703</ele>
        <time>2012-03-11T12:07:53.000Z</time>
      </trkpt>
      <trkpt lat="43.566" lon="6.90436">
        <ele>468</ele>
        <time>2012-03-11T12:07:58.000Z</time>
      </trkpt>
      <trkpt lat="43.56579" lon="6.90423">
        <ele>467.39999389648</ele>
        <time>2012-03-11T12:08:02.000Z</time>
      </trkpt>
      <trkpt lat="43.56536" lon="6.90415">
        <ele>463.39999389648</ele>
        <time>2012-03-11T12:08:10.000Z</time>
      </trkpt>
      <trkpt lat="43.56504" lon="6.90425">
        <ele>462.60000610352</ele>
        <time>2012-03-11T12:08:17.000Z</time>
      </trkpt>
      <trkpt lat="43.56474" lon="6.90448">
        <ele>457.60000610352</ele>
        <time>2012-03-11T12:08:24.000Z</time>
      </trkpt>
      <trkpt lat="43.5645" lon="6.90483">
        <ele>457</ele>
        <time>2012-03-11T12:08:30.000Z</time>
      </trkpt>
      <trkpt lat="43.56426" lon="6.90526">
        <ele>458.39999389648</ele>
        <time>2012-03-11T12:08:36.000Z</time>
      </trkpt>
      <trkpt lat="43.56421" lon="6.90533">
        <ele>458.39999389648</ele>
        <time>2012-03-11T12:08:37.000Z</time>
      </trkpt>
      <trkpt lat="43.56376" lon="6.9061">
        <ele>459.60000610352</ele>
        <time>2012-03-11T12:08:47.000Z</time>
      </trkpt>
      <trkpt lat="43.56346" lon="6.90623">
        <ele>455.20001220703</ele>
        <time>2012-03-11T12:08:51.000Z</time>
      </trkpt>
      <trkpt lat="43.56333" lon="6.90623">
        <ele>452.60000610352</ele>
        <time>2012-03-11T12:08:53.000Z</time>
      </trkpt>
      <trkpt lat="43.56306" lon="6.90641">
        <ele>450.79998779297</ele>
        <time>2012-03-11T12:08:58.000Z</time>
      </trkpt>
      <trkpt lat="43.56304" lon="6.90648">
        <ele>451.79998779297</ele>
        <time>2012-03-11T12:08:59.000Z</time>
      </trkpt>
      <trkpt lat="43.5628" lon="6.90676">
        <ele>451.39999389648</ele>
        <time>2012-03-11T12:09:04.000Z</time>
      </trkpt>
      <trkpt lat="43.56274" lon="6.90675">
        <ele>450.20001220703</ele>
        <time>2012-03-11T12:09:05.000Z</time>
      </trkpt>
      <trkpt lat="43.56261" lon="6.90674">
        <ele>448</ele>
        <time>2012-03-11T12:09:07.000Z</time>
      </trkpt>
      <trkpt lat="43.5624" lon="6.90681">
        <ele>442.79998779297</ele>
        <time>2012-03-11T12:09:11.000Z</time>
      </trkpt>
      <trkpt lat="43.5623" lon="6.907">
        <ele>439.20001220703</ele>
        <time>2012-03-11T12:09:14.000Z</time>
      </trkpt>
      <trkpt lat="43.56233" lon="6.90723">
        <ele>439.20001220703</ele>
        <time>2012-03-11T12:09:17.000Z</time>
      </trkpt>
      <trkpt lat="43.56245" lon="6.90743">
        <ele>443.79998779297</ele>
        <time>2012-03-11T12:09:20.000Z</time>
      </trkpt>
      <trkpt lat="43.56278" lon="6.90786">
        <ele>439.79998779297</ele>
        <time>2012-03-11T12:09:27.000Z</time>
      </trkpt>
      <trkpt lat="43.56283" lon="6.90791">
        <ele>439.20001220703</ele>
        <time>2012-03-11T12:09:28.000Z</time>
      </trkpt>
      <trkpt lat="43.56307" lon="6.90802">
        <ele>440.39999389648</ele>
        <time>2012-03-11T12:09:32.000Z</time>
      </trkpt>
      <trkpt lat="43.56326" lon="6.90795">
        <ele>445.60000610352</ele>
        <time>2012-03-11T12:09:35.000Z</time>
      </trkpt>
      <trkpt lat="43.56362" lon="6.90777">
        <ele>454</ele>
        <time>2012-03-11T12:09:40.000Z</time>
      </trkpt>
      <trkpt lat="43.5638" lon="6.90794">
        <ele>453.39999389648</ele>
        <time>2012-03-11T12:09:43.000Z</time>
      </trkpt>
      <trkpt lat="43.56388" lon="6.90823">
        <ele>450.60000610352</ele>
        <time>2012-03-11T12:09:46.000Z</time>
      </trkpt>
      <trkpt lat="43.56389" lon="6.90834">
        <ele>449.20001220703</ele>
        <time>2012-03-11T12:09:47.000Z</time>
      </trkpt>
      <trkpt lat="43.56382" lon="6.90918">
        <ele>440.39999389648</ele>
        <time>2012-03-11T12:09:55.000Z</time>
      </trkpt>
      <trkpt lat="43.56367" lon="6.90947">
        <ele>432.20001220703</ele>
        <time>2012-03-11T12:09:59.000Z</time>
      </trkpt>
      <trkpt lat="43.56322" lon="6.90991">
        <ele>423.60000610352</ele>
        <time>2012-03-11T12:10:07.000Z</time>
      </trkpt>
      <trkpt lat="43.56303" lon="6.9103">
        <ele>420.79998779297</ele>
        <time>2012-03-11T12:10:12.000Z</time>
      </trkpt>
      <trkpt lat="43.56296" lon="6.91069">
        <ele>421.20001220703</ele>
        <time>2012-03-11T12:10:16.000Z</time>
      </trkpt>
      <trkpt lat="43.56297" lon="6.91106">
        <ele>420.60000610352</ele>
        <time>2012-03-11T12:10:20.000Z</time>
      </trkpt>
      <trkpt lat="43.56297" lon="6.91132">
        <ele>420.60000610352</ele>
        <time>2012-03-11T12:10:23.000Z</time>
      </trkpt>
      <trkpt lat="43.56297" lon="6.91157">
        <ele>420.60000610352</ele>
        <time>2012-03-11T12:10:26.000Z</time>
      </trkpt>
      <trkpt lat="43.56307" lon="6.91181">
        <ele>414.39999389648</ele>
        <time>2012-03-11T12:10:30.000Z</time>
      </trkpt>
      <trkpt lat="43.56296" lon="6.91226">
        <ele>418.79998779297</ele>
        <time>2012-03-11T12:10:35.000Z</time>
      </trkpt>
      <trkpt lat="43.56286" lon="6.91242">
        <ele>423.79998779297</ele>
        <time>2012-03-11T12:10:37.000Z</time>
      </trkpt>
      <trkpt lat="43.56262" lon="6.91283">
        <ele>435</ele>
        <time>2012-03-11T12:10:43.000Z</time>
      </trkpt>
      <trkpt lat="43.56257" lon="6.91305">
        <ele>436.20001220703</ele>
        <time>2012-03-11T12:10:47.000Z</time>
      </trkpt>
      <trkpt lat="43.5627" lon="6.91325">
        <ele>428.60000610352</ele>
        <time>2012-03-11T12:10:52.000Z</time>
      </trkpt>
      <trkpt lat="43.56274" lon="6.91333">
        <ele>426.39999389648</ele>
        <time>2012-03-11T12:10:54.000Z</time>
      </trkpt>
      <trkpt lat="43.5629" lon="6.91349">
        <ele>420.79998779297</ele>
        <time>2012-03-11T12:11:00.000Z</time>
      </trkpt>
      <trkpt lat="43.56298" lon="6.91363">
        <ele>418.79998779297</ele>
        <time>2012-03-11T12:11:02.000Z</time>
      </trkpt>
      <trkpt lat="43.56314" lon="6.91403">
        <ele>417</ele>
        <time>2012-03-11T12:11:06.000Z</time>
      </trkpt>
      <trkpt lat="43.56319" lon="6.91451">
        <ele>416.20001220703</ele>
        <time>2012-03-11T12:11:11.000Z</time>
      </trkpt>
      <trkpt lat="43.56308" lon="6.91497">
        <ele>416.79998779297</ele>
        <time>2012-03-11T12:11:16.000Z</time>
      </trkpt>
      <trkpt lat="43.56301" lon="6.91511">
        <ele>416.39999389648</ele>
        <time>2012-03-11T12:11:18.000Z</time>
      </trkpt>
      <trkpt lat="43.56288" lon="6.9153">
        <ele>415.60000610352</ele>
        <time>2012-03-11T12:11:22.000Z</time>
      </trkpt>
      <trkpt lat="43.56277" lon="6.9154">
        <ele>415.39999389648</ele>
        <time>2012-03-11T12:11:25.000Z</time>
      </trkpt>
      <trkpt lat="43.56263" lon="6.91546">
        <ele>415.60000610352</ele>
        <time>2012-03-11T12:11:28.000Z</time>
      </trkpt>
      <trkpt lat="43.56254" lon="6.91551">
        <ele>415.39999389648</ele>
        <time>2012-03-11T12:11:31.000Z</time>
      </trkpt>
      <trkpt lat="43.56251" lon="6.91553">
        <ele>415.39999389648</ele>
        <time>2012-03-11T12:11:39.000Z</time>
      </trkpt>
      <trkpt lat="43.56248" lon="6.91554">
        <ele>415</ele>
        <time>2012-03-11T12:12:02.000Z</time>
      </trkpt>
      <trkpt lat="43.56247" lon="6.91554">
        <ele>414.60000610352</ele>
        <time>2012-03-11T12:12:08.000Z</time>
      </trkpt>
      <trkpt lat="43.56237" lon="6.91562">
        <ele>411</ele>
        <time>2012-03-11T12:12:12.000Z</time>
      </trkpt>
      <trkpt lat="43.56221" lon="6.91556">
        <ele>409.20001220703</ele>
        <time>2012-03-11T12:12:16.000Z</time>
      </trkpt>
      <trkpt lat="43.56219" lon="6.91555">
        <ele>408.79998779297</ele>
        <time>2012-03-11T12:12:18.000Z</time>
      </trkpt>
      <trkpt lat="43.56212" lon="6.91565">
        <ele>405.60000610352</ele>
        <time>2012-03-11T12:12:23.000Z</time>
      </trkpt>
      <trkpt lat="43.56203" lon="6.91566">
        <ele>403.20001220703</ele>
        <time>2012-03-11T12:12:26.000Z</time>
      </trkpt>
      <trkpt lat="43.56188" lon="6.91566">
        <ele>400</ele>
        <time>2012-03-11T12:12:30.000Z</time>
      </trkpt>
      <trkpt lat="43.56177" lon="6.91555">
        <ele>400.60000610352</ele>
        <time>2012-03-11T12:12:33.000Z</time>
      </trkpt>
      <trkpt lat="43.56161" lon="6.91537">
        <ele>402.79998779297</ele>
        <time>2012-03-11T12:12:38.000Z</time>
      </trkpt>
      <trkpt lat="43.56145" lon="6.9153">
        <ele>403.60000610352</ele>
        <time>2012-03-11T12:12:44.000Z</time>
      </trkpt>
      <trkpt lat="43.5613" lon="6.91528">
        <ele>402.79998779297</ele>
        <time>2012-03-11T12:12:48.000Z</time>
      </trkpt>
      <trkpt lat="43.56114" lon="6.91533">
        <ele>400.60000610352</ele>
        <time>2012-03-11T12:12:51.000Z</time>
      </trkpt>
      <trkpt lat="43.56095" lon="6.91548">
        <ele>395.20001220703</ele>
        <time>2012-03-11T12:12:54.000Z</time>
      </trkpt>
      <trkpt lat="43.56072" lon="6.9156">
        <ele>390</ele>
        <time>2012-03-11T12:12:58.000Z</time>
      </trkpt>
      <trkpt lat="43.56062" lon="6.91568">
        <ele>387</ele>
        <time>2012-03-11T12:13:01.000Z</time>
      </trkpt>
      <trkpt lat="43.56049" lon="6.91573">
        <ele>384.60000610352</ele>
        <time>2012-03-11T12:13:06.000Z</time>
      </trkpt>
      <trkpt lat="43.56046" lon="6.9157">
        <ele>384.79998779297</ele>
        <time>2012-03-11T12:13:07.000Z</time>
      </trkpt>
      <trkpt lat="43.56026" lon="6.91566">
        <ele>383.79998779297</ele>
        <time>2012-03-11T12:13:13.000Z</time>
      </trkpt>
      <trkpt lat="43.56022" lon="6.91564">
        <ele>384</ele>
        <time>2012-03-11T12:13:14.000Z</time>
      </trkpt>
      <trkpt lat="43.56008" lon="6.91554">
        <ele>384.60000610352</ele>
        <time>2012-03-11T12:13:17.000Z</time>
      </trkpt>
      <trkpt lat="43.55998" lon="6.91548">
        <ele>384.39999389648</ele>
        <time>2012-03-11T12:13:19.000Z</time>
      </trkpt>
      <trkpt lat="43.55977" lon="6.91537">
        <ele>382</ele>
        <time>2012-03-11T12:13:24.000Z</time>
      </trkpt>
      <trkpt lat="43.55971" lon="6.91529">
        <ele>381.79998779297</ele>
        <time>2012-03-11T12:13:27.000Z</time>
      </trkpt>
      <trkpt lat="43.5596" lon="6.91523">
        <ele>380.39999389648</ele>
        <time>2012-03-11T12:13:31.000Z</time>
      </trkpt>
      <trkpt lat="43.55949" lon="6.91512">
        <ele>379.39999389648</ele>
        <time>2012-03-11T12:13:34.000Z</time>
      </trkpt>
      <trkpt lat="43.55935" lon="6.91515">
        <ele>375.79998779297</ele>
        <time>2012-03-11T12:13:37.000Z</time>
      </trkpt>
      <trkpt lat="43.55927" lon="6.91518">
        <ele>373.60000610352</ele>
        <time>2012-03-11T12:13:39.000Z</time>
      </trkpt>
      <trkpt lat="43.55918" lon="6.91514">
        <ele>371.79998779297</ele>
        <time>2012-03-11T12:13:43.000Z</time>
      </trkpt>
      <trkpt lat="43.55906" lon="6.91507">
        <ele>369.20001220703</ele>
        <time>2012-03-11T12:13:49.000Z</time>
      </trkpt>
      <trkpt lat="43.55892" lon="6.91517">
        <ele>364.60000610352</ele>
        <time>2012-03-11T12:13:54.000Z</time>
      </trkpt>
      <trkpt lat="43.55884" lon="6.91533">
        <ele>361.79998779297</ele>
        <time>2012-03-11T12:13:58.000Z</time>
      </trkpt>
      <trkpt lat="43.55877" lon="6.91538">
        <ele>359.79998779297</ele>
        <time>2012-03-11T12:14:01.000Z</time>
      </trkpt>
      <trkpt lat="43.55869" lon="6.91549">
        <ele>357.79998779297</ele>
        <time>2012-03-11T12:14:05.000Z</time>
      </trkpt>
      <trkpt lat="43.55859" lon="6.91549">
        <ele>355.79998779297</ele>
        <time>2012-03-11T12:14:10.000Z</time>
      </trkpt>
      <trkpt lat="43.55847" lon="6.91557">
        <ele>353.39999389648</ele>
        <time>2012-03-11T12:14:14.000Z</time>
      </trkpt>
      <trkpt lat="43.55841" lon="6.91553">
        <ele>352.20001220703</ele>
        <time>2012-03-11T12:14:17.000Z</time>
      </trkpt>
      <trkpt lat="43.55839" lon="6.91551">
        <ele>351.60000610352</ele>
        <time>2012-03-11T12:14:23.000Z</time>
      </trkpt>
      <trkpt lat="43.55837" lon="6.91549">
        <ele>351</ele>
        <time>2012-03-11T12:14:25.000Z</time>
      </trkpt>
      <trkpt lat="43.55828" lon="6.9155">
        <ele>349.20001220703</ele>
        <time>2012-03-11T12:14:30.000Z</time>
      </trkpt>
      <trkpt lat="43.55816" lon="6.91568">
        <ele>347</ele>
        <time>2012-03-11T12:14:35.000Z</time>
      </trkpt>
      <trkpt lat="43.5581" lon="6.91575">
        <ele>346.20001220703</ele>
        <time>2012-03-11T12:14:38.000Z</time>
      </trkpt>
      <trkpt lat="43.55803" lon="6.91566">
        <ele>343.79998779297</ele>
        <time>2012-03-11T12:14:41.000Z</time>
      </trkpt>
      <trkpt lat="43.55795" lon="6.91565">
        <ele>342</ele>
        <time>2012-03-11T12:14:44.000Z</time>
      </trkpt>
      <trkpt lat="43.55783" lon="6.91576">
        <ele>340</ele>
        <time>2012-03-11T12:14:48.000Z</time>
      </trkpt>
      <trkpt lat="43.5578" lon="6.91591">
        <ele>338.79998779297</ele>
        <time>2012-03-11T12:14:51.000Z</time>
      </trkpt>
      <trkpt lat="43.55777" lon="6.91624">
        <ele>334</ele>
        <time>2012-03-11T12:14:56.000Z</time>
      </trkpt>
      <trkpt lat="43.55767" lon="6.91646">
        <ele>330.20001220703</ele>
        <time>2012-03-11T12:15:00.000Z</time>
      </trkpt>
      <trkpt lat="43.5576" lon="6.91659">
        <ele>328.39999389648</ele>
        <time>2012-03-11T12:15:02.000Z</time>
      </trkpt>
      <trkpt lat="43.55756" lon="6.91668">
        <ele>327</ele>
        <time>2012-03-11T12:15:04.000Z</time>
      </trkpt>
      <trkpt lat="43.55754" lon="6.91689">
        <ele>323.79998779297</ele>
        <time>2012-03-11T12:15:09.000Z</time>
      </trkpt>
      <trkpt lat="43.55743" lon="6.91711">
        <ele>320</ele>
        <time>2012-03-11T12:15:13.000Z</time>
      </trkpt>
      <trkpt lat="43.55714" lon="6.91729">
        <ele>316.79998779297</ele>
        <time>2012-03-11T12:15:18.000Z</time>
      </trkpt>
      <trkpt lat="43.55702" lon="6.91732">
        <ele>316.39999389648</ele>
        <time>2012-03-11T12:15:20.000Z</time>
      </trkpt>
      <trkpt lat="43.55671" lon="6.91744">
        <ele>317</ele>
        <time>2012-03-11T12:15:25.000Z</time>
      </trkpt>
      <trkpt lat="43.55659" lon="6.91742">
        <ele>315.60000610352</ele>
        <time>2012-03-11T12:15:27.000Z</time>
      </trkpt>
      <trkpt lat="43.55632" lon="6.91732">
        <ele>309.79998779297</ele>
        <time>2012-03-11T12:15:31.000Z</time>
      </trkpt>
      <trkpt lat="43.55615" lon="6.91737">
        <ele>307.79998779297</ele>
        <time>2012-03-11T12:15:35.000Z</time>
      </trkpt>
      <trkpt lat="43.55608" lon="6.91743">
        <ele>307.79998779297</ele>
        <time>2012-03-11T12:15:37.000Z</time>
      </trkpt>
      <trkpt lat="43.55596" lon="6.91754">
        <ele>307</ele>
        <time>2012-03-11T12:15:40.000Z</time>
      </trkpt>
      <trkpt lat="43.55583" lon="6.91771">
        <ele>304.60000610352</ele>
        <time>2012-03-11T12:15:44.000Z</time>
      </trkpt>
      <trkpt lat="43.55575" lon="6.91794">
        <ele>302.20001220703</ele>
        <time>2012-03-11T12:15:48.000Z</time>
      </trkpt>
      <trkpt lat="43.55565" lon="6.91814">
        <ele>300.20001220703</ele>
        <time>2012-03-11T12:15:52.000Z</time>
      </trkpt>
      <trkpt lat="43.55555" lon="6.91813">
        <ele>298</ele>
        <time>2012-03-11T12:15:55.000Z</time>
      </trkpt>
      <trkpt lat="43.55548" lon="6.91819">
        <ele>296.79998779297</ele>
        <time>2012-03-11T12:15:58.000Z</time>
      </trkpt>
      <trkpt lat="43.55547" lon="6.91834">
        <ele>296.79998779297</ele>
        <time>2012-03-11T12:16:02.000Z</time>
      </trkpt>
      <trkpt lat="43.5554" lon="6.91853">
        <ele>293.60000610352</ele>
        <time>2012-03-11T12:16:06.000Z</time>
      </trkpt>
      <trkpt lat="43.55525" lon="6.91852">
        <ele>291.60000610352</ele>
        <time>2012-03-11T12:16:11.000Z</time>
      </trkpt>
      <trkpt lat="43.55518" lon="6.91852">
        <ele>290.60000610352</ele>
        <time>2012-03-11T12:16:14.000Z</time>
      </trkpt>
      <trkpt lat="43.55516" lon="6.91861">
        <ele>289.60000610352</ele>
        <time>2012-03-11T12:16:16.000Z</time>
      </trkpt>
      <trkpt lat="43.5551" lon="6.91881">
        <ele>287.60000610352</ele>
        <time>2012-03-11T12:16:20.000Z</time>
      </trkpt>
      <trkpt lat="43.555" lon="6.91897">
        <ele>286</ele>
        <time>2012-03-11T12:16:23.000Z</time>
      </trkpt>
      <trkpt lat="43.55494" lon="6.91909">
        <ele>286.39999389648</ele>
        <time>2012-03-11T12:16:25.000Z</time>
      </trkpt>
      <trkpt lat="43.55487" lon="6.91929">
        <ele>286.39999389648</ele>
        <time>2012-03-11T12:16:30.000Z</time>
      </trkpt>
      <trkpt lat="43.55485" lon="6.91945">
        <ele>285</ele>
        <time>2012-03-11T12:16:33.000Z</time>
      </trkpt>
      <trkpt lat="43.55489" lon="6.91965">
        <ele>282</ele>
        <time>2012-03-11T12:16:39.000Z</time>
      </trkpt>
      <trkpt lat="43.55493" lon="6.91973">
        <ele>280.20001220703</ele>
        <time>2012-03-11T12:16:42.000Z</time>
      </trkpt>
      <trkpt lat="43.55495" lon="6.91996">
        <ele>277</ele>
        <time>2012-03-11T12:16:47.000Z</time>
      </trkpt>
      <trkpt lat="43.55494" lon="6.92029">
        <ele>271.79998779297</ele>
        <time>2012-03-11T12:16:52.000Z</time>
      </trkpt>
      <trkpt lat="43.55491" lon="6.92054">
        <ele>268.79998779297</ele>
        <time>2012-03-11T12:16:55.000Z</time>
      </trkpt>
      <trkpt lat="43.55493" lon="6.9207">
        <ele>265.39999389648</ele>
        <time>2012-03-11T12:16:58.000Z</time>
      </trkpt>
      <trkpt lat="43.55492" lon="6.92099">
        <ele>261</ele>
        <time>2012-03-11T12:17:03.000Z</time>
      </trkpt>
      <trkpt lat="43.55493" lon="6.92105">
        <ele>259.60000610352</ele>
        <time>2012-03-11T12:17:04.000Z</time>
      </trkpt>
      <trkpt lat="43.55499" lon="6.92131">
        <ele>254</ele>
        <time>2012-03-11T12:17:09.000Z</time>
      </trkpt>
      <trkpt lat="43.55504" lon="6.9213">
        <ele>252.80000305176</ele>
        <time>2012-03-11T12:17:11.000Z</time>
      </trkpt>
      <trkpt lat="43.55516" lon="6.92122">
        <ele>251.19999694824</ele>
        <time>2012-03-11T12:17:16.000Z</time>
      </trkpt>
      <trkpt lat="43.55525" lon="6.92102">
        <ele>251.80000305176</ele>
        <time>2012-03-11T12:17:20.000Z</time>
      </trkpt>
      <trkpt lat="43.55538" lon="6.92062">
        <ele>255.39999389648</ele>
        <time>2012-03-11T12:17:26.000Z</time>
      </trkpt>
      <trkpt lat="43.55555" lon="6.92045">
        <ele>254.80000305176</ele>
        <time>2012-03-11T12:17:30.000Z</time>
      </trkpt>
      <trkpt lat="43.55565" lon="6.92044">
        <ele>252.80000305176</ele>
        <time>2012-03-11T12:17:33.000Z</time>
      </trkpt>
      <trkpt lat="43.55576" lon="6.92045">
        <ele>250</ele>
        <time>2012-03-11T12:17:36.000Z</time>
      </trkpt>
      <trkpt lat="43.55608" lon="6.92048">
        <ele>247.80000305176</ele>
        <time>2012-03-11T12:17:42.000Z</time>
      </trkpt>
      <trkpt lat="43.55627" lon="6.92053">
        <ele>247.39999389648</ele>
        <time>2012-03-11T12:17:45.000Z</time>
      </trkpt>
      <trkpt lat="43.55643" lon="6.92066">
        <ele>245</ele>
        <time>2012-03-11T12:17:49.000Z</time>
      </trkpt>
      <trkpt lat="43.55641" lon="6.9208">
        <ele>242.39999389648</ele>
        <time>2012-03-11T12:17:52.000Z</time>
      </trkpt>
      <trkpt lat="43.55633" lon="6.92088">
        <ele>241.19999694824</ele>
        <time>2012-03-11T12:17:55.000Z</time>
      </trkpt>
      <trkpt lat="43.55617" lon="6.92112">
        <ele>238.39999389648</ele>
        <time>2012-03-11T12:18:01.000Z</time>
      </trkpt>
      <trkpt lat="43.55615" lon="6.92123">
        <ele>237.39999389648</ele>
        <time>2012-03-11T12:18:03.000Z</time>
      </trkpt>
      <trkpt lat="43.55625" lon="6.92158">
        <ele>235.60000610352</ele>
        <time>2012-03-11T12:18:08.000Z</time>
      </trkpt>
      <trkpt lat="43.55635" lon="6.92186">
        <ele>234</ele>
        <time>2012-03-11T12:18:13.000Z</time>
      </trkpt>
      <trkpt lat="43.55647" lon="6.92209">
        <ele>232.60000610352</ele>
        <time>2012-03-11T12:18:17.000Z</time>
      </trkpt>
      <trkpt lat="43.55653" lon="6.9222">
        <ele>231.80000305176</ele>
        <time>2012-03-11T12:18:20.000Z</time>
      </trkpt>
      <trkpt lat="43.5566" lon="6.92249">
        <ele>228.60000610352</ele>
        <time>2012-03-11T12:18:25.000Z</time>
      </trkpt>
      <trkpt lat="43.55673" lon="6.92279">
        <ele>223</ele>
        <time>2012-03-11T12:18:31.000Z</time>
      </trkpt>
      <trkpt lat="43.55668" lon="6.92293">
        <ele>218.80000305176</ele>
        <time>2012-03-11T12:18:34.000Z</time>
      </trkpt>
      <trkpt lat="43.55663" lon="6.92302">
        <ele>216.39999389648</ele>
        <time>2012-03-11T12:18:36.000Z</time>
      </trkpt>
      <trkpt lat="43.55649" lon="6.92316">
        <ele>212.80000305176</ele>
        <time>2012-03-11T12:18:41.000Z</time>
      </trkpt>
      <trkpt lat="43.55645" lon="6.92319">
        <ele>211.80000305176</ele>
        <time>2012-03-11T12:18:42.000Z</time>
      </trkpt>
      <trkpt lat="43.5564" lon="6.9231">
        <ele>213.80000305176</ele>
        <time>2012-03-11T12:18:46.000Z</time>
      </trkpt>
      <trkpt lat="43.55639" lon="6.92285">
        <ele>219.39999389648</ele>
        <time>2012-03-11T12:18:50.000Z</time>
      </trkpt>
      <trkpt lat="43.55638" lon="6.92279">
        <ele>220.60000610352</ele>
        <time>2012-03-11T12:18:51.000Z</time>
      </trkpt>
      <trkpt lat="43.5562" lon="6.92265">
        <ele>222.60000610352</ele>
        <time>2012-03-11T12:18:55.000Z</time>
      </trkpt>
      <trkpt lat="43.55606" lon="6.92276">
        <ele>219.60000610352</ele>
        <time>2012-03-11T12:18:58.000Z</time>
      </trkpt>
      <trkpt lat="43.55601" lon="6.92282">
        <ele>218.19999694824</ele>
        <time>2012-03-11T12:18:59.000Z</time>
      </trkpt>
      <trkpt lat="43.55574" lon="6.92323">
        <ele>210.19999694824</ele>
        <time>2012-03-11T12:19:05.000Z</time>
      </trkpt>
      <trkpt lat="43.5557" lon="6.92329">
        <ele>209.19999694824</ele>
        <time>2012-03-11T12:19:06.000Z</time>
      </trkpt>
      <trkpt lat="43.55554" lon="6.92346">
        <ele>204</ele>
        <time>2012-03-11T12:19:10.000Z</time>
      </trkpt>
      <trkpt lat="43.55547" lon="6.92357">
        <ele>200.19999694824</ele>
        <time>2012-03-11T12:19:13.000Z</time>
      </trkpt>
      <trkpt lat="43.55534" lon="6.92356">
        <ele>200.60000610352</ele>
        <time>2012-03-11T12:19:16.000Z</time>
      </trkpt>
      <trkpt lat="43.55505" lon="6.92354">
        <ele>201.39999389648</ele>
        <time>2012-03-11T12:19:22.000Z</time>
      </trkpt>
      <trkpt lat="43.55501" lon="6.92355">
        <ele>201.19999694824</ele>
        <time>2012-03-11T12:19:23.000Z</time>
      </trkpt>
      <trkpt lat="43.55492" lon="6.92356">
        <ele>201.60000610352</ele>
        <time>2012-03-11T12:19:25.000Z</time>
      </trkpt>
      <trkpt lat="43.5548" lon="6.92353">
        <ele>204.19999694824</ele>
        <time>2012-03-11T12:19:29.000Z</time>
      </trkpt>
      <trkpt lat="43.55472" lon="6.92345">
        <ele>207.60000610352</ele>
        <time>2012-03-11T12:19:32.000Z</time>
      </trkpt>
      <trkpt lat="43.55458" lon="6.92354">
        <ele>206</ele>
        <time>2012-03-11T12:19:36.000Z</time>
      </trkpt>
      <trkpt lat="43.55451" lon="6.92359">
        <ele>205.19999694824</ele>
        <time>2012-03-11T12:19:39.000Z</time>
      </trkpt>
      <trkpt lat="43.55447" lon="6.92372">
        <ele>201.39999389648</ele>
        <time>2012-03-11T12:19:43.000Z</time>
      </trkpt>
      <trkpt lat="43.55445" lon="6.92375">
        <ele>200.60000610352</ele>
        <time>2012-03-11T12:19:44.000Z</time>
      </trkpt>
      <trkpt lat="43.55441" lon="6.92392">
        <ele>195.60000610352</ele>
        <time>2012-03-11T12:19:49.000Z</time>
      </trkpt>
      <trkpt lat="43.55432" lon="6.92414">
        <ele>189.60000610352</ele>
        <time>2012-03-11T12:19:53.000Z</time>
      </trkpt>
      <trkpt lat="43.55414" lon="6.92443">
        <ele>183.39999389648</ele>
        <time>2012-03-11T12:19:57.000Z</time>
      </trkpt>
      <trkpt lat="43.55389" lon="6.92502">
        <ele>172.19999694824</ele>
        <time>2012-03-11T12:20:03.000Z</time>
      </trkpt>
      <trkpt lat="43.55378" lon="6.92543">
        <ele>163.60000610352</ele>
        <time>2012-03-11T12:20:08.000Z</time>
      </trkpt>
      <trkpt lat="43.55364" lon="6.9256">
        <ele>162.39999389648</ele>
        <time>2012-03-11T12:20:12.000Z</time>
      </trkpt>
      <trkpt lat="43.55346" lon="6.9258">
        <ele>162.19999694824</ele>
        <time>2012-03-11T12:20:18.000Z</time>
      </trkpt>
      <trkpt lat="43.55339" lon="6.92586">
        <ele>162.39999389648</ele>
        <time>2012-03-11T12:20:20.000Z</time>
      </trkpt>
      <trkpt lat="43.55332" lon="6.92593">
        <ele>162.80000305176</ele>
        <time>2012-03-11T12:20:22.000Z</time>
      </trkpt>
      <trkpt lat="43.5532" lon="6.92597">
        <ele>161.19999694824</ele>
        <time>2012-03-11T12:20:26.000Z</time>
      </trkpt>
      <trkpt lat="43.55323" lon="6.92603">
        <ele>159.80000305176</ele>
        <time>2012-03-11T12:20:29.000Z</time>
      </trkpt>
      <trkpt lat="43.55329" lon="6.92604">
        <ele>159.80000305176</ele>
        <time>2012-03-11T12:20:31.000Z</time>
      </trkpt>
      <trkpt lat="43.55333" lon="6.92605">
        <ele>159.60000610352</ele>
        <time>2012-03-11T12:20:35.000Z</time>
      </trkpt>
      <trkpt lat="43.55338" lon="6.92617">
        <ele>155.60000610352</ele>
        <time>2012-03-11T12:20:39.000Z</time>
      </trkpt>
      <trkpt lat="43.55334" lon="6.92628">
        <ele>154</ele>
        <time>2012-03-11T12:20:42.000Z</time>
      </trkpt>
      <trkpt lat="43.55322" lon="6.92636">
        <ele>152.39999389648</ele>
        <time>2012-03-11T12:20:46.000Z</time>
      </trkpt>
      <trkpt lat="43.55327" lon="6.92647">
        <ele>149.80000305176</ele>
        <time>2012-03-11T12:20:50.000Z</time>
      </trkpt>
      <trkpt lat="43.55333" lon="6.9265">
        <ele>149</ele>
        <time>2012-03-11T12:20:53.000Z</time>
      </trkpt>
      <trkpt lat="43.55342" lon="6.92654">
        <ele>145.39999389648</ele>
        <time>2012-03-11T12:20:56.000Z</time>
      </trkpt>
      <trkpt lat="43.55345" lon="6.92662">
        <ele>142.60000610352</ele>
        <time>2012-03-11T12:20:59.000Z</time>
      </trkpt>
      <trkpt lat="43.55339" lon="6.92672">
        <ele>142.19999694824</ele>
        <time>2012-03-11T12:21:02.000Z</time>
      </trkpt>
      <trkpt lat="43.55344" lon="6.92676">
        <ele>140.19999694824</ele>
        <time>2012-03-11T12:21:05.000Z</time>
      </trkpt>
      <trkpt lat="43.55345" lon="6.9268">
        <ele>139</ele>
        <time>2012-03-11T12:21:07.000Z</time>
      </trkpt>
      <trkpt lat="43.55343" lon="6.92689">
        <ele>138</ele>
        <time>2012-03-11T12:21:09.000Z</time>
      </trkpt>
      <trkpt lat="43.5535" lon="6.92693">
        <ele>135</ele>
        <time>2012-03-11T12:21:13.000Z</time>
      </trkpt>
      <trkpt lat="43.55349" lon="6.92704">
        <ele>133.60000610352</ele>
        <time>2012-03-11T12:21:16.000Z</time>
      </trkpt>
      <trkpt lat="43.55347" lon="6.92713">
        <ele>132.19999694824</ele>
        <time>2012-03-11T12:21:19.000Z</time>
      </trkpt>
      <trkpt lat="43.55343" lon="6.92719">
        <ele>132</ele>
        <time>2012-03-11T12:21:22.000Z</time>
      </trkpt>
      <trkpt lat="43.55343" lon="6.92728">
        <ele>130.19999694824</ele>
        <time>2012-03-11T12:21:25.000Z</time>
      </trkpt>
      <trkpt lat="43.55349" lon="6.92732">
        <ele>128</ele>
        <time>2012-03-11T12:21:27.000Z</time>
      </trkpt>
      <trkpt lat="43.55358" lon="6.92732">
        <ele>126</ele>
        <time>2012-03-11T12:21:31.000Z</time>
      </trkpt>
      <trkpt lat="43.55357" lon="6.9274">
        <ele>124.59999847412</ele>
        <time>2012-03-11T12:21:35.000Z</time>
      </trkpt>
      <trkpt lat="43.5536" lon="6.92741">
        <ele>124</ele>
        <time>2012-03-11T12:21:36.000Z</time>
      </trkpt>
      <trkpt lat="43.55373" lon="6.92745">
        <ele>120.40000152588</ele>
        <time>2012-03-11T12:21:40.000Z</time>
      </trkpt>
      <trkpt lat="43.55375" lon="6.92764">
        <ele>117.19999694824</ele>
        <time>2012-03-11T12:21:44.000Z</time>
      </trkpt>
      <trkpt lat="43.55377" lon="6.92786">
        <ele>114</ele>
        <time>2012-03-11T12:21:48.000Z</time>
      </trkpt>
      <trkpt lat="43.55384" lon="6.92805">
        <ele>110.40000152588</ele>
        <time>2012-03-11T12:21:52.000Z</time>
      </trkpt>
      <trkpt lat="43.55386" lon="6.92811">
        <ele>109.40000152588</ele>
        <time>2012-03-11T12:21:53.000Z</time>
      </trkpt>
      <trkpt lat="43.55384" lon="6.92842">
        <ele>106.40000152588</ele>
        <time>2012-03-11T12:21:57.000Z</time>
      </trkpt>
      <trkpt lat="43.55383" lon="6.92848">
        <ele>105.80000305176</ele>
        <time>2012-03-11T12:21:58.000Z</time>
      </trkpt>
      <trkpt lat="43.55388" lon="6.92895">
        <ele>102</ele>
        <time>2012-03-11T12:22:03.000Z</time>
      </trkpt>
      <trkpt lat="43.55392" lon="6.92913">
        <ele>100.59999847412</ele>
        <time>2012-03-11T12:22:05.000Z</time>
      </trkpt>
      <trkpt lat="43.55395" lon="6.92956">
        <ele>101</ele>
        <time>2012-03-11T12:22:10.000Z</time>
      </trkpt>
      <trkpt lat="43.55393" lon="6.92974">
        <ele>101.19999694824</ele>
        <time>2012-03-11T12:22:14.000Z</time>
      </trkpt>
      <trkpt lat="43.5539" lon="6.92984">
        <ele>101.40000152588</ele>
        <time>2012-03-11T12:22:18.000Z</time>
      </trkpt>
      <trkpt lat="43.55389" lon="6.92989">
        <ele>101.40000152588</ele>
        <time>2012-03-11T12:22:20.000Z</time>
      </trkpt>
      <trkpt lat="43.5539" lon="6.93022">
        <ele>100.59999847412</ele>
        <time>2012-03-11T12:22:27.000Z</time>
      </trkpt>
      <trkpt lat="43.5539" lon="6.93052">
        <ele>99.400001525879</ele>
        <time>2012-03-11T12:22:32.000Z</time>
      </trkpt>
      <trkpt lat="43.55389" lon="6.9306">
        <ele>99</ele>
        <time>2012-03-11T12:22:33.000Z</time>
      </trkpt>
      <trkpt lat="43.55389" lon="6.93084">
        <ele>98</ele>
        <time>2012-03-11T12:22:36.000Z</time>
      </trkpt>
      <trkpt lat="43.55381" lon="6.93107">
        <ele>97</ele>
        <time>2012-03-11T12:22:41.000Z</time>
      </trkpt>
      <trkpt lat="43.55371" lon="6.93136">
        <ele>96.199996948242</ele>
        <time>2012-03-11T12:22:46.000Z</time>
      </trkpt>
      <trkpt lat="43.55373" lon="6.9315">
        <ele>95.199996948242</ele>
        <time>2012-03-11T12:22:50.000Z</time>
      </trkpt>
      <trkpt lat="43.55379" lon="6.93149">
        <ele>94.599998474121</ele>
        <time>2012-03-11T12:22:52.000Z</time>
      </trkpt>
      <trkpt lat="43.55393" lon="6.93141">
        <ele>93.599998474121</ele>
        <time>2012-03-11T12:22:56.000Z</time>
      </trkpt>
      <trkpt lat="43.55397" lon="6.93145">
        <ele>92.800003051758</ele>
        <time>2012-03-11T12:23:00.000Z</time>
      </trkpt>
      <trkpt lat="43.55402" lon="6.93147">
        <ele>92.199996948242</ele>
        <time>2012-03-11T12:23:03.000Z</time>
      </trkpt>
      <trkpt lat="43.55413" lon="6.93152">
        <ele>90.599998474121</ele>
        <time>2012-03-11T12:23:06.000Z</time>
      </trkpt>
      <trkpt lat="43.55433" lon="6.93167">
        <ele>84.199996948242</ele>
        <time>2012-03-11T12:23:11.000Z</time>
      </trkpt>
      <trkpt lat="43.5543" lon="6.93184">
        <ele>82</ele>
        <time>2012-03-11T12:23:15.000Z</time>
      </trkpt>
      <trkpt lat="43.5543" lon="6.93194">
        <ele>80.199996948242</ele>
        <time>2012-03-11T12:23:18.000Z</time>
      </trkpt>
      <trkpt lat="43.55442" lon="6.93199">
        <ele>76.400001525879</ele>
        <time>2012-03-11T12:23:21.000Z</time>
      </trkpt>
      <trkpt lat="43.55452" lon="6.93205">
        <ele>73</ele>
        <time>2012-03-11T12:23:25.000Z</time>
      </trkpt>
      <trkpt lat="43.5545" lon="6.93216">
        <ele>71.800003051758</ele>
        <time>2012-03-11T12:23:29.000Z</time>
      </trkpt>
      <trkpt lat="43.55453" lon="6.93222">
        <ele>70.199996948242</ele>
        <time>2012-03-11T12:23:32.000Z</time>
      </trkpt>
      <trkpt lat="43.55453" lon="6.93228">
        <ele>69.599998474121</ele>
        <time>2012-03-11T12:23:34.000Z</time>
      </trkpt>
      <trkpt lat="43.55451" lon="6.93244">
        <ele>67.599998474121</ele>
        <time>2012-03-11T12:23:40.000Z</time>
      </trkpt>
      <trkpt lat="43.55449" lon="6.93251">
        <ele>66.800003051758</ele>
        <time>2012-03-11T12:23:42.000Z</time>
      </trkpt>
      <trkpt lat="43.55455" lon="6.93266">
        <ele>63</ele>
        <time>2012-03-11T12:23:47.000Z</time>
      </trkpt>
      <trkpt lat="43.55457" lon="6.93273">
        <ele>61.400001525879</ele>
        <time>2012-03-11T12:23:50.000Z</time>
      </trkpt>
      <trkpt lat="43.55454" lon="6.93279">
        <ele>60.799999237061</ele>
        <time>2012-03-11T12:23:54.000Z</time>
      </trkpt>
      <trkpt lat="43.55453" lon="6.9328">
        <ele>60.799999237061</ele>
        <time>2012-03-11T12:23:56.000Z</time>
      </trkpt>
      <trkpt lat="43.55451" lon="6.93281">
        <ele>60.799999237061</ele>
        <time>2012-03-11T12:23:59.000Z</time>
      </trkpt>
      <trkpt lat="43.55451" lon="6.93286">
        <ele>59.799999237061</ele>
        <time>2012-03-11T12:24:05.000Z</time>
      </trkpt>
      <trkpt lat="43.55457" lon="6.9329">
        <ele>58.400001525879</ele>
        <time>2012-03-11T12:24:09.000Z</time>
      </trkpt>
      <trkpt lat="43.55459" lon="6.93292">
        <ele>57.599998474121</ele>
        <time>2012-03-11T12:24:11.000Z</time>
      </trkpt>
      <trkpt lat="43.55462" lon="6.93296">
        <ele>56.400001525879</ele>
        <time>2012-03-11T12:24:15.000Z</time>
      </trkpt>
      <trkpt lat="43.55473" lon="6.93297">
        <ele>54.799999237061</ele>
        <time>2012-03-11T12:24:19.000Z</time>
      </trkpt>
      <trkpt lat="43.55487" lon="6.93282">
        <ele>55.400001525879</ele>
        <time>2012-03-11T12:24:24.000Z</time>
      </trkpt>
      <trkpt lat="43.55497" lon="6.93277">
        <ele>54.599998474121</ele>
        <time>2012-03-11T12:24:28.000Z</time>
      </trkpt>
      <trkpt lat="43.55505" lon="6.9328">
        <ele>54.200000762939</ele>
        <time>2012-03-11T12:24:33.000Z</time>
      </trkpt>
      <trkpt lat="43.55503" lon="6.93271">
        <ele>55.200000762939</ele>
        <time>2012-03-11T12:24:36.000Z</time>
      </trkpt>
      <trkpt lat="43.55497" lon="6.93247">
        <ele>58.799999237061</ele>
        <time>2012-03-11T12:24:41.000Z</time>
      </trkpt>
      <trkpt lat="43.55496" lon="6.93224">
        <ele>60.799999237061</ele>
        <time>2012-03-11T12:24:45.000Z</time>
      </trkpt>
      <trkpt lat="43.55501" lon="6.93201">
        <ele>61.599998474121</ele>
        <time>2012-03-11T12:24:49.000Z</time>
      </trkpt>
      <trkpt lat="43.55505" lon="6.93185">
        <ele>63.599998474121</ele>
        <time>2012-03-11T12:24:52.000Z</time>
      </trkpt>
      <trkpt lat="43.55505" lon="6.9317">
        <ele>64.800003051758</ele>
        <time>2012-03-11T12:24:55.000Z</time>
      </trkpt>
      <trkpt lat="43.555" lon="6.93146">
        <ele>65.599998474121</ele>
        <time>2012-03-11T12:25:00.000Z</time>
      </trkpt>
      <trkpt lat="43.55498" lon="6.93143">
        <ele>66.199996948242</ele>
        <time>2012-03-11T12:25:01.000Z</time>
      </trkpt>
      <trkpt lat="43.55491" lon="6.9312">
        <ele>70</ele>
        <time>2012-03-11T12:25:07.000Z</time>
      </trkpt>
      <trkpt lat="43.55489" lon="6.93093">
        <ele>72.800003051758</ele>
        <time>2012-03-11T12:25:13.000Z</time>
      </trkpt>
      <trkpt lat="43.55487" lon="6.93075">
        <ele>75.199996948242</ele>
        <time>2012-03-11T12:25:18.000Z</time>
      </trkpt>
      <trkpt lat="43.55487" lon="6.93074">
        <ele>75.400001525879</ele>
        <time>2012-03-11T12:25:19.000Z</time>
      </trkpt>
      <trkpt lat="43.55489" lon="6.9307">
        <ele>75.199996948242</ele>
        <time>2012-03-11T12:25:24.000Z</time>
      </trkpt>
      <trkpt lat="43.55491" lon="6.93073">
        <ele>74.199996948242</ele>
        <time>2012-03-11T12:25:26.000Z</time>
      </trkpt>
      <trkpt lat="43.55495" lon="6.93087">
        <ele>71.400001525879</ele>
        <time>2012-03-11T12:25:31.000Z</time>
      </trkpt>
      <trkpt lat="43.55496" lon="6.931">
        <ele>70</ele>
        <time>2012-03-11T12:25:35.000Z</time>
      </trkpt>
      <trkpt lat="43.55504" lon="6.93124">
        <ele>68.199996948242</ele>
        <time>2012-03-11T12:25:41.000Z</time>
      </trkpt>
      <trkpt lat="43.55506" lon="6.93128">
        <ele>68.599998474121</ele>
        <time>2012-03-11T12:25:43.000Z</time>
      </trkpt>
      <trkpt lat="43.55508" lon="6.93132">
        <ele>68.800003051758</ele>
        <time>2012-03-11T12:25:45.000Z</time>
      </trkpt>
      <trkpt lat="43.55516" lon="6.93141">
        <ele>70.199996948242</ele>
        <time>2012-03-11T12:25:49.000Z</time>
      </trkpt>
      <trkpt lat="43.55524" lon="6.93148">
        <ele>71.599998474121</ele>
        <time>2012-03-11T12:25:54.000Z</time>
      </trkpt>
      <trkpt lat="43.55527" lon="6.93151">
        <ele>72</ele>
        <time>2012-03-11T12:25:56.000Z</time>
      </trkpt>
      <trkpt lat="43.55528" lon="6.93162">
        <ele>71</ele>
        <time>2012-03-11T12:26:02.000Z</time>
      </trkpt>
      <trkpt lat="43.55528" lon="6.93184">
        <ele>68.800003051758</ele>
        <time>2012-03-11T12:26:08.000Z</time>
      </trkpt>
      <trkpt lat="43.55526" lon="6.93201">
        <ele>66.400001525879</ele>
        <time>2012-03-11T12:26:14.000Z</time>
      </trkpt>
      <trkpt lat="43.55532" lon="6.93216">
        <ele>65.599998474121</ele>
        <time>2012-03-11T12:26:17.000Z</time>
      </trkpt>
      <trkpt lat="43.55546" lon="6.93247">
        <ele>63.400001525879</ele>
        <time>2012-03-11T12:26:23.000Z</time>
      </trkpt>
      <trkpt lat="43.55558" lon="6.93267">
        <ele>61.400001525879</ele>
        <time>2012-03-11T12:26:27.000Z</time>
      </trkpt>
      <trkpt lat="43.55564" lon="6.9328">
        <ele>59.799999237061</ele>
        <time>2012-03-11T12:26:30.000Z</time>
      </trkpt>
      <trkpt lat="43.55574" lon="6.93297">
        <ele>57.799999237061</ele>
        <time>2012-03-11T12:26:33.000Z</time>
      </trkpt>
      <trkpt lat="43.55581" lon="6.93328">
        <ele>52.799999237061</ele>
        <time>2012-03-11T12:26:38.000Z</time>
      </trkpt>
      <trkpt lat="43.55574" lon="6.93354">
        <ele>48.799999237061</ele>
        <time>2012-03-11T12:26:42.000Z</time>
      </trkpt>
      <trkpt lat="43.55564" lon="6.93377">
        <ele>45</ele>
        <time>2012-03-11T12:26:45.000Z</time>
      </trkpt>
      <trkpt lat="43.55563" lon="6.9339">
        <ele>43.200000762939</ele>
        <time>2012-03-11T12:26:48.000Z</time>
      </trkpt>
      <trkpt lat="43.55564" lon="6.93395">
        <ele>42.799999237061</ele>
        <time>2012-03-11T12:26:49.000Z</time>
      </trkpt>
      <trkpt lat="43.55563" lon="6.93417">
        <ele>39.799999237061</ele>
        <time>2012-03-11T12:26:53.000Z</time>
      </trkpt>
      <trkpt lat="43.55556" lon="6.93432">
        <ele>37</ele>
        <time>2012-03-11T12:26:57.000Z</time>
      </trkpt>
      <trkpt lat="43.55563" lon="6.93448">
        <ele>36.400001525879</ele>
        <time>2012-03-11T12:27:01.000Z</time>
      </trkpt>
      <trkpt lat="43.55572" lon="6.93474">
        <ele>35</ele>
        <time>2012-03-11T12:27:08.000Z</time>
      </trkpt>
      <trkpt lat="43.55574" lon="6.93484">
        <ele>34.200000762939</ele>
        <time>2012-03-11T12:27:12.000Z</time>
      </trkpt>
      <trkpt lat="43.55574" lon="6.93487">
        <ele>34</ele>
        <time>2012-03-11T12:27:25.000Z</time>
      </trkpt>
      <trkpt lat="43.55577" lon="6.93479">
        <ele>35.400001525879</ele>
        <time>2012-03-11T12:28:54.000Z</time>
      </trkpt>
      <trkpt lat="43.55577" lon="6.9348">
        <ele>35.200000762939</ele>
        <time>2012-03-11T12:29:58.000Z</time>
      </trkpt>
      <trkpt lat="43.55584" lon="6.93492">
        <ele>35</ele>
        <time>2012-03-11T12:30:05.000Z</time>
      </trkpt>
      <trkpt lat="43.55591" lon="6.93501">
        <ele>34.799999237061</ele>
        <time>2012-03-11T12:30:09.000Z</time>
      </trkpt>
      <trkpt lat="43.556" lon="6.93501">
        <ele>36</ele>
        <time>2012-03-11T12:30:13.000Z</time>
      </trkpt>
      <trkpt lat="43.55615" lon="6.93503">
        <ele>37.599998474121</ele>
        <time>2012-03-11T12:30:19.000Z</time>
      </trkpt>
      <trkpt lat="43.55617" lon="6.93522">
        <ele>36.200000762939</ele>
        <time>2012-03-11T12:30:24.000Z</time>
      </trkpt>
      <trkpt lat="43.55613" lon="6.93532">
        <ele>34.799999237061</ele>
        <time>2012-03-11T12:30:26.000Z</time>
      </trkpt>
      <trkpt lat="43.55592" lon="6.93574">
        <ele>28</ele>
        <time>2012-03-11T12:30:32.000Z</time>
      </trkpt>
      <trkpt lat="43.55585" lon="6.9359">
        <ele>26</ele>
        <time>2012-03-11T12:30:34.000Z</time>
      </trkpt>
      <trkpt lat="43.55579" lon="6.93607">
        <ele>25</ele>
        <time>2012-03-11T12:30:36.000Z</time>
      </trkpt>
      <trkpt lat="43.55569" lon="6.93657">
        <ele>23.39999961853</ele>
        <time>2012-03-11T12:30:41.000Z</time>
      </trkpt>
      <trkpt lat="43.55556" lon="6.93684">
        <ele>22.200000762939</ele>
        <time>2012-03-11T12:30:45.000Z</time>
      </trkpt>
      <trkpt lat="43.55535" lon="6.93705">
        <ele>20.60000038147</ele>
        <time>2012-03-11T12:30:49.000Z</time>
      </trkpt>
      <trkpt lat="43.55516" lon="6.93735">
        <ele>19</ele>
        <time>2012-03-11T12:30:53.000Z</time>
      </trkpt>
      <trkpt lat="43.55498" lon="6.93792">
        <ele>16.39999961853</ele>
        <time>2012-03-11T12:30:59.000Z</time>
      </trkpt>
      <trkpt lat="43.55504" lon="6.93807">
        <ele>16</ele>
        <time>2012-03-11T12:31:03.000Z</time>
      </trkpt>
      <trkpt lat="43.55518" lon="6.93807">
        <ele>16.39999961853</ele>
        <time>2012-03-11T12:31:06.000Z</time>
      </trkpt>
      <trkpt lat="43.5554" lon="6.93812">
        <ele>16.39999961853</ele>
        <time>2012-03-11T12:31:10.000Z</time>
      </trkpt>
      <trkpt lat="43.55557" lon="6.93828">
        <ele>16</ele>
        <time>2012-03-11T12:31:14.000Z</time>
      </trkpt>
      <trkpt lat="43.55558" lon="6.93862">
        <ele>14.800000190735</ele>
        <time>2012-03-11T12:31:17.000Z</time>
      </trkpt>
      <trkpt lat="43.55549" lon="6.93894">
        <ele>13.800000190735</ele>
        <time>2012-03-11T12:31:21.000Z</time>
      </trkpt>
      <trkpt lat="43.55547" lon="6.93899">
        <ele>13.800000190735</ele>
        <time>2012-03-11T12:31:22.000Z</time>
      </trkpt>
      <trkpt lat="43.55541" lon="6.93916">
        <ele>13.60000038147</ele>
        <time>2012-03-11T12:31:27.000Z</time>
      </trkpt>
      <trkpt lat="43.55544" lon="6.93919">
        <ele>13.39999961853</ele>
        <time>2012-03-11T12:31:28.000Z</time>
      </trkpt>
      <trkpt lat="43.55558" lon="6.93941">
        <ele>13</ele>
        <time>2012-03-11T12:31:34.000Z</time>
      </trkpt>
      <trkpt lat="43.55557" lon="6.93956">
        <ele>13</ele>
        <time>2012-03-11T12:31:38.000Z</time>
      </trkpt>
      <trkpt lat="43.55555" lon="6.94003">
        <ele>13.199999809265</ele>
        <time>2012-03-11T12:31:45.000Z</time>
      </trkpt>
      <trkpt lat="43.5555" lon="6.94035">
        <ele>12</ele>
        <time>2012-03-11T12:31:50.000Z</time>
      </trkpt>
      <trkpt lat="43.55547" lon="6.94054">
        <ele>11.199999809265</ele>
        <time>2012-03-11T12:31:53.000Z</time>
      </trkpt>
      <trkpt lat="43.55551" lon="6.94084">
        <ele>9.6000003814697</ele>
        <time>2012-03-11T12:31:56.000Z</time>
      </trkpt>
      <trkpt lat="43.55555" lon="6.94097">
        <ele>9</ele>
        <time>2012-03-11T12:31:58.000Z</time>
      </trkpt>
      <trkpt lat="43.55543" lon="6.94123">
        <ele>8.8000001907349</ele>
        <time>2012-03-11T12:32:03.000Z</time>
      </trkpt>
      <trkpt lat="43.55532" lon="6.94137">
        <ele>9</ele>
        <time>2012-03-11T12:32:07.000Z</time>
      </trkpt>
      <trkpt lat="43.55478" lon="6.94143">
        <ele>10.199999809265</ele>
        <time>2012-03-11T12:32:15.000Z</time>
      </trkpt>
      <trkpt lat="43.5544" lon="6.94148">
        <ele>9.6000003814697</ele>
        <time>2012-03-11T12:32:24.000Z</time>
      </trkpt>
      <trkpt lat="43.55435" lon="6.9415">
        <ele>9.3999996185303</ele>
        <time>2012-03-11T12:32:25.000Z</time>
      </trkpt>
      <trkpt lat="43.5543" lon="6.94153">
        <ele>9.3999996185303</ele>
        <time>2012-03-11T12:32:29.000Z</time>
      </trkpt>
      <trkpt lat="43.55431" lon="6.94152">
        <ele>9.3999996185303</ele>
        <time>2012-03-11T12:32:31.000Z</time>
      </trkpt>
      <trkpt lat="43.55438" lon="6.94153">
        <ele>9.3999996185303</ele>
        <time>2012-03-11T12:32:36.000Z</time>
      </trkpt>
      <trkpt lat="43.5544" lon="6.94153">
        <ele>9.3999996185303</ele>
        <time>2012-03-11T12:32:37.000Z</time>
      </trkpt>
      <trkpt lat="43.55441" lon="6.94162">
        <ele>9.3999996185303</ele>
        <time>2012-03-11T12:32:42.000Z</time>
      </trkpt>
      <trkpt lat="43.55437" lon="6.94176">
        <ele>8.8000001907349</ele>
        <time>2012-03-11T12:32:47.000Z</time>
      </trkpt>
      <trkpt lat="43.55434" lon="6.94191">
        <ele>8.1999998092651</ele>
        <time>2012-03-11T12:32:51.000Z</time>
      </trkpt>
      <trkpt lat="43.55429" lon="6.94223">
        <ele>6.5999999046326</ele>
        <time>2012-03-11T12:32:56.000Z</time>
      </trkpt>
      <trkpt lat="43.55423" lon="6.94284">
        <ele>4.8000001907349</ele>
        <time>2012-03-11T12:33:05.000Z</time>
      </trkpt>
      <trkpt lat="43.55418" lon="6.94318">
        <ele>4.1999998092651</ele>
        <time>2012-03-11T12:33:10.000Z</time>
      </trkpt>
      <trkpt lat="43.55408" lon="6.94341">
        <ele>4</ele>
        <time>2012-03-11T12:33:14.000Z</time>
      </trkpt>
      <trkpt lat="43.55394" lon="6.94349">
        <ele>4</ele>
        <time>2012-03-11T12:33:17.000Z</time>
      </trkpt>
      <trkpt lat="43.5536" lon="6.94348">
        <ele>3.4000000953674</ele>
        <time>2012-03-11T12:33:24.000Z</time>
      </trkpt>
      <trkpt lat="43.55337" lon="6.94346">
        <ele>3</ele>
        <time>2012-03-11T12:33:29.000Z</time>
      </trkpt>
      <trkpt lat="43.55325" lon="6.94344">
        <ele>3.2000000476837</ele>
        <time>2012-03-11T12:33:32.000Z</time>
      </trkpt>
      <trkpt lat="43.55305" lon="6.94343">
        <ele>4</ele>
        <time>2012-03-11T12:33:37.000Z</time>
      </trkpt>
      <trkpt lat="43.55287" lon="6.94341">
        <ele>4.5999999046326</ele>
        <time>2012-03-11T12:33:43.000Z</time>
      </trkpt>
      <trkpt lat="43.55264" lon="6.94332">
        <ele>5.4000000953674</ele>
        <time>2012-03-11T12:33:49.000Z</time>
      </trkpt>
      <trkpt lat="43.55226" lon="6.94325">
        <ele>5</ele>
        <time>2012-03-11T12:33:58.000Z</time>
      </trkpt>
      <trkpt lat="43.55199" lon="6.94321">
        <ele>4.1999998092651</ele>
        <time>2012-03-11T12:34:04.000Z</time>
      </trkpt>
      <trkpt lat="43.55168" lon="6.94316">
        <ele>3.2000000476837</ele>
        <time>2012-03-11T12:34:11.000Z</time>
      </trkpt>
      <trkpt lat="43.55151" lon="6.9431">
        <ele>3.5999999046326</ele>
        <time>2012-03-11T12:34:15.000Z</time>
      </trkpt>
      <trkpt lat="43.55135" lon="6.94306">
        <ele>3.7999999523163</ele>
        <time>2012-03-11T12:34:19.000Z</time>
      </trkpt>
      <trkpt lat="43.55115" lon="6.94299">
        <ele>4.1999998092651</ele>
        <time>2012-03-11T12:34:25.000Z</time>
      </trkpt>
      <trkpt lat="43.55111" lon="6.94303">
        <ele>4.1999998092651</ele>
        <time>2012-03-11T12:34:33.000Z</time>
      </trkpt>
      <trkpt lat="43.55108" lon="6.9431">
        <ele>4.1999998092651</ele>
        <time>2012-03-11T12:34:41.000Z</time>
      </trkpt>
      <trkpt lat="43.55106" lon="6.94319">
        <ele>4</ele>
        <time>2012-03-11T12:34:47.000Z</time>
      </trkpt>
      <trkpt lat="43.55104" lon="6.94342">
        <ele>3.7999999523163</ele>
        <time>2012-03-11T12:34:53.000Z</time>
      </trkpt>
      <trkpt lat="43.55093" lon="6.94343">
        <ele>4</ele>
        <time>2012-03-11T12:34:58.000Z</time>
      </trkpt>
      <trkpt lat="43.55072" lon="6.9434">
        <ele>4</ele>
        <time>2012-03-11T12:35:04.000Z</time>
      </trkpt>
      <trkpt lat="43.55059" lon="6.94337">
        <ele>4</ele>
        <time>2012-03-11T12:35:09.000Z</time>
      </trkpt>
      <trkpt lat="43.55049" lon="6.94335">
        <ele>4</ele>
        <time>2012-03-11T12:35:14.000Z</time>
      </trkpt>
      <trkpt lat="43.55034" lon="6.94334">
        <ele>4</ele>
        <time>2012-03-11T12:35:19.000Z</time>
      </trkpt>
      <trkpt lat="43.55015" lon="6.94335">
        <ele>4</ele>
        <time>2012-03-11T12:35:25.000Z</time>
      </trkpt>
      <trkpt lat="43.55007" lon="6.94341">
        <ele>4</ele>
        <time>2012-03-11T12:35:29.000Z</time>
      </trkpt>
      <trkpt lat="43.54995" lon="6.94345">
        <ele>4</ele>
        <time>2012-03-11T12:35:34.000Z</time>
      </trkpt>
      <trkpt lat="43.54985" lon="6.94353">
        <ele>3.5999999046326</ele>
        <time>2012-03-11T12:35:38.000Z</time>
      </trkpt>
      <trkpt lat="43.54983" lon="6.94355">
        <ele>3.5999999046326</ele>
        <time>2012-03-11T12:35:39.000Z</time>
      </trkpt>
      <trkpt lat="43.5496" lon="6.94356">
        <ele>2.7999999523163</ele>
        <time>2012-03-11T12:35:45.000Z</time>
      </trkpt>
      <trkpt lat="43.54941" lon="6.94352">
        <ele>1.7999999523163</ele>
        <time>2012-03-11T12:35:50.000Z</time>
      </trkpt>
      <trkpt lat="43.5493" lon="6.94356">
        <ele>1.6000000238419</ele>
        <time>2012-03-11T12:35:52.000Z</time>
      </trkpt>
      <trkpt lat="43.54914" lon="6.94362">
        <ele>1.3999999761581</ele>
        <time>2012-03-11T12:35:57.000Z</time>
      </trkpt>
      <trkpt lat="43.54893" lon="6.94363">
        <ele>1.6000000238419</ele>
        <time>2012-03-11T12:36:03.000Z</time>
      </trkpt>
      <trkpt lat="43.54869" lon="6.94357">
        <ele>1.7999999523163</ele>
        <time>2012-03-11T12:36:09.000Z</time>
      </trkpt>
      <trkpt lat="43.5485" lon="6.94354">
        <ele>2</ele>
        <time>2012-03-11T12:36:14.000Z</time>
      </trkpt>
      <trkpt lat="43.54846" lon="6.94351">
        <ele>2</ele>
        <time>2012-03-11T12:36:15.000Z</time>
      </trkpt>
      <trkpt lat="43.54816" lon="6.94341">
        <ele>2.7999999523163</ele>
        <time>2012-03-11T12:36:22.000Z</time>
      </trkpt>
      <trkpt lat="43.54806" lon="6.94333">
        <ele>3.4000000953674</ele>
        <time>2012-03-11T12:36:25.000Z</time>
      </trkpt>
      <trkpt lat="43.54778" lon="6.94314">
        <ele>5.4000000953674</ele>
        <time>2012-03-11T12:36:33.000Z</time>
      </trkpt>
      <trkpt lat="43.54765" lon="6.94313">
        <ele>6</ele>
        <time>2012-03-11T12:36:37.000Z</time>
      </trkpt>
      <trkpt lat="43.54747" lon="6.94319">
        <ele>6.4000000953674</ele>
        <time>2012-03-11T12:36:42.000Z</time>
      </trkpt>
      <trkpt lat="43.54744" lon="6.94327">
        <ele>6.1999998092651</ele>
        <time>2012-03-11T12:36:43.000Z</time>
      </trkpt>
      <trkpt lat="43.5473" lon="6.94351">
        <ele>5.8000001907349</ele>
        <time>2012-03-11T12:36:48.000Z</time>
      </trkpt>
      <trkpt lat="43.54696" lon="6.94377">
        <ele>5.1999998092651</ele>
        <time>2012-03-11T12:36:57.000Z</time>
      </trkpt>
      <trkpt lat="43.54693" lon="6.94381">
        <ele>5</ele>
        <time>2012-03-11T12:36:58.000Z</time>
      </trkpt>
      <trkpt lat="43.54687" lon="6.94386">
        <ele>4.5999999046326</ele>
        <time>2012-03-11T12:37:00.000Z</time>
      </trkpt>
      <trkpt lat="43.54665" lon="6.94404">
        <ele>3.5999999046326</ele>
        <time>2012-03-11T12:37:06.000Z</time>
      </trkpt>
      <trkpt lat="43.5465" lon="6.94417">
        <ele>3.2000000476837</ele>
        <time>2012-03-11T12:37:10.000Z</time>
      </trkpt>
      <trkpt lat="43.54631" lon="6.94431">
        <ele>3.2000000476837</ele>
        <time>2012-03-11T12:37:15.000Z</time>
      </trkpt>
      <trkpt lat="43.54606" lon="6.94454">
        <ele>3</ele>
        <time>2012-03-11T12:37:22.000Z</time>
      </trkpt>
      <trkpt lat="43.54584" lon="6.94475">
        <ele>2.5999999046326</ele>
        <time>2012-03-11T12:37:28.000Z</time>
      </trkpt>
      <trkpt lat="43.5456" lon="6.94497">
        <ele>2</ele>
        <time>2012-03-11T12:37:34.000Z</time>
      </trkpt>
      <trkpt lat="43.54524" lon="6.94524">
        <ele>1.7999999523163</ele>
        <time>2012-03-11T12:37:42.000Z</time>
      </trkpt>
      <trkpt lat="43.54488" lon="6.94553">
        <ele>1.7999999523163</ele>
        <time>2012-03-11T12:37:51.000Z</time>
      </trkpt>
      <trkpt lat="43.54484" lon="6.94556">
        <ele>1.7999999523163</ele>
        <time>2012-03-11T12:37:52.000Z</time>
      </trkpt>
      <trkpt lat="43.54477" lon="6.94571">
        <ele>2</ele>
        <time>2012-03-11T12:37:57.000Z</time>
      </trkpt>
      <trkpt lat="43.5448" lon="6.94578">
        <ele>1.7999999523163</ele>
        <time>2012-03-11T12:37:59.000Z</time>
      </trkpt>
      <trkpt lat="43.54491" lon="6.94601">
        <ele>1.6000000238419</ele>
        <time>2012-03-11T12:38:06.000Z</time>
      </trkpt>
      <trkpt lat="43.54508" lon="6.94631">
        <ele>1.7999999523163</ele>
        <time>2012-03-11T12:38:15.000Z</time>
      </trkpt>
      <trkpt lat="43.54523" lon="6.94665">
        <ele>2.2000000476837</ele>
        <time>2012-03-11T12:38:23.000Z</time>
      </trkpt>
      <trkpt lat="43.54531" lon="6.94704">
        <ele>2.2000000476837</ele>
        <time>2012-03-11T12:38:31.000Z</time>
      </trkpt>
      <trkpt lat="43.54531" lon="6.94744">
        <ele>2</ele>
        <time>2012-03-11T12:38:39.000Z</time>
      </trkpt>
      <trkpt lat="43.54527" lon="6.94756">
        <ele>1.7999999523163</ele>
        <time>2012-03-11T12:38:42.000Z</time>
      </trkpt>
      <trkpt lat="43.54533" lon="6.94763">
        <ele>1.6000000238419</ele>
        <time>2012-03-11T12:38:47.000Z</time>
      </trkpt>
      <trkpt lat="43.54556" lon="6.94752">
        <ele>2</ele>
        <time>2012-03-11T12:38:55.000Z</time>
      </trkpt>
      <trkpt lat="43.54575" lon="6.94741">
        <ele>2</ele>
        <time>2012-03-11T12:39:01.000Z</time>
      </trkpt>
      <trkpt lat="43.54588" lon="6.94743">
        <ele>2</ele>
        <time>2012-03-11T12:39:05.000Z</time>
      </trkpt>
      <trkpt lat="43.54593" lon="6.94748">
        <ele>2</ele>
        <time>2012-03-11T12:39:07.000Z</time>
      </trkpt>
      <trkpt lat="43.54593" lon="6.94773">
        <ele>1.6000000238419</ele>
        <time>2012-03-11T12:39:13.000Z</time>
      </trkpt>
      <trkpt lat="43.5459" lon="6.948">
        <ele>0.80000001192093</ele>
        <time>2012-03-11T12:39:19.000Z</time>
      </trkpt>
      <trkpt lat="43.54588" lon="6.9484">
        <ele>0.20000000298023</ele>
        <time>2012-03-11T12:39:25.000Z</time>
      </trkpt>
      <trkpt lat="43.54587" lon="6.94885">
        <ele>0.60000002384186</ele>
        <time>2012-03-11T12:39:32.000Z</time>
      </trkpt>
      <trkpt lat="43.54585" lon="6.94918">
        <ele>1</ele>
        <time>2012-03-11T12:39:38.000Z</time>
      </trkpt>
      <trkpt lat="43.54584" lon="6.94941">
        <ele>1.2000000476837</ele>
        <time>2012-03-11T12:39:43.000Z</time>
      </trkpt>
      <trkpt lat="43.54575" lon="6.94952">
        <ele>1.3999999761581</ele>
        <time>2012-03-11T12:39:48.000Z</time>
      </trkpt>
      <trkpt lat="43.54561" lon="6.94958">
        <ele>1.2000000476837</ele>
        <time>2012-03-11T12:39:52.000Z</time>
      </trkpt>
      <trkpt lat="43.54533" lon="6.94957">
        <ele>0.80000001192093</ele>
        <time>2012-03-11T12:39:58.000Z</time>
      </trkpt>
      <trkpt lat="43.54501" lon="6.94943">
        <ele>0.40000000596046</ele>
        <time>2012-03-11T12:40:05.000Z</time>
      </trkpt>
      <trkpt lat="43.54472" lon="6.94928">
        <ele>1.2000000476837</ele>
        <time>2012-03-11T12:40:12.000Z</time>
      </trkpt>
      <trkpt lat="43.54453" lon="6.94918">
        <ele>2.2000000476837</ele>
        <time>2012-03-11T12:40:17.000Z</time>
      </trkpt>
      <trkpt lat="43.54433" lon="6.94908">
        <ele>3.2000000476837</ele>
        <time>2012-03-11T12:40:22.000Z</time>
      </trkpt>
      <trkpt lat="43.54403" lon="6.94894">
        <ele>4</ele>
        <time>2012-03-11T12:40:29.000Z</time>
      </trkpt>
      <trkpt lat="43.5438" lon="6.94881">
        <ele>4.4000000953674</ele>
        <time>2012-03-11T12:40:35.000Z</time>
      </trkpt>
      <trkpt lat="43.54376" lon="6.94879">
        <ele>4.4000000953674</ele>
        <time>2012-03-11T12:40:36.000Z</time>
      </trkpt>
      <trkpt lat="43.54356" lon="6.94869">
        <ele>5</ele>
        <time>2012-03-11T12:40:41.000Z</time>
      </trkpt>
      <trkpt lat="43.54325" lon="6.94861">
        <ele>5.8000001907349</ele>
        <time>2012-03-11T12:40:47.000Z</time>
      </trkpt>
      <trkpt lat="43.54315" lon="6.94855">
        <ele>5.5999999046326</ele>
        <time>2012-03-11T12:40:49.000Z</time>
      </trkpt>
      <trkpt lat="43.54295" lon="6.9484">
        <ele>5</ele>
        <time>2012-03-11T12:40:54.000Z</time>
      </trkpt>
      <trkpt lat="43.54287" lon="6.94835">
        <ele>4.8000001907349</ele>
        <time>2012-03-11T12:40:56.000Z</time>
      </trkpt>
      <trkpt lat="43.54265" lon="6.94817">
        <ele>4</ele>
        <time>2012-03-11T12:41:02.000Z</time>
      </trkpt>
      <trkpt lat="43.54256" lon="6.94809">
        <ele>3.7999999523163</ele>
        <time>2012-03-11T12:41:05.000Z</time>
      </trkpt>
      <trkpt lat="43.54232" lon="6.9479">
        <ele>4</ele>
        <time>2012-03-11T12:41:13.000Z</time>
      </trkpt>
      <trkpt lat="43.54209" lon="6.94775">
        <ele>4</ele>
        <time>2012-03-11T12:41:19.000Z</time>
      </trkpt>
      <trkpt lat="43.54186" lon="6.94765">
        <ele>4</ele>
        <time>2012-03-11T12:41:25.000Z</time>
      </trkpt>
      <trkpt lat="43.54172" lon="6.94758">
        <ele>4</ele>
        <time>2012-03-11T12:41:30.000Z</time>
      </trkpt>
      <trkpt lat="43.54152" lon="6.9475">
        <ele>3.5999999046326</ele>
        <time>2012-03-11T12:41:35.000Z</time>
      </trkpt>
      <trkpt lat="43.54114" lon="6.94735">
        <ele>3.2000000476837</ele>
        <time>2012-03-11T12:41:43.000Z</time>
      </trkpt>
      <trkpt lat="43.54083" lon="6.94725">
        <ele>2.7999999523163</ele>
        <time>2012-03-11T12:41:50.000Z</time>
      </trkpt>
      <trkpt lat="43.54058" lon="6.94718">
        <ele>3.5999999046326</ele>
        <time>2012-03-11T12:41:56.000Z</time>
      </trkpt>
      <trkpt lat="43.54025" lon="6.94709">
        <ele>4.5999999046326</ele>
        <time>2012-03-11T12:42:03.000Z</time>
      </trkpt>
      <trkpt lat="43.53993" lon="6.94703">
        <ele>5.1999998092651</ele>
        <time>2012-03-11T12:42:10.000Z</time>
      </trkpt>
      <trkpt lat="43.53962" lon="6.94697">
        <ele>5.4000000953674</ele>
        <time>2012-03-11T12:42:17.000Z</time>
      </trkpt>
      <trkpt lat="43.53924" lon="6.9469">
        <ele>5.1999998092651</ele>
        <time>2012-03-11T12:42:25.000Z</time>
      </trkpt>
      <trkpt lat="43.53903" lon="6.9469">
        <ele>5.1999998092651</ele>
        <time>2012-03-11T12:42:30.000Z</time>
      </trkpt>
      <trkpt lat="43.53876" lon="6.94697">
        <ele>5.4000000953674</ele>
        <time>2012-03-11T12:42:37.000Z</time>
      </trkpt>
      <trkpt lat="43.53868" lon="6.94701">
        <ele>5.4000000953674</ele>
        <time>2012-03-11T12:42:41.000Z</time>
      </trkpt>
      <trkpt lat="43.5386" lon="6.94705">
        <ele>5.4000000953674</ele>
        <time>2012-03-11T12:42:48.000Z</time>
      </trkpt>
      <trkpt lat="43.53855" lon="6.94707">
        <ele>5.4000000953674</ele>
        <time>2012-03-11T12:42:53.000Z</time>
      </trkpt>
      <trkpt lat="43.53849" lon="6.9471">
        <ele>5.5999999046326</ele>
        <time>2012-03-11T12:42:59.000Z</time>
      </trkpt>
      <trkpt lat="43.53846" lon="6.94712">
        <ele>5.5999999046326</ele>
        <time>2012-03-11T12:43:06.000Z</time>
      </trkpt>
      <trkpt lat="43.53843" lon="6.94717">
        <ele>5.5999999046326</ele>
        <time>2012-03-11T12:43:12.000Z</time>
      </trkpt>
      <trkpt lat="43.53836" lon="6.9472">
        <ele>5.5999999046326</ele>
        <time>2012-03-11T12:43:17.000Z</time>
      </trkpt>
      <trkpt lat="43.53824" lon="6.94723">
        <ele>5.5999999046326</ele>
        <time>2012-03-11T12:43:23.000Z</time>
      </trkpt>
      <trkpt lat="43.5381" lon="6.94726">
        <ele>5.5999999046326</ele>
        <time>2012-03-11T12:43:31.000Z</time>
      </trkpt>
      <trkpt lat="43.53802" lon="6.94729">
        <ele>5.5999999046326</ele>
        <time>2012-03-11T12:43:36.000Z</time>
      </trkpt>
      <trkpt lat="43.53792" lon="6.94735">
        <ele>5.4000000953674</ele>
        <time>2012-03-11T12:43:43.000Z</time>
      </trkpt>
      <trkpt lat="43.53775" lon="6.94736">
        <ele>5.4000000953674</ele>
        <time>2012-03-11T12:43:51.000Z</time>
      </trkpt>
      <trkpt lat="43.53764" lon="6.94735">
        <ele>5.1999998092651</ele>
        <time>2012-03-11T12:43:57.000Z</time>
      </trkpt>
      <trkpt lat="43.53754" lon="6.94735">
        <ele>5.1999998092651</ele>
        <time>2012-03-11T12:44:03.000Z</time>
      </trkpt>
      <trkpt lat="43.53742" lon="6.94732">
        <ele>5.4000000953674</ele>
        <time>2012-03-11T12:44:09.000Z</time>
      </trkpt>
      <trkpt lat="43.53728" lon="6.94726">
        <ele>5.8000001907349</ele>
        <time>2012-03-11T12:44:16.000Z</time>
      </trkpt>
      <trkpt lat="43.5372" lon="6.94711">
        <ele>6</ele>
        <time>2012-03-11T12:44:21.000Z</time>
      </trkpt>
      <trkpt lat="43.53712" lon="6.94696">
        <ele>6.1999998092651</ele>
        <time>2012-03-11T12:44:26.000Z</time>
      </trkpt>
      <trkpt lat="43.53703" lon="6.94694">
        <ele>6.1999998092651</ele>
        <time>2012-03-11T12:44:31.000Z</time>
      </trkpt>
      <trkpt lat="43.53695" lon="6.94698">
        <ele>6.4000000953674</ele>
        <time>2012-03-11T12:44:37.000Z</time>
      </trkpt>
      <trkpt lat="43.53693" lon="6.94699">
        <ele>6.4000000953674</ele>
        <time>2012-03-11T12:44:38.000Z</time>
      </trkpt>
      <trkpt lat="43.53684" lon="6.94707">
        <ele>6.5999999046326</ele>
        <time>2012-03-11T12:44:45.000Z</time>
      </trkpt>
      <trkpt lat="43.53679" lon="6.94704">
        <ele>6.5999999046326</ele>
        <time>2012-03-11T12:44:50.000Z</time>
      </trkpt>
      <trkpt lat="43.53678" lon="6.94701">
        <ele>6.5999999046326</ele>
        <time>2012-03-11T12:44:55.000Z</time>
      </trkpt>
      <trkpt lat="43.53677" lon="6.947">
        <ele>6.5999999046326</ele>
        <time>2012-03-11T12:44:56.000Z</time>
      </trkpt>
      <trkpt lat="43.53674" lon="6.94695">
        <ele>6.5999999046326</ele>
        <time>2012-03-11T12:44:59.000Z</time>
      </trkpt>
      <trkpt lat="43.53666" lon="6.94684">
        <ele>6.4000000953674</ele>
        <time>2012-03-11T12:45:06.000Z</time>
      </trkpt>
      <trkpt lat="43.53657" lon="6.94675">
        <ele>6.8000001907349</ele>
        <time>2012-03-11T12:45:12.000Z</time>
      </trkpt>
      <trkpt lat="43.53652" lon="6.94669">
        <ele>7</ele>
        <time>2012-03-11T12:45:16.000Z</time>
      </trkpt>
      <trkpt lat="43.53643" lon="6.94659">
        <ele>7.4000000953674</ele>
        <time>2012-03-11T12:45:23.000Z</time>
      </trkpt>
      <trkpt lat="43.53643" lon="6.94659">
        <ele>7.4000000953674</ele>
        <time>2012-03-11T12:45:24.000Z</time>
      </trkpt>
      <trkpt lat="43.53634" lon="6.94653">
        <ele>7.8000001907349</ele>
        <time>2012-03-11T12:45:32.000Z</time>
      </trkpt>
      <trkpt lat="43.53626" lon="6.94649">
        <ele>8.1999998092651</ele>
        <time>2012-03-11T12:45:38.000Z</time>
      </trkpt>
      <trkpt lat="43.53616" lon="6.94647">
        <ele>8.6000003814697</ele>
        <time>2012-03-11T12:45:45.000Z</time>
      </trkpt>
      <trkpt lat="43.53615" lon="6.94647">
        <ele>8.6000003814697</ele>
        <time>2012-03-11T12:45:47.000Z</time>
      </trkpt>
      <trkpt lat="43.53613" lon="6.94645">
        <ele>8.8000001907349</ele>
        <time>2012-03-11T12:45:56.000Z</time>
      </trkpt>
      <trkpt lat="43.53613" lon="6.94643">
        <ele>8.6000003814697</ele>
        <time>2012-03-11T12:46:05.000Z</time>
      </trkpt>
      <trkpt lat="43.53613" lon="6.94643">
        <ele>8.6000003814697</ele>
        <time>2012-03-11T12:46:07.000Z</time>
      </trkpt>
    </trkseg>
  </trk>
</gpx>